<?xml version="1.0" encoding="UTF-8" standalone="no" ?>
<gpx xmlns="http://www.topografix.com/GPX/1/1" xmlns:xsi="http://www.w3.org/2001/XMLSchema-instance" xsi:schemaLocation="http://www.topografix.com/GPX/1/1 http://www.topografix.com/GPX/1/1/gpx.xsd" version="1.1" creator="VisuGPX - https://www.visugpx.com">
  <metadata>
    <name>Pic de Montestaure</name>
    <desc><![CDATA[Pic de Montestaure]]></desc>
  </metadata>
  <trk>
    <name><![CDATA[Randocourse]]></name>
    <cmt><![CDATA[Pic de montastaure]]></cmt>
    <trkseg>
      <trkpt lat="42.71019" lon="1.42581">
        <ele>1163.3325195312</ele>
        <time>2011-06-11T06:59:24Z</time>
      </trkpt>
      <trkpt lat="42.71018" lon="1.42578">
        <ele>1168.6198730469</ele>
        <time>2011-06-11T06:59:31Z</time>
      </trkpt>
      <trkpt lat="42.71016" lon="1.42572">
        <ele>1172.9458007812</ele>
        <time>2011-06-11T06:59:36Z</time>
      </trkpt>
      <trkpt lat="42.71015" lon="1.42585">
        <ele>1173.4265136719</ele>
        <time>2011-06-11T06:59:43Z</time>
      </trkpt>
      <trkpt lat="42.71015" lon="1.42583">
        <ele>1173.9069824219</ele>
        <time>2011-06-11T06:59:47Z</time>
      </trkpt>
      <trkpt lat="42.71014" lon="1.42579">
        <ele>1173.9069824219</ele>
        <time>2011-06-11T06:59:49Z</time>
      </trkpt>
      <trkpt lat="42.71014" lon="1.42566">
        <ele>1178.2329101562</ele>
        <time>2011-06-11T06:59:57Z</time>
      </trkpt>
      <trkpt lat="42.71016" lon="1.42558">
        <ele>1182.0783691406</ele>
        <time>2011-06-11T07:00:04Z</time>
      </trkpt>
      <trkpt lat="42.71024" lon="1.4256">
        <ele>1179.6748046875</ele>
        <time>2011-06-11T07:00:11Z</time>
      </trkpt>
      <trkpt lat="42.71033" lon="1.42567">
        <ele>1177.7521972656</ele>
        <time>2011-06-11T07:00:18Z</time>
      </trkpt>
      <trkpt lat="42.71038" lon="1.42572">
        <ele>1177.2717285156</ele>
        <time>2011-06-11T07:00:23Z</time>
      </trkpt>
      <trkpt lat="42.71043" lon="1.42581">
        <ele>1179.6748046875</ele>
        <time>2011-06-11T07:00:29Z</time>
      </trkpt>
      <trkpt lat="42.71045" lon="1.42583">
        <ele>1179.6748046875</ele>
        <time>2011-06-11T07:00:31Z</time>
      </trkpt>
      <trkpt lat="42.71043" lon="1.42581">
        <ele>1179.6748046875</ele>
        <time>2011-06-11T07:00:37Z</time>
      </trkpt>
      <trkpt lat="42.71042" lon="1.42579">
        <ele>1183.5202636719</ele>
        <time>2011-06-11T07:00:42Z</time>
      </trkpt>
      <trkpt lat="42.71044" lon="1.42582">
        <ele>1187.3654785156</ele>
        <time>2011-06-11T07:00:48Z</time>
      </trkpt>
      <trkpt lat="42.71049" lon="1.42588">
        <ele>1188.3269042969</ele>
        <time>2011-06-11T07:00:54Z</time>
      </trkpt>
      <trkpt lat="42.71053" lon="1.42598">
        <ele>1189.2880859375</ele>
        <time>2011-06-11T07:01:01Z</time>
      </trkpt>
      <trkpt lat="42.71054" lon="1.42598">
        <ele>1189.2880859375</ele>
        <time>2011-06-11T07:01:03Z</time>
      </trkpt>
      <trkpt lat="42.71054" lon="1.42588">
        <ele>1189.7687988281</ele>
        <time>2011-06-11T07:01:09Z</time>
      </trkpt>
      <trkpt lat="42.71053" lon="1.42585">
        <ele>1189.2880859375</ele>
        <time>2011-06-11T07:01:10Z</time>
      </trkpt>
      <trkpt lat="42.7105" lon="1.42572">
        <ele>1193.1333007812</ele>
        <time>2011-06-11T07:01:16Z</time>
      </trkpt>
      <trkpt lat="42.71048" lon="1.42563">
        <ele>1204.1887207031</ele>
        <time>2011-06-11T07:01:22Z</time>
      </trkpt>
      <trkpt lat="42.71045" lon="1.42553">
        <ele>1207.5532226562</ele>
        <time>2011-06-11T07:01:28Z</time>
      </trkpt>
      <trkpt lat="42.71044" lon="1.42545">
        <ele>1217.6469726562</ele>
        <time>2011-06-11T07:01:34Z</time>
      </trkpt>
      <trkpt lat="42.71041" lon="1.42534">
        <ele>1213.8017578125</ele>
        <time>2011-06-11T07:01:41Z</time>
      </trkpt>
      <trkpt lat="42.71038" lon="1.42527">
        <ele>1205.1499023438</ele>
        <time>2011-06-11T07:01:46Z</time>
      </trkpt>
      <trkpt lat="42.71032" lon="1.4252">
        <ele>1203.2272949219</ele>
        <time>2011-06-11T07:01:53Z</time>
      </trkpt>
      <trkpt lat="42.71026" lon="1.42504">
        <ele>1197.4594726562</ele>
        <time>2011-06-11T07:02:02Z</time>
      </trkpt>
      <trkpt lat="42.71022" lon="1.42489">
        <ele>1195.5366210938</ele>
        <time>2011-06-11T07:02:10Z</time>
      </trkpt>
      <trkpt lat="42.71021" lon="1.42483">
        <ele>1194.0947265625</ele>
        <time>2011-06-11T07:02:17Z</time>
      </trkpt>
      <trkpt lat="42.71016" lon="1.42495">
        <ele>1202.2658691406</ele>
        <time>2011-06-11T07:02:41Z</time>
      </trkpt>
      <trkpt lat="42.71013" lon="1.42483">
        <ele>1195.0559082031</ele>
        <time>2011-06-11T07:02:47Z</time>
      </trkpt>
      <trkpt lat="42.71008" lon="1.42469">
        <ele>1187.8461914062</ele>
        <time>2011-06-11T07:02:55Z</time>
      </trkpt>
      <trkpt lat="42.71006" lon="1.4246">
        <ele>1182.5590820312</ele>
        <time>2011-06-11T07:03:03Z</time>
      </trkpt>
      <trkpt lat="42.71004" lon="1.42448">
        <ele>1179.6748046875</ele>
        <time>2011-06-11T07:03:08Z</time>
      </trkpt>
      <trkpt lat="42.71001" lon="1.42438">
        <ele>1184.0009765625</ele>
        <time>2011-06-11T07:03:14Z</time>
      </trkpt>
      <trkpt lat="42.71" lon="1.42436">
        <ele>1183.5202636719</ele>
        <time>2011-06-11T07:03:15Z</time>
      </trkpt>
      <trkpt lat="42.70995" lon="1.42424">
        <ele>1187.3654785156</ele>
        <time>2011-06-11T07:03:21Z</time>
      </trkpt>
      <trkpt lat="42.70993" lon="1.42415">
        <ele>1190.2495117188</ele>
        <time>2011-06-11T07:03:26Z</time>
      </trkpt>
      <trkpt lat="42.70988" lon="1.42402">
        <ele>1189.7687988281</ele>
        <time>2011-06-11T07:03:33Z</time>
      </trkpt>
      <trkpt lat="42.70985" lon="1.4239">
        <ele>1188.3269042969</ele>
        <time>2011-06-11T07:03:39Z</time>
      </trkpt>
      <trkpt lat="42.70983" lon="1.42375">
        <ele>1189.7687988281</ele>
        <time>2011-06-11T07:03:46Z</time>
      </trkpt>
      <trkpt lat="42.70981" lon="1.42361">
        <ele>1189.2880859375</ele>
        <time>2011-06-11T07:03:53Z</time>
      </trkpt>
      <trkpt lat="42.70978" lon="1.4235">
        <ele>1188.8076171875</ele>
        <time>2011-06-11T07:03:58Z</time>
      </trkpt>
      <trkpt lat="42.70969" lon="1.42333">
        <ele>1191.69140625</ele>
        <time>2011-06-11T07:04:05Z</time>
      </trkpt>
      <trkpt lat="42.70968" lon="1.4233">
        <ele>1193.1333007812</ele>
        <time>2011-06-11T07:04:06Z</time>
      </trkpt>
      <trkpt lat="42.70962" lon="1.4231">
        <ele>1193.6140136719</ele>
        <time>2011-06-11T07:04:12Z</time>
      </trkpt>
      <trkpt lat="42.70961" lon="1.42297">
        <ele>1193.6140136719</ele>
        <time>2011-06-11T07:04:16Z</time>
      </trkpt>
      <trkpt lat="42.7096" lon="1.42279">
        <ele>1191.69140625</ele>
        <time>2011-06-11T07:04:21Z</time>
      </trkpt>
      <trkpt lat="42.70959" lon="1.42262">
        <ele>1192.6528320312</ele>
        <time>2011-06-11T07:04:26Z</time>
      </trkpt>
      <trkpt lat="42.70957" lon="1.42244">
        <ele>1194.0947265625</ele>
        <time>2011-06-11T07:04:32Z</time>
      </trkpt>
      <trkpt lat="42.70954" lon="1.4223">
        <ele>1196.4982910156</ele>
        <time>2011-06-11T07:04:37Z</time>
      </trkpt>
      <trkpt lat="42.70953" lon="1.42214">
        <ele>1196.9787597656</ele>
        <time>2011-06-11T07:04:42Z</time>
      </trkpt>
      <trkpt lat="42.70952" lon="1.422">
        <ele>1202.7465820312</ele>
        <time>2011-06-11T07:04:46Z</time>
      </trkpt>
      <trkpt lat="42.70951" lon="1.42192">
        <ele>1209.4758300781</ele>
        <time>2011-06-11T07:04:49Z</time>
      </trkpt>
      <trkpt lat="42.70949" lon="1.42181">
        <ele>1208.0339355469</ele>
        <time>2011-06-11T07:04:54Z</time>
      </trkpt>
      <trkpt lat="42.70946" lon="1.4217">
        <ele>1208.9951171875</ele>
        <time>2011-06-11T07:05:01Z</time>
      </trkpt>
      <trkpt lat="42.70943" lon="1.4216">
        <ele>1206.1110839844</ele>
        <time>2011-06-11T07:05:08Z</time>
      </trkpt>
      <trkpt lat="42.70942" lon="1.42154">
        <ele>1201.7854003906</ele>
        <time>2011-06-11T07:05:13Z</time>
      </trkpt>
      <trkpt lat="42.7094" lon="1.42148">
        <ele>1200.8239746094</ele>
        <time>2011-06-11T07:05:18Z</time>
      </trkpt>
      <trkpt lat="42.7094" lon="1.42146">
        <ele>1202.2658691406</ele>
        <time>2011-06-11T07:05:19Z</time>
      </trkpt>
      <trkpt lat="42.7094" lon="1.42143">
        <ele>1206.1110839844</ele>
        <time>2011-06-11T07:05:21Z</time>
      </trkpt>
      <trkpt lat="42.70939" lon="1.42135">
        <ele>1203.7080078125</ele>
        <time>2011-06-11T07:05:26Z</time>
      </trkpt>
      <trkpt lat="42.70937" lon="1.42127">
        <ele>1209.9562988281</ele>
        <time>2011-06-11T07:05:32Z</time>
      </trkpt>
      <trkpt lat="42.70936" lon="1.42124">
        <ele>1205.6306152344</ele>
        <time>2011-06-11T07:05:35Z</time>
      </trkpt>
      <trkpt lat="42.70933" lon="1.42121">
        <ele>1201.7854003906</ele>
        <time>2011-06-11T07:05:40Z</time>
      </trkpt>
      <trkpt lat="42.70931" lon="1.42116">
        <ele>1202.2658691406</ele>
        <time>2011-06-11T07:05:46Z</time>
      </trkpt>
      <trkpt lat="42.70929" lon="1.42108">
        <ele>1202.7465820312</ele>
        <time>2011-06-11T07:05:52Z</time>
      </trkpt>
      <trkpt lat="42.70929" lon="1.42108">
        <ele>1205.1499023438</ele>
        <time>2011-06-11T07:05:53Z</time>
      </trkpt>
      <trkpt lat="42.7093" lon="1.42097">
        <ele>1207.0725097656</ele>
        <time>2011-06-11T07:06:01Z</time>
      </trkpt>
      <trkpt lat="42.70929" lon="1.42091">
        <ele>1209.9562988281</ele>
        <time>2011-06-11T07:06:07Z</time>
      </trkpt>
      <trkpt lat="42.70932" lon="1.42088">
        <ele>1212.8405761719</ele>
        <time>2011-06-11T07:06:12Z</time>
      </trkpt>
      <trkpt lat="42.70935" lon="1.42094">
        <ele>1208.9951171875</ele>
        <time>2011-06-11T07:06:17Z</time>
      </trkpt>
      <trkpt lat="42.70938" lon="1.42099">
        <ele>1198.9013671875</ele>
        <time>2011-06-11T07:06:23Z</time>
      </trkpt>
      <trkpt lat="42.70939" lon="1.42101">
        <ele>1198.9013671875</ele>
        <time>2011-06-11T07:06:24Z</time>
      </trkpt>
      <trkpt lat="42.70943" lon="1.42106">
        <ele>1202.2658691406</ele>
        <time>2011-06-11T07:06:28Z</time>
      </trkpt>
      <trkpt lat="42.70948" lon="1.42112">
        <ele>1205.1499023438</ele>
        <time>2011-06-11T07:06:32Z</time>
      </trkpt>
      <trkpt lat="42.70953" lon="1.42119">
        <ele>1205.6306152344</ele>
        <time>2011-06-11T07:06:38Z</time>
      </trkpt>
      <trkpt lat="42.70955" lon="1.42124">
        <ele>1204.6691894531</ele>
        <time>2011-06-11T07:06:45Z</time>
      </trkpt>
      <trkpt lat="42.70959" lon="1.42133">
        <ele>1227.7407226562</ele>
        <time>2011-06-11T07:07:01Z</time>
      </trkpt>
      <trkpt lat="42.70957" lon="1.42136">
        <ele>1241.19921875</ele>
        <time>2011-06-11T07:07:11Z</time>
      </trkpt>
      <trkpt lat="42.70957" lon="1.42135">
        <ele>1242.6413574219</ele>
        <time>2011-06-11T07:07:16Z</time>
      </trkpt>
      <trkpt lat="42.7096" lon="1.42138">
        <ele>1234.4702148438</ele>
        <time>2011-06-11T07:07:23Z</time>
      </trkpt>
      <trkpt lat="42.70963" lon="1.42141">
        <ele>1230.625</ele>
        <time>2011-06-11T07:07:28Z</time>
      </trkpt>
      <trkpt lat="42.70965" lon="1.42143">
        <ele>1226.7795410156</ele>
        <time>2011-06-11T07:07:33Z</time>
      </trkpt>
      <trkpt lat="42.70967" lon="1.42148">
        <ele>1223.4150390625</ele>
        <time>2011-06-11T07:07:38Z</time>
      </trkpt>
      <trkpt lat="42.70971" lon="1.42154">
        <ele>1216.6857910156</ele>
        <time>2011-06-11T07:07:42Z</time>
      </trkpt>
      <trkpt lat="42.70974" lon="1.42165">
        <ele>1213.3212890625</ele>
        <time>2011-06-11T07:07:49Z</time>
      </trkpt>
      <trkpt lat="42.70976" lon="1.4218">
        <ele>1213.8017578125</ele>
        <time>2011-06-11T07:07:56Z</time>
      </trkpt>
      <trkpt lat="42.70977" lon="1.42183">
        <ele>1212.8405761719</ele>
        <time>2011-06-11T07:07:58Z</time>
      </trkpt>
      <trkpt lat="42.70978" lon="1.42191">
        <ele>1213.8017578125</ele>
        <time>2011-06-11T07:08:03Z</time>
      </trkpt>
      <trkpt lat="42.70979" lon="1.42193">
        <ele>1213.3212890625</ele>
        <time>2011-06-11T07:08:04Z</time>
      </trkpt>
      <trkpt lat="42.70982" lon="1.42205">
        <ele>1216.205078125</ele>
        <time>2011-06-11T07:08:10Z</time>
      </trkpt>
      <trkpt lat="42.70983" lon="1.42206">
        <ele>1216.205078125</ele>
        <time>2011-06-11T07:08:11Z</time>
      </trkpt>
      <trkpt lat="42.70985" lon="1.42218">
        <ele>1215.2438964844</ele>
        <time>2011-06-11T07:08:17Z</time>
      </trkpt>
      <trkpt lat="42.70985" lon="1.42232">
        <ele>1214.7631835938</ele>
        <time>2011-06-11T07:08:24Z</time>
      </trkpt>
      <trkpt lat="42.70986" lon="1.42246">
        <ele>1216.205078125</ele>
        <time>2011-06-11T07:08:31Z</time>
      </trkpt>
      <trkpt lat="42.70987" lon="1.42256">
        <ele>1216.6857910156</ele>
        <time>2011-06-11T07:08:39Z</time>
      </trkpt>
      <trkpt lat="42.70989" lon="1.42267">
        <ele>1212.3598632812</ele>
        <time>2011-06-11T07:08:45Z</time>
      </trkpt>
      <trkpt lat="42.70992" lon="1.42278">
        <ele>1208.5144042969</ele>
        <time>2011-06-11T07:08:51Z</time>
      </trkpt>
      <trkpt lat="42.70995" lon="1.42287">
        <ele>1210.4370117188</ele>
        <time>2011-06-11T07:08:57Z</time>
      </trkpt>
      <trkpt lat="42.71001" lon="1.42297">
        <ele>1212.8405761719</ele>
        <time>2011-06-11T07:09:05Z</time>
      </trkpt>
      <trkpt lat="42.71006" lon="1.42301">
        <ele>1214.7631835938</ele>
        <time>2011-06-11T07:09:10Z</time>
      </trkpt>
      <trkpt lat="42.71012" lon="1.42309">
        <ele>1217.1665039062</ele>
        <time>2011-06-11T07:09:17Z</time>
      </trkpt>
      <trkpt lat="42.71018" lon="1.42312">
        <ele>1218.1276855469</ele>
        <time>2011-06-11T07:09:22Z</time>
      </trkpt>
      <trkpt lat="42.71018" lon="1.4231">
        <ele>1220.5310058594</ele>
        <time>2011-06-11T07:09:28Z</time>
      </trkpt>
      <trkpt lat="42.71015" lon="1.42306">
        <ele>1223.4150390625</ele>
        <time>2011-06-11T07:09:33Z</time>
      </trkpt>
      <trkpt lat="42.71011" lon="1.42299">
        <ele>1224.8569335938</ele>
        <time>2011-06-11T07:09:39Z</time>
      </trkpt>
      <trkpt lat="42.7101" lon="1.42298">
        <ele>1224.8569335938</ele>
        <time>2011-06-11T07:09:40Z</time>
      </trkpt>
      <trkpt lat="42.71006" lon="1.42287">
        <ele>1225.8181152344</ele>
        <time>2011-06-11T07:09:48Z</time>
      </trkpt>
      <trkpt lat="42.71005" lon="1.42286">
        <ele>1225.8181152344</ele>
        <time>2011-06-11T07:09:49Z</time>
      </trkpt>
      <trkpt lat="42.71004" lon="1.42279">
        <ele>1226.7795410156</ele>
        <time>2011-06-11T07:09:54Z</time>
      </trkpt>
      <trkpt lat="42.71005" lon="1.4227">
        <ele>1228.2216796875</ele>
        <time>2011-06-11T07:10:00Z</time>
      </trkpt>
      <trkpt lat="42.71005" lon="1.42265">
        <ele>1228.2216796875</ele>
        <time>2011-06-11T07:10:03Z</time>
      </trkpt>
      <trkpt lat="42.71006" lon="1.4226">
        <ele>1229.1828613281</ele>
        <time>2011-06-11T07:10:07Z</time>
      </trkpt>
      <trkpt lat="42.71005" lon="1.42255">
        <ele>1232.5476074219</ele>
        <time>2011-06-11T07:10:11Z</time>
      </trkpt>
      <trkpt lat="42.71005" lon="1.42247">
        <ele>1235.4313964844</ele>
        <time>2011-06-11T07:10:17Z</time>
      </trkpt>
      <trkpt lat="42.71004" lon="1.42245">
        <ele>1235.4313964844</ele>
        <time>2011-06-11T07:10:18Z</time>
      </trkpt>
      <trkpt lat="42.71006" lon="1.42237">
        <ele>1238.3154296875</ele>
        <time>2011-06-11T07:10:25Z</time>
      </trkpt>
      <trkpt lat="42.71007" lon="1.42231">
        <ele>1237.3540039062</ele>
        <time>2011-06-11T07:10:30Z</time>
      </trkpt>
      <trkpt lat="42.71008" lon="1.42223">
        <ele>1238.3154296875</ele>
        <time>2011-06-11T07:10:37Z</time>
      </trkpt>
      <trkpt lat="42.7101" lon="1.42218">
        <ele>1239.7573242188</ele>
        <time>2011-06-11T07:10:44Z</time>
      </trkpt>
      <trkpt lat="42.71012" lon="1.42215">
        <ele>1240.2380371094</ele>
        <time>2011-06-11T07:10:50Z</time>
      </trkpt>
      <trkpt lat="42.71013" lon="1.42212">
        <ele>1244.5639648438</ele>
        <time>2011-06-11T07:10:55Z</time>
      </trkpt>
      <trkpt lat="42.71016" lon="1.42209">
        <ele>1247.4479980469</ele>
        <time>2011-06-11T07:11:01Z</time>
      </trkpt>
      <trkpt lat="42.71017" lon="1.42204">
        <ele>1249.3706054688</ele>
        <time>2011-06-11T07:11:07Z</time>
      </trkpt>
      <trkpt lat="42.71019" lon="1.42197">
        <ele>1253.6965332031</ele>
        <time>2011-06-11T07:11:16Z</time>
      </trkpt>
      <trkpt lat="42.71019" lon="1.42193">
        <ele>1255.1384277344</ele>
        <time>2011-06-11T07:11:21Z</time>
      </trkpt>
      <trkpt lat="42.71021" lon="1.42188">
        <ele>1256.099609375</ele>
        <time>2011-06-11T07:11:27Z</time>
      </trkpt>
      <trkpt lat="42.71021" lon="1.42183">
        <ele>1258.0224609375</ele>
        <time>2011-06-11T07:11:33Z</time>
      </trkpt>
      <trkpt lat="42.71021" lon="1.42178">
        <ele>1260.9064941406</ele>
        <time>2011-06-11T07:11:38Z</time>
      </trkpt>
      <trkpt lat="42.71022" lon="1.42176">
        <ele>1262.8291015625</ele>
        <time>2011-06-11T07:11:42Z</time>
      </trkpt>
      <trkpt lat="42.71023" lon="1.42172">
        <ele>1262.8291015625</ele>
        <time>2011-06-11T07:11:46Z</time>
      </trkpt>
      <trkpt lat="42.71022" lon="1.42167">
        <ele>1264.2709960938</ele>
        <time>2011-06-11T07:11:50Z</time>
      </trkpt>
      <trkpt lat="42.71023" lon="1.42161">
        <ele>1266.1936035156</ele>
        <time>2011-06-11T07:11:57Z</time>
      </trkpt>
      <trkpt lat="42.71025" lon="1.4216">
        <ele>1267.6354980469</ele>
        <time>2011-06-11T07:12:01Z</time>
      </trkpt>
      <trkpt lat="42.71028" lon="1.42156">
        <ele>1270.0388183594</ele>
        <time>2011-06-11T07:12:07Z</time>
      </trkpt>
      <trkpt lat="42.71029" lon="1.42152">
        <ele>1272.4421386719</ele>
        <time>2011-06-11T07:12:12Z</time>
      </trkpt>
      <trkpt lat="42.71029" lon="1.42149">
        <ele>1273.4035644531</ele>
        <time>2011-06-11T07:12:16Z</time>
      </trkpt>
      <trkpt lat="42.71029" lon="1.42145">
        <ele>1275.3259277344</ele>
        <time>2011-06-11T07:12:21Z</time>
      </trkpt>
      <trkpt lat="42.71029" lon="1.42142">
        <ele>1276.7683105469</ele>
        <time>2011-06-11T07:12:25Z</time>
      </trkpt>
      <trkpt lat="42.71031" lon="1.42136">
        <ele>1275.3259277344</ele>
        <time>2011-06-11T07:12:32Z</time>
      </trkpt>
      <trkpt lat="42.71032" lon="1.42132">
        <ele>1275.806640625</ele>
        <time>2011-06-11T07:12:37Z</time>
      </trkpt>
      <trkpt lat="42.71032" lon="1.42124">
        <ele>1276.2875976562</ele>
        <time>2011-06-11T07:12:43Z</time>
      </trkpt>
      <trkpt lat="42.71031" lon="1.42119">
        <ele>1279.6520996094</ele>
        <time>2011-06-11T07:12:48Z</time>
      </trkpt>
      <trkpt lat="42.71032" lon="1.42114">
        <ele>1279.6520996094</ele>
        <time>2011-06-11T07:12:52Z</time>
      </trkpt>
      <trkpt lat="42.71032" lon="1.4211">
        <ele>1277.7294921875</ele>
        <time>2011-06-11T07:12:57Z</time>
      </trkpt>
      <trkpt lat="42.71032" lon="1.42106">
        <ele>1277.7294921875</ele>
        <time>2011-06-11T07:13:02Z</time>
      </trkpt>
      <trkpt lat="42.71032" lon="1.421">
        <ele>1277.7294921875</ele>
        <time>2011-06-11T07:13:07Z</time>
      </trkpt>
      <trkpt lat="42.71033" lon="1.42093">
        <ele>1277.2490234375</ele>
        <time>2011-06-11T07:13:13Z</time>
      </trkpt>
      <trkpt lat="42.71034" lon="1.42087">
        <ele>1278.6909179688</ele>
        <time>2011-06-11T07:13:19Z</time>
      </trkpt>
      <trkpt lat="42.71035" lon="1.42081">
        <ele>1281.5747070312</ele>
        <time>2011-06-11T07:13:25Z</time>
      </trkpt>
      <trkpt lat="42.71036" lon="1.42076">
        <ele>1283.4973144531</ele>
        <time>2011-06-11T07:13:31Z</time>
      </trkpt>
      <trkpt lat="42.71038" lon="1.42068">
        <ele>1282.5361328125</ele>
        <time>2011-06-11T07:13:37Z</time>
      </trkpt>
      <trkpt lat="42.71038" lon="1.42059">
        <ele>1283.9780273438</ele>
        <time>2011-06-11T07:13:44Z</time>
      </trkpt>
      <trkpt lat="42.7104" lon="1.42055">
        <ele>1284.4587402344</ele>
        <time>2011-06-11T07:13:49Z</time>
      </trkpt>
      <trkpt lat="42.71041" lon="1.42048">
        <ele>1286.8618164062</ele>
        <time>2011-06-11T07:13:56Z</time>
      </trkpt>
      <trkpt lat="42.71043" lon="1.4204">
        <ele>1289.2651367188</ele>
        <time>2011-06-11T07:14:04Z</time>
      </trkpt>
      <trkpt lat="42.71045" lon="1.42034">
        <ele>1289.7458496094</ele>
        <time>2011-06-11T07:14:09Z</time>
      </trkpt>
      <trkpt lat="42.71047" lon="1.4203">
        <ele>1289.7458496094</ele>
        <time>2011-06-11T07:14:15Z</time>
      </trkpt>
      <trkpt lat="42.71049" lon="1.42024">
        <ele>1291.1877441406</ele>
        <time>2011-06-11T07:14:21Z</time>
      </trkpt>
      <trkpt lat="42.71051" lon="1.42017">
        <ele>1293.1105957031</ele>
        <time>2011-06-11T07:14:28Z</time>
      </trkpt>
      <trkpt lat="42.71053" lon="1.4201">
        <ele>1294.0720214844</ele>
        <time>2011-06-11T07:14:34Z</time>
      </trkpt>
      <trkpt lat="42.71053" lon="1.42002">
        <ele>1294.5524902344</ele>
        <time>2011-06-11T07:14:41Z</time>
      </trkpt>
      <trkpt lat="42.71054" lon="1.41997">
        <ele>1296.9558105469</ele>
        <time>2011-06-11T07:14:45Z</time>
      </trkpt>
      <trkpt lat="42.71056" lon="1.4199">
        <ele>1298.3977050781</ele>
        <time>2011-06-11T07:14:51Z</time>
      </trkpt>
      <trkpt lat="42.71058" lon="1.41987">
        <ele>1300.8010253906</ele>
        <time>2011-06-11T07:14:56Z</time>
      </trkpt>
      <trkpt lat="42.7106" lon="1.41982">
        <ele>1302.7236328125</ele>
        <time>2011-06-11T07:15:02Z</time>
      </trkpt>
      <trkpt lat="42.71061" lon="1.41979">
        <ele>1305.126953125</ele>
        <time>2011-06-11T07:15:07Z</time>
      </trkpt>
      <trkpt lat="42.71063" lon="1.41972">
        <ele>1303.6850585938</ele>
        <time>2011-06-11T07:15:12Z</time>
      </trkpt>
      <trkpt lat="42.71065" lon="1.41965">
        <ele>1306.5688476562</ele>
        <time>2011-06-11T07:15:18Z</time>
      </trkpt>
      <trkpt lat="42.71066" lon="1.4196">
        <ele>1308.0112304688</ele>
        <time>2011-06-11T07:15:23Z</time>
      </trkpt>
      <trkpt lat="42.71067" lon="1.41953">
        <ele>1309.453125</ele>
        <time>2011-06-11T07:15:30Z</time>
      </trkpt>
      <trkpt lat="42.71068" lon="1.41949">
        <ele>1310.4143066406</ele>
        <time>2011-06-11T07:15:35Z</time>
      </trkpt>
      <trkpt lat="42.7107" lon="1.41944">
        <ele>1311.3757324219</ele>
        <time>2011-06-11T07:15:41Z</time>
      </trkpt>
      <trkpt lat="42.7107" lon="1.41936">
        <ele>1310.8950195312</ele>
        <time>2011-06-11T07:15:47Z</time>
      </trkpt>
      <trkpt lat="42.71071" lon="1.41927">
        <ele>1312.3369140625</ele>
        <time>2011-06-11T07:15:54Z</time>
      </trkpt>
      <trkpt lat="42.71072" lon="1.4192">
        <ele>1313.7788085938</ele>
        <time>2011-06-11T07:16:00Z</time>
      </trkpt>
      <trkpt lat="42.71072" lon="1.41914">
        <ele>1319.546875</ele>
        <time>2011-06-11T07:16:07Z</time>
      </trkpt>
      <trkpt lat="42.71071" lon="1.41908">
        <ele>1321.9499511719</ele>
        <time>2011-06-11T07:16:12Z</time>
      </trkpt>
      <trkpt lat="42.71072" lon="1.41902">
        <ele>1322.9113769531</ele>
        <time>2011-06-11T07:16:19Z</time>
      </trkpt>
      <trkpt lat="42.71074" lon="1.41897">
        <ele>1323.3920898438</ele>
        <time>2011-06-11T07:16:25Z</time>
      </trkpt>
      <trkpt lat="42.71075" lon="1.41893">
        <ele>1322.4306640625</ele>
        <time>2011-06-11T07:16:30Z</time>
      </trkpt>
      <trkpt lat="42.71079" lon="1.41891">
        <ele>1322.9113769531</ele>
        <time>2011-06-11T07:16:36Z</time>
      </trkpt>
      <trkpt lat="42.71081" lon="1.41888">
        <ele>1323.3920898438</ele>
        <time>2011-06-11T07:16:41Z</time>
      </trkpt>
      <trkpt lat="42.71083" lon="1.41882">
        <ele>1323.8725585938</ele>
        <time>2011-06-11T07:16:48Z</time>
      </trkpt>
      <trkpt lat="42.71085" lon="1.41878">
        <ele>1323.3920898438</ele>
        <time>2011-06-11T07:16:55Z</time>
      </trkpt>
      <trkpt lat="42.71089" lon="1.41871">
        <ele>1324.353515625</ele>
        <time>2011-06-11T07:17:04Z</time>
      </trkpt>
      <trkpt lat="42.71091" lon="1.41866">
        <ele>1325.3146972656</ele>
        <time>2011-06-11T07:17:11Z</time>
      </trkpt>
      <trkpt lat="42.71093" lon="1.41859">
        <ele>1325.3146972656</ele>
        <time>2011-06-11T07:17:18Z</time>
      </trkpt>
      <trkpt lat="42.71095" lon="1.41852">
        <ele>1328.1987304688</ele>
        <time>2011-06-11T07:17:24Z</time>
      </trkpt>
      <trkpt lat="42.71097" lon="1.41845">
        <ele>1331.5632324219</ele>
        <time>2011-06-11T07:17:30Z</time>
      </trkpt>
      <trkpt lat="42.71099" lon="1.41839">
        <ele>1332.0439453125</ele>
        <time>2011-06-11T07:17:35Z</time>
      </trkpt>
      <trkpt lat="42.71101" lon="1.41834">
        <ele>1332.5246582031</ele>
        <time>2011-06-11T07:17:42Z</time>
      </trkpt>
      <trkpt lat="42.71104" lon="1.41828">
        <ele>1334.447265625</ele>
        <time>2011-06-11T07:17:48Z</time>
      </trkpt>
      <trkpt lat="42.71106" lon="1.41822">
        <ele>1336.8503417969</ele>
        <time>2011-06-11T07:17:54Z</time>
      </trkpt>
      <trkpt lat="42.71108" lon="1.41816">
        <ele>1337.3310546875</ele>
        <time>2011-06-11T07:18:00Z</time>
      </trkpt>
      <trkpt lat="42.7111" lon="1.41809">
        <ele>1339.2536621094</ele>
        <time>2011-06-11T07:18:06Z</time>
      </trkpt>
      <trkpt lat="42.71111" lon="1.41805">
        <ele>1339.734375</ele>
        <time>2011-06-11T07:18:11Z</time>
      </trkpt>
      <trkpt lat="42.71112" lon="1.41799">
        <ele>1340.2153320312</ele>
        <time>2011-06-11T07:18:17Z</time>
      </trkpt>
      <trkpt lat="42.71114" lon="1.41792">
        <ele>1340.6958007812</ele>
        <time>2011-06-11T07:18:24Z</time>
      </trkpt>
      <trkpt lat="42.71115" lon="1.41786">
        <ele>1341.1765136719</ele>
        <time>2011-06-11T07:18:30Z</time>
      </trkpt>
      <trkpt lat="42.71119" lon="1.41778">
        <ele>1345.9831542969</ele>
        <time>2011-06-11T07:18:37Z</time>
      </trkpt>
      <trkpt lat="42.7112" lon="1.41769">
        <ele>1347.9057617188</ele>
        <time>2011-06-11T07:18:44Z</time>
      </trkpt>
      <trkpt lat="42.71122" lon="1.41764">
        <ele>1346.9443359375</ele>
        <time>2011-06-11T07:18:49Z</time>
      </trkpt>
      <trkpt lat="42.71125" lon="1.41755">
        <ele>1350.7895507812</ele>
        <time>2011-06-11T07:18:56Z</time>
      </trkpt>
      <trkpt lat="42.71127" lon="1.41747">
        <ele>1353.1928710938</ele>
        <time>2011-06-11T07:19:02Z</time>
      </trkpt>
      <trkpt lat="42.7113" lon="1.41739">
        <ele>1353.6735839844</ele>
        <time>2011-06-11T07:19:09Z</time>
      </trkpt>
      <trkpt lat="42.71134" lon="1.41732">
        <ele>1357.0383300781</ele>
        <time>2011-06-11T07:19:16Z</time>
      </trkpt>
      <trkpt lat="42.71138" lon="1.41724">
        <ele>1358.9609375</ele>
        <time>2011-06-11T07:19:23Z</time>
      </trkpt>
      <trkpt lat="42.71139" lon="1.41717">
        <ele>1360.4028320312</ele>
        <time>2011-06-11T07:19:29Z</time>
      </trkpt>
      <trkpt lat="42.71141" lon="1.41709">
        <ele>1361.8449707031</ele>
        <time>2011-06-11T07:19:36Z</time>
      </trkpt>
      <trkpt lat="42.71142" lon="1.41702">
        <ele>1362.3254394531</ele>
        <time>2011-06-11T07:19:42Z</time>
      </trkpt>
      <trkpt lat="42.71143" lon="1.41695">
        <ele>1362.3254394531</ele>
        <time>2011-06-11T07:19:47Z</time>
      </trkpt>
      <trkpt lat="42.71145" lon="1.41682">
        <ele>1363.7673339844</ele>
        <time>2011-06-11T07:19:54Z</time>
      </trkpt>
      <trkpt lat="42.71144" lon="1.41681">
        <ele>1365.2094726562</ele>
        <time>2011-06-11T07:19:55Z</time>
      </trkpt>
      <trkpt lat="42.71145" lon="1.41668">
        <ele>1366.1706542969</ele>
        <time>2011-06-11T07:20:02Z</time>
      </trkpt>
      <trkpt lat="42.71146" lon="1.41657">
        <ele>1369.5354003906</ele>
        <time>2011-06-11T07:20:08Z</time>
      </trkpt>
      <trkpt lat="42.71146" lon="1.41649">
        <ele>1370.4965820312</ele>
        <time>2011-06-11T07:20:13Z</time>
      </trkpt>
      <trkpt lat="42.71146" lon="1.41641">
        <ele>1371.9384765625</ele>
        <time>2011-06-11T07:20:17Z</time>
      </trkpt>
      <trkpt lat="42.71145" lon="1.4163">
        <ele>1372.9001464844</ele>
        <time>2011-06-11T07:20:23Z</time>
      </trkpt>
      <trkpt lat="42.71144" lon="1.4162">
        <ele>1372.4194335938</ele>
        <time>2011-06-11T07:20:29Z</time>
      </trkpt>
      <trkpt lat="42.71147" lon="1.41611">
        <ele>1371.9384765625</ele>
        <time>2011-06-11T07:20:36Z</time>
      </trkpt>
      <trkpt lat="42.71151" lon="1.41604">
        <ele>1370.4965820312</ele>
        <time>2011-06-11T07:20:42Z</time>
      </trkpt>
      <trkpt lat="42.71156" lon="1.41596">
        <ele>1371.4577636719</ele>
        <time>2011-06-11T07:20:49Z</time>
      </trkpt>
      <trkpt lat="42.71157" lon="1.41589">
        <ele>1372.4194335938</ele>
        <time>2011-06-11T07:20:55Z</time>
      </trkpt>
      <trkpt lat="42.71155" lon="1.41585">
        <ele>1369.0546875</ele>
        <time>2011-06-11T07:21:00Z</time>
      </trkpt>
      <trkpt lat="42.71152" lon="1.41576">
        <ele>1368.0932617188</ele>
        <time>2011-06-11T07:21:06Z</time>
      </trkpt>
      <trkpt lat="42.71151" lon="1.4157">
        <ele>1367.1320800781</ele>
        <time>2011-06-11T07:21:11Z</time>
      </trkpt>
      <trkpt lat="42.71148" lon="1.41557">
        <ele>1371.9384765625</ele>
        <time>2011-06-11T07:21:18Z</time>
      </trkpt>
      <trkpt lat="42.71148" lon="1.41551">
        <ele>1373.861328125</ele>
        <time>2011-06-11T07:21:21Z</time>
      </trkpt>
      <trkpt lat="42.71148" lon="1.41546">
        <ele>1378.66796875</ele>
        <time>2011-06-11T07:21:25Z</time>
      </trkpt>
      <trkpt lat="42.71148" lon="1.41535">
        <ele>1379.6291503906</ele>
        <time>2011-06-11T07:21:30Z</time>
      </trkpt>
      <trkpt lat="42.71149" lon="1.41523">
        <ele>1385.3969726562</ele>
        <time>2011-06-11T07:21:36Z</time>
      </trkpt>
      <trkpt lat="42.71147" lon="1.41512">
        <ele>1383.4743652344</ele>
        <time>2011-06-11T07:21:44Z</time>
      </trkpt>
      <trkpt lat="42.71145" lon="1.41504">
        <ele>1383.4743652344</ele>
        <time>2011-06-11T07:21:50Z</time>
      </trkpt>
      <trkpt lat="42.71144" lon="1.41495">
        <ele>1384.4357910156</ele>
        <time>2011-06-11T07:21:55Z</time>
      </trkpt>
      <trkpt lat="42.71145" lon="1.41485">
        <ele>1385.3969726562</ele>
        <time>2011-06-11T07:22:00Z</time>
      </trkpt>
      <trkpt lat="42.71146" lon="1.41481">
        <ele>1385.8776855469</ele>
        <time>2011-06-11T07:22:06Z</time>
      </trkpt>
      <trkpt lat="42.71149" lon="1.4147">
        <ele>1386.8388671875</ele>
        <time>2011-06-11T07:22:13Z</time>
      </trkpt>
      <trkpt lat="42.71151" lon="1.4146">
        <ele>1387.3195800781</ele>
        <time>2011-06-11T07:22:19Z</time>
      </trkpt>
      <trkpt lat="42.71153" lon="1.41447">
        <ele>1391.1650390625</ele>
        <time>2011-06-11T07:22:26Z</time>
      </trkpt>
      <trkpt lat="42.71154" lon="1.41441">
        <ele>1392.6071777344</ele>
        <time>2011-06-11T07:22:29Z</time>
      </trkpt>
      <trkpt lat="42.71156" lon="1.41433">
        <ele>1395.0102539062</ele>
        <time>2011-06-11T07:22:34Z</time>
      </trkpt>
      <trkpt lat="42.71159" lon="1.41421">
        <ele>1400.2976074219</ele>
        <time>2011-06-11T07:22:42Z</time>
      </trkpt>
      <trkpt lat="42.71162" lon="1.41418">
        <ele>1400.2976074219</ele>
        <time>2011-06-11T07:22:46Z</time>
      </trkpt>
      <trkpt lat="42.71164" lon="1.41407">
        <ele>1401.2587890625</ele>
        <time>2011-06-11T07:22:53Z</time>
      </trkpt>
      <trkpt lat="42.71167" lon="1.41395">
        <ele>1399.8168945312</ele>
        <time>2011-06-11T07:23:01Z</time>
      </trkpt>
      <trkpt lat="42.71167" lon="1.41382">
        <ele>1399.3361816406</ele>
        <time>2011-06-11T07:23:08Z</time>
      </trkpt>
      <trkpt lat="42.71169" lon="1.41371">
        <ele>1398.85546875</ele>
        <time>2011-06-11T07:23:15Z</time>
      </trkpt>
      <trkpt lat="42.7117" lon="1.41367">
        <ele>1397.4135742188</ele>
        <time>2011-06-11T07:23:19Z</time>
      </trkpt>
      <trkpt lat="42.71172" lon="1.41355">
        <ele>1395.9716796875</ele>
        <time>2011-06-11T07:23:26Z</time>
      </trkpt>
      <trkpt lat="42.71172" lon="1.4135">
        <ele>1395.0102539062</ele>
        <time>2011-06-11T07:23:29Z</time>
      </trkpt>
      <trkpt lat="42.71175" lon="1.41335">
        <ele>1393.568359375</ele>
        <time>2011-06-11T07:23:37Z</time>
      </trkpt>
      <trkpt lat="42.71177" lon="1.41332">
        <ele>1394.0490722656</ele>
        <time>2011-06-11T07:23:40Z</time>
      </trkpt>
      <trkpt lat="42.71178" lon="1.41322">
        <ele>1398.3747558594</ele>
        <time>2011-06-11T07:23:46Z</time>
      </trkpt>
      <trkpt lat="42.7118" lon="1.41315">
        <ele>1399.3361816406</ele>
        <time>2011-06-11T07:23:50Z</time>
      </trkpt>
      <trkpt lat="42.71182" lon="1.41304">
        <ele>1397.4135742188</ele>
        <time>2011-06-11T07:23:56Z</time>
      </trkpt>
      <trkpt lat="42.71185" lon="1.41291">
        <ele>1395.9716796875</ele>
        <time>2011-06-11T07:24:02Z</time>
      </trkpt>
      <trkpt lat="42.71187" lon="1.41276">
        <ele>1400.7780761719</ele>
        <time>2011-06-11T07:24:09Z</time>
      </trkpt>
      <trkpt lat="42.7119" lon="1.41266">
        <ele>1404.6235351562</ele>
        <time>2011-06-11T07:24:14Z</time>
      </trkpt>
      <trkpt lat="42.71194" lon="1.41256">
        <ele>1405.5849609375</ele>
        <time>2011-06-11T07:24:20Z</time>
      </trkpt>
      <trkpt lat="42.71199" lon="1.41247">
        <ele>1408.9494628906</ele>
        <time>2011-06-11T07:24:26Z</time>
      </trkpt>
      <trkpt lat="42.71199" lon="1.41246">
        <ele>1409.4301757812</ele>
        <time>2011-06-11T07:24:27Z</time>
      </trkpt>
      <trkpt lat="42.71207" lon="1.41241">
        <ele>1409.9106445312</ele>
        <time>2011-06-11T07:24:34Z</time>
      </trkpt>
      <trkpt lat="42.71209" lon="1.41239">
        <ele>1410.3913574219</ele>
        <time>2011-06-11T07:24:36Z</time>
      </trkpt>
      <trkpt lat="42.71215" lon="1.41235">
        <ele>1409.9106445312</ele>
        <time>2011-06-11T07:24:41Z</time>
      </trkpt>
      <trkpt lat="42.71218" lon="1.41233">
        <ele>1409.4301757812</ele>
        <time>2011-06-11T07:24:47Z</time>
      </trkpt>
      <trkpt lat="42.7122" lon="1.41233">
        <ele>1405.5849609375</ele>
        <time>2011-06-11T07:25:03Z</time>
      </trkpt>
      <trkpt lat="42.71223" lon="1.41229">
        <ele>1407.5075683594</ele>
        <time>2011-06-11T07:25:09Z</time>
      </trkpt>
      <trkpt lat="42.71227" lon="1.41227">
        <ele>1408.46875</ele>
        <time>2011-06-11T07:25:12Z</time>
      </trkpt>
      <trkpt lat="42.71233" lon="1.41216">
        <ele>1407.0268554688</ele>
        <time>2011-06-11T07:25:19Z</time>
      </trkpt>
      <trkpt lat="42.71243" lon="1.41204">
        <ele>1408.46875</ele>
        <time>2011-06-11T07:25:26Z</time>
      </trkpt>
      <trkpt lat="42.71254" lon="1.41198">
        <ele>1408.9494628906</ele>
        <time>2011-06-11T07:25:31Z</time>
      </trkpt>
      <trkpt lat="42.71263" lon="1.41194">
        <ele>1407.5075683594</ele>
        <time>2011-06-11T07:25:35Z</time>
      </trkpt>
      <trkpt lat="42.71267" lon="1.4119">
        <ele>1406.0654296875</ele>
        <time>2011-06-11T07:25:39Z</time>
      </trkpt>
      <trkpt lat="42.71266" lon="1.41183">
        <ele>1406.5461425781</ele>
        <time>2011-06-11T07:25:44Z</time>
      </trkpt>
      <trkpt lat="42.71265" lon="1.41176">
        <ele>1407.98828125</ele>
        <time>2011-06-11T07:25:51Z</time>
      </trkpt>
      <trkpt lat="42.71262" lon="1.41171">
        <ele>1408.46875</ele>
        <time>2011-06-11T07:25:57Z</time>
      </trkpt>
      <trkpt lat="42.71257" lon="1.41166">
        <ele>1407.98828125</ele>
        <time>2011-06-11T07:26:03Z</time>
      </trkpt>
      <trkpt lat="42.71252" lon="1.41165">
        <ele>1410.3913574219</ele>
        <time>2011-06-11T07:26:09Z</time>
      </trkpt>
      <trkpt lat="42.71248" lon="1.41159">
        <ele>1413.275390625</ele>
        <time>2011-06-11T07:26:14Z</time>
      </trkpt>
      <trkpt lat="42.71244" lon="1.41149">
        <ele>1414.7172851562</ele>
        <time>2011-06-11T07:26:20Z</time>
      </trkpt>
      <trkpt lat="42.71241" lon="1.41137">
        <ele>1413.275390625</ele>
        <time>2011-06-11T07:26:26Z</time>
      </trkpt>
      <trkpt lat="42.71241" lon="1.41123">
        <ele>1414.2365722656</ele>
        <time>2011-06-11T07:26:33Z</time>
      </trkpt>
      <trkpt lat="42.71239" lon="1.41111">
        <ele>1416.6398925781</ele>
        <time>2011-06-11T07:26:39Z</time>
      </trkpt>
      <trkpt lat="42.71238" lon="1.41104">
        <ele>1417.6010742188</ele>
        <time>2011-06-11T07:26:43Z</time>
      </trkpt>
      <trkpt lat="42.71234" lon="1.41091">
        <ele>1419.0432128906</ele>
        <time>2011-06-11T07:26:51Z</time>
      </trkpt>
      <trkpt lat="42.71234" lon="1.41077">
        <ele>1419.5239257812</ele>
        <time>2011-06-11T07:26:59Z</time>
      </trkpt>
      <trkpt lat="42.71233" lon="1.41072">
        <ele>1420.0046386719</ele>
        <time>2011-06-11T07:27:02Z</time>
      </trkpt>
      <trkpt lat="42.71234" lon="1.41057">
        <ele>1420.0046386719</ele>
        <time>2011-06-11T07:27:09Z</time>
      </trkpt>
      <trkpt lat="42.71235" lon="1.41046">
        <ele>1420.9660644531</ele>
        <time>2011-06-11T07:27:14Z</time>
      </trkpt>
      <trkpt lat="42.71238" lon="1.41037">
        <ele>1418.0817871094</ele>
        <time>2011-06-11T07:27:19Z</time>
      </trkpt>
      <trkpt lat="42.71242" lon="1.41027">
        <ele>1417.1206054688</ele>
        <time>2011-06-11T07:27:23Z</time>
      </trkpt>
      <trkpt lat="42.71252" lon="1.41012">
        <ele>1414.7172851562</ele>
        <time>2011-06-11T07:27:29Z</time>
      </trkpt>
      <trkpt lat="42.71253" lon="1.41004">
        <ele>1414.2365722656</ele>
        <time>2011-06-11T07:27:33Z</time>
      </trkpt>
      <trkpt lat="42.71252" lon="1.40996">
        <ele>1413.755859375</ele>
        <time>2011-06-11T07:27:38Z</time>
      </trkpt>
      <trkpt lat="42.71251" lon="1.40995">
        <ele>1413.755859375</ele>
        <time>2011-06-11T07:27:39Z</time>
      </trkpt>
      <trkpt lat="42.71247" lon="1.40987">
        <ele>1414.7172851562</ele>
        <time>2011-06-11T07:27:46Z</time>
      </trkpt>
      <trkpt lat="42.71245" lon="1.40983">
        <ele>1415.6787109375</ele>
        <time>2011-06-11T07:27:50Z</time>
      </trkpt>
      <trkpt lat="42.71242" lon="1.40976">
        <ele>1416.1591796875</ele>
        <time>2011-06-11T07:27:55Z</time>
      </trkpt>
      <trkpt lat="42.7124" lon="1.4097">
        <ele>1416.6398925781</ele>
        <time>2011-06-11T07:28:00Z</time>
      </trkpt>
      <trkpt lat="42.71239" lon="1.40969">
        <ele>1417.1206054688</ele>
        <time>2011-06-11T07:28:01Z</time>
      </trkpt>
      <trkpt lat="42.71236" lon="1.40958">
        <ele>1420.9660644531</ele>
        <time>2011-06-11T07:28:09Z</time>
      </trkpt>
      <trkpt lat="42.71232" lon="1.40942">
        <ele>1421.4465332031</ele>
        <time>2011-06-11T07:28:18Z</time>
      </trkpt>
      <trkpt lat="42.71228" lon="1.40928">
        <ele>1420.9660644531</ele>
        <time>2011-06-11T07:28:26Z</time>
      </trkpt>
      <trkpt lat="42.71225" lon="1.40914">
        <ele>1420.4853515625</ele>
        <time>2011-06-11T07:28:33Z</time>
      </trkpt>
      <trkpt lat="42.7122" lon="1.40903">
        <ele>1420.9660644531</ele>
        <time>2011-06-11T07:28:40Z</time>
      </trkpt>
      <trkpt lat="42.71215" lon="1.40891">
        <ele>1421.4465332031</ele>
        <time>2011-06-11T07:28:47Z</time>
      </trkpt>
      <trkpt lat="42.71211" lon="1.40876">
        <ele>1422.888671875</ele>
        <time>2011-06-11T07:28:56Z</time>
      </trkpt>
      <trkpt lat="42.71206" lon="1.40864">
        <ele>1423.8498535156</ele>
        <time>2011-06-11T07:29:03Z</time>
      </trkpt>
      <trkpt lat="42.71202" lon="1.40858">
        <ele>1424.3305664062</ele>
        <time>2011-06-11T07:29:08Z</time>
      </trkpt>
      <trkpt lat="42.71198" lon="1.40848">
        <ele>1424.3305664062</ele>
        <time>2011-06-11T07:29:14Z</time>
      </trkpt>
      <trkpt lat="42.71193" lon="1.40833">
        <ele>1425.2917480469</ele>
        <time>2011-06-11T07:29:22Z</time>
      </trkpt>
      <trkpt lat="42.71187" lon="1.40823">
        <ele>1425.2917480469</ele>
        <time>2011-06-11T07:29:29Z</time>
      </trkpt>
      <trkpt lat="42.71181" lon="1.40813">
        <ele>1425.2917480469</ele>
        <time>2011-06-11T07:29:36Z</time>
      </trkpt>
      <trkpt lat="42.71177" lon="1.408">
        <ele>1427.2145996094</ele>
        <time>2011-06-11T07:29:44Z</time>
      </trkpt>
      <trkpt lat="42.71172" lon="1.40791">
        <ele>1426.7338867188</ele>
        <time>2011-06-11T07:29:50Z</time>
      </trkpt>
      <trkpt lat="42.71171" lon="1.4079">
        <ele>1426.7338867188</ele>
        <time>2011-06-11T07:29:51Z</time>
      </trkpt>
      <trkpt lat="42.7117" lon="1.40783">
        <ele>1426.2531738281</ele>
        <time>2011-06-11T07:29:55Z</time>
      </trkpt>
      <trkpt lat="42.71165" lon="1.40775">
        <ele>1425.7724609375</ele>
        <time>2011-06-11T07:30:02Z</time>
      </trkpt>
      <trkpt lat="42.7116" lon="1.40766">
        <ele>1424.8112792969</ele>
        <time>2011-06-11T07:30:09Z</time>
      </trkpt>
      <trkpt lat="42.71155" lon="1.40757">
        <ele>1424.8112792969</ele>
        <time>2011-06-11T07:30:16Z</time>
      </trkpt>
      <trkpt lat="42.71153" lon="1.40753">
        <ele>1423.3693847656</ele>
        <time>2011-06-11T07:30:22Z</time>
      </trkpt>
      <trkpt lat="42.71152" lon="1.40749">
        <ele>1423.3693847656</ele>
        <time>2011-06-11T07:30:24Z</time>
      </trkpt>
      <trkpt lat="42.7115" lon="1.40744">
        <ele>1423.8498535156</ele>
        <time>2011-06-11T07:30:28Z</time>
      </trkpt>
      <trkpt lat="42.71148" lon="1.40741">
        <ele>1422.888671875</ele>
        <time>2011-06-11T07:30:34Z</time>
      </trkpt>
      <trkpt lat="42.71146" lon="1.4074">
        <ele>1422.4079589844</ele>
        <time>2011-06-11T07:30:35Z</time>
      </trkpt>
      <trkpt lat="42.71143" lon="1.40736">
        <ele>1421.4465332031</ele>
        <time>2011-06-11T07:30:39Z</time>
      </trkpt>
      <trkpt lat="42.71135" lon="1.4072">
        <ele>1420.4853515625</ele>
        <time>2011-06-11T07:30:46Z</time>
      </trkpt>
      <trkpt lat="42.71135" lon="1.40709">
        <ele>1421.4465332031</ele>
        <time>2011-06-11T07:30:53Z</time>
      </trkpt>
      <trkpt lat="42.71134" lon="1.40707">
        <ele>1421.4465332031</ele>
        <time>2011-06-11T07:30:54Z</time>
      </trkpt>
      <trkpt lat="42.71132" lon="1.407">
        <ele>1421.9272460938</ele>
        <time>2011-06-11T07:30:58Z</time>
      </trkpt>
      <trkpt lat="42.71132" lon="1.40693">
        <ele>1420.4853515625</ele>
        <time>2011-06-11T07:31:04Z</time>
      </trkpt>
      <trkpt lat="42.71131" lon="1.40691">
        <ele>1420.4853515625</ele>
        <time>2011-06-11T07:31:05Z</time>
      </trkpt>
      <trkpt lat="42.7113" lon="1.40689">
        <ele>1420.4853515625</ele>
        <time>2011-06-11T07:31:07Z</time>
      </trkpt>
      <trkpt lat="42.71128" lon="1.40683">
        <ele>1420.4853515625</ele>
        <time>2011-06-11T07:31:11Z</time>
      </trkpt>
      <trkpt lat="42.71127" lon="1.40674">
        <ele>1418.5625</ele>
        <time>2011-06-11T07:31:16Z</time>
      </trkpt>
      <trkpt lat="42.71127" lon="1.40672">
        <ele>1418.5625</ele>
        <time>2011-06-11T07:31:18Z</time>
      </trkpt>
      <trkpt lat="42.71124" lon="1.40662">
        <ele>1419.5239257812</ele>
        <time>2011-06-11T07:31:25Z</time>
      </trkpt>
      <trkpt lat="42.71123" lon="1.40659">
        <ele>1420.0046386719</ele>
        <time>2011-06-11T07:31:27Z</time>
      </trkpt>
      <trkpt lat="42.71121" lon="1.40649">
        <ele>1420.0046386719</ele>
        <time>2011-06-11T07:31:33Z</time>
      </trkpt>
      <trkpt lat="42.7112" lon="1.40643">
        <ele>1418.5625</ele>
        <time>2011-06-11T07:31:37Z</time>
      </trkpt>
      <trkpt lat="42.71119" lon="1.4064">
        <ele>1419.5239257812</ele>
        <time>2011-06-11T07:31:39Z</time>
      </trkpt>
      <trkpt lat="42.71119" lon="1.40628">
        <ele>1421.9272460938</ele>
        <time>2011-06-11T07:31:49Z</time>
      </trkpt>
      <trkpt lat="42.71119" lon="1.40621">
        <ele>1423.3693847656</ele>
        <time>2011-06-11T07:31:54Z</time>
      </trkpt>
      <trkpt lat="42.71119" lon="1.40616">
        <ele>1424.3305664062</ele>
        <time>2011-06-11T07:31:58Z</time>
      </trkpt>
      <trkpt lat="42.7112" lon="1.40603">
        <ele>1423.3693847656</ele>
        <time>2011-06-11T07:32:06Z</time>
      </trkpt>
      <trkpt lat="42.7112" lon="1.40601">
        <ele>1423.3693847656</ele>
        <time>2011-06-11T07:32:07Z</time>
      </trkpt>
      <trkpt lat="42.7112" lon="1.40591">
        <ele>1420.9660644531</ele>
        <time>2011-06-11T07:32:14Z</time>
      </trkpt>
      <trkpt lat="42.71119" lon="1.40582">
        <ele>1419.0432128906</ele>
        <time>2011-06-11T07:32:20Z</time>
      </trkpt>
      <trkpt lat="42.71119" lon="1.40573">
        <ele>1419.5239257812</ele>
        <time>2011-06-11T07:32:24Z</time>
      </trkpt>
      <trkpt lat="42.71119" lon="1.40564">
        <ele>1421.9272460938</ele>
        <time>2011-06-11T07:32:30Z</time>
      </trkpt>
      <trkpt lat="42.71118" lon="1.40562">
        <ele>1423.3693847656</ele>
        <time>2011-06-11T07:32:31Z</time>
      </trkpt>
      <trkpt lat="42.71117" lon="1.40547">
        <ele>1427.2145996094</ele>
        <time>2011-06-11T07:32:39Z</time>
      </trkpt>
      <trkpt lat="42.71117" lon="1.40546">
        <ele>1427.2145996094</ele>
        <time>2011-06-11T07:32:40Z</time>
      </trkpt>
      <trkpt lat="42.71117" lon="1.40542">
        <ele>1424.8112792969</ele>
        <time>2011-06-11T07:32:47Z</time>
      </trkpt>
      <trkpt lat="42.71116" lon="1.40538">
        <ele>1422.888671875</ele>
        <time>2011-06-11T07:32:52Z</time>
      </trkpt>
      <trkpt lat="42.71115" lon="1.4053">
        <ele>1420.4853515625</ele>
        <time>2011-06-11T07:32:57Z</time>
      </trkpt>
      <trkpt lat="42.71117" lon="1.40521">
        <ele>1421.4465332031</ele>
        <time>2011-06-11T07:33:03Z</time>
      </trkpt>
      <trkpt lat="42.71118" lon="1.40515">
        <ele>1420.9660644531</ele>
        <time>2011-06-11T07:33:08Z</time>
      </trkpt>
      <trkpt lat="42.71119" lon="1.40504">
        <ele>1421.4465332031</ele>
        <time>2011-06-11T07:33:13Z</time>
      </trkpt>
      <trkpt lat="42.71121" lon="1.40495">
        <ele>1421.4465332031</ele>
        <time>2011-06-11T07:33:18Z</time>
      </trkpt>
      <trkpt lat="42.71123" lon="1.4049">
        <ele>1421.4465332031</ele>
        <time>2011-06-11T07:33:23Z</time>
      </trkpt>
      <trkpt lat="42.71123" lon="1.40489">
        <ele>1421.4465332031</ele>
        <time>2011-06-11T07:33:24Z</time>
      </trkpt>
      <trkpt lat="42.71123" lon="1.40489">
        <ele>1420.4853515625</ele>
        <time>2011-06-11T07:33:30Z</time>
      </trkpt>
      <trkpt lat="42.71119" lon="1.40489">
        <ele>1419.5239257812</ele>
        <time>2011-06-11T07:33:35Z</time>
      </trkpt>
      <trkpt lat="42.71119" lon="1.40484">
        <ele>1419.0432128906</ele>
        <time>2011-06-11T07:33:40Z</time>
      </trkpt>
      <trkpt lat="42.71123" lon="1.40478">
        <ele>1418.5625</ele>
        <time>2011-06-11T07:33:46Z</time>
      </trkpt>
      <trkpt lat="42.71125" lon="1.40468">
        <ele>1418.5625</ele>
        <time>2011-06-11T07:33:51Z</time>
      </trkpt>
      <trkpt lat="42.71129" lon="1.40461">
        <ele>1420.9660644531</ele>
        <time>2011-06-11T07:33:55Z</time>
      </trkpt>
      <trkpt lat="42.71132" lon="1.40454">
        <ele>1420.0046386719</ele>
        <time>2011-06-11T07:33:59Z</time>
      </trkpt>
      <trkpt lat="42.71135" lon="1.40441">
        <ele>1416.1591796875</ele>
        <time>2011-06-11T07:34:07Z</time>
      </trkpt>
      <trkpt lat="42.71138" lon="1.40432">
        <ele>1414.2365722656</ele>
        <time>2011-06-11T07:34:13Z</time>
      </trkpt>
      <trkpt lat="42.71138" lon="1.40425">
        <ele>1413.275390625</ele>
        <time>2011-06-11T07:34:17Z</time>
      </trkpt>
      <trkpt lat="42.7114" lon="1.40416">
        <ele>1413.275390625</ele>
        <time>2011-06-11T07:34:21Z</time>
      </trkpt>
      <trkpt lat="42.71143" lon="1.40408">
        <ele>1413.755859375</ele>
        <time>2011-06-11T07:34:28Z</time>
      </trkpt>
      <trkpt lat="42.71144" lon="1.40407">
        <ele>1413.755859375</ele>
        <time>2011-06-11T07:34:29Z</time>
      </trkpt>
      <trkpt lat="42.71144" lon="1.40405">
        <ele>1413.755859375</ele>
        <time>2011-06-11T07:34:31Z</time>
      </trkpt>
      <trkpt lat="42.71151" lon="1.40395">
        <ele>1413.275390625</ele>
        <time>2011-06-11T07:34:37Z</time>
      </trkpt>
      <trkpt lat="42.71152" lon="1.40395">
        <ele>1413.275390625</ele>
        <time>2011-06-11T07:34:39Z</time>
      </trkpt>
      <trkpt lat="42.71154" lon="1.4039">
        <ele>1411.8334960938</ele>
        <time>2011-06-11T07:34:47Z</time>
      </trkpt>
      <trkpt lat="42.7115" lon="1.40388">
        <ele>1410.8720703125</ele>
        <time>2011-06-11T07:34:53Z</time>
      </trkpt>
      <trkpt lat="42.71147" lon="1.40386">
        <ele>1409.9106445312</ele>
        <time>2011-06-11T07:34:58Z</time>
      </trkpt>
      <trkpt lat="42.71149" lon="1.40381">
        <ele>1407.5075683594</ele>
        <time>2011-06-11T07:35:03Z</time>
      </trkpt>
      <trkpt lat="42.71153" lon="1.40374">
        <ele>1406.0654296875</ele>
        <time>2011-06-11T07:35:10Z</time>
      </trkpt>
      <trkpt lat="42.71155" lon="1.40371">
        <ele>1405.1042480469</ele>
        <time>2011-06-11T07:35:13Z</time>
      </trkpt>
      <trkpt lat="42.71159" lon="1.40368">
        <ele>1404.1430664062</ele>
        <time>2011-06-11T07:35:17Z</time>
      </trkpt>
      <trkpt lat="42.71164" lon="1.40362">
        <ele>1403.1813964844</ele>
        <time>2011-06-11T07:35:23Z</time>
      </trkpt>
      <trkpt lat="42.71169" lon="1.40357">
        <ele>1402.7006835938</ele>
        <time>2011-06-11T07:35:28Z</time>
      </trkpt>
      <trkpt lat="42.71175" lon="1.4035">
        <ele>1403.1813964844</ele>
        <time>2011-06-11T07:35:35Z</time>
      </trkpt>
      <trkpt lat="42.71181" lon="1.40345">
        <ele>1402.7006835938</ele>
        <time>2011-06-11T07:35:40Z</time>
      </trkpt>
      <trkpt lat="42.71188" lon="1.40337">
        <ele>1403.662109375</ele>
        <time>2011-06-11T07:35:47Z</time>
      </trkpt>
      <trkpt lat="42.71194" lon="1.40331">
        <ele>1405.1042480469</ele>
        <time>2011-06-11T07:35:53Z</time>
      </trkpt>
      <trkpt lat="42.71202" lon="1.40325">
        <ele>1406.5461425781</ele>
        <time>2011-06-11T07:36:00Z</time>
      </trkpt>
      <trkpt lat="42.71208" lon="1.4032">
        <ele>1407.5075683594</ele>
        <time>2011-06-11T07:36:06Z</time>
      </trkpt>
      <trkpt lat="42.71214" lon="1.40315">
        <ele>1408.46875</ele>
        <time>2011-06-11T07:36:11Z</time>
      </trkpt>
      <trkpt lat="42.71216" lon="1.40314">
        <ele>1408.46875</ele>
        <time>2011-06-11T07:36:13Z</time>
      </trkpt>
      <trkpt lat="42.71225" lon="1.40303">
        <ele>1409.9106445312</ele>
        <time>2011-06-11T07:36:22Z</time>
      </trkpt>
      <trkpt lat="42.71227" lon="1.403">
        <ele>1409.9106445312</ele>
        <time>2011-06-11T07:36:24Z</time>
      </trkpt>
      <trkpt lat="42.71235" lon="1.4029">
        <ele>1409.9106445312</ele>
        <time>2011-06-11T07:36:32Z</time>
      </trkpt>
      <trkpt lat="42.71244" lon="1.40287">
        <ele>1409.4301757812</ele>
        <time>2011-06-11T07:36:38Z</time>
      </trkpt>
      <trkpt lat="42.71249" lon="1.40282">
        <ele>1409.9106445312</ele>
        <time>2011-06-11T07:36:43Z</time>
      </trkpt>
      <trkpt lat="42.71249" lon="1.40278">
        <ele>1409.4301757812</ele>
        <time>2011-06-11T07:36:50Z</time>
      </trkpt>
      <trkpt lat="42.71249" lon="1.40266">
        <ele>1408.46875</ele>
        <time>2011-06-11T07:36:58Z</time>
      </trkpt>
      <trkpt lat="42.71249" lon="1.40265">
        <ele>1408.46875</ele>
        <time>2011-06-11T07:36:59Z</time>
      </trkpt>
      <trkpt lat="42.71252" lon="1.40256">
        <ele>1407.98828125</ele>
        <time>2011-06-11T07:37:06Z</time>
      </trkpt>
      <trkpt lat="42.71252" lon="1.40253">
        <ele>1407.98828125</ele>
        <time>2011-06-11T07:37:12Z</time>
      </trkpt>
      <trkpt lat="42.71253" lon="1.40252">
        <ele>1408.9494628906</ele>
        <time>2011-06-11T07:37:20Z</time>
      </trkpt>
      <trkpt lat="42.71255" lon="1.4025">
        <ele>1408.9494628906</ele>
        <time>2011-06-11T07:37:25Z</time>
      </trkpt>
      <trkpt lat="42.7126" lon="1.40244">
        <ele>1409.4301757812</ele>
        <time>2011-06-11T07:37:32Z</time>
      </trkpt>
      <trkpt lat="42.71265" lon="1.40237">
        <ele>1409.4301757812</ele>
        <time>2011-06-11T07:37:40Z</time>
      </trkpt>
      <trkpt lat="42.71265" lon="1.40237">
        <ele>1408.46875</ele>
        <time>2011-06-11T07:37:50Z</time>
      </trkpt>
      <trkpt lat="42.71268" lon="1.40235">
        <ele>1408.46875</ele>
        <time>2011-06-11T07:38:04Z</time>
      </trkpt>
      <trkpt lat="42.71272" lon="1.40233">
        <ele>1408.46875</ele>
        <time>2011-06-11T07:38:09Z</time>
      </trkpt>
      <trkpt lat="42.71278" lon="1.4023">
        <ele>1408.46875</ele>
        <time>2011-06-11T07:38:17Z</time>
      </trkpt>
      <trkpt lat="42.71278" lon="1.40225">
        <ele>1410.8720703125</ele>
        <time>2011-06-11T07:38:23Z</time>
      </trkpt>
      <trkpt lat="42.71279" lon="1.4022">
        <ele>1412.3139648438</ele>
        <time>2011-06-11T07:38:28Z</time>
      </trkpt>
      <trkpt lat="42.71284" lon="1.4022">
        <ele>1413.275390625</ele>
        <time>2011-06-11T07:38:34Z</time>
      </trkpt>
      <trkpt lat="42.71284" lon="1.40215">
        <ele>1414.7172851562</ele>
        <time>2011-06-11T07:38:39Z</time>
      </trkpt>
      <trkpt lat="42.71287" lon="1.40212">
        <ele>1416.1591796875</ele>
        <time>2011-06-11T07:38:44Z</time>
      </trkpt>
      <trkpt lat="42.71289" lon="1.40207">
        <ele>1418.0817871094</ele>
        <time>2011-06-11T07:38:51Z</time>
      </trkpt>
      <trkpt lat="42.71289" lon="1.40203">
        <ele>1420.0046386719</ele>
        <time>2011-06-11T07:38:57Z</time>
      </trkpt>
      <trkpt lat="42.71294" lon="1.40202">
        <ele>1420.4853515625</ele>
        <time>2011-06-11T07:39:04Z</time>
      </trkpt>
      <trkpt lat="42.71299" lon="1.40199">
        <ele>1421.9272460938</ele>
        <time>2011-06-11T07:39:11Z</time>
      </trkpt>
      <trkpt lat="42.71303" lon="1.40199">
        <ele>1422.888671875</ele>
        <time>2011-06-11T07:39:16Z</time>
      </trkpt>
      <trkpt lat="42.71308" lon="1.40196">
        <ele>1423.3693847656</ele>
        <time>2011-06-11T07:39:22Z</time>
      </trkpt>
      <trkpt lat="42.71314" lon="1.40194">
        <ele>1423.3693847656</ele>
        <time>2011-06-11T07:39:28Z</time>
      </trkpt>
      <trkpt lat="42.71321" lon="1.40189">
        <ele>1424.8112792969</ele>
        <time>2011-06-11T07:39:36Z</time>
      </trkpt>
      <trkpt lat="42.71327" lon="1.40185">
        <ele>1425.7724609375</ele>
        <time>2011-06-11T07:39:43Z</time>
      </trkpt>
      <trkpt lat="42.71332" lon="1.40179">
        <ele>1427.2145996094</ele>
        <time>2011-06-11T07:39:51Z</time>
      </trkpt>
      <trkpt lat="42.71339" lon="1.40176">
        <ele>1428.17578125</ele>
        <time>2011-06-11T07:39:58Z</time>
      </trkpt>
      <trkpt lat="42.71346" lon="1.40175">
        <ele>1428.6564941406</ele>
        <time>2011-06-11T07:40:05Z</time>
      </trkpt>
      <trkpt lat="42.71351" lon="1.40173">
        <ele>1429.6176757812</ele>
        <time>2011-06-11T07:40:11Z</time>
      </trkpt>
      <trkpt lat="42.71355" lon="1.4017">
        <ele>1431.5402832031</ele>
        <time>2011-06-11T07:40:17Z</time>
      </trkpt>
      <trkpt lat="42.71361" lon="1.40167">
        <ele>1433.462890625</ele>
        <time>2011-06-11T07:40:24Z</time>
      </trkpt>
      <trkpt lat="42.71367" lon="1.40166">
        <ele>1434.9050292969</ele>
        <time>2011-06-11T07:40:31Z</time>
      </trkpt>
      <trkpt lat="42.71373" lon="1.40162">
        <ele>1435.8662109375</ele>
        <time>2011-06-11T07:40:37Z</time>
      </trkpt>
      <trkpt lat="42.71378" lon="1.40158">
        <ele>1437.7890625</ele>
        <time>2011-06-11T07:40:44Z</time>
      </trkpt>
      <trkpt lat="42.71381" lon="1.40155">
        <ele>1439.2309570312</ele>
        <time>2011-06-11T07:40:48Z</time>
      </trkpt>
      <trkpt lat="42.71388" lon="1.40149">
        <ele>1439.7116699219</ele>
        <time>2011-06-11T07:40:55Z</time>
      </trkpt>
      <trkpt lat="42.7139" lon="1.40147">
        <ele>1440.1923828125</ele>
        <time>2011-06-11T07:40:57Z</time>
      </trkpt>
      <trkpt lat="42.71393" lon="1.40146">
        <ele>1440.1923828125</ele>
        <time>2011-06-11T07:41:00Z</time>
      </trkpt>
      <trkpt lat="42.71393" lon="1.40136">
        <ele>1444.5180664062</ele>
        <time>2011-06-11T07:41:07Z</time>
      </trkpt>
      <trkpt lat="42.71393" lon="1.40134">
        <ele>1444.9987792969</ele>
        <time>2011-06-11T07:41:08Z</time>
      </trkpt>
      <trkpt lat="42.71395" lon="1.40126">
        <ele>1445.9602050781</ele>
        <time>2011-06-11T07:41:16Z</time>
      </trkpt>
      <trkpt lat="42.71397" lon="1.40117">
        <ele>1447.4020996094</ele>
        <time>2011-06-11T07:41:23Z</time>
      </trkpt>
      <trkpt lat="42.71402" lon="1.40111">
        <ele>1448.8439941406</ele>
        <time>2011-06-11T07:41:30Z</time>
      </trkpt>
      <trkpt lat="42.71405" lon="1.40107">
        <ele>1449.3247070312</ele>
        <time>2011-06-11T07:41:35Z</time>
      </trkpt>
      <trkpt lat="42.71408" lon="1.40101">
        <ele>1450.7666015625</ele>
        <time>2011-06-11T07:41:41Z</time>
      </trkpt>
      <trkpt lat="42.71412" lon="1.40096">
        <ele>1451.2473144531</ele>
        <time>2011-06-11T07:41:46Z</time>
      </trkpt>
      <trkpt lat="42.71413" lon="1.40095">
        <ele>1451.2473144531</ele>
        <time>2011-06-11T07:41:47Z</time>
      </trkpt>
      <trkpt lat="42.71418" lon="1.40091">
        <ele>1451.2473144531</ele>
        <time>2011-06-11T07:41:53Z</time>
      </trkpt>
      <trkpt lat="42.71423" lon="1.40088">
        <ele>1451.7280273438</ele>
        <time>2011-06-11T07:41:59Z</time>
      </trkpt>
      <trkpt lat="42.71427" lon="1.40083">
        <ele>1452.689453125</ele>
        <time>2011-06-11T07:42:05Z</time>
      </trkpt>
      <trkpt lat="42.7143" lon="1.40079">
        <ele>1454.1315917969</ele>
        <time>2011-06-11T07:42:11Z</time>
      </trkpt>
      <trkpt lat="42.71432" lon="1.40075">
        <ele>1456.5346679688</ele>
        <time>2011-06-11T07:42:16Z</time>
      </trkpt>
      <trkpt lat="42.71434" lon="1.4007">
        <ele>1458.9379882812</ele>
        <time>2011-06-11T07:42:22Z</time>
      </trkpt>
      <trkpt lat="42.71439" lon="1.40068">
        <ele>1459.8991699219</ele>
        <time>2011-06-11T07:42:28Z</time>
      </trkpt>
      <trkpt lat="42.71444" lon="1.40064">
        <ele>1460.8605957031</ele>
        <time>2011-06-11T07:42:35Z</time>
      </trkpt>
      <trkpt lat="42.71449" lon="1.40064">
        <ele>1460.8605957031</ele>
        <time>2011-06-11T07:42:41Z</time>
      </trkpt>
      <trkpt lat="42.71451" lon="1.40059">
        <ele>1461.8220214844</ele>
        <time>2011-06-11T07:42:46Z</time>
      </trkpt>
      <trkpt lat="42.71456" lon="1.40055">
        <ele>1463.2639160156</ele>
        <time>2011-06-11T07:42:53Z</time>
      </trkpt>
      <trkpt lat="42.7146" lon="1.40051">
        <ele>1468.0705566406</ele>
        <time>2011-06-11T07:43:00Z</time>
      </trkpt>
      <trkpt lat="42.71463" lon="1.40043">
        <ele>1473.8383789062</ele>
        <time>2011-06-11T07:43:08Z</time>
      </trkpt>
      <trkpt lat="42.71467" lon="1.40039">
        <ele>1474.3190917969</ele>
        <time>2011-06-11T07:43:14Z</time>
      </trkpt>
      <trkpt lat="42.7147" lon="1.40032">
        <ele>1479.6062011719</ele>
        <time>2011-06-11T07:43:21Z</time>
      </trkpt>
      <trkpt lat="42.71473" lon="1.40027">
        <ele>1477.203125</ele>
        <time>2011-06-11T07:43:27Z</time>
      </trkpt>
      <trkpt lat="42.71477" lon="1.40023">
        <ele>1476.2416992188</ele>
        <time>2011-06-11T07:43:32Z</time>
      </trkpt>
      <trkpt lat="42.71482" lon="1.40019">
        <ele>1476.2416992188</ele>
        <time>2011-06-11T07:43:39Z</time>
      </trkpt>
      <trkpt lat="42.71487" lon="1.40016">
        <ele>1478.1643066406</ele>
        <time>2011-06-11T07:43:46Z</time>
      </trkpt>
      <trkpt lat="42.71495" lon="1.40015">
        <ele>1479.6062011719</ele>
        <time>2011-06-11T07:43:54Z</time>
      </trkpt>
      <trkpt lat="42.71502" lon="1.40015">
        <ele>1480.5676269531</ele>
        <time>2011-06-11T07:44:01Z</time>
      </trkpt>
      <trkpt lat="42.71507" lon="1.40009">
        <ele>1482.490234375</ele>
        <time>2011-06-11T07:44:08Z</time>
      </trkpt>
      <trkpt lat="42.71512" lon="1.40006">
        <ele>1483.4514160156</ele>
        <time>2011-06-11T07:44:14Z</time>
      </trkpt>
      <trkpt lat="42.71513" lon="1.40002">
        <ele>1484.4130859375</ele>
        <time>2011-06-11T07:44:17Z</time>
      </trkpt>
      <trkpt lat="42.71516" lon="1.39993">
        <ele>1486.8161621094</ele>
        <time>2011-06-11T07:44:24Z</time>
      </trkpt>
      <trkpt lat="42.71521" lon="1.39986">
        <ele>1486.8161621094</ele>
        <time>2011-06-11T07:44:31Z</time>
      </trkpt>
      <trkpt lat="42.71524" lon="1.39977">
        <ele>1489.7001953125</ele>
        <time>2011-06-11T07:44:39Z</time>
      </trkpt>
      <trkpt lat="42.71524" lon="1.39973">
        <ele>1491.6228027344</ele>
        <time>2011-06-11T07:44:42Z</time>
      </trkpt>
      <trkpt lat="42.71527" lon="1.39965">
        <ele>1494.0261230469</ele>
        <time>2011-06-11T07:44:49Z</time>
      </trkpt>
      <trkpt lat="42.71531" lon="1.39959">
        <ele>1494.0261230469</ele>
        <time>2011-06-11T07:44:56Z</time>
      </trkpt>
      <trkpt lat="42.71534" lon="1.39952">
        <ele>1495.4680175781</ele>
        <time>2011-06-11T07:45:01Z</time>
      </trkpt>
      <trkpt lat="42.71535" lon="1.39949">
        <ele>1495.9487304688</ele>
        <time>2011-06-11T07:45:04Z</time>
      </trkpt>
      <trkpt lat="42.71538" lon="1.39937">
        <ele>1497.8713378906</ele>
        <time>2011-06-11T07:45:13Z</time>
      </trkpt>
      <trkpt lat="42.71543" lon="1.39933">
        <ele>1497.8713378906</ele>
        <time>2011-06-11T07:45:19Z</time>
      </trkpt>
      <trkpt lat="42.71547" lon="1.39931">
        <ele>1498.8325195312</ele>
        <time>2011-06-11T07:45:25Z</time>
      </trkpt>
      <trkpt lat="42.7155" lon="1.39929">
        <ele>1500.2749023438</ele>
        <time>2011-06-11T07:45:30Z</time>
      </trkpt>
      <trkpt lat="42.71555" lon="1.39929">
        <ele>1501.2360839844</ele>
        <time>2011-06-11T07:45:36Z</time>
      </trkpt>
      <trkpt lat="42.71557" lon="1.39922">
        <ele>1504.6005859375</ele>
        <time>2011-06-11T07:45:42Z</time>
      </trkpt>
      <trkpt lat="42.71557" lon="1.39915">
        <ele>1506.0424804688</ele>
        <time>2011-06-11T07:45:48Z</time>
      </trkpt>
      <trkpt lat="42.71555" lon="1.39906">
        <ele>1510.3684082031</ele>
        <time>2011-06-11T07:45:55Z</time>
      </trkpt>
      <trkpt lat="42.71556" lon="1.39902">
        <ele>1510.3684082031</ele>
        <time>2011-06-11T07:46:00Z</time>
      </trkpt>
      <trkpt lat="42.71555" lon="1.39897">
        <ele>1510.8491210938</ele>
        <time>2011-06-11T07:46:07Z</time>
      </trkpt>
      <trkpt lat="42.71554" lon="1.3989">
        <ele>1510.8491210938</ele>
        <time>2011-06-11T07:46:14Z</time>
      </trkpt>
      <trkpt lat="42.71557" lon="1.39887">
        <ele>1510.8491210938</ele>
        <time>2011-06-11T07:46:19Z</time>
      </trkpt>
      <trkpt lat="42.71558" lon="1.39885">
        <ele>1511.810546875</ele>
        <time>2011-06-11T07:46:24Z</time>
      </trkpt>
      <trkpt lat="42.71557" lon="1.3988">
        <ele>1512.7717285156</ele>
        <time>2011-06-11T07:46:31Z</time>
      </trkpt>
      <trkpt lat="42.71557" lon="1.39875">
        <ele>1514.2136230469</ele>
        <time>2011-06-11T07:46:36Z</time>
      </trkpt>
      <trkpt lat="42.71559" lon="1.3987">
        <ele>1515.6557617188</ele>
        <time>2011-06-11T07:46:43Z</time>
      </trkpt>
      <trkpt lat="42.71559" lon="1.39866">
        <ele>1516.6171875</ele>
        <time>2011-06-11T07:46:49Z</time>
      </trkpt>
      <trkpt lat="42.71561" lon="1.39862">
        <ele>1517.5783691406</ele>
        <time>2011-06-11T07:46:55Z</time>
      </trkpt>
      <trkpt lat="42.71563" lon="1.3986">
        <ele>1518.0590820312</ele>
        <time>2011-06-11T07:47:00Z</time>
      </trkpt>
      <trkpt lat="42.71559" lon="1.39856">
        <ele>1518.5397949219</ele>
        <time>2011-06-11T07:47:07Z</time>
      </trkpt>
      <trkpt lat="42.71556" lon="1.39852">
        <ele>1519.0205078125</ele>
        <time>2011-06-11T07:47:12Z</time>
      </trkpt>
      <trkpt lat="42.71553" lon="1.39849">
        <ele>1519.5012207031</ele>
        <time>2011-06-11T07:47:17Z</time>
      </trkpt>
      <trkpt lat="42.71548" lon="1.39848">
        <ele>1520.4624023438</ele>
        <time>2011-06-11T07:47:23Z</time>
      </trkpt>
      <trkpt lat="42.71544" lon="1.39844">
        <ele>1521.904296875</ele>
        <time>2011-06-11T07:47:29Z</time>
      </trkpt>
      <trkpt lat="42.71538" lon="1.39841">
        <ele>1523.8269042969</ele>
        <time>2011-06-11T07:47:36Z</time>
      </trkpt>
      <trkpt lat="42.71539" lon="1.39837">
        <ele>1524.7883300781</ele>
        <time>2011-06-11T07:47:41Z</time>
      </trkpt>
      <trkpt lat="42.71544" lon="1.39834">
        <ele>1525.7495117188</ele>
        <time>2011-06-11T07:47:47Z</time>
      </trkpt>
      <trkpt lat="42.71548" lon="1.3983">
        <ele>1528.6335449219</ele>
        <time>2011-06-11T07:47:54Z</time>
      </trkpt>
      <trkpt lat="42.71553" lon="1.39828">
        <ele>1530.5561523438</ele>
        <time>2011-06-11T07:48:00Z</time>
      </trkpt>
      <trkpt lat="42.71558" lon="1.39827">
        <ele>1531.0368652344</ele>
        <time>2011-06-11T07:48:05Z</time>
      </trkpt>
      <trkpt lat="42.71562" lon="1.39822">
        <ele>1532.4790039062</ele>
        <time>2011-06-11T07:48:13Z</time>
      </trkpt>
      <trkpt lat="42.71565" lon="1.39822">
        <ele>1532.9594726562</ele>
        <time>2011-06-11T07:48:17Z</time>
      </trkpt>
      <trkpt lat="42.71569" lon="1.39822">
        <ele>1533.4401855469</ele>
        <time>2011-06-11T07:48:23Z</time>
      </trkpt>
      <trkpt lat="42.71571" lon="1.39822">
        <ele>1532.4790039062</ele>
        <time>2011-06-11T07:48:27Z</time>
      </trkpt>
      <trkpt lat="42.71572" lon="1.39819">
        <ele>1532.4790039062</ele>
        <time>2011-06-11T07:48:32Z</time>
      </trkpt>
      <trkpt lat="42.71568" lon="1.39812">
        <ele>1533.4401855469</ele>
        <time>2011-06-11T07:48:40Z</time>
      </trkpt>
      <trkpt lat="42.71564" lon="1.39808">
        <ele>1535.3627929688</ele>
        <time>2011-06-11T07:48:46Z</time>
      </trkpt>
      <trkpt lat="42.71559" lon="1.39806">
        <ele>1537.7661132812</ele>
        <time>2011-06-11T07:48:52Z</time>
      </trkpt>
      <trkpt lat="42.71554" lon="1.39804">
        <ele>1540.6499023438</ele>
        <time>2011-06-11T07:48:59Z</time>
      </trkpt>
      <trkpt lat="42.71551" lon="1.39803">
        <ele>1542.0920410156</ele>
        <time>2011-06-11T07:49:04Z</time>
      </trkpt>
      <trkpt lat="42.71553" lon="1.398">
        <ele>1542.5727539062</ele>
        <time>2011-06-11T07:49:09Z</time>
      </trkpt>
      <trkpt lat="42.71557" lon="1.39797">
        <ele>1544.4951171875</ele>
        <time>2011-06-11T07:49:15Z</time>
      </trkpt>
      <trkpt lat="42.71561" lon="1.39792">
        <ele>1546.8984375</ele>
        <time>2011-06-11T07:49:21Z</time>
      </trkpt>
      <trkpt lat="42.71566" lon="1.39791">
        <ele>1547.3791503906</ele>
        <time>2011-06-11T07:49:27Z</time>
      </trkpt>
      <trkpt lat="42.7157" lon="1.39792">
        <ele>1548.3405761719</ele>
        <time>2011-06-11T07:49:32Z</time>
      </trkpt>
      <trkpt lat="42.71571" lon="1.3979">
        <ele>1553.1472167969</ele>
        <time>2011-06-11T07:49:37Z</time>
      </trkpt>
      <trkpt lat="42.71568" lon="1.39784">
        <ele>1556.0310058594</ele>
        <time>2011-06-11T07:49:44Z</time>
      </trkpt>
      <trkpt lat="42.71565" lon="1.39779">
        <ele>1560.3569335938</ele>
        <time>2011-06-11T07:49:51Z</time>
      </trkpt>
      <trkpt lat="42.7156" lon="1.39776">
        <ele>1563.7214355469</ele>
        <time>2011-06-11T07:49:58Z</time>
      </trkpt>
      <trkpt lat="42.71556" lon="1.39774">
        <ele>1564.2023925781</ele>
        <time>2011-06-11T07:50:04Z</time>
      </trkpt>
      <trkpt lat="42.71553" lon="1.39771">
        <ele>1564.2023925781</ele>
        <time>2011-06-11T07:50:09Z</time>
      </trkpt>
      <trkpt lat="42.71549" lon="1.39771">
        <ele>1564.2023925781</ele>
        <time>2011-06-11T07:50:15Z</time>
      </trkpt>
      <trkpt lat="42.71545" lon="1.39769">
        <ele>1565.1638183594</ele>
        <time>2011-06-11T07:50:22Z</time>
      </trkpt>
      <trkpt lat="42.7154" lon="1.39769">
        <ele>1566.125</ele>
        <time>2011-06-11T07:50:28Z</time>
      </trkpt>
      <trkpt lat="42.71538" lon="1.39767">
        <ele>1566.6057128906</ele>
        <time>2011-06-11T07:50:33Z</time>
      </trkpt>
      <trkpt lat="42.71538" lon="1.39763">
        <ele>1567.0864257812</ele>
        <time>2011-06-11T07:50:39Z</time>
      </trkpt>
      <trkpt lat="42.71539" lon="1.3976">
        <ele>1568.0476074219</ele>
        <time>2011-06-11T07:50:44Z</time>
      </trkpt>
      <trkpt lat="42.71536" lon="1.39759">
        <ele>1569.9702148438</ele>
        <time>2011-06-11T07:50:52Z</time>
      </trkpt>
      <trkpt lat="42.71535" lon="1.39757">
        <ele>1571.412109375</ele>
        <time>2011-06-11T07:50:57Z</time>
      </trkpt>
      <trkpt lat="42.71536" lon="1.39755">
        <ele>1572.3735351562</ele>
        <time>2011-06-11T07:51:01Z</time>
      </trkpt>
      <trkpt lat="42.71538" lon="1.39752">
        <ele>1574.2961425781</ele>
        <time>2011-06-11T07:51:08Z</time>
      </trkpt>
      <trkpt lat="42.71539" lon="1.39749">
        <ele>1577.1801757812</ele>
        <time>2011-06-11T07:51:13Z</time>
      </trkpt>
      <trkpt lat="42.71542" lon="1.39747">
        <ele>1577.6606445312</ele>
        <time>2011-06-11T07:51:19Z</time>
      </trkpt>
      <trkpt lat="42.71545" lon="1.39744">
        <ele>1577.1801757812</ele>
        <time>2011-06-11T07:51:24Z</time>
      </trkpt>
      <trkpt lat="42.71547" lon="1.39739">
        <ele>1579.5832519531</ele>
        <time>2011-06-11T07:51:31Z</time>
      </trkpt>
      <trkpt lat="42.71548" lon="1.39738">
        <ele>1581.5061035156</ele>
        <time>2011-06-11T07:51:36Z</time>
      </trkpt>
      <trkpt lat="42.71552" lon="1.39737">
        <ele>1581.5061035156</ele>
        <time>2011-06-11T07:51:43Z</time>
      </trkpt>
      <trkpt lat="42.71556" lon="1.39736">
        <ele>1582.9479980469</ele>
        <time>2011-06-11T07:51:49Z</time>
      </trkpt>
      <trkpt lat="42.71558" lon="1.39737">
        <ele>1582.4675292969</ele>
        <time>2011-06-11T07:51:54Z</time>
      </trkpt>
      <trkpt lat="42.71562" lon="1.39738">
        <ele>1582.9479980469</ele>
        <time>2011-06-11T07:52:00Z</time>
      </trkpt>
      <trkpt lat="42.71566" lon="1.39741">
        <ele>1584.3901367188</ele>
        <time>2011-06-11T07:52:06Z</time>
      </trkpt>
      <trkpt lat="42.71568" lon="1.39741">
        <ele>1586.3127441406</ele>
        <time>2011-06-11T07:52:12Z</time>
      </trkpt>
      <trkpt lat="42.71565" lon="1.39734">
        <ele>1589.1965332031</ele>
        <time>2011-06-11T07:52:19Z</time>
      </trkpt>
      <trkpt lat="42.71562" lon="1.39726">
        <ele>1593.0417480469</ele>
        <time>2011-06-11T07:52:25Z</time>
      </trkpt>
      <trkpt lat="42.71561" lon="1.39724">
        <ele>1594.0031738281</ele>
        <time>2011-06-11T07:52:27Z</time>
      </trkpt>
      <trkpt lat="42.71558" lon="1.39714">
        <ele>1603.6164550781</ele>
        <time>2011-06-11T07:52:36Z</time>
      </trkpt>
      <trkpt lat="42.71555" lon="1.39712">
        <ele>1601.6938476562</ele>
        <time>2011-06-11T07:52:42Z</time>
      </trkpt>
      <trkpt lat="42.71551" lon="1.39712">
        <ele>1600.251953125</ele>
        <time>2011-06-11T07:52:49Z</time>
      </trkpt>
      <trkpt lat="42.71548" lon="1.3971">
        <ele>1600.251953125</ele>
        <time>2011-06-11T07:52:56Z</time>
      </trkpt>
      <trkpt lat="42.71548" lon="1.39706">
        <ele>1600.251953125</ele>
        <time>2011-06-11T07:53:00Z</time>
      </trkpt>
      <trkpt lat="42.71551" lon="1.39704">
        <ele>1600.251953125</ele>
        <time>2011-06-11T07:53:05Z</time>
      </trkpt>
      <trkpt lat="42.71554" lon="1.39703">
        <ele>1599.7712402344</ele>
        <time>2011-06-11T07:53:11Z</time>
      </trkpt>
      <trkpt lat="42.71558" lon="1.39702">
        <ele>1600.251953125</ele>
        <time>2011-06-11T07:53:15Z</time>
      </trkpt>
      <trkpt lat="42.71563" lon="1.39703">
        <ele>1601.2131347656</ele>
        <time>2011-06-11T07:53:21Z</time>
      </trkpt>
      <trkpt lat="42.71568" lon="1.39701">
        <ele>1602.1743164062</ele>
        <time>2011-06-11T07:53:28Z</time>
      </trkpt>
      <trkpt lat="42.71574" lon="1.39702">
        <ele>1603.6164550781</ele>
        <time>2011-06-11T07:53:35Z</time>
      </trkpt>
      <trkpt lat="42.71572" lon="1.39698">
        <ele>1605.0583496094</ele>
        <time>2011-06-11T07:53:41Z</time>
      </trkpt>
      <trkpt lat="42.71567" lon="1.39693">
        <ele>1606.01953125</ele>
        <time>2011-06-11T07:53:49Z</time>
      </trkpt>
      <trkpt lat="42.71561" lon="1.39691">
        <ele>1607.4616699219</ele>
        <time>2011-06-11T07:53:56Z</time>
      </trkpt>
      <trkpt lat="42.71556" lon="1.39689">
        <ele>1609.3842773438</ele>
        <time>2011-06-11T07:54:02Z</time>
      </trkpt>
      <trkpt lat="42.71552" lon="1.39684">
        <ele>1610.826171875</ele>
        <time>2011-06-11T07:54:09Z</time>
      </trkpt>
      <trkpt lat="42.71548" lon="1.39683">
        <ele>1612.2683105469</ele>
        <time>2011-06-11T07:54:14Z</time>
      </trkpt>
      <trkpt lat="42.71543" lon="1.39681">
        <ele>1615.15234375</ele>
        <time>2011-06-11T07:54:21Z</time>
      </trkpt>
      <trkpt lat="42.71539" lon="1.39678">
        <ele>1616.5942382812</ele>
        <time>2011-06-11T07:54:27Z</time>
      </trkpt>
      <trkpt lat="42.71537" lon="1.39677">
        <ele>1617.5554199219</ele>
        <time>2011-06-11T07:54:31Z</time>
      </trkpt>
      <trkpt lat="42.71532" lon="1.39675">
        <ele>1619.4782714844</ele>
        <time>2011-06-11T07:54:38Z</time>
      </trkpt>
      <trkpt lat="42.71532" lon="1.3967">
        <ele>1620.439453125</ele>
        <time>2011-06-11T07:54:45Z</time>
      </trkpt>
      <trkpt lat="42.71531" lon="1.39668">
        <ele>1620.439453125</ele>
        <time>2011-06-11T07:54:51Z</time>
      </trkpt>
      <trkpt lat="42.71528" lon="1.39664">
        <ele>1621.4006347656</ele>
        <time>2011-06-11T07:54:56Z</time>
      </trkpt>
      <trkpt lat="42.71527" lon="1.39662">
        <ele>1622.8427734375</ele>
        <time>2011-06-11T07:55:02Z</time>
      </trkpt>
      <trkpt lat="42.71524" lon="1.3966">
        <ele>1624.7653808594</ele>
        <time>2011-06-11T07:55:09Z</time>
      </trkpt>
      <trkpt lat="42.71524" lon="1.39656">
        <ele>1629.0913085938</ele>
        <time>2011-06-11T07:55:15Z</time>
      </trkpt>
      <trkpt lat="42.71522" lon="1.3965">
        <ele>1633.4172363281</ele>
        <time>2011-06-11T07:55:22Z</time>
      </trkpt>
      <trkpt lat="42.7152" lon="1.39646">
        <ele>1633.8979492188</ele>
        <time>2011-06-11T07:55:26Z</time>
      </trkpt>
      <trkpt lat="42.71521" lon="1.39639">
        <ele>1636.3012695312</ele>
        <time>2011-06-11T07:55:33Z</time>
      </trkpt>
      <trkpt lat="42.71521" lon="1.39636">
        <ele>1635.8205566406</ele>
        <time>2011-06-11T07:55:37Z</time>
      </trkpt>
      <trkpt lat="42.71521" lon="1.39629">
        <ele>1637.2624511719</ele>
        <time>2011-06-11T07:55:44Z</time>
      </trkpt>
      <trkpt lat="42.71521" lon="1.39625">
        <ele>1636.7817382812</ele>
        <time>2011-06-11T07:55:49Z</time>
      </trkpt>
      <trkpt lat="42.7152" lon="1.39621">
        <ele>1636.7817382812</ele>
        <time>2011-06-11T07:55:55Z</time>
      </trkpt>
      <trkpt lat="42.71519" lon="1.39614">
        <ele>1638.7045898438</ele>
        <time>2011-06-11T07:56:01Z</time>
      </trkpt>
      <trkpt lat="42.71518" lon="1.39608">
        <ele>1639.6657714844</ele>
        <time>2011-06-11T07:56:08Z</time>
      </trkpt>
      <trkpt lat="42.71516" lon="1.39603">
        <ele>1641.1076660156</ele>
        <time>2011-06-11T07:56:14Z</time>
      </trkpt>
      <trkpt lat="42.71516" lon="1.39595">
        <ele>1643.0302734375</ele>
        <time>2011-06-11T07:56:21Z</time>
      </trkpt>
      <trkpt lat="42.71515" lon="1.39588">
        <ele>1644.4724121094</ele>
        <time>2011-06-11T07:56:28Z</time>
      </trkpt>
      <trkpt lat="42.71515" lon="1.39582">
        <ele>1644.953125</ele>
        <time>2011-06-11T07:56:34Z</time>
      </trkpt>
      <trkpt lat="42.71515" lon="1.39577">
        <ele>1645.4338378906</ele>
        <time>2011-06-11T07:56:39Z</time>
      </trkpt>
      <trkpt lat="42.71513" lon="1.39572">
        <ele>1645.9145507812</ele>
        <time>2011-06-11T07:56:45Z</time>
      </trkpt>
      <trkpt lat="42.71512" lon="1.39567">
        <ele>1646.3952636719</ele>
        <time>2011-06-11T07:56:50Z</time>
      </trkpt>
      <trkpt lat="42.71511" lon="1.39561">
        <ele>1647.3564453125</ele>
        <time>2011-06-11T07:56:55Z</time>
      </trkpt>
      <trkpt lat="42.71509" lon="1.39556">
        <ele>1647.3564453125</ele>
        <time>2011-06-11T07:57:00Z</time>
      </trkpt>
      <trkpt lat="42.71506" lon="1.39548">
        <ele>1648.3176269531</ele>
        <time>2011-06-11T07:57:06Z</time>
      </trkpt>
      <trkpt lat="42.71504" lon="1.39541">
        <ele>1650.2404785156</ele>
        <time>2011-06-11T07:57:10Z</time>
      </trkpt>
      <trkpt lat="42.71504" lon="1.39535">
        <ele>1647.8371582031</ele>
        <time>2011-06-11T07:57:17Z</time>
      </trkpt>
      <trkpt lat="42.71503" lon="1.39527">
        <ele>1648.7983398438</ele>
        <time>2011-06-11T07:57:24Z</time>
      </trkpt>
      <trkpt lat="42.71501" lon="1.39519">
        <ele>1650.2404785156</ele>
        <time>2011-06-11T07:57:30Z</time>
      </trkpt>
      <trkpt lat="42.715" lon="1.39514">
        <ele>1650.7209472656</ele>
        <time>2011-06-11T07:57:35Z</time>
      </trkpt>
      <trkpt lat="42.71497" lon="1.39506">
        <ele>1652.1628417969</ele>
        <time>2011-06-11T07:57:41Z</time>
      </trkpt>
      <trkpt lat="42.71496" lon="1.39499">
        <ele>1655.046875</ele>
        <time>2011-06-11T07:57:46Z</time>
      </trkpt>
      <trkpt lat="42.71496" lon="1.39491">
        <ele>1657.4501953125</ele>
        <time>2011-06-11T07:57:53Z</time>
      </trkpt>
      <trkpt lat="42.71495" lon="1.39486">
        <ele>1658.8920898438</ele>
        <time>2011-06-11T07:57:59Z</time>
      </trkpt>
      <trkpt lat="42.71494" lon="1.39482">
        <ele>1658.8920898438</ele>
        <time>2011-06-11T07:58:04Z</time>
      </trkpt>
      <trkpt lat="42.71492" lon="1.39475">
        <ele>1660.8149414062</ele>
        <time>2011-06-11T07:58:11Z</time>
      </trkpt>
      <trkpt lat="42.71491" lon="1.39464">
        <ele>1663.2182617188</ele>
        <time>2011-06-11T07:58:19Z</time>
      </trkpt>
      <trkpt lat="42.7149" lon="1.39461">
        <ele>1663.6987304688</ele>
        <time>2011-06-11T07:58:21Z</time>
      </trkpt>
      <trkpt lat="42.71489" lon="1.39454">
        <ele>1664.1794433594</ele>
        <time>2011-06-11T07:58:28Z</time>
      </trkpt>
      <trkpt lat="42.71489" lon="1.39447">
        <ele>1665.1408691406</ele>
        <time>2011-06-11T07:58:35Z</time>
      </trkpt>
      <trkpt lat="42.71487" lon="1.39441">
        <ele>1666.1020507812</ele>
        <time>2011-06-11T07:58:41Z</time>
      </trkpt>
      <trkpt lat="42.71484" lon="1.39437">
        <ele>1667.0634765625</ele>
        <time>2011-06-11T07:58:47Z</time>
      </trkpt>
      <trkpt lat="42.71484" lon="1.39431">
        <ele>1668.9860839844</ele>
        <time>2011-06-11T07:58:53Z</time>
      </trkpt>
      <trkpt lat="42.71484" lon="1.39424">
        <ele>1671.3891601562</ele>
        <time>2011-06-11T07:59:01Z</time>
      </trkpt>
      <trkpt lat="42.71481" lon="1.39424">
        <ele>1673.3120117188</ele>
        <time>2011-06-11T07:59:07Z</time>
      </trkpt>
      <trkpt lat="42.71478" lon="1.39422">
        <ele>1674.75390625</ele>
        <time>2011-06-11T07:59:14Z</time>
      </trkpt>
      <trkpt lat="42.71475" lon="1.39419">
        <ele>1676.6767578125</ele>
        <time>2011-06-11T07:59:20Z</time>
      </trkpt>
      <trkpt lat="42.71474" lon="1.39414">
        <ele>1677.6379394531</ele>
        <time>2011-06-11T07:59:26Z</time>
      </trkpt>
      <trkpt lat="42.71474" lon="1.39414">
        <ele>1678.5993652344</ele>
        <time>2011-06-11T07:59:34Z</time>
      </trkpt>
      <trkpt lat="42.71474" lon="1.39411">
        <ele>1678.5993652344</ele>
        <time>2011-06-11T07:59:40Z</time>
      </trkpt>
      <trkpt lat="42.71473" lon="1.39408">
        <ele>1678.1186523438</ele>
        <time>2011-06-11T07:59:45Z</time>
      </trkpt>
      <trkpt lat="42.71469" lon="1.39399">
        <ele>1678.1186523438</ele>
        <time>2011-06-11T07:59:52Z</time>
      </trkpt>
      <trkpt lat="42.71466" lon="1.39395">
        <ele>1678.5993652344</ele>
        <time>2011-06-11T07:59:56Z</time>
      </trkpt>
      <trkpt lat="42.71463" lon="1.3939">
        <ele>1679.560546875</ele>
        <time>2011-06-11T08:00:01Z</time>
      </trkpt>
      <trkpt lat="42.71459" lon="1.39383">
        <ele>1680.0412597656</ele>
        <time>2011-06-11T08:00:07Z</time>
      </trkpt>
      <trkpt lat="42.71454" lon="1.39377">
        <ele>1681.0026855469</ele>
        <time>2011-06-11T08:00:14Z</time>
      </trkpt>
      <trkpt lat="42.71452" lon="1.39375">
        <ele>1681.4831542969</ele>
        <time>2011-06-11T08:00:17Z</time>
      </trkpt>
      <trkpt lat="42.71449" lon="1.3937">
        <ele>1681.4831542969</ele>
        <time>2011-06-11T08:00:21Z</time>
      </trkpt>
      <trkpt lat="42.71443" lon="1.39361">
        <ele>1682.4445800781</ele>
        <time>2011-06-11T08:00:28Z</time>
      </trkpt>
      <trkpt lat="42.71438" lon="1.39354">
        <ele>1682.9250488281</ele>
        <time>2011-06-11T08:00:34Z</time>
      </trkpt>
      <trkpt lat="42.71434" lon="1.39345">
        <ele>1682.9250488281</ele>
        <time>2011-06-11T08:00:40Z</time>
      </trkpt>
      <trkpt lat="42.71433" lon="1.39343">
        <ele>1682.9250488281</ele>
        <time>2011-06-11T08:00:41Z</time>
      </trkpt>
      <trkpt lat="42.71428" lon="1.39337">
        <ele>1683.8864746094</ele>
        <time>2011-06-11T08:00:47Z</time>
      </trkpt>
      <trkpt lat="42.71428" lon="1.39333">
        <ele>1683.8864746094</ele>
        <time>2011-06-11T08:00:49Z</time>
      </trkpt>
      <trkpt lat="42.71426" lon="1.39322">
        <ele>1684.3671875</ele>
        <time>2011-06-11T08:00:56Z</time>
      </trkpt>
      <trkpt lat="42.71422" lon="1.39313">
        <ele>1685.8090820312</ele>
        <time>2011-06-11T08:01:02Z</time>
      </trkpt>
      <trkpt lat="42.71416" lon="1.39304">
        <ele>1687.2509765625</ele>
        <time>2011-06-11T08:01:09Z</time>
      </trkpt>
      <trkpt lat="42.71415" lon="1.39299">
        <ele>1688.2124023438</ele>
        <time>2011-06-11T08:01:13Z</time>
      </trkpt>
      <trkpt lat="42.71413" lon="1.39291">
        <ele>1689.1735839844</ele>
        <time>2011-06-11T08:01:18Z</time>
      </trkpt>
      <trkpt lat="42.71411" lon="1.39279">
        <ele>1690.1350097656</ele>
        <time>2011-06-11T08:01:25Z</time>
      </trkpt>
      <trkpt lat="42.71413" lon="1.39277">
        <ele>1690.6154785156</ele>
        <time>2011-06-11T08:01:28Z</time>
      </trkpt>
      <trkpt lat="42.71412" lon="1.39265">
        <ele>1691.5769042969</ele>
        <time>2011-06-11T08:01:35Z</time>
      </trkpt>
      <trkpt lat="42.71412" lon="1.3925">
        <ele>1692.0578613281</ele>
        <time>2011-06-11T08:01:43Z</time>
      </trkpt>
      <trkpt lat="42.71412" lon="1.39236">
        <ele>1692.0578613281</ele>
        <time>2011-06-11T08:01:51Z</time>
      </trkpt>
      <trkpt lat="42.71411" lon="1.39231">
        <ele>1692.5385742188</ele>
        <time>2011-06-11T08:01:54Z</time>
      </trkpt>
      <trkpt lat="42.71409" lon="1.39219">
        <ele>1693.0190429688</ele>
        <time>2011-06-11T08:02:01Z</time>
      </trkpt>
      <trkpt lat="42.71406" lon="1.39207">
        <ele>1693.0190429688</ele>
        <time>2011-06-11T08:02:08Z</time>
      </trkpt>
      <trkpt lat="42.71405" lon="1.39196">
        <ele>1693.0190429688</ele>
        <time>2011-06-11T08:02:15Z</time>
      </trkpt>
      <trkpt lat="42.71402" lon="1.39185">
        <ele>1691.5769042969</ele>
        <time>2011-06-11T08:02:21Z</time>
      </trkpt>
      <trkpt lat="42.71399" lon="1.39174">
        <ele>1690.1350097656</ele>
        <time>2011-06-11T08:02:26Z</time>
      </trkpt>
      <trkpt lat="42.71392" lon="1.39162">
        <ele>1689.1735839844</ele>
        <time>2011-06-11T08:02:34Z</time>
      </trkpt>
      <trkpt lat="42.71388" lon="1.39156">
        <ele>1689.1735839844</ele>
        <time>2011-06-11T08:02:39Z</time>
      </trkpt>
      <trkpt lat="42.71385" lon="1.39152">
        <ele>1688.6931152344</ele>
        <time>2011-06-11T08:02:44Z</time>
      </trkpt>
      <trkpt lat="42.71384" lon="1.39149">
        <ele>1688.2124023438</ele>
        <time>2011-06-11T08:02:46Z</time>
      </trkpt>
      <trkpt lat="42.71381" lon="1.39143">
        <ele>1687.7316894531</ele>
        <time>2011-06-11T08:02:50Z</time>
      </trkpt>
      <trkpt lat="42.71379" lon="1.39136">
        <ele>1687.7316894531</ele>
        <time>2011-06-11T08:02:56Z</time>
      </trkpt>
      <trkpt lat="42.71376" lon="1.39127">
        <ele>1688.6931152344</ele>
        <time>2011-06-11T08:03:03Z</time>
      </trkpt>
      <trkpt lat="42.71375" lon="1.39115">
        <ele>1689.654296875</ele>
        <time>2011-06-11T08:03:10Z</time>
      </trkpt>
      <trkpt lat="42.71374" lon="1.3911">
        <ele>1690.1350097656</ele>
        <time>2011-06-11T08:03:15Z</time>
      </trkpt>
      <trkpt lat="42.71373" lon="1.391">
        <ele>1691.0961914062</ele>
        <time>2011-06-11T08:03:21Z</time>
      </trkpt>
      <trkpt lat="42.71373" lon="1.39092">
        <ele>1692.5385742188</ele>
        <time>2011-06-11T08:03:27Z</time>
      </trkpt>
      <trkpt lat="42.71373" lon="1.39083">
        <ele>1694.4609375</ele>
        <time>2011-06-11T08:03:35Z</time>
      </trkpt>
      <trkpt lat="42.71374" lon="1.3908">
        <ele>1694.4609375</ele>
        <time>2011-06-11T08:03:37Z</time>
      </trkpt>
      <trkpt lat="42.71376" lon="1.3907">
        <ele>1695.9030761719</ele>
        <time>2011-06-11T08:03:44Z</time>
      </trkpt>
      <trkpt lat="42.71379" lon="1.39057">
        <ele>1698.7868652344</ele>
        <time>2011-06-11T08:03:52Z</time>
      </trkpt>
      <trkpt lat="42.71381" lon="1.39053">
        <ele>1699.7482910156</ele>
        <time>2011-06-11T08:03:56Z</time>
      </trkpt>
      <trkpt lat="42.7138" lon="1.39045">
        <ele>1700.7094726562</ele>
        <time>2011-06-11T08:04:03Z</time>
      </trkpt>
      <trkpt lat="42.71381" lon="1.39038">
        <ele>1701.6708984375</ele>
        <time>2011-06-11T08:04:09Z</time>
      </trkpt>
      <trkpt lat="42.71384" lon="1.39032">
        <ele>1702.1513671875</ele>
        <time>2011-06-11T08:04:15Z</time>
      </trkpt>
      <trkpt lat="42.71383" lon="1.39024">
        <ele>1703.1127929688</ele>
        <time>2011-06-11T08:04:21Z</time>
      </trkpt>
      <trkpt lat="42.71381" lon="1.39016">
        <ele>1704.5546875</ele>
        <time>2011-06-11T08:04:28Z</time>
      </trkpt>
      <trkpt lat="42.71379" lon="1.39004">
        <ele>1705.0354003906</ele>
        <time>2011-06-11T08:04:37Z</time>
      </trkpt>
      <trkpt lat="42.71378" lon="1.38988">
        <ele>1705.9965820312</ele>
        <time>2011-06-11T08:04:47Z</time>
      </trkpt>
      <trkpt lat="42.71376" lon="1.38977">
        <ele>1706.4772949219</ele>
        <time>2011-06-11T08:04:53Z</time>
      </trkpt>
      <trkpt lat="42.71376" lon="1.38964">
        <ele>1707.9194335938</ele>
        <time>2011-06-11T08:05:02Z</time>
      </trkpt>
      <trkpt lat="42.71376" lon="1.38958">
        <ele>1708.4001464844</ele>
        <time>2011-06-11T08:05:07Z</time>
      </trkpt>
      <trkpt lat="42.71374" lon="1.38952">
        <ele>1709.8420410156</ele>
        <time>2011-06-11T08:05:12Z</time>
      </trkpt>
      <trkpt lat="42.71373" lon="1.38942">
        <ele>1710.8034667969</ele>
        <time>2011-06-11T08:05:19Z</time>
      </trkpt>
      <trkpt lat="42.71372" lon="1.38935">
        <ele>1712.2453613281</ele>
        <time>2011-06-11T08:05:24Z</time>
      </trkpt>
      <trkpt lat="42.7137" lon="1.38927">
        <ele>1713.6872558594</ele>
        <time>2011-06-11T08:05:31Z</time>
      </trkpt>
      <trkpt lat="42.7137" lon="1.3892">
        <ele>1714.16796875</ele>
        <time>2011-06-11T08:05:37Z</time>
      </trkpt>
      <trkpt lat="42.71369" lon="1.38912">
        <ele>1714.6486816406</ele>
        <time>2011-06-11T08:05:43Z</time>
      </trkpt>
      <trkpt lat="42.71369" lon="1.38911">
        <ele>1714.6486816406</ele>
        <time>2011-06-11T08:05:44Z</time>
      </trkpt>
      <trkpt lat="42.71369" lon="1.38897">
        <ele>1714.6486816406</ele>
        <time>2011-06-11T08:05:52Z</time>
      </trkpt>
      <trkpt lat="42.71368" lon="1.38885">
        <ele>1714.6486816406</ele>
        <time>2011-06-11T08:06:00Z</time>
      </trkpt>
      <trkpt lat="42.71366" lon="1.38873">
        <ele>1714.6486816406</ele>
        <time>2011-06-11T08:06:07Z</time>
      </trkpt>
      <trkpt lat="42.71367" lon="1.38867">
        <ele>1714.16796875</ele>
        <time>2011-06-11T08:06:10Z</time>
      </trkpt>
      <trkpt lat="42.71365" lon="1.38856">
        <ele>1713.6872558594</ele>
        <time>2011-06-11T08:06:18Z</time>
      </trkpt>
      <trkpt lat="42.71361" lon="1.38848">
        <ele>1714.6486816406</ele>
        <time>2011-06-11T08:06:25Z</time>
      </trkpt>
      <trkpt lat="42.71359" lon="1.38841">
        <ele>1714.6486816406</ele>
        <time>2011-06-11T08:06:30Z</time>
      </trkpt>
      <trkpt lat="42.71358" lon="1.38834">
        <ele>1714.16796875</ele>
        <time>2011-06-11T08:06:35Z</time>
      </trkpt>
      <trkpt lat="42.71357" lon="1.38825">
        <ele>1715.1293945312</ele>
        <time>2011-06-11T08:06:41Z</time>
      </trkpt>
      <trkpt lat="42.71355" lon="1.38817">
        <ele>1716.5712890625</ele>
        <time>2011-06-11T08:06:46Z</time>
      </trkpt>
      <trkpt lat="42.71355" lon="1.3881">
        <ele>1718.0131835938</ele>
        <time>2011-06-11T08:06:51Z</time>
      </trkpt>
      <trkpt lat="42.71354" lon="1.38805">
        <ele>1719.4553222656</ele>
        <time>2011-06-11T08:06:55Z</time>
      </trkpt>
      <trkpt lat="42.71352" lon="1.38796">
        <ele>1720.8972167969</ele>
        <time>2011-06-11T08:07:04Z</time>
      </trkpt>
      <trkpt lat="42.7135" lon="1.38784">
        <ele>1722.3391113281</ele>
        <time>2011-06-11T08:07:13Z</time>
      </trkpt>
      <trkpt lat="42.71349" lon="1.38772">
        <ele>1723.7810058594</ele>
        <time>2011-06-11T08:07:21Z</time>
      </trkpt>
      <trkpt lat="42.71347" lon="1.3876">
        <ele>1726.1845703125</ele>
        <time>2011-06-11T08:07:30Z</time>
      </trkpt>
      <trkpt lat="42.71346" lon="1.38756">
        <ele>1726.6652832031</ele>
        <time>2011-06-11T08:07:35Z</time>
      </trkpt>
      <trkpt lat="42.71345" lon="1.38749">
        <ele>1729.5490722656</ele>
        <time>2011-06-11T08:07:42Z</time>
      </trkpt>
      <trkpt lat="42.71344" lon="1.38744">
        <ele>1732.9135742188</ele>
        <time>2011-06-11T08:07:49Z</time>
      </trkpt>
      <trkpt lat="42.71343" lon="1.3874">
        <ele>1732.9135742188</ele>
        <time>2011-06-11T08:07:55Z</time>
      </trkpt>
      <trkpt lat="42.71342" lon="1.38735">
        <ele>1734.8364257812</ele>
        <time>2011-06-11T08:08:02Z</time>
      </trkpt>
      <trkpt lat="42.71341" lon="1.38729">
        <ele>1735.3168945312</ele>
        <time>2011-06-11T08:08:08Z</time>
      </trkpt>
      <trkpt lat="42.71339" lon="1.38722">
        <ele>1736.7587890625</ele>
        <time>2011-06-11T08:08:15Z</time>
      </trkpt>
      <trkpt lat="42.71338" lon="1.38716">
        <ele>1737.7202148438</ele>
        <time>2011-06-11T08:08:22Z</time>
      </trkpt>
      <trkpt lat="42.71336" lon="1.38715">
        <ele>1739.162109375</ele>
        <time>2011-06-11T08:08:28Z</time>
      </trkpt>
      <trkpt lat="42.71334" lon="1.38713">
        <ele>1739.6428222656</ele>
        <time>2011-06-11T08:08:33Z</time>
      </trkpt>
      <trkpt lat="42.71333" lon="1.38708">
        <ele>1740.1237792969</ele>
        <time>2011-06-11T08:08:39Z</time>
      </trkpt>
      <trkpt lat="42.71332" lon="1.38704">
        <ele>1740.6042480469</ele>
        <time>2011-06-11T08:08:44Z</time>
      </trkpt>
      <trkpt lat="42.71329" lon="1.38691">
        <ele>1741.0849609375</ele>
        <time>2011-06-11T08:08:54Z</time>
      </trkpt>
      <trkpt lat="42.71326" lon="1.38682">
        <ele>1743.9689941406</ele>
        <time>2011-06-11T08:09:03Z</time>
      </trkpt>
      <trkpt lat="42.71324" lon="1.38678">
        <ele>1745.4108886719</ele>
        <time>2011-06-11T08:09:08Z</time>
      </trkpt>
      <trkpt lat="42.71322" lon="1.38672">
        <ele>1746.8527832031</ele>
        <time>2011-06-11T08:09:15Z</time>
      </trkpt>
      <trkpt lat="42.71319" lon="1.38667">
        <ele>1749.7368164062</ele>
        <time>2011-06-11T08:09:23Z</time>
      </trkpt>
      <trkpt lat="42.71316" lon="1.38669">
        <ele>1751.6594238281</ele>
        <time>2011-06-11T08:09:28Z</time>
      </trkpt>
      <trkpt lat="42.71312" lon="1.38665">
        <ele>1752.6206054688</ele>
        <time>2011-06-11T08:09:35Z</time>
      </trkpt>
      <trkpt lat="42.71308" lon="1.38661">
        <ele>1754.0627441406</ele>
        <time>2011-06-11T08:09:41Z</time>
      </trkpt>
      <trkpt lat="42.71302" lon="1.38658">
        <ele>1754.5432128906</ele>
        <time>2011-06-11T08:09:48Z</time>
      </trkpt>
      <trkpt lat="42.71297" lon="1.38654">
        <ele>1756.9467773438</ele>
        <time>2011-06-11T08:09:56Z</time>
      </trkpt>
      <trkpt lat="42.71293" lon="1.38649">
        <ele>1758.8693847656</ele>
        <time>2011-06-11T08:10:04Z</time>
      </trkpt>
      <trkpt lat="42.71289" lon="1.38644">
        <ele>1760.7919921875</ele>
        <time>2011-06-11T08:10:11Z</time>
      </trkpt>
      <trkpt lat="42.71286" lon="1.38641">
        <ele>1762.2338867188</ele>
        <time>2011-06-11T08:10:16Z</time>
      </trkpt>
      <trkpt lat="42.71283" lon="1.38634">
        <ele>1762.7145996094</ele>
        <time>2011-06-11T08:10:22Z</time>
      </trkpt>
      <trkpt lat="42.71283" lon="1.38627">
        <ele>1763.1953125</ele>
        <time>2011-06-11T08:10:27Z</time>
      </trkpt>
      <trkpt lat="42.71281" lon="1.38617">
        <ele>1764.6372070312</ele>
        <time>2011-06-11T08:10:36Z</time>
      </trkpt>
      <trkpt lat="42.71278" lon="1.3861">
        <ele>1766.5598144531</ele>
        <time>2011-06-11T08:10:45Z</time>
      </trkpt>
      <trkpt lat="42.71277" lon="1.38609">
        <ele>1765.5986328125</ele>
        <time>2011-06-11T08:10:53Z</time>
      </trkpt>
      <trkpt lat="42.71278" lon="1.38609">
        <ele>1765.5986328125</ele>
        <time>2011-06-11T08:11:06Z</time>
      </trkpt>
      <trkpt lat="42.71275" lon="1.38607">
        <ele>1766.5598144531</ele>
        <time>2011-06-11T08:11:11Z</time>
      </trkpt>
      <trkpt lat="42.71274" lon="1.38604">
        <ele>1766.5598144531</ele>
        <time>2011-06-11T08:11:17Z</time>
      </trkpt>
      <trkpt lat="42.71268" lon="1.38599">
        <ele>1768.0017089844</ele>
        <time>2011-06-11T08:11:25Z</time>
      </trkpt>
      <trkpt lat="42.71264" lon="1.38593">
        <ele>1769.4438476562</ele>
        <time>2011-06-11T08:11:32Z</time>
      </trkpt>
      <trkpt lat="42.71262" lon="1.3859">
        <ele>1770.4050292969</ele>
        <time>2011-06-11T08:11:38Z</time>
      </trkpt>
      <trkpt lat="42.7126" lon="1.38587">
        <ele>1770.8857421875</ele>
        <time>2011-06-11T08:11:44Z</time>
      </trkpt>
      <trkpt lat="42.71261" lon="1.38589">
        <ele>1770.8857421875</ele>
        <time>2011-06-11T08:11:57Z</time>
      </trkpt>
      <trkpt lat="42.71265" lon="1.38594">
        <ele>1769.9243164062</ele>
        <time>2011-06-11T08:12:03Z</time>
      </trkpt>
      <trkpt lat="42.71267" lon="1.38599">
        <ele>1768.0017089844</ele>
        <time>2011-06-11T08:12:08Z</time>
      </trkpt>
      <trkpt lat="42.71271" lon="1.38602">
        <ele>1766.5598144531</ele>
        <time>2011-06-11T08:12:15Z</time>
      </trkpt>
      <trkpt lat="42.71272" lon="1.38598">
        <ele>1766.5598144531</ele>
        <time>2011-06-11T08:12:19Z</time>
      </trkpt>
      <trkpt lat="42.71271" lon="1.38591">
        <ele>1767.0405273438</ele>
        <time>2011-06-11T08:12:26Z</time>
      </trkpt>
      <trkpt lat="42.7127" lon="1.38589">
        <ele>1767.0405273438</ele>
        <time>2011-06-11T08:12:33Z</time>
      </trkpt>
      <trkpt lat="42.71269" lon="1.38586">
        <ele>1766.0791015625</ele>
        <time>2011-06-11T08:13:19Z</time>
      </trkpt>
      <trkpt lat="42.71264" lon="1.38574">
        <ele>1767.5209960938</ele>
        <time>2011-06-11T08:13:29Z</time>
      </trkpt>
      <trkpt lat="42.71264" lon="1.38572">
        <ele>1768.0017089844</ele>
        <time>2011-06-11T08:13:31Z</time>
      </trkpt>
      <trkpt lat="42.71262" lon="1.38563">
        <ele>1768.9631347656</ele>
        <time>2011-06-11T08:13:37Z</time>
      </trkpt>
      <trkpt lat="42.71258" lon="1.38555">
        <ele>1771.3662109375</ele>
        <time>2011-06-11T08:13:45Z</time>
      </trkpt>
      <trkpt lat="42.71252" lon="1.38552">
        <ele>1773.2893066406</ele>
        <time>2011-06-11T08:13:51Z</time>
      </trkpt>
      <trkpt lat="42.71248" lon="1.3855">
        <ele>1774.7312011719</ele>
        <time>2011-06-11T08:13:56Z</time>
      </trkpt>
      <trkpt lat="42.71247" lon="1.38549">
        <ele>1774.7312011719</ele>
        <time>2011-06-11T08:13:57Z</time>
      </trkpt>
      <trkpt lat="42.71244" lon="1.38542">
        <ele>1776.6538085938</ele>
        <time>2011-06-11T08:14:04Z</time>
      </trkpt>
      <trkpt lat="42.71242" lon="1.38534">
        <ele>1777.6149902344</ele>
        <time>2011-06-11T08:14:10Z</time>
      </trkpt>
      <trkpt lat="42.71241" lon="1.38532">
        <ele>1777.6149902344</ele>
        <time>2011-06-11T08:14:11Z</time>
      </trkpt>
      <trkpt lat="42.71235" lon="1.38527">
        <ele>1778.5764160156</ele>
        <time>2011-06-11T08:14:18Z</time>
      </trkpt>
      <trkpt lat="42.71232" lon="1.38518">
        <ele>1780.0183105469</ele>
        <time>2011-06-11T08:14:24Z</time>
      </trkpt>
      <trkpt lat="42.71231" lon="1.38512">
        <ele>1780.9797363281</ele>
        <time>2011-06-11T08:14:29Z</time>
      </trkpt>
      <trkpt lat="42.71228" lon="1.38507">
        <ele>1781.4602050781</ele>
        <time>2011-06-11T08:14:35Z</time>
      </trkpt>
      <trkpt lat="42.71225" lon="1.38501">
        <ele>1783.3828125</ele>
        <time>2011-06-11T08:14:42Z</time>
      </trkpt>
      <trkpt lat="42.71222" lon="1.38495">
        <ele>1784.3442382812</ele>
        <time>2011-06-11T08:14:48Z</time>
      </trkpt>
      <trkpt lat="42.71218" lon="1.38489">
        <ele>1784.3442382812</ele>
        <time>2011-06-11T08:14:53Z</time>
      </trkpt>
      <trkpt lat="42.71216" lon="1.38484">
        <ele>1784.8249511719</ele>
        <time>2011-06-11T08:14:57Z</time>
      </trkpt>
      <trkpt lat="42.71213" lon="1.38472">
        <ele>1786.2668457031</ele>
        <time>2011-06-11T08:15:06Z</time>
      </trkpt>
      <trkpt lat="42.71211" lon="1.38463">
        <ele>1788.6704101562</ele>
        <time>2011-06-11T08:15:13Z</time>
      </trkpt>
      <trkpt lat="42.71211" lon="1.38455">
        <ele>1791.0734863281</ele>
        <time>2011-06-11T08:15:21Z</time>
      </trkpt>
      <trkpt lat="42.71209" lon="1.3845">
        <ele>1792.0349121094</ele>
        <time>2011-06-11T08:15:26Z</time>
      </trkpt>
      <trkpt lat="42.71207" lon="1.3844">
        <ele>1793.9575195312</ele>
        <time>2011-06-11T08:15:33Z</time>
      </trkpt>
      <trkpt lat="42.71204" lon="1.38431">
        <ele>1793.9575195312</ele>
        <time>2011-06-11T08:15:39Z</time>
      </trkpt>
      <trkpt lat="42.71202" lon="1.38428">
        <ele>1793.9575195312</ele>
        <time>2011-06-11T08:15:41Z</time>
      </trkpt>
      <trkpt lat="42.71201" lon="1.38421">
        <ele>1792.515625</ele>
        <time>2011-06-11T08:15:48Z</time>
      </trkpt>
      <trkpt lat="42.71201" lon="1.38415">
        <ele>1793.4768066406</ele>
        <time>2011-06-11T08:15:53Z</time>
      </trkpt>
      <trkpt lat="42.71199" lon="1.38409">
        <ele>1794.9187011719</ele>
        <time>2011-06-11T08:15:59Z</time>
      </trkpt>
      <trkpt lat="42.71197" lon="1.38401">
        <ele>1796.3608398438</ele>
        <time>2011-06-11T08:16:07Z</time>
      </trkpt>
      <trkpt lat="42.71195" lon="1.38396">
        <ele>1795.8801269531</ele>
        <time>2011-06-11T08:16:14Z</time>
      </trkpt>
      <trkpt lat="42.71194" lon="1.38391">
        <ele>1796.3608398438</ele>
        <time>2011-06-11T08:16:20Z</time>
      </trkpt>
      <trkpt lat="42.71194" lon="1.38387">
        <ele>1796.3608398438</ele>
        <time>2011-06-11T08:16:26Z</time>
      </trkpt>
      <trkpt lat="42.71193" lon="1.38382">
        <ele>1796.8413085938</ele>
        <time>2011-06-11T08:16:31Z</time>
      </trkpt>
      <trkpt lat="42.71194" lon="1.38375">
        <ele>1798.283203125</ele>
        <time>2011-06-11T08:16:38Z</time>
      </trkpt>
      <trkpt lat="42.71198" lon="1.3837">
        <ele>1799.2446289062</ele>
        <time>2011-06-11T08:16:45Z</time>
      </trkpt>
      <trkpt lat="42.71194" lon="1.38365">
        <ele>1800.6865234375</ele>
        <time>2011-06-11T08:16:51Z</time>
      </trkpt>
      <trkpt lat="42.71195" lon="1.38356">
        <ele>1801.6479492188</ele>
        <time>2011-06-11T08:16:58Z</time>
      </trkpt>
      <trkpt lat="42.71196" lon="1.38349">
        <ele>1801.6479492188</ele>
        <time>2011-06-11T08:17:04Z</time>
      </trkpt>
      <trkpt lat="42.71196" lon="1.38341">
        <ele>1800.6865234375</ele>
        <time>2011-06-11T08:17:11Z</time>
      </trkpt>
      <trkpt lat="42.71192" lon="1.38336">
        <ele>1801.1672363281</ele>
        <time>2011-06-11T08:17:18Z</time>
      </trkpt>
      <trkpt lat="42.71189" lon="1.38332">
        <ele>1801.1672363281</ele>
        <time>2011-06-11T08:17:22Z</time>
      </trkpt>
      <trkpt lat="42.71187" lon="1.38323">
        <ele>1801.6479492188</ele>
        <time>2011-06-11T08:17:29Z</time>
      </trkpt>
      <trkpt lat="42.71185" lon="1.38315">
        <ele>1802.1284179688</ele>
        <time>2011-06-11T08:17:35Z</time>
      </trkpt>
      <trkpt lat="42.71184" lon="1.38306">
        <ele>1802.1284179688</ele>
        <time>2011-06-11T08:17:43Z</time>
      </trkpt>
      <trkpt lat="42.71184" lon="1.38302">
        <ele>1803.08984375</ele>
        <time>2011-06-11T08:17:45Z</time>
      </trkpt>
      <trkpt lat="42.71184" lon="1.38295">
        <ele>1804.5319824219</ele>
        <time>2011-06-11T08:17:50Z</time>
      </trkpt>
      <trkpt lat="42.71186" lon="1.38287">
        <ele>1802.6091308594</ele>
        <time>2011-06-11T08:17:57Z</time>
      </trkpt>
      <trkpt lat="42.71183" lon="1.38278">
        <ele>1805.0126953125</ele>
        <time>2011-06-11T08:18:05Z</time>
      </trkpt>
      <trkpt lat="42.71181" lon="1.38271">
        <ele>1805.9738769531</ele>
        <time>2011-06-11T08:18:12Z</time>
      </trkpt>
      <trkpt lat="42.7118" lon="1.38263">
        <ele>1806.4545898438</ele>
        <time>2011-06-11T08:18:18Z</time>
      </trkpt>
      <trkpt lat="42.7118" lon="1.38258">
        <ele>1806.9353027344</ele>
        <time>2011-06-11T08:18:21Z</time>
      </trkpt>
      <trkpt lat="42.71178" lon="1.38253">
        <ele>1806.9353027344</ele>
        <time>2011-06-11T08:18:25Z</time>
      </trkpt>
      <trkpt lat="42.71177" lon="1.38246">
        <ele>1807.8967285156</ele>
        <time>2011-06-11T08:18:32Z</time>
      </trkpt>
      <trkpt lat="42.71175" lon="1.38241">
        <ele>1808.3771972656</ele>
        <time>2011-06-11T08:18:37Z</time>
      </trkpt>
      <trkpt lat="42.71175" lon="1.38236">
        <ele>1808.3771972656</ele>
        <time>2011-06-11T08:18:42Z</time>
      </trkpt>
      <trkpt lat="42.71176" lon="1.38228">
        <ele>1810.2998046875</ele>
        <time>2011-06-11T08:18:49Z</time>
      </trkpt>
      <trkpt lat="42.71176" lon="1.3822">
        <ele>1812.703125</ele>
        <time>2011-06-11T08:18:57Z</time>
      </trkpt>
      <trkpt lat="42.71177" lon="1.38215">
        <ele>1814.6257324219</ele>
        <time>2011-06-11T08:19:03Z</time>
      </trkpt>
      <trkpt lat="42.71175" lon="1.38213">
        <ele>1816.0676269531</ele>
        <time>2011-06-11T08:19:08Z</time>
      </trkpt>
      <trkpt lat="42.71175" lon="1.38209">
        <ele>1816.5483398438</ele>
        <time>2011-06-11T08:19:13Z</time>
      </trkpt>
      <trkpt lat="42.71174" lon="1.38203">
        <ele>1819.4323730469</ele>
        <time>2011-06-11T08:19:20Z</time>
      </trkpt>
      <trkpt lat="42.71172" lon="1.38197">
        <ele>1820.3937988281</ele>
        <time>2011-06-11T08:19:27Z</time>
      </trkpt>
      <trkpt lat="42.7117" lon="1.38192">
        <ele>1822.31640625</ele>
        <time>2011-06-11T08:19:34Z</time>
      </trkpt>
      <trkpt lat="42.71167" lon="1.38189">
        <ele>1823.7583007812</ele>
        <time>2011-06-11T08:19:41Z</time>
      </trkpt>
      <trkpt lat="42.71164" lon="1.38187">
        <ele>1824.7197265625</ele>
        <time>2011-06-11T08:19:47Z</time>
      </trkpt>
      <trkpt lat="42.71161" lon="1.38184">
        <ele>1825.6809082031</ele>
        <time>2011-06-11T08:19:53Z</time>
      </trkpt>
      <trkpt lat="42.71162" lon="1.38181">
        <ele>1827.123046875</ele>
        <time>2011-06-11T08:19:58Z</time>
      </trkpt>
      <trkpt lat="42.71163" lon="1.38178">
        <ele>1827.123046875</ele>
        <time>2011-06-11T08:20:04Z</time>
      </trkpt>
      <trkpt lat="42.71162" lon="1.38174">
        <ele>1829.0454101562</ele>
        <time>2011-06-11T08:20:09Z</time>
      </trkpt>
      <trkpt lat="42.71159" lon="1.38171">
        <ele>1829.5261230469</ele>
        <time>2011-06-11T08:20:14Z</time>
      </trkpt>
      <trkpt lat="42.71155" lon="1.38168">
        <ele>1829.5261230469</ele>
        <time>2011-06-11T08:20:20Z</time>
      </trkpt>
      <trkpt lat="42.71151" lon="1.38163">
        <ele>1830.0068359375</ele>
        <time>2011-06-11T08:20:26Z</time>
      </trkpt>
      <trkpt lat="42.7115" lon="1.3816">
        <ele>1830.4875488281</ele>
        <time>2011-06-11T08:20:30Z</time>
      </trkpt>
      <trkpt lat="42.71147" lon="1.38154">
        <ele>1830.9682617188</ele>
        <time>2011-06-11T08:20:36Z</time>
      </trkpt>
      <trkpt lat="42.71144" lon="1.38145">
        <ele>1834.8134765625</ele>
        <time>2011-06-11T08:20:44Z</time>
      </trkpt>
      <trkpt lat="42.71144" lon="1.38142">
        <ele>1835.7746582031</ele>
        <time>2011-06-11T08:20:46Z</time>
      </trkpt>
      <trkpt lat="42.7114" lon="1.38132">
        <ele>1835.7746582031</ele>
        <time>2011-06-11T08:20:54Z</time>
      </trkpt>
      <trkpt lat="42.71136" lon="1.38124">
        <ele>1835.7746582031</ele>
        <time>2011-06-11T08:21:01Z</time>
      </trkpt>
      <trkpt lat="42.71131" lon="1.38114">
        <ele>1836.2556152344</ele>
        <time>2011-06-11T08:21:10Z</time>
      </trkpt>
      <trkpt lat="42.71129" lon="1.3811">
        <ele>1837.216796875</ele>
        <time>2011-06-11T08:21:15Z</time>
      </trkpt>
      <trkpt lat="42.71126" lon="1.38105">
        <ele>1839.6201171875</ele>
        <time>2011-06-11T08:21:23Z</time>
      </trkpt>
      <trkpt lat="42.71122" lon="1.38104">
        <ele>1841.5427246094</ele>
        <time>2011-06-11T08:21:30Z</time>
      </trkpt>
      <trkpt lat="42.71119" lon="1.38101">
        <ele>1842.5041503906</ele>
        <time>2011-06-11T08:21:36Z</time>
      </trkpt>
      <trkpt lat="42.71118" lon="1.38097">
        <ele>1843.4653320312</ele>
        <time>2011-06-11T08:21:41Z</time>
      </trkpt>
      <trkpt lat="42.71117" lon="1.38092">
        <ele>1845.3879394531</ele>
        <time>2011-06-11T08:21:47Z</time>
      </trkpt>
      <trkpt lat="42.71117" lon="1.38087">
        <ele>1844.9072265625</ele>
        <time>2011-06-11T08:21:52Z</time>
      </trkpt>
      <trkpt lat="42.71115" lon="1.38084">
        <ele>1846.3493652344</ele>
        <time>2011-06-11T08:21:58Z</time>
      </trkpt>
      <trkpt lat="42.71114" lon="1.38081">
        <ele>1847.7912597656</ele>
        <time>2011-06-11T08:22:03Z</time>
      </trkpt>
      <trkpt lat="42.71112" lon="1.38076">
        <ele>1850.1945800781</ele>
        <time>2011-06-11T08:22:10Z</time>
      </trkpt>
      <trkpt lat="42.71114" lon="1.38071">
        <ele>1851.1557617188</ele>
        <time>2011-06-11T08:22:16Z</time>
      </trkpt>
      <trkpt lat="42.71114" lon="1.38067">
        <ele>1852.1171875</ele>
        <time>2011-06-11T08:22:21Z</time>
      </trkpt>
      <trkpt lat="42.71115" lon="1.3806">
        <ele>1851.6364746094</ele>
        <time>2011-06-11T08:22:27Z</time>
      </trkpt>
      <trkpt lat="42.71115" lon="1.38052">
        <ele>1852.5979003906</ele>
        <time>2011-06-11T08:22:33Z</time>
      </trkpt>
      <trkpt lat="42.71112" lon="1.38049">
        <ele>1853.5593261719</ele>
        <time>2011-06-11T08:22:39Z</time>
      </trkpt>
      <trkpt lat="42.71109" lon="1.38043">
        <ele>1856.4431152344</ele>
        <time>2011-06-11T08:22:47Z</time>
      </trkpt>
      <trkpt lat="42.71105" lon="1.38038">
        <ele>1859.3271484375</ele>
        <time>2011-06-11T08:22:54Z</time>
      </trkpt>
      <trkpt lat="42.71104" lon="1.38035">
        <ele>1860.7690429688</ele>
        <time>2011-06-11T08:22:59Z</time>
      </trkpt>
      <trkpt lat="42.71104" lon="1.38027">
        <ele>1862.6916503906</ele>
        <time>2011-06-11T08:23:06Z</time>
      </trkpt>
      <trkpt lat="42.71101" lon="1.38023">
        <ele>1863.6528320312</ele>
        <time>2011-06-11T08:23:12Z</time>
      </trkpt>
      <trkpt lat="42.71098" lon="1.38017">
        <ele>1864.6142578125</ele>
        <time>2011-06-11T08:23:18Z</time>
      </trkpt>
      <trkpt lat="42.71095" lon="1.38015">
        <ele>1864.6142578125</ele>
        <time>2011-06-11T08:23:24Z</time>
      </trkpt>
      <trkpt lat="42.71092" lon="1.3801">
        <ele>1865.5756835938</ele>
        <time>2011-06-11T08:23:31Z</time>
      </trkpt>
      <trkpt lat="42.71089" lon="1.3801">
        <ele>1865.5756835938</ele>
        <time>2011-06-11T08:23:35Z</time>
      </trkpt>
      <trkpt lat="42.71086" lon="1.38007">
        <ele>1866.5368652344</ele>
        <time>2011-06-11T08:23:40Z</time>
      </trkpt>
      <trkpt lat="42.71084" lon="1.38002">
        <ele>1867.9787597656</ele>
        <time>2011-06-11T08:23:46Z</time>
      </trkpt>
      <trkpt lat="42.71082" lon="1.37999">
        <ele>1867.498046875</ele>
        <time>2011-06-11T08:23:52Z</time>
      </trkpt>
      <trkpt lat="42.7108" lon="1.37995">
        <ele>1867.498046875</ele>
        <time>2011-06-11T08:23:58Z</time>
      </trkpt>
      <trkpt lat="42.71078" lon="1.37989">
        <ele>1866.0561523438</ele>
        <time>2011-06-11T08:24:05Z</time>
      </trkpt>
      <trkpt lat="42.71075" lon="1.37982">
        <ele>1866.0561523438</ele>
        <time>2011-06-11T08:24:11Z</time>
      </trkpt>
      <trkpt lat="42.71071" lon="1.37976">
        <ele>1866.0561523438</ele>
        <time>2011-06-11T08:24:17Z</time>
      </trkpt>
      <trkpt lat="42.71069" lon="1.37972">
        <ele>1864.6142578125</ele>
        <time>2011-06-11T08:24:22Z</time>
      </trkpt>
      <trkpt lat="42.71069" lon="1.37968">
        <ele>1863.6528320312</ele>
        <time>2011-06-11T08:24:26Z</time>
      </trkpt>
      <trkpt lat="42.71064" lon="1.37963">
        <ele>1862.2109375</ele>
        <time>2011-06-11T08:24:31Z</time>
      </trkpt>
      <trkpt lat="42.71062" lon="1.37956">
        <ele>1861.73046875</ele>
        <time>2011-06-11T08:24:36Z</time>
      </trkpt>
      <trkpt lat="42.71059" lon="1.37947">
        <ele>1869.9016113281</ele>
        <time>2011-06-11T08:24:43Z</time>
      </trkpt>
      <trkpt lat="42.71059" lon="1.37945">
        <ele>1871.82421875</ele>
        <time>2011-06-11T08:24:45Z</time>
      </trkpt>
      <trkpt lat="42.71056" lon="1.37941">
        <ele>1871.82421875</ele>
        <time>2011-06-11T08:24:52Z</time>
      </trkpt>
      <trkpt lat="42.71053" lon="1.3794">
        <ele>1870.8630371094</ele>
        <time>2011-06-11T08:24:58Z</time>
      </trkpt>
      <trkpt lat="42.71051" lon="1.37937">
        <ele>1871.82421875</ele>
        <time>2011-06-11T08:25:04Z</time>
      </trkpt>
      <trkpt lat="42.71047" lon="1.37933">
        <ele>1873.2663574219</ele>
        <time>2011-06-11T08:25:11Z</time>
      </trkpt>
      <trkpt lat="42.71046" lon="1.37929">
        <ele>1874.7082519531</ele>
        <time>2011-06-11T08:25:17Z</time>
      </trkpt>
      <trkpt lat="42.71045" lon="1.37925">
        <ele>1873.7468261719</ele>
        <time>2011-06-11T08:25:22Z</time>
      </trkpt>
      <trkpt lat="42.71044" lon="1.37922">
        <ele>1873.7468261719</ele>
        <time>2011-06-11T08:25:26Z</time>
      </trkpt>
      <trkpt lat="42.71041" lon="1.37919">
        <ele>1874.7082519531</ele>
        <time>2011-06-11T08:25:33Z</time>
      </trkpt>
      <trkpt lat="42.71038" lon="1.37916">
        <ele>1877.5920410156</ele>
        <time>2011-06-11T08:25:39Z</time>
      </trkpt>
      <trkpt lat="42.71036" lon="1.37914">
        <ele>1877.5920410156</ele>
        <time>2011-06-11T08:25:45Z</time>
      </trkpt>
      <trkpt lat="42.71035" lon="1.37911">
        <ele>1877.5920410156</ele>
        <time>2011-06-11T08:25:51Z</time>
      </trkpt>
      <trkpt lat="42.71036" lon="1.37908">
        <ele>1878.0727539062</ele>
        <time>2011-06-11T08:26:00Z</time>
      </trkpt>
      <trkpt lat="42.71036" lon="1.37907">
        <ele>1878.5534667969</ele>
        <time>2011-06-11T08:26:09Z</time>
      </trkpt>
      <trkpt lat="42.71036" lon="1.37905">
        <ele>1883.3598632812</ele>
        <time>2011-06-11T08:26:17Z</time>
      </trkpt>
      <trkpt lat="42.71035" lon="1.37903">
        <ele>1888.1667480469</ele>
        <time>2011-06-11T08:26:36Z</time>
      </trkpt>
      <trkpt lat="42.71035" lon="1.37904">
        <ele>1883.3598632812</ele>
        <time>2011-06-11T08:26:43Z</time>
      </trkpt>
      <trkpt lat="42.71035" lon="1.37902">
        <ele>1881.4372558594</ele>
        <time>2011-06-11T08:26:49Z</time>
      </trkpt>
      <trkpt lat="42.71033" lon="1.37899">
        <ele>1881.4372558594</ele>
        <time>2011-06-11T08:26:55Z</time>
      </trkpt>
      <trkpt lat="42.71032" lon="1.37895">
        <ele>1880.9567871094</ele>
        <time>2011-06-11T08:27:03Z</time>
      </trkpt>
      <trkpt lat="42.71032" lon="1.37891">
        <ele>1881.91796875</ele>
        <time>2011-06-11T08:27:09Z</time>
      </trkpt>
      <trkpt lat="42.71032" lon="1.37887">
        <ele>1886.244140625</ele>
        <time>2011-06-11T08:27:17Z</time>
      </trkpt>
      <trkpt lat="42.7103" lon="1.37887">
        <ele>1888.1667480469</ele>
        <time>2011-06-11T08:27:23Z</time>
      </trkpt>
      <trkpt lat="42.71029" lon="1.37886">
        <ele>1888.6474609375</ele>
        <time>2011-06-11T08:27:29Z</time>
      </trkpt>
      <trkpt lat="42.7103" lon="1.37884">
        <ele>1889.1279296875</ele>
        <time>2011-06-11T08:27:36Z</time>
      </trkpt>
      <trkpt lat="42.71028" lon="1.37884">
        <ele>1890.0893554688</ele>
        <time>2011-06-11T08:27:44Z</time>
      </trkpt>
      <trkpt lat="42.71026" lon="1.37882">
        <ele>1890.5698242188</ele>
        <time>2011-06-11T08:27:51Z</time>
      </trkpt>
      <trkpt lat="42.71025" lon="1.3788">
        <ele>1892.4926757812</ele>
        <time>2011-06-11T08:27:58Z</time>
      </trkpt>
      <trkpt lat="42.71024" lon="1.37877">
        <ele>1893.4538574219</ele>
        <time>2011-06-11T08:28:04Z</time>
      </trkpt>
      <trkpt lat="42.71025" lon="1.37876">
        <ele>1894.8957519531</ele>
        <time>2011-06-11T08:28:10Z</time>
      </trkpt>
      <trkpt lat="42.71025" lon="1.37872">
        <ele>1896.337890625</ele>
        <time>2011-06-11T08:28:17Z</time>
      </trkpt>
      <trkpt lat="42.71022" lon="1.37872">
        <ele>1896.818359375</ele>
        <time>2011-06-11T08:28:27Z</time>
      </trkpt>
      <trkpt lat="42.71021" lon="1.3787">
        <ele>1895.8571777344</ele>
        <time>2011-06-11T08:28:34Z</time>
      </trkpt>
      <trkpt lat="42.71022" lon="1.3787">
        <ele>1894.4150390625</ele>
        <time>2011-06-11T08:28:42Z</time>
      </trkpt>
      <trkpt lat="42.71021" lon="1.37869">
        <ele>1892.9731445312</ele>
        <time>2011-06-11T08:28:49Z</time>
      </trkpt>
      <trkpt lat="42.71021" lon="1.37866">
        <ele>1892.0119628906</ele>
        <time>2011-06-11T08:28:58Z</time>
      </trkpt>
      <trkpt lat="42.71021" lon="1.37866">
        <ele>1891.0505371094</ele>
        <time>2011-06-11T08:29:07Z</time>
      </trkpt>
      <trkpt lat="42.71021" lon="1.37865">
        <ele>1890.5698242188</ele>
        <time>2011-06-11T08:29:15Z</time>
      </trkpt>
      <trkpt lat="42.71022" lon="1.37861">
        <ele>1893.4538574219</ele>
        <time>2011-06-11T08:29:26Z</time>
      </trkpt>
      <trkpt lat="42.71023" lon="1.3786">
        <ele>1891.53125</ele>
        <time>2011-06-11T08:29:37Z</time>
      </trkpt>
      <trkpt lat="42.7102" lon="1.37854">
        <ele>1890.0893554688</ele>
        <time>2011-06-11T08:29:44Z</time>
      </trkpt>
      <trkpt lat="42.71019" lon="1.37851">
        <ele>1890.5698242188</ele>
        <time>2011-06-11T08:29:49Z</time>
      </trkpt>
      <trkpt lat="42.71017" lon="1.37844">
        <ele>1892.4926757812</ele>
        <time>2011-06-11T08:29:55Z</time>
      </trkpt>
      <trkpt lat="42.71015" lon="1.3784">
        <ele>1892.9731445312</ele>
        <time>2011-06-11T08:30:01Z</time>
      </trkpt>
      <trkpt lat="42.71015" lon="1.37832">
        <ele>1894.4150390625</ele>
        <time>2011-06-11T08:30:09Z</time>
      </trkpt>
      <trkpt lat="42.71012" lon="1.37823">
        <ele>1892.9731445312</ele>
        <time>2011-06-11T08:30:18Z</time>
      </trkpt>
      <trkpt lat="42.71008" lon="1.37819">
        <ele>1893.9345703125</ele>
        <time>2011-06-11T08:30:24Z</time>
      </trkpt>
      <trkpt lat="42.71006" lon="1.37813">
        <ele>1894.8957519531</ele>
        <time>2011-06-11T08:30:30Z</time>
      </trkpt>
      <trkpt lat="42.71004" lon="1.37809">
        <ele>1895.3764648438</ele>
        <time>2011-06-11T08:30:37Z</time>
      </trkpt>
      <trkpt lat="42.71002" lon="1.37805">
        <ele>1894.8957519531</ele>
        <time>2011-06-11T08:30:43Z</time>
      </trkpt>
      <trkpt lat="42.71002" lon="1.37801">
        <ele>1894.4150390625</ele>
        <time>2011-06-11T08:30:47Z</time>
      </trkpt>
      <trkpt lat="42.71001" lon="1.37795">
        <ele>1894.8957519531</ele>
        <time>2011-06-11T08:30:53Z</time>
      </trkpt>
      <trkpt lat="42.71" lon="1.37793">
        <ele>1895.3764648438</ele>
        <time>2011-06-11T08:30:58Z</time>
      </trkpt>
      <trkpt lat="42.70999" lon="1.37789">
        <ele>1895.3764648438</ele>
        <time>2011-06-11T08:31:03Z</time>
      </trkpt>
      <trkpt lat="42.70998" lon="1.37786">
        <ele>1895.3764648438</ele>
        <time>2011-06-11T08:31:09Z</time>
      </trkpt>
      <trkpt lat="42.70998" lon="1.3778">
        <ele>1894.4150390625</ele>
        <time>2011-06-11T08:31:17Z</time>
      </trkpt>
      <trkpt lat="42.70997" lon="1.37776">
        <ele>1896.337890625</ele>
        <time>2011-06-11T08:31:23Z</time>
      </trkpt>
      <trkpt lat="42.70996" lon="1.37773">
        <ele>1894.8957519531</ele>
        <time>2011-06-11T08:31:29Z</time>
      </trkpt>
      <trkpt lat="42.70996" lon="1.37771">
        <ele>1893.9345703125</ele>
        <time>2011-06-11T08:31:38Z</time>
      </trkpt>
      <trkpt lat="42.70995" lon="1.37764">
        <ele>1893.4538574219</ele>
        <time>2011-06-11T08:31:45Z</time>
      </trkpt>
      <trkpt lat="42.70993" lon="1.37759">
        <ele>1892.0119628906</ele>
        <time>2011-06-11T08:31:51Z</time>
      </trkpt>
      <trkpt lat="42.70991" lon="1.37752">
        <ele>1891.53125</ele>
        <time>2011-06-11T08:31:58Z</time>
      </trkpt>
      <trkpt lat="42.70988" lon="1.37744">
        <ele>1892.4926757812</ele>
        <time>2011-06-11T08:32:04Z</time>
      </trkpt>
      <trkpt lat="42.70987" lon="1.37739">
        <ele>1893.9345703125</ele>
        <time>2011-06-11T08:32:10Z</time>
      </trkpt>
      <trkpt lat="42.70985" lon="1.37735">
        <ele>1895.3764648438</ele>
        <time>2011-06-11T08:32:15Z</time>
      </trkpt>
      <trkpt lat="42.70983" lon="1.37731">
        <ele>1896.337890625</ele>
        <time>2011-06-11T08:32:20Z</time>
      </trkpt>
      <trkpt lat="42.70981" lon="1.37729">
        <ele>1898.7409667969</ele>
        <time>2011-06-11T08:32:26Z</time>
      </trkpt>
      <trkpt lat="42.70977" lon="1.37729">
        <ele>1899.7023925781</ele>
        <time>2011-06-11T08:32:33Z</time>
      </trkpt>
      <trkpt lat="42.70976" lon="1.37725">
        <ele>1901.14453125</ele>
        <time>2011-06-11T08:32:37Z</time>
      </trkpt>
      <trkpt lat="42.70972" lon="1.37723">
        <ele>1901.6252441406</ele>
        <time>2011-06-11T08:32:42Z</time>
      </trkpt>
      <trkpt lat="42.7097" lon="1.37719">
        <ele>1904.0285644531</ele>
        <time>2011-06-11T08:32:49Z</time>
      </trkpt>
      <trkpt lat="42.70968" lon="1.37717">
        <ele>1905.4704589844</ele>
        <time>2011-06-11T08:32:54Z</time>
      </trkpt>
      <trkpt lat="42.70967" lon="1.37713">
        <ele>1908.3542480469</ele>
        <time>2011-06-11T08:33:01Z</time>
      </trkpt>
      <trkpt lat="42.70967" lon="1.3771">
        <ele>1908.8349609375</ele>
        <time>2011-06-11T08:33:06Z</time>
      </trkpt>
      <trkpt lat="42.70964" lon="1.37706">
        <ele>1908.8349609375</ele>
        <time>2011-06-11T08:33:13Z</time>
      </trkpt>
      <trkpt lat="42.70961" lon="1.37702">
        <ele>1909.3156738281</ele>
        <time>2011-06-11T08:33:19Z</time>
      </trkpt>
      <trkpt lat="42.70957" lon="1.37699">
        <ele>1909.3156738281</ele>
        <time>2011-06-11T08:33:25Z</time>
      </trkpt>
      <trkpt lat="42.70955" lon="1.37692">
        <ele>1909.3156738281</ele>
        <time>2011-06-11T08:33:33Z</time>
      </trkpt>
      <trkpt lat="42.70954" lon="1.37687">
        <ele>1908.3542480469</ele>
        <time>2011-06-11T08:33:39Z</time>
      </trkpt>
      <trkpt lat="42.70953" lon="1.37682">
        <ele>1907.8737792969</ele>
        <time>2011-06-11T08:33:44Z</time>
      </trkpt>
      <trkpt lat="42.70952" lon="1.37676">
        <ele>1905.9509277344</ele>
        <time>2011-06-11T08:33:49Z</time>
      </trkpt>
      <trkpt lat="42.70951" lon="1.37671">
        <ele>1906.431640625</ele>
        <time>2011-06-11T08:33:54Z</time>
      </trkpt>
      <trkpt lat="42.7095" lon="1.37666">
        <ele>1906.9123535156</ele>
        <time>2011-06-11T08:34:01Z</time>
      </trkpt>
      <trkpt lat="42.70951" lon="1.37662">
        <ele>1906.431640625</ele>
        <time>2011-06-11T08:34:08Z</time>
      </trkpt>
      <trkpt lat="42.70951" lon="1.37657">
        <ele>1905.4704589844</ele>
        <time>2011-06-11T08:34:14Z</time>
      </trkpt>
      <trkpt lat="42.7095" lon="1.3765">
        <ele>1905.9509277344</ele>
        <time>2011-06-11T08:34:21Z</time>
      </trkpt>
      <trkpt lat="42.7095" lon="1.37644">
        <ele>1906.431640625</ele>
        <time>2011-06-11T08:34:28Z</time>
      </trkpt>
      <trkpt lat="42.70951" lon="1.3764">
        <ele>1907.3930664062</ele>
        <time>2011-06-11T08:34:33Z</time>
      </trkpt>
      <trkpt lat="42.70951" lon="1.37633">
        <ele>1905.9509277344</ele>
        <time>2011-06-11T08:34:39Z</time>
      </trkpt>
      <trkpt lat="42.70949" lon="1.37628">
        <ele>1906.431640625</ele>
        <time>2011-06-11T08:34:42Z</time>
      </trkpt>
      <trkpt lat="42.7094" lon="1.37617">
        <ele>1906.431640625</ele>
        <time>2011-06-11T08:34:48Z</time>
      </trkpt>
      <trkpt lat="42.70939" lon="1.37616">
        <ele>1906.9123535156</ele>
        <time>2011-06-11T08:34:49Z</time>
      </trkpt>
      <trkpt lat="42.70935" lon="1.37608">
        <ele>1907.3930664062</ele>
        <time>2011-06-11T08:34:55Z</time>
      </trkpt>
      <trkpt lat="42.70932" lon="1.376">
        <ele>1907.8737792969</ele>
        <time>2011-06-11T08:34:59Z</time>
      </trkpt>
      <trkpt lat="42.70927" lon="1.37592">
        <ele>1907.8737792969</ele>
        <time>2011-06-11T08:35:05Z</time>
      </trkpt>
      <trkpt lat="42.70923" lon="1.37586">
        <ele>1907.8737792969</ele>
        <time>2011-06-11T08:35:10Z</time>
      </trkpt>
      <trkpt lat="42.70918" lon="1.37575">
        <ele>1907.8737792969</ele>
        <time>2011-06-11T08:35:18Z</time>
      </trkpt>
      <trkpt lat="42.70912" lon="1.3757">
        <ele>1909.7961425781</ele>
        <time>2011-06-11T08:35:25Z</time>
      </trkpt>
      <trkpt lat="42.70907" lon="1.37564">
        <ele>1911.7189941406</ele>
        <time>2011-06-11T08:35:31Z</time>
      </trkpt>
      <trkpt lat="42.70905" lon="1.37562">
        <ele>1912.1994628906</ele>
        <time>2011-06-11T08:35:34Z</time>
      </trkpt>
      <trkpt lat="42.70905" lon="1.37555">
        <ele>1912.6801757812</ele>
        <time>2011-06-11T08:35:40Z</time>
      </trkpt>
      <trkpt lat="42.70904" lon="1.37552">
        <ele>1912.6801757812</ele>
        <time>2011-06-11T08:35:44Z</time>
      </trkpt>
      <trkpt lat="42.70903" lon="1.37547">
        <ele>1912.6801757812</ele>
        <time>2011-06-11T08:35:51Z</time>
      </trkpt>
      <trkpt lat="42.70902" lon="1.37541">
        <ele>1912.6801757812</ele>
        <time>2011-06-11T08:35:57Z</time>
      </trkpt>
      <trkpt lat="42.70899" lon="1.37536">
        <ele>1911.23828125</ele>
        <time>2011-06-11T08:36:02Z</time>
      </trkpt>
      <trkpt lat="42.70897" lon="1.37529">
        <ele>1909.7961425781</ele>
        <time>2011-06-11T08:36:08Z</time>
      </trkpt>
      <trkpt lat="42.70896" lon="1.37523">
        <ele>1909.7961425781</ele>
        <time>2011-06-11T08:36:13Z</time>
      </trkpt>
      <trkpt lat="42.70894" lon="1.3752">
        <ele>1908.8349609375</ele>
        <time>2011-06-11T08:36:17Z</time>
      </trkpt>
      <trkpt lat="42.70893" lon="1.37514">
        <ele>1908.3542480469</ele>
        <time>2011-06-11T08:36:21Z</time>
      </trkpt>
      <trkpt lat="42.70891" lon="1.37511">
        <ele>1908.3542480469</ele>
        <time>2011-06-11T08:36:24Z</time>
      </trkpt>
      <trkpt lat="42.70885" lon="1.37497">
        <ele>1909.7961425781</ele>
        <time>2011-06-11T08:36:33Z</time>
      </trkpt>
      <trkpt lat="42.70876" lon="1.37486">
        <ele>1909.3156738281</ele>
        <time>2011-06-11T08:36:42Z</time>
      </trkpt>
      <trkpt lat="42.70873" lon="1.37476">
        <ele>1910.2768554688</ele>
        <time>2011-06-11T08:36:49Z</time>
      </trkpt>
      <trkpt lat="42.70872" lon="1.37465">
        <ele>1911.23828125</ele>
        <time>2011-06-11T08:36:56Z</time>
      </trkpt>
      <trkpt lat="42.7087" lon="1.37456">
        <ele>1910.7575683594</ele>
        <time>2011-06-11T08:37:03Z</time>
      </trkpt>
      <trkpt lat="42.70869" lon="1.37455">
        <ele>1910.7575683594</ele>
        <time>2011-06-11T08:37:04Z</time>
      </trkpt>
      <trkpt lat="42.70869" lon="1.3745">
        <ele>1911.23828125</ele>
        <time>2011-06-11T08:37:08Z</time>
      </trkpt>
      <trkpt lat="42.70867" lon="1.37445">
        <ele>1912.1994628906</ele>
        <time>2011-06-11T08:37:12Z</time>
      </trkpt>
      <trkpt lat="42.70865" lon="1.3744">
        <ele>1912.1994628906</ele>
        <time>2011-06-11T08:37:16Z</time>
      </trkpt>
      <trkpt lat="42.70863" lon="1.37434">
        <ele>1913.1608886719</ele>
        <time>2011-06-11T08:37:20Z</time>
      </trkpt>
      <trkpt lat="42.70863" lon="1.37425">
        <ele>1913.6413574219</ele>
        <time>2011-06-11T08:37:26Z</time>
      </trkpt>
      <trkpt lat="42.7086" lon="1.37418">
        <ele>1913.6413574219</ele>
        <time>2011-06-11T08:37:31Z</time>
      </trkpt>
      <trkpt lat="42.70859" lon="1.37417">
        <ele>1913.6413574219</ele>
        <time>2011-06-11T08:37:33Z</time>
      </trkpt>
      <trkpt lat="42.70855" lon="1.37409">
        <ele>1915.0834960938</ele>
        <time>2011-06-11T08:37:40Z</time>
      </trkpt>
      <trkpt lat="42.70854" lon="1.37404">
        <ele>1916.5256347656</ele>
        <time>2011-06-11T08:37:44Z</time>
      </trkpt>
      <trkpt lat="42.70853" lon="1.37396">
        <ele>1917.9675292969</ele>
        <time>2011-06-11T08:37:51Z</time>
      </trkpt>
      <trkpt lat="42.70851" lon="1.37387">
        <ele>1916.044921875</ele>
        <time>2011-06-11T08:37:58Z</time>
      </trkpt>
      <trkpt lat="42.70848" lon="1.3738">
        <ele>1916.5256347656</ele>
        <time>2011-06-11T08:38:05Z</time>
      </trkpt>
      <trkpt lat="42.70848" lon="1.37375">
        <ele>1917.4868164062</ele>
        <time>2011-06-11T08:38:10Z</time>
      </trkpt>
      <trkpt lat="42.70847" lon="1.37369">
        <ele>1919.4096679688</ele>
        <time>2011-06-11T08:38:15Z</time>
      </trkpt>
      <trkpt lat="42.70846" lon="1.37365">
        <ele>1920.3708496094</ele>
        <time>2011-06-11T08:38:19Z</time>
      </trkpt>
      <trkpt lat="42.70845" lon="1.37361">
        <ele>1920.8515625</ele>
        <time>2011-06-11T08:38:23Z</time>
      </trkpt>
      <trkpt lat="42.70842" lon="1.37356">
        <ele>1922.2934570312</ele>
        <time>2011-06-11T08:38:29Z</time>
      </trkpt>
      <trkpt lat="42.7084" lon="1.37352">
        <ele>1924.2160644531</ele>
        <time>2011-06-11T08:38:34Z</time>
      </trkpt>
      <trkpt lat="42.70839" lon="1.37344">
        <ele>1923.2548828125</ele>
        <time>2011-06-11T08:38:41Z</time>
      </trkpt>
      <trkpt lat="42.70836" lon="1.3734">
        <ele>1925.1772460938</ele>
        <time>2011-06-11T08:38:46Z</time>
      </trkpt>
      <trkpt lat="42.70834" lon="1.37339">
        <ele>1926.138671875</ele>
        <time>2011-06-11T08:38:50Z</time>
      </trkpt>
      <trkpt lat="42.70832" lon="1.37334">
        <ele>1927.1000976562</ele>
        <time>2011-06-11T08:38:55Z</time>
      </trkpt>
      <trkpt lat="42.70832" lon="1.37326">
        <ele>1929.5031738281</ele>
        <time>2011-06-11T08:39:03Z</time>
      </trkpt>
      <trkpt lat="42.70828" lon="1.37325">
        <ele>1930.4645996094</ele>
        <time>2011-06-11T08:39:07Z</time>
      </trkpt>
      <trkpt lat="42.70826" lon="1.37321">
        <ele>1931.9064941406</ele>
        <time>2011-06-11T08:39:12Z</time>
      </trkpt>
      <trkpt lat="42.70824" lon="1.37314">
        <ele>1933.8293457031</ele>
        <time>2011-06-11T08:39:20Z</time>
      </trkpt>
      <trkpt lat="42.70821" lon="1.3731">
        <ele>1937.1938476562</ele>
        <time>2011-06-11T08:39:26Z</time>
      </trkpt>
      <trkpt lat="42.70819" lon="1.37305">
        <ele>1938.1552734375</ele>
        <time>2011-06-11T08:39:32Z</time>
      </trkpt>
      <trkpt lat="42.70815" lon="1.373">
        <ele>1939.1164550781</ele>
        <time>2011-06-11T08:39:39Z</time>
      </trkpt>
      <trkpt lat="42.70811" lon="1.37296">
        <ele>1940.0778808594</ele>
        <time>2011-06-11T08:39:45Z</time>
      </trkpt>
      <trkpt lat="42.70807" lon="1.3729">
        <ele>1942.0004882812</ele>
        <time>2011-06-11T08:39:53Z</time>
      </trkpt>
      <trkpt lat="42.70803" lon="1.37285">
        <ele>1943.4423828125</ele>
        <time>2011-06-11T08:39:59Z</time>
      </trkpt>
      <trkpt lat="42.708" lon="1.37281">
        <ele>1944.4035644531</ele>
        <time>2011-06-11T08:40:05Z</time>
      </trkpt>
      <trkpt lat="42.70797" lon="1.37276">
        <ele>1945.845703125</ele>
        <time>2011-06-11T08:40:11Z</time>
      </trkpt>
      <trkpt lat="42.70795" lon="1.37272">
        <ele>1947.7683105469</ele>
        <time>2011-06-11T08:40:17Z</time>
      </trkpt>
      <trkpt lat="42.70792" lon="1.37267">
        <ele>1948.2490234375</ele>
        <time>2011-06-11T08:40:23Z</time>
      </trkpt>
      <trkpt lat="42.70787" lon="1.37261">
        <ele>1949.6911621094</ele>
        <time>2011-06-11T08:40:32Z</time>
      </trkpt>
      <trkpt lat="42.70785" lon="1.37256">
        <ele>1951.1330566406</ele>
        <time>2011-06-11T08:40:38Z</time>
      </trkpt>
      <trkpt lat="42.70782" lon="1.37252">
        <ele>1953.0556640625</ele>
        <time>2011-06-11T08:40:44Z</time>
      </trkpt>
      <trkpt lat="42.70779" lon="1.37252">
        <ele>1954.0170898438</ele>
        <time>2011-06-11T08:40:50Z</time>
      </trkpt>
      <trkpt lat="42.70777" lon="1.37247">
        <ele>1955.458984375</ele>
        <time>2011-06-11T08:40:56Z</time>
      </trkpt>
      <trkpt lat="42.70774" lon="1.37241">
        <ele>1956.4201660156</ele>
        <time>2011-06-11T08:41:04Z</time>
      </trkpt>
      <trkpt lat="42.70771" lon="1.37239">
        <ele>1958.3427734375</ele>
        <time>2011-06-11T08:41:09Z</time>
      </trkpt>
      <trkpt lat="42.70767" lon="1.37238">
        <ele>1959.7846679688</ele>
        <time>2011-06-11T08:41:15Z</time>
      </trkpt>
      <trkpt lat="42.70765" lon="1.37236">
        <ele>1961.2268066406</ele>
        <time>2011-06-11T08:41:21Z</time>
      </trkpt>
      <trkpt lat="42.70763" lon="1.3723">
        <ele>1963.1494140625</ele>
        <time>2011-06-11T08:41:27Z</time>
      </trkpt>
      <trkpt lat="42.7076" lon="1.37227">
        <ele>1964.1108398438</ele>
        <time>2011-06-11T08:41:32Z</time>
      </trkpt>
      <trkpt lat="42.70757" lon="1.37221">
        <ele>1966.5141601562</ele>
        <time>2011-06-11T08:41:40Z</time>
      </trkpt>
      <trkpt lat="42.70753" lon="1.37215">
        <ele>1969.3981933594</ele>
        <time>2011-06-11T08:41:47Z</time>
      </trkpt>
      <trkpt lat="42.70749" lon="1.37213">
        <ele>1970.359375</ele>
        <time>2011-06-11T08:41:53Z</time>
      </trkpt>
      <trkpt lat="42.70745" lon="1.37207">
        <ele>1971.8012695312</ele>
        <time>2011-06-11T08:42:00Z</time>
      </trkpt>
      <trkpt lat="42.70739" lon="1.37204">
        <ele>1972.7626953125</ele>
        <time>2011-06-11T08:42:08Z</time>
      </trkpt>
      <trkpt lat="42.70732" lon="1.37198">
        <ele>1974.6853027344</ele>
        <time>2011-06-11T08:42:17Z</time>
      </trkpt>
      <trkpt lat="42.70727" lon="1.37197">
        <ele>1975.646484375</ele>
        <time>2011-06-11T08:42:23Z</time>
      </trkpt>
      <trkpt lat="42.70721" lon="1.37192">
        <ele>1977.5690917969</ele>
        <time>2011-06-11T08:42:31Z</time>
      </trkpt>
      <trkpt lat="42.70713" lon="1.37188">
        <ele>1979.0109863281</ele>
        <time>2011-06-11T08:42:40Z</time>
      </trkpt>
      <trkpt lat="42.7071" lon="1.37185">
        <ele>1980.9340820312</ele>
        <time>2011-06-11T08:42:46Z</time>
      </trkpt>
      <trkpt lat="42.70706" lon="1.37184">
        <ele>1982.8564453125</ele>
        <time>2011-06-11T08:42:52Z</time>
      </trkpt>
      <trkpt lat="42.70701" lon="1.37182">
        <ele>1983.8178710938</ele>
        <time>2011-06-11T08:42:58Z</time>
      </trkpt>
      <trkpt lat="42.70697" lon="1.37178">
        <ele>1985.259765625</ele>
        <time>2011-06-11T08:43:05Z</time>
      </trkpt>
      <trkpt lat="42.70691" lon="1.37176">
        <ele>1985.259765625</ele>
        <time>2011-06-11T08:43:12Z</time>
      </trkpt>
      <trkpt lat="42.70686" lon="1.37173">
        <ele>1986.2211914062</ele>
        <time>2011-06-11T08:43:19Z</time>
      </trkpt>
      <trkpt lat="42.70682" lon="1.37169">
        <ele>1987.1823730469</ele>
        <time>2011-06-11T08:43:26Z</time>
      </trkpt>
      <trkpt lat="42.70676" lon="1.37166">
        <ele>1988.1437988281</ele>
        <time>2011-06-11T08:43:33Z</time>
      </trkpt>
      <trkpt lat="42.70671" lon="1.37163">
        <ele>1989.1049804688</ele>
        <time>2011-06-11T08:43:38Z</time>
      </trkpt>
      <trkpt lat="42.7067" lon="1.37162">
        <ele>1989.1049804688</ele>
        <time>2011-06-11T08:43:40Z</time>
      </trkpt>
      <trkpt lat="42.70663" lon="1.37154">
        <ele>1990.06640625</ele>
        <time>2011-06-11T08:43:48Z</time>
      </trkpt>
      <trkpt lat="42.7066" lon="1.37149">
        <ele>1990.546875</ele>
        <time>2011-06-11T08:43:53Z</time>
      </trkpt>
      <trkpt lat="42.70659" lon="1.37147">
        <ele>1991.0275878906</ele>
        <time>2011-06-11T08:43:55Z</time>
      </trkpt>
      <trkpt lat="42.70654" lon="1.37141">
        <ele>1992.9501953125</ele>
        <time>2011-06-11T08:44:03Z</time>
      </trkpt>
      <trkpt lat="42.7065" lon="1.37137">
        <ele>1994.3920898438</ele>
        <time>2011-06-11T08:44:09Z</time>
      </trkpt>
      <trkpt lat="42.70646" lon="1.37129">
        <ele>1995.353515625</ele>
        <time>2011-06-11T08:44:16Z</time>
      </trkpt>
      <trkpt lat="42.70642" lon="1.37125">
        <ele>1996.7956542969</ele>
        <time>2011-06-11T08:44:22Z</time>
      </trkpt>
      <trkpt lat="42.70638" lon="1.37124">
        <ele>1996.7956542969</ele>
        <time>2011-06-11T08:44:28Z</time>
      </trkpt>
      <trkpt lat="42.70634" lon="1.37121">
        <ele>1997.2763671875</ele>
        <time>2011-06-11T08:44:33Z</time>
      </trkpt>
      <trkpt lat="42.70632" lon="1.37115">
        <ele>1999.1989746094</ele>
        <time>2011-06-11T08:44:39Z</time>
      </trkpt>
      <trkpt lat="42.70628" lon="1.37107">
        <ele>2000.6408691406</ele>
        <time>2011-06-11T08:44:46Z</time>
      </trkpt>
      <trkpt lat="42.70626" lon="1.37102">
        <ele>2002.0827636719</ele>
        <time>2011-06-11T08:44:52Z</time>
      </trkpt>
      <trkpt lat="42.70622" lon="1.371">
        <ele>2003.0441894531</ele>
        <time>2011-06-11T08:44:58Z</time>
      </trkpt>
      <trkpt lat="42.7062" lon="1.37095">
        <ele>2004.966796875</ele>
        <time>2011-06-11T08:45:04Z</time>
      </trkpt>
      <trkpt lat="42.70617" lon="1.3709">
        <ele>2006.8894042969</ele>
        <time>2011-06-11T08:45:11Z</time>
      </trkpt>
      <trkpt lat="42.70614" lon="1.37085">
        <ele>2008.3312988281</ele>
        <time>2011-06-11T08:45:18Z</time>
      </trkpt>
      <trkpt lat="42.70611" lon="1.37082">
        <ele>2008.8120117188</ele>
        <time>2011-06-11T08:45:23Z</time>
      </trkpt>
      <trkpt lat="42.70609" lon="1.37079">
        <ele>2010.25390625</ele>
        <time>2011-06-11T08:45:29Z</time>
      </trkpt>
      <trkpt lat="42.70605" lon="1.37077">
        <ele>2012.1767578125</ele>
        <time>2011-06-11T08:45:36Z</time>
      </trkpt>
      <trkpt lat="42.70604" lon="1.37073">
        <ele>2013.1381835938</ele>
        <time>2011-06-11T08:45:40Z</time>
      </trkpt>
      <trkpt lat="42.70601" lon="1.37067">
        <ele>2014.580078125</ele>
        <time>2011-06-11T08:45:48Z</time>
      </trkpt>
      <trkpt lat="42.706" lon="1.37063">
        <ele>2016.5026855469</ele>
        <time>2011-06-11T08:45:54Z</time>
      </trkpt>
      <trkpt lat="42.70597" lon="1.37063">
        <ele>2018.4252929688</ele>
        <time>2011-06-11T08:46:00Z</time>
      </trkpt>
      <trkpt lat="42.70598" lon="1.37059">
        <ele>2019.8671875</ele>
        <time>2011-06-11T08:46:05Z</time>
      </trkpt>
      <trkpt lat="42.706" lon="1.37054">
        <ele>2021.7897949219</ele>
        <time>2011-06-11T08:46:12Z</time>
      </trkpt>
      <trkpt lat="42.70599" lon="1.37048">
        <ele>2023.7124023438</ele>
        <time>2011-06-11T08:46:19Z</time>
      </trkpt>
      <trkpt lat="42.70596" lon="1.37043">
        <ele>2025.154296875</ele>
        <time>2011-06-11T08:46:26Z</time>
      </trkpt>
      <trkpt lat="42.70593" lon="1.3704">
        <ele>2026.5964355469</ele>
        <time>2011-06-11T08:46:31Z</time>
      </trkpt>
      <trkpt lat="42.70595" lon="1.37037">
        <ele>2027.5576171875</ele>
        <time>2011-06-11T08:46:36Z</time>
      </trkpt>
      <trkpt lat="42.70597" lon="1.37032">
        <ele>2028.9997558594</ele>
        <time>2011-06-11T08:46:42Z</time>
      </trkpt>
      <trkpt lat="42.70597" lon="1.37025">
        <ele>2031.4030761719</ele>
        <time>2011-06-11T08:46:49Z</time>
      </trkpt>
      <trkpt lat="42.70595" lon="1.37021">
        <ele>2032.3645019531</ele>
        <time>2011-06-11T08:46:55Z</time>
      </trkpt>
      <trkpt lat="42.70592" lon="1.37017">
        <ele>2032.8449707031</ele>
        <time>2011-06-11T08:47:02Z</time>
      </trkpt>
      <trkpt lat="42.7059" lon="1.37013">
        <ele>2033.8063964844</ele>
        <time>2011-06-11T08:47:09Z</time>
      </trkpt>
      <trkpt lat="42.7059" lon="1.37005">
        <ele>2035.2482910156</ele>
        <time>2011-06-11T08:47:16Z</time>
      </trkpt>
      <trkpt lat="42.70591" lon="1.37">
        <ele>2034.7678222656</ele>
        <time>2011-06-11T08:47:21Z</time>
      </trkpt>
      <trkpt lat="42.70591" lon="1.36996">
        <ele>2035.2482910156</ele>
        <time>2011-06-11T08:47:27Z</time>
      </trkpt>
      <trkpt lat="42.70591" lon="1.36988">
        <ele>2036.2097167969</ele>
        <time>2011-06-11T08:47:35Z</time>
      </trkpt>
      <trkpt lat="42.70591" lon="1.36982">
        <ele>2037.1708984375</ele>
        <time>2011-06-11T08:47:42Z</time>
      </trkpt>
      <trkpt lat="42.70592" lon="1.36977">
        <ele>2037.1708984375</ele>
        <time>2011-06-11T08:47:47Z</time>
      </trkpt>
      <trkpt lat="42.70595" lon="1.36975">
        <ele>2037.1708984375</ele>
        <time>2011-06-11T08:47:52Z</time>
      </trkpt>
      <trkpt lat="42.70596" lon="1.3697">
        <ele>2037.1708984375</ele>
        <time>2011-06-11T08:47:58Z</time>
      </trkpt>
      <trkpt lat="42.70594" lon="1.36967">
        <ele>2038.6130371094</ele>
        <time>2011-06-11T08:48:03Z</time>
      </trkpt>
      <trkpt lat="42.70595" lon="1.36963">
        <ele>2040.0549316406</ele>
        <time>2011-06-11T08:48:08Z</time>
      </trkpt>
      <trkpt lat="42.70594" lon="1.3696">
        <ele>2043.4194335938</ele>
        <time>2011-06-11T08:48:15Z</time>
      </trkpt>
      <trkpt lat="42.70592" lon="1.36957">
        <ele>2045.8229980469</ele>
        <time>2011-06-11T08:48:22Z</time>
      </trkpt>
      <trkpt lat="42.70591" lon="1.36956">
        <ele>2045.8229980469</ele>
        <time>2011-06-11T08:48:27Z</time>
      </trkpt>
      <trkpt lat="42.70589" lon="1.36953">
        <ele>2046.7841796875</ele>
        <time>2011-06-11T08:48:34Z</time>
      </trkpt>
      <trkpt lat="42.70587" lon="1.36949">
        <ele>2049.6682128906</ele>
        <time>2011-06-11T08:48:44Z</time>
      </trkpt>
      <trkpt lat="42.70587" lon="1.36945">
        <ele>2052.0712890625</ele>
        <time>2011-06-11T08:48:50Z</time>
      </trkpt>
      <trkpt lat="42.70587" lon="1.36941">
        <ele>2053.0327148438</ele>
        <time>2011-06-11T08:48:57Z</time>
      </trkpt>
      <trkpt lat="42.70588" lon="1.36937">
        <ele>2053.994140625</ele>
        <time>2011-06-11T08:49:05Z</time>
      </trkpt>
      <trkpt lat="42.70589" lon="1.36931">
        <ele>2055.9165039062</ele>
        <time>2011-06-11T08:49:12Z</time>
      </trkpt>
      <trkpt lat="42.70587" lon="1.36924">
        <ele>2057.8393554688</ele>
        <time>2011-06-11T08:49:18Z</time>
      </trkpt>
      <trkpt lat="42.70588" lon="1.36918">
        <ele>2059.76171875</ele>
        <time>2011-06-11T08:49:24Z</time>
      </trkpt>
      <trkpt lat="42.70588" lon="1.36913">
        <ele>2061.2041015625</ele>
        <time>2011-06-11T08:49:31Z</time>
      </trkpt>
      <trkpt lat="42.7059" lon="1.36909">
        <ele>2062.1652832031</ele>
        <time>2011-06-11T08:49:37Z</time>
      </trkpt>
      <trkpt lat="42.70589" lon="1.36905">
        <ele>2063.6071777344</ele>
        <time>2011-06-11T08:49:43Z</time>
      </trkpt>
      <trkpt lat="42.70586" lon="1.36904">
        <ele>2064.087890625</ele>
        <time>2011-06-11T08:49:48Z</time>
      </trkpt>
      <trkpt lat="42.70586" lon="1.36902">
        <ele>2064.5686035156</ele>
        <time>2011-06-11T08:49:52Z</time>
      </trkpt>
      <trkpt lat="42.70583" lon="1.36899">
        <ele>2066.0104980469</ele>
        <time>2011-06-11T08:49:58Z</time>
      </trkpt>
      <trkpt lat="42.70583" lon="1.36897">
        <ele>2067.4523925781</ele>
        <time>2011-06-11T08:50:03Z</time>
      </trkpt>
      <trkpt lat="42.70581" lon="1.36894">
        <ele>2068.4138183594</ele>
        <time>2011-06-11T08:50:09Z</time>
      </trkpt>
      <trkpt lat="42.70579" lon="1.3689">
        <ele>2068.89453125</ele>
        <time>2011-06-11T08:50:15Z</time>
      </trkpt>
      <trkpt lat="42.70577" lon="1.36887">
        <ele>2069.8557128906</ele>
        <time>2011-06-11T08:50:20Z</time>
      </trkpt>
      <trkpt lat="42.70575" lon="1.36886">
        <ele>2071.2976074219</ele>
        <time>2011-06-11T08:50:25Z</time>
      </trkpt>
      <trkpt lat="42.70571" lon="1.36885">
        <ele>2073.7009277344</ele>
        <time>2011-06-11T08:50:31Z</time>
      </trkpt>
      <trkpt lat="42.70569" lon="1.3688">
        <ele>2074.181640625</ele>
        <time>2011-06-11T08:50:37Z</time>
      </trkpt>
      <trkpt lat="42.70565" lon="1.36876">
        <ele>2074.181640625</ele>
        <time>2011-06-11T08:50:43Z</time>
      </trkpt>
      <trkpt lat="42.70563" lon="1.36872">
        <ele>2074.6623535156</ele>
        <time>2011-06-11T08:50:49Z</time>
      </trkpt>
      <trkpt lat="42.70561" lon="1.36868">
        <ele>2075.1428222656</ele>
        <time>2011-06-11T08:50:55Z</time>
      </trkpt>
      <trkpt lat="42.70557" lon="1.36867">
        <ele>2077.0659179688</ele>
        <time>2011-06-11T08:51:01Z</time>
      </trkpt>
      <trkpt lat="42.70554" lon="1.36869">
        <ele>2075.6235351562</ele>
        <time>2011-06-11T08:53:32Z</time>
      </trkpt>
      <trkpt lat="42.70554" lon="1.36869">
        <ele>2075.6235351562</ele>
        <time>2011-06-11T08:53:33Z</time>
      </trkpt>
      <trkpt lat="42.70551" lon="1.36871">
        <ele>2075.6235351562</ele>
        <time>2011-06-11T08:53:43Z</time>
      </trkpt>
      <trkpt lat="42.70549" lon="1.36872">
        <ele>2078.0270996094</ele>
        <time>2011-06-11T08:53:49Z</time>
      </trkpt>
      <trkpt lat="42.70547" lon="1.36872">
        <ele>2079.9497070312</ele>
        <time>2011-06-11T08:53:56Z</time>
      </trkpt>
      <trkpt lat="42.70544" lon="1.36871">
        <ele>2081.8723144531</ele>
        <time>2011-06-11T08:54:04Z</time>
      </trkpt>
      <trkpt lat="42.70543" lon="1.3687">
        <ele>2083.3142089844</ele>
        <time>2011-06-11T08:54:10Z</time>
      </trkpt>
      <trkpt lat="42.70541" lon="1.36869">
        <ele>2084.2756347656</ele>
        <time>2011-06-11T08:54:18Z</time>
      </trkpt>
      <trkpt lat="42.70539" lon="1.36868">
        <ele>2085.2368164062</ele>
        <time>2011-06-11T08:54:23Z</time>
      </trkpt>
      <trkpt lat="42.70536" lon="1.3687">
        <ele>2086.6787109375</ele>
        <time>2011-06-11T08:54:29Z</time>
      </trkpt>
      <trkpt lat="42.70531" lon="1.3687">
        <ele>2088.6015625</ele>
        <time>2011-06-11T08:54:37Z</time>
      </trkpt>
      <trkpt lat="42.70528" lon="1.36869">
        <ele>2090.0434570312</ele>
        <time>2011-06-11T08:54:42Z</time>
      </trkpt>
      <trkpt lat="42.70524" lon="1.3687">
        <ele>2091.4853515625</ele>
        <time>2011-06-11T08:54:49Z</time>
      </trkpt>
      <trkpt lat="42.70519" lon="1.3687">
        <ele>2092.9274902344</ele>
        <time>2011-06-11T08:54:56Z</time>
      </trkpt>
      <trkpt lat="42.70517" lon="1.36868">
        <ele>2093.8889160156</ele>
        <time>2011-06-11T08:55:02Z</time>
      </trkpt>
      <trkpt lat="42.70515" lon="1.36868">
        <ele>2094.8500976562</ele>
        <time>2011-06-11T08:55:07Z</time>
      </trkpt>
      <trkpt lat="42.70513" lon="1.3687">
        <ele>2095.3308105469</ele>
        <time>2011-06-11T08:55:13Z</time>
      </trkpt>
      <trkpt lat="42.70511" lon="1.36869">
        <ele>2095.8115234375</ele>
        <time>2011-06-11T08:55:18Z</time>
      </trkpt>
      <trkpt lat="42.70509" lon="1.3687">
        <ele>2096.7727050781</ele>
        <time>2011-06-11T08:55:22Z</time>
      </trkpt>
      <trkpt lat="42.70507" lon="1.36873">
        <ele>2097.7341308594</ele>
        <time>2011-06-11T08:55:28Z</time>
      </trkpt>
      <trkpt lat="42.70503" lon="1.36872">
        <ele>2098.6953125</ele>
        <time>2011-06-11T08:55:33Z</time>
      </trkpt>
      <trkpt lat="42.705" lon="1.36872">
        <ele>2099.6567382812</ele>
        <time>2011-06-11T08:55:39Z</time>
      </trkpt>
      <trkpt lat="42.70496" lon="1.36869">
        <ele>2100.6179199219</ele>
        <time>2011-06-11T08:55:46Z</time>
      </trkpt>
      <trkpt lat="42.70492" lon="1.36866">
        <ele>2102.0598144531</ele>
        <time>2011-06-11T08:55:52Z</time>
      </trkpt>
      <trkpt lat="42.70486" lon="1.36864">
        <ele>2103.0212402344</ele>
        <time>2011-06-11T08:55:58Z</time>
      </trkpt>
      <trkpt lat="42.70482" lon="1.36862">
        <ele>2103.9826660156</ele>
        <time>2011-06-11T08:56:04Z</time>
      </trkpt>
      <trkpt lat="42.70478" lon="1.3686">
        <ele>2104.9438476562</ele>
        <time>2011-06-11T08:56:09Z</time>
      </trkpt>
      <trkpt lat="42.70473" lon="1.3686">
        <ele>2106.3857421875</ele>
        <time>2011-06-11T08:56:15Z</time>
      </trkpt>
      <trkpt lat="42.70467" lon="1.36861">
        <ele>2107.8278808594</ele>
        <time>2011-06-11T08:56:22Z</time>
      </trkpt>
      <trkpt lat="42.70464" lon="1.36863">
        <ele>2109.2700195312</ele>
        <time>2011-06-11T08:56:29Z</time>
      </trkpt>
      <trkpt lat="42.70462" lon="1.36865">
        <ele>2111.1926269531</ele>
        <time>2011-06-11T08:56:34Z</time>
      </trkpt>
      <trkpt lat="42.70459" lon="1.36867">
        <ele>2112.6345214844</ele>
        <time>2011-06-11T08:56:39Z</time>
      </trkpt>
      <trkpt lat="42.70457" lon="1.36869">
        <ele>2113.595703125</ele>
        <time>2011-06-11T08:56:44Z</time>
      </trkpt>
      <trkpt lat="42.70453" lon="1.36872">
        <ele>2115.0378417969</ele>
        <time>2011-06-11T08:56:51Z</time>
      </trkpt>
      <trkpt lat="42.70449" lon="1.36871">
        <ele>2115.9990234375</ele>
        <time>2011-06-11T08:56:57Z</time>
      </trkpt>
      <trkpt lat="42.70446" lon="1.3687">
        <ele>2116.9604492188</ele>
        <time>2011-06-11T08:57:02Z</time>
      </trkpt>
      <trkpt lat="42.70441" lon="1.36871">
        <ele>2117.9216308594</ele>
        <time>2011-06-11T08:57:08Z</time>
      </trkpt>
      <trkpt lat="42.70438" lon="1.3687">
        <ele>2118.8830566406</ele>
        <time>2011-06-11T08:57:13Z</time>
      </trkpt>
      <trkpt lat="42.70435" lon="1.36868">
        <ele>2119.8442382812</ele>
        <time>2011-06-11T08:57:19Z</time>
      </trkpt>
      <trkpt lat="42.70432" lon="1.3687">
        <ele>2120.8056640625</ele>
        <time>2011-06-11T08:57:24Z</time>
      </trkpt>
      <trkpt lat="42.70428" lon="1.36871">
        <ele>2122.7282714844</ele>
        <time>2011-06-11T08:57:30Z</time>
      </trkpt>
      <trkpt lat="42.70427" lon="1.36873">
        <ele>2123.689453125</ele>
        <time>2011-06-11T08:57:34Z</time>
      </trkpt>
      <trkpt lat="42.70424" lon="1.36875">
        <ele>2125.1315917969</ele>
        <time>2011-06-11T08:57:39Z</time>
      </trkpt>
      <trkpt lat="42.7042" lon="1.36877">
        <ele>2126.0930175781</ele>
        <time>2011-06-11T08:57:45Z</time>
      </trkpt>
      <trkpt lat="42.70415" lon="1.36878">
        <ele>2128.015625</ele>
        <time>2011-06-11T08:57:53Z</time>
      </trkpt>
      <trkpt lat="42.70412" lon="1.36879">
        <ele>2129.4575195312</ele>
        <time>2011-06-11T08:57:58Z</time>
      </trkpt>
      <trkpt lat="42.70411" lon="1.36881">
        <ele>2130.8996582031</ele>
        <time>2011-06-11T08:58:02Z</time>
      </trkpt>
      <trkpt lat="42.70409" lon="1.36886">
        <ele>2132.8220214844</ele>
        <time>2011-06-11T08:58:08Z</time>
      </trkpt>
      <trkpt lat="42.70406" lon="1.3689">
        <ele>2134.2641601562</ele>
        <time>2011-06-11T08:58:15Z</time>
      </trkpt>
      <trkpt lat="42.70401" lon="1.36894">
        <ele>2135.7060546875</ele>
        <time>2011-06-11T08:58:23Z</time>
      </trkpt>
      <trkpt lat="42.70399" lon="1.36899">
        <ele>2137.1479492188</ele>
        <time>2011-06-11T08:58:29Z</time>
      </trkpt>
      <trkpt lat="42.70396" lon="1.36903">
        <ele>2138.109375</ele>
        <time>2011-06-11T08:58:35Z</time>
      </trkpt>
      <trkpt lat="42.70394" lon="1.36906">
        <ele>2139.0705566406</ele>
        <time>2011-06-11T08:58:41Z</time>
      </trkpt>
      <trkpt lat="42.70392" lon="1.3691">
        <ele>2139.5512695312</ele>
        <time>2011-06-11T08:58:46Z</time>
      </trkpt>
      <trkpt lat="42.7039" lon="1.36914">
        <ele>2140.0322265625</ele>
        <time>2011-06-11T08:58:53Z</time>
      </trkpt>
      <trkpt lat="42.70388" lon="1.36916">
        <ele>2139.0705566406</ele>
        <time>2011-06-11T08:58:58Z</time>
      </trkpt>
      <trkpt lat="42.70388" lon="1.36917">
        <ele>2138.109375</ele>
        <time>2011-06-11T08:59:05Z</time>
      </trkpt>
      <trkpt lat="42.70389" lon="1.36918">
        <ele>2138.109375</ele>
        <time>2011-06-11T08:59:26Z</time>
      </trkpt>
      <trkpt lat="42.7039" lon="1.36923">
        <ele>2139.0705566406</ele>
        <time>2011-06-11T08:59:31Z</time>
      </trkpt>
      <trkpt lat="42.70389" lon="1.36928">
        <ele>2140.0322265625</ele>
        <time>2011-06-11T08:59:37Z</time>
      </trkpt>
      <trkpt lat="42.70393" lon="1.36935">
        <ele>2143.8774414062</ele>
        <time>2011-06-11T08:59:45Z</time>
      </trkpt>
      <trkpt lat="42.70395" lon="1.36941">
        <ele>2146.7612304688</ele>
        <time>2011-06-11T08:59:51Z</time>
      </trkpt>
      <trkpt lat="42.70396" lon="1.36946">
        <ele>2149.6452636719</ele>
        <time>2011-06-11T08:59:57Z</time>
      </trkpt>
      <trkpt lat="42.70394" lon="1.36949">
        <ele>2151.5678710938</ele>
        <time>2011-06-11T09:00:02Z</time>
      </trkpt>
      <trkpt lat="42.7039" lon="1.36948">
        <ele>2153.9711914062</ele>
        <time>2011-06-11T09:00:09Z</time>
      </trkpt>
      <trkpt lat="42.70387" lon="1.36948">
        <ele>2155.4130859375</ele>
        <time>2011-06-11T09:00:15Z</time>
      </trkpt>
      <trkpt lat="42.70386" lon="1.3695">
        <ele>2156.8552246094</ele>
        <time>2011-06-11T09:00:20Z</time>
      </trkpt>
      <trkpt lat="42.70385" lon="1.36953">
        <ele>2156.8552246094</ele>
        <time>2011-06-11T09:00:25Z</time>
      </trkpt>
      <trkpt lat="42.70384" lon="1.36956">
        <ele>2156.8552246094</ele>
        <time>2011-06-11T09:00:33Z</time>
      </trkpt>
      <trkpt lat="42.70381" lon="1.36958">
        <ele>2158.2971191406</ele>
        <time>2011-06-11T09:00:40Z</time>
      </trkpt>
      <trkpt lat="42.7038" lon="1.36959">
        <ele>2159.7390136719</ele>
        <time>2011-06-11T09:00:45Z</time>
      </trkpt>
      <trkpt lat="42.7038" lon="1.36962">
        <ele>2161.6618652344</ele>
        <time>2011-06-11T09:00:50Z</time>
      </trkpt>
      <trkpt lat="42.70381" lon="1.36964">
        <ele>2163.5842285156</ele>
        <time>2011-06-11T09:00:56Z</time>
      </trkpt>
      <trkpt lat="42.70383" lon="1.36966">
        <ele>2165.0263671875</ele>
        <time>2011-06-11T09:01:03Z</time>
      </trkpt>
      <trkpt lat="42.70382" lon="1.36969">
        <ele>2166.4682617188</ele>
        <time>2011-06-11T09:01:08Z</time>
      </trkpt>
      <trkpt lat="42.70382" lon="1.36972">
        <ele>2166.9489746094</ele>
        <time>2011-06-11T09:01:14Z</time>
      </trkpt>
      <trkpt lat="42.7038" lon="1.36974">
        <ele>2167.4294433594</ele>
        <time>2011-06-11T09:01:18Z</time>
      </trkpt>
      <trkpt lat="42.7038" lon="1.36976">
        <ele>2167.4294433594</ele>
        <time>2011-06-11T09:01:23Z</time>
      </trkpt>
      <trkpt lat="42.7038" lon="1.36977">
        <ele>2167.91015625</ele>
        <time>2011-06-11T09:01:31Z</time>
      </trkpt>
      <trkpt lat="42.70381" lon="1.36979">
        <ele>2169.8327636719</ele>
        <time>2011-06-11T09:01:36Z</time>
      </trkpt>
      <trkpt lat="42.70383" lon="1.36984">
        <ele>2171.7553710938</ele>
        <time>2011-06-11T09:01:43Z</time>
      </trkpt>
      <trkpt lat="42.70386" lon="1.36989">
        <ele>2173.6782226562</ele>
        <time>2011-06-11T09:01:50Z</time>
      </trkpt>
      <trkpt lat="42.70386" lon="1.36993">
        <ele>2175.6008300781</ele>
        <time>2011-06-11T09:01:57Z</time>
      </trkpt>
      <trkpt lat="42.70386" lon="1.36997">
        <ele>2176.5622558594</ele>
        <time>2011-06-11T09:02:03Z</time>
      </trkpt>
      <trkpt lat="42.70383" lon="1.36998">
        <ele>2178.4848632812</ele>
        <time>2011-06-11T09:02:09Z</time>
      </trkpt>
      <trkpt lat="42.70382" lon="1.37">
        <ele>2179.4460449219</ele>
        <time>2011-06-11T09:02:14Z</time>
      </trkpt>
      <trkpt lat="42.70379" lon="1.37001">
        <ele>2179.9267578125</ele>
        <time>2011-06-11T09:02:20Z</time>
      </trkpt>
      <trkpt lat="42.70378" lon="1.37004">
        <ele>2181.3686523438</ele>
        <time>2011-06-11T09:02:27Z</time>
      </trkpt>
      <trkpt lat="42.7038" lon="1.37009">
        <ele>2182.810546875</ele>
        <time>2011-06-11T09:02:35Z</time>
      </trkpt>
      <trkpt lat="42.70378" lon="1.37011">
        <ele>2184.2526855469</ele>
        <time>2011-06-11T09:02:41Z</time>
      </trkpt>
      <trkpt lat="42.70377" lon="1.3701">
        <ele>2184.7333984375</ele>
        <time>2011-06-11T09:02:46Z</time>
      </trkpt>
      <trkpt lat="42.70375" lon="1.37013">
        <ele>2186.6557617188</ele>
        <time>2011-06-11T09:02:52Z</time>
      </trkpt>
      <trkpt lat="42.70374" lon="1.37015">
        <ele>2188.0981445312</ele>
        <time>2011-06-11T09:02:59Z</time>
      </trkpt>
      <trkpt lat="42.70373" lon="1.37018">
        <ele>2190.0207519531</ele>
        <time>2011-06-11T09:03:05Z</time>
      </trkpt>
      <trkpt lat="42.70373" lon="1.37018">
        <ele>2190.5012207031</ele>
        <time>2011-06-11T09:03:11Z</time>
      </trkpt>
      <trkpt lat="42.70372" lon="1.3702">
        <ele>2190.9819335938</ele>
        <time>2011-06-11T09:03:17Z</time>
      </trkpt>
      <trkpt lat="42.7037" lon="1.37022">
        <ele>2191.943359375</ele>
        <time>2011-06-11T09:03:24Z</time>
      </trkpt>
      <trkpt lat="42.70367" lon="1.37021">
        <ele>2192.9045410156</ele>
        <time>2011-06-11T09:03:30Z</time>
      </trkpt>
      <trkpt lat="42.70365" lon="1.3702">
        <ele>2194.3464355469</ele>
        <time>2011-06-11T09:03:37Z</time>
      </trkpt>
      <trkpt lat="42.70361" lon="1.37019">
        <ele>2195.7885742188</ele>
        <time>2011-06-11T09:03:44Z</time>
      </trkpt>
      <trkpt lat="42.7036" lon="1.37022">
        <ele>2196.7497558594</ele>
        <time>2011-06-11T09:03:50Z</time>
      </trkpt>
      <trkpt lat="42.70359" lon="1.37027">
        <ele>2198.6723632812</ele>
        <time>2011-06-11T09:03:57Z</time>
      </trkpt>
      <trkpt lat="42.70359" lon="1.37033">
        <ele>2201.5563964844</ele>
        <time>2011-06-11T09:04:05Z</time>
      </trkpt>
      <trkpt lat="42.7036" lon="1.37038">
        <ele>2203.9597167969</ele>
        <time>2011-06-11T09:04:13Z</time>
      </trkpt>
      <trkpt lat="42.7036" lon="1.3704">
        <ele>2205.4018554688</ele>
        <time>2011-06-11T09:04:19Z</time>
      </trkpt>
      <trkpt lat="42.7036" lon="1.37045">
        <ele>2206.3630371094</ele>
        <time>2011-06-11T09:04:25Z</time>
      </trkpt>
      <trkpt lat="42.7036" lon="1.37049">
        <ele>2207.3244628906</ele>
        <time>2011-06-11T09:04:30Z</time>
      </trkpt>
      <trkpt lat="42.7036" lon="1.37052">
        <ele>2207.8051757812</ele>
        <time>2011-06-11T09:04:36Z</time>
      </trkpt>
      <trkpt lat="42.70359" lon="1.37057">
        <ele>2208.7663574219</ele>
        <time>2011-06-11T09:04:42Z</time>
      </trkpt>
      <trkpt lat="42.70358" lon="1.37061">
        <ele>2209.7275390625</ele>
        <time>2011-06-11T09:04:50Z</time>
      </trkpt>
      <trkpt lat="42.70356" lon="1.3706">
        <ele>2210.2082519531</ele>
        <time>2011-06-11T09:04:55Z</time>
      </trkpt>
      <trkpt lat="42.70353" lon="1.37062">
        <ele>2211.1696777344</ele>
        <time>2011-06-11T09:05:00Z</time>
      </trkpt>
      <trkpt lat="42.70353" lon="1.37062">
        <ele>2211.650390625</ele>
        <time>2011-06-11T09:05:04Z</time>
      </trkpt>
      <trkpt lat="42.70351" lon="1.37065">
        <ele>2213.0922851562</ele>
        <time>2011-06-11T09:05:10Z</time>
      </trkpt>
      <trkpt lat="42.70349" lon="1.37068">
        <ele>2214.5341796875</ele>
        <time>2011-06-11T09:05:16Z</time>
      </trkpt>
      <trkpt lat="42.70347" lon="1.37071">
        <ele>2215.4956054688</ele>
        <time>2011-06-11T09:05:22Z</time>
      </trkpt>
      <trkpt lat="42.70346" lon="1.37072">
        <ele>2215.9760742188</ele>
        <time>2011-06-11T09:05:25Z</time>
      </trkpt>
      <trkpt lat="42.70344" lon="1.37075">
        <ele>2217.41796875</ele>
        <time>2011-06-11T09:05:32Z</time>
      </trkpt>
      <trkpt lat="42.70342" lon="1.3708">
        <ele>2218.8601074219</ele>
        <time>2011-06-11T09:05:38Z</time>
      </trkpt>
      <trkpt lat="42.70339" lon="1.37082">
        <ele>2219.3408203125</ele>
        <time>2011-06-11T09:05:45Z</time>
      </trkpt>
      <trkpt lat="42.70338" lon="1.37085">
        <ele>2220.3022460938</ele>
        <time>2011-06-11T09:05:53Z</time>
      </trkpt>
      <trkpt lat="42.70337" lon="1.37086">
        <ele>2219.8212890625</ele>
        <time>2011-06-11T09:06:00Z</time>
      </trkpt>
      <trkpt lat="42.70337" lon="1.37085">
        <ele>2218.8601074219</ele>
        <time>2011-06-11T09:06:06Z</time>
      </trkpt>
      <trkpt lat="42.70337" lon="1.37083">
        <ele>2217.8986816406</ele>
        <time>2011-06-11T09:06:24Z</time>
      </trkpt>
      <trkpt lat="42.70335" lon="1.37086">
        <ele>2217.8986816406</ele>
        <time>2011-06-11T09:06:32Z</time>
      </trkpt>
      <trkpt lat="42.70335" lon="1.37091">
        <ele>2218.8601074219</ele>
        <time>2011-06-11T09:06:37Z</time>
      </trkpt>
      <trkpt lat="42.70334" lon="1.37098">
        <ele>2220.3022460938</ele>
        <time>2011-06-11T09:06:44Z</time>
      </trkpt>
      <trkpt lat="42.70334" lon="1.37103">
        <ele>2222.2248535156</ele>
        <time>2011-06-11T09:06:50Z</time>
      </trkpt>
      <trkpt lat="42.70332" lon="1.37106">
        <ele>2223.6667480469</ele>
        <time>2011-06-11T09:06:55Z</time>
      </trkpt>
      <trkpt lat="42.70331" lon="1.37111">
        <ele>2224.6281738281</ele>
        <time>2011-06-11T09:07:01Z</time>
      </trkpt>
      <trkpt lat="42.70329" lon="1.37115">
        <ele>2226.55078125</ele>
        <time>2011-06-11T09:07:08Z</time>
      </trkpt>
      <trkpt lat="42.7033" lon="1.3712">
        <ele>2227.9926757812</ele>
        <time>2011-06-11T09:07:14Z</time>
      </trkpt>
      <trkpt lat="42.70327" lon="1.37125">
        <ele>2230.8767089844</ele>
        <time>2011-06-11T09:07:22Z</time>
      </trkpt>
      <trkpt lat="42.70325" lon="1.37125">
        <ele>2231.837890625</ele>
        <time>2011-06-11T09:07:28Z</time>
      </trkpt>
      <trkpt lat="42.70323" lon="1.37126">
        <ele>2232.7990722656</ele>
        <time>2011-06-11T09:07:33Z</time>
      </trkpt>
      <trkpt lat="42.70322" lon="1.3713">
        <ele>2234.2412109375</ele>
        <time>2011-06-11T09:07:38Z</time>
      </trkpt>
      <trkpt lat="42.70321" lon="1.37132">
        <ele>2235.6831054688</ele>
        <time>2011-06-11T09:07:43Z</time>
      </trkpt>
      <trkpt lat="42.70318" lon="1.37135">
        <ele>2237.6059570312</ele>
        <time>2011-06-11T09:07:50Z</time>
      </trkpt>
      <trkpt lat="42.70319" lon="1.37137">
        <ele>2238.0866699219</ele>
        <time>2011-06-11T09:07:56Z</time>
      </trkpt>
      <trkpt lat="42.70318" lon="1.37139">
        <ele>2239.5285644531</ele>
        <time>2011-06-11T09:08:00Z</time>
      </trkpt>
      <trkpt lat="42.70317" lon="1.37141">
        <ele>2240.0092773438</ele>
        <time>2011-06-11T09:08:06Z</time>
      </trkpt>
      <trkpt lat="42.70315" lon="1.37144">
        <ele>2241.9318847656</ele>
        <time>2011-06-11T09:08:13Z</time>
      </trkpt>
      <trkpt lat="42.70313" lon="1.37145">
        <ele>2242.8930664062</ele>
        <time>2011-06-11T09:08:18Z</time>
      </trkpt>
      <trkpt lat="42.70311" lon="1.37147">
        <ele>2244.8156738281</ele>
        <time>2011-06-11T09:08:26Z</time>
      </trkpt>
      <trkpt lat="42.70311" lon="1.37152">
        <ele>2246.2578125</ele>
        <time>2011-06-11T09:08:32Z</time>
      </trkpt>
      <trkpt lat="42.70311" lon="1.37155">
        <ele>2248.1801757812</ele>
        <time>2011-06-11T09:08:37Z</time>
      </trkpt>
      <trkpt lat="42.70311" lon="1.37157">
        <ele>2248.6608886719</ele>
        <time>2011-06-11T09:08:43Z</time>
      </trkpt>
      <trkpt lat="42.70311" lon="1.37159">
        <ele>2249.6223144531</ele>
        <time>2011-06-11T09:08:49Z</time>
      </trkpt>
      <trkpt lat="42.70311" lon="1.37162">
        <ele>2251.0642089844</ele>
        <time>2011-06-11T09:08:57Z</time>
      </trkpt>
      <trkpt lat="42.70308" lon="1.37161">
        <ele>2252.0256347656</ele>
        <time>2011-06-11T09:09:02Z</time>
      </trkpt>
      <trkpt lat="42.70304" lon="1.3716">
        <ele>2253.4677734375</ele>
        <time>2011-06-11T09:09:10Z</time>
      </trkpt>
      <trkpt lat="42.70303" lon="1.37164">
        <ele>2255.8708496094</ele>
        <time>2011-06-11T09:09:17Z</time>
      </trkpt>
      <trkpt lat="42.70301" lon="1.37162">
        <ele>2256.3515625</ele>
        <time>2011-06-11T09:09:23Z</time>
      </trkpt>
      <trkpt lat="42.70298" lon="1.37159">
        <ele>2257.3129882812</ele>
        <time>2011-06-11T09:09:29Z</time>
      </trkpt>
      <trkpt lat="42.70296" lon="1.37162">
        <ele>2258.2741699219</ele>
        <time>2011-06-11T09:09:35Z</time>
      </trkpt>
      <trkpt lat="42.70297" lon="1.37166">
        <ele>2259.7160644531</ele>
        <time>2011-06-11T09:09:41Z</time>
      </trkpt>
      <trkpt lat="42.70295" lon="1.37166">
        <ele>2260.6774902344</ele>
        <time>2011-06-11T09:09:46Z</time>
      </trkpt>
      <trkpt lat="42.70292" lon="1.37164">
        <ele>2261.158203125</ele>
        <time>2011-06-11T09:09:52Z</time>
      </trkpt>
      <trkpt lat="42.7029" lon="1.37165">
        <ele>2262.6000976562</ele>
        <time>2011-06-11T09:09:58Z</time>
      </trkpt>
      <trkpt lat="42.70291" lon="1.37166">
        <ele>2264.0419921875</ele>
        <time>2011-06-11T09:10:04Z</time>
      </trkpt>
      <trkpt lat="42.70292" lon="1.37169">
        <ele>2264.5227050781</ele>
        <time>2011-06-11T09:10:08Z</time>
      </trkpt>
      <trkpt lat="42.70292" lon="1.37172">
        <ele>2265.0034179688</ele>
        <time>2011-06-11T09:10:13Z</time>
      </trkpt>
      <trkpt lat="42.70292" lon="1.37175">
        <ele>2266.4453125</ele>
        <time>2011-06-11T09:10:20Z</time>
      </trkpt>
      <trkpt lat="42.70291" lon="1.3718">
        <ele>2268.3681640625</ele>
        <time>2011-06-11T09:10:27Z</time>
      </trkpt>
      <trkpt lat="42.70291" lon="1.37182">
        <ele>2269.3295898438</ele>
        <time>2011-06-11T09:10:33Z</time>
      </trkpt>
      <trkpt lat="42.70288" lon="1.37185">
        <ele>2270.771484375</ele>
        <time>2011-06-11T09:10:39Z</time>
      </trkpt>
      <trkpt lat="42.70286" lon="1.37184">
        <ele>2271.7326660156</ele>
        <time>2011-06-11T09:10:45Z</time>
      </trkpt>
      <trkpt lat="42.70283" lon="1.37183">
        <ele>2273.6552734375</ele>
        <time>2011-06-11T09:10:52Z</time>
      </trkpt>
      <trkpt lat="42.70279" lon="1.3718">
        <ele>2275.0971679688</ele>
        <time>2011-06-11T09:10:59Z</time>
      </trkpt>
      <trkpt lat="42.70275" lon="1.37179">
        <ele>2275.5778808594</ele>
        <time>2011-06-11T09:11:06Z</time>
      </trkpt>
      <trkpt lat="42.70272" lon="1.37176">
        <ele>2277.9812011719</ele>
        <time>2011-06-11T09:11:13Z</time>
      </trkpt>
      <trkpt lat="42.70271" lon="1.37177">
        <ele>2279.4230957031</ele>
        <time>2011-06-11T09:11:19Z</time>
      </trkpt>
      <trkpt lat="42.70269" lon="1.37178">
        <ele>2281.345703125</ele>
        <time>2011-06-11T09:11:26Z</time>
      </trkpt>
      <trkpt lat="42.70266" lon="1.37177">
        <ele>2283.2683105469</ele>
        <time>2011-06-11T09:11:34Z</time>
      </trkpt>
      <trkpt lat="42.70263" lon="1.37175">
        <ele>2283.7490234375</ele>
        <time>2011-06-11T09:11:40Z</time>
      </trkpt>
      <trkpt lat="42.7026" lon="1.37175">
        <ele>2285.671875</ele>
        <time>2011-06-11T09:11:47Z</time>
      </trkpt>
      <trkpt lat="42.70259" lon="1.37178">
        <ele>2287.1137695312</ele>
        <time>2011-06-11T09:11:54Z</time>
      </trkpt>
      <trkpt lat="42.70259" lon="1.37182">
        <ele>2289.0363769531</ele>
        <time>2011-06-11T09:12:02Z</time>
      </trkpt>
      <trkpt lat="42.70257" lon="1.37184">
        <ele>2290.4782714844</ele>
        <time>2011-06-11T09:12:08Z</time>
      </trkpt>
      <trkpt lat="42.70255" lon="1.37185">
        <ele>2292.4011230469</ele>
        <time>2011-06-11T09:12:13Z</time>
      </trkpt>
      <trkpt lat="42.70255" lon="1.37187">
        <ele>2293.8430175781</ele>
        <time>2011-06-11T09:12:19Z</time>
      </trkpt>
      <trkpt lat="42.70253" lon="1.37189">
        <ele>2294.8041992188</ele>
        <time>2011-06-11T09:12:24Z</time>
      </trkpt>
      <trkpt lat="42.70252" lon="1.37192">
        <ele>2295.765625</ele>
        <time>2011-06-11T09:12:30Z</time>
      </trkpt>
      <trkpt lat="42.70251" lon="1.37196">
        <ele>2297.2075195312</ele>
        <time>2011-06-11T09:12:37Z</time>
      </trkpt>
      <trkpt lat="42.7025" lon="1.37199">
        <ele>2299.1301269531</ele>
        <time>2011-06-11T09:12:45Z</time>
      </trkpt>
      <trkpt lat="42.70248" lon="1.37202">
        <ele>2300.572265625</ele>
        <time>2011-06-11T09:12:52Z</time>
      </trkpt>
      <trkpt lat="42.70247" lon="1.37203">
        <ele>2301.0529785156</ele>
        <time>2011-06-11T09:12:58Z</time>
      </trkpt>
      <trkpt lat="42.70245" lon="1.37206">
        <ele>2302.4948730469</ele>
        <time>2011-06-11T09:13:04Z</time>
      </trkpt>
      <trkpt lat="42.70242" lon="1.37208">
        <ele>2302.0141601562</ele>
        <time>2011-06-11T09:13:09Z</time>
      </trkpt>
      <trkpt lat="42.70239" lon="1.37208">
        <ele>2302.4948730469</ele>
        <time>2011-06-11T09:13:14Z</time>
      </trkpt>
      <trkpt lat="42.70236" lon="1.37208">
        <ele>2303.4562988281</ele>
        <time>2011-06-11T09:13:20Z</time>
      </trkpt>
      <trkpt lat="42.70232" lon="1.37206">
        <ele>2304.4174804688</ele>
        <time>2011-06-11T09:13:26Z</time>
      </trkpt>
      <trkpt lat="42.7023" lon="1.37207">
        <ele>2305.37890625</ele>
        <time>2011-06-11T09:13:31Z</time>
      </trkpt>
      <trkpt lat="42.70229" lon="1.37211">
        <ele>2306.8208007812</ele>
        <time>2011-06-11T09:13:37Z</time>
      </trkpt>
      <trkpt lat="42.70226" lon="1.37212">
        <ele>2308.7434082031</ele>
        <time>2011-06-11T09:13:44Z</time>
      </trkpt>
      <trkpt lat="42.70222" lon="1.37211">
        <ele>2309.2241210938</ele>
        <time>2011-06-11T09:13:51Z</time>
      </trkpt>
      <trkpt lat="42.70221" lon="1.37212">
        <ele>2309.7045898438</ele>
        <time>2011-06-11T09:13:58Z</time>
      </trkpt>
      <trkpt lat="42.70218" lon="1.37213">
        <ele>2310.1853027344</ele>
        <time>2011-06-11T09:14:03Z</time>
      </trkpt>
      <trkpt lat="42.70215" lon="1.37215">
        <ele>2310.666015625</ele>
        <time>2011-06-11T09:14:09Z</time>
      </trkpt>
      <trkpt lat="42.70211" lon="1.3722">
        <ele>2311.6274414062</ele>
        <time>2011-06-11T09:14:16Z</time>
      </trkpt>
      <trkpt lat="42.70209" lon="1.37226">
        <ele>2312.5886230469</ele>
        <time>2011-06-11T09:14:23Z</time>
      </trkpt>
      <trkpt lat="42.7021" lon="1.3723">
        <ele>2313.5498046875</ele>
        <time>2011-06-11T09:14:28Z</time>
      </trkpt>
      <trkpt lat="42.70211" lon="1.37239">
        <ele>2315.47265625</ele>
        <time>2011-06-11T09:14:36Z</time>
      </trkpt>
      <trkpt lat="42.7021" lon="1.37246">
        <ele>2316.4340820312</ele>
        <time>2011-06-11T09:14:44Z</time>
      </trkpt>
      <trkpt lat="42.7021" lon="1.37253">
        <ele>2317.3952636719</ele>
        <time>2011-06-11T09:14:51Z</time>
      </trkpt>
      <trkpt lat="42.70209" lon="1.37256">
        <ele>2317.8759765625</ele>
        <time>2011-06-11T09:14:57Z</time>
      </trkpt>
      <trkpt lat="42.70209" lon="1.37256">
        <ele>2318.3566894531</ele>
        <time>2011-06-11T09:15:02Z</time>
      </trkpt>
      <trkpt lat="42.70212" lon="1.37257">
        <ele>2317.8759765625</ele>
        <time>2011-06-11T09:15:07Z</time>
      </trkpt>
      <trkpt lat="42.70212" lon="1.37259">
        <ele>2317.3952636719</ele>
        <time>2011-06-11T09:15:13Z</time>
      </trkpt>
      <trkpt lat="42.7021" lon="1.37262">
        <ele>2316.9147949219</ele>
        <time>2011-06-11T09:15:20Z</time>
      </trkpt>
      <trkpt lat="42.70205" lon="1.37261">
        <ele>2316.9147949219</ele>
        <time>2011-06-11T09:15:29Z</time>
      </trkpt>
      <trkpt lat="42.70207" lon="1.37263">
        <ele>2313.5498046875</ele>
        <time>2011-06-11T09:15:47Z</time>
      </trkpt>
      <trkpt lat="42.70208" lon="1.37262">
        <ele>2313.0693359375</ele>
        <time>2011-06-11T09:16:05Z</time>
      </trkpt>
      <trkpt lat="42.70209" lon="1.37264">
        <ele>2313.0693359375</ele>
        <time>2011-06-11T09:16:13Z</time>
      </trkpt>
      <trkpt lat="42.70215" lon="1.37269">
        <ele>2312.5886230469</ele>
        <time>2011-06-11T09:16:21Z</time>
      </trkpt>
      <trkpt lat="42.70215" lon="1.3727">
        <ele>2313.5498046875</ele>
        <time>2011-06-11T09:16:25Z</time>
      </trkpt>
      <trkpt lat="42.70214" lon="1.37269">
        <ele>2317.8759765625</ele>
        <time>2011-06-11T09:18:26Z</time>
      </trkpt>
      <trkpt lat="42.70214" lon="1.37269">
        <ele>2317.8759765625</ele>
        <time>2011-06-11T09:18:27Z</time>
      </trkpt>
      <trkpt lat="42.70216" lon="1.37272">
        <ele>2316.4340820312</ele>
        <time>2011-06-11T09:18:36Z</time>
      </trkpt>
      <trkpt lat="42.70219" lon="1.37279">
        <ele>2315.47265625</ele>
        <time>2011-06-11T09:18:42Z</time>
      </trkpt>
      <trkpt lat="42.70222" lon="1.37286">
        <ele>2314.5112304688</ele>
        <time>2011-06-11T09:18:49Z</time>
      </trkpt>
      <trkpt lat="42.70225" lon="1.37291">
        <ele>2313.5498046875</ele>
        <time>2011-06-11T09:18:55Z</time>
      </trkpt>
      <trkpt lat="42.70227" lon="1.37296">
        <ele>2311.6274414062</ele>
        <time>2011-06-11T09:19:00Z</time>
      </trkpt>
      <trkpt lat="42.70223" lon="1.37299">
        <ele>2309.7045898438</ele>
        <time>2011-06-11T09:19:07Z</time>
      </trkpt>
      <trkpt lat="42.70218" lon="1.37302">
        <ele>2308.7434082031</ele>
        <time>2011-06-11T09:19:12Z</time>
      </trkpt>
      <trkpt lat="42.70218" lon="1.37302">
        <ele>2308.2626953125</ele>
        <time>2011-06-11T09:19:24Z</time>
      </trkpt>
      <trkpt lat="42.7021" lon="1.37301">
        <ele>2307.7822265625</ele>
        <time>2011-06-11T09:19:55Z</time>
      </trkpt>
      <trkpt lat="42.70209" lon="1.37305">
        <ele>2310.1853027344</ele>
        <time>2011-06-11T09:20:03Z</time>
      </trkpt>
      <trkpt lat="42.70207" lon="1.37307">
        <ele>2308.2626953125</ele>
        <time>2011-06-11T09:20:08Z</time>
      </trkpt>
      <trkpt lat="42.70202" lon="1.37311">
        <ele>2309.2241210938</ele>
        <time>2011-06-11T09:20:17Z</time>
      </trkpt>
      <trkpt lat="42.70199" lon="1.37321">
        <ele>2311.1467285156</ele>
        <time>2011-06-11T09:20:25Z</time>
      </trkpt>
      <trkpt lat="42.70198" lon="1.37326">
        <ele>2312.1079101562</ele>
        <time>2011-06-11T09:20:31Z</time>
      </trkpt>
      <trkpt lat="42.702" lon="1.37327">
        <ele>2312.5886230469</ele>
        <time>2011-06-11T09:20:44Z</time>
      </trkpt>
      <trkpt lat="42.70199" lon="1.3733">
        <ele>2315.47265625</ele>
        <time>2011-06-11T09:20:50Z</time>
      </trkpt>
      <trkpt lat="42.702" lon="1.37334">
        <ele>2317.8759765625</ele>
        <time>2011-06-11T09:20:56Z</time>
      </trkpt>
      <trkpt lat="42.70202" lon="1.37338">
        <ele>2319.7985839844</ele>
        <time>2011-06-11T09:21:04Z</time>
      </trkpt>
      <trkpt lat="42.70201" lon="1.37341">
        <ele>2320.7600097656</ele>
        <time>2011-06-11T09:21:09Z</time>
      </trkpt>
      <trkpt lat="42.70201" lon="1.37346">
        <ele>2322.6826171875</ele>
        <time>2011-06-11T09:21:17Z</time>
      </trkpt>
      <trkpt lat="42.70201" lon="1.37351">
        <ele>2323.6437988281</ele>
        <time>2011-06-11T09:21:23Z</time>
      </trkpt>
      <trkpt lat="42.70201" lon="1.37351">
        <ele>2322.2019042969</ele>
        <time>2011-06-11T09:21:37Z</time>
      </trkpt>
      <trkpt lat="42.702" lon="1.37355">
        <ele>2321.2404785156</ele>
        <time>2011-06-11T09:21:47Z</time>
      </trkpt>
      <trkpt lat="42.702" lon="1.37359">
        <ele>2321.7211914062</ele>
        <time>2011-06-11T09:21:53Z</time>
      </trkpt>
      <trkpt lat="42.70199" lon="1.37362">
        <ele>2320.7600097656</ele>
        <time>2011-06-11T09:22:02Z</time>
      </trkpt>
      <trkpt lat="42.70199" lon="1.37363">
        <ele>2319.7985839844</ele>
        <time>2011-06-11T09:22:10Z</time>
      </trkpt>
      <trkpt lat="42.70197" lon="1.37366">
        <ele>2320.279296875</ele>
        <time>2011-06-11T09:22:17Z</time>
      </trkpt>
      <trkpt lat="42.70195" lon="1.37368">
        <ele>2323.1633300781</ele>
        <time>2011-06-11T09:22:26Z</time>
      </trkpt>
      <trkpt lat="42.70195" lon="1.3737">
        <ele>2329.4116210938</ele>
        <time>2011-06-11T09:22:48Z</time>
      </trkpt>
      <trkpt lat="42.70197" lon="1.37372">
        <ele>2320.279296875</ele>
        <time>2011-06-11T09:26:00Z</time>
      </trkpt>
      <trkpt lat="42.70199" lon="1.37374">
        <ele>2320.7600097656</ele>
        <time>2011-06-11T09:26:06Z</time>
      </trkpt>
      <trkpt lat="42.702" lon="1.37374">
        <ele>2321.2404785156</ele>
        <time>2011-06-11T09:26:12Z</time>
      </trkpt>
      <trkpt lat="42.70202" lon="1.37376">
        <ele>2322.2019042969</ele>
        <time>2011-06-11T09:26:18Z</time>
      </trkpt>
      <trkpt lat="42.70202" lon="1.37379">
        <ele>2322.6826171875</ele>
        <time>2011-06-11T09:26:24Z</time>
      </trkpt>
      <trkpt lat="42.70203" lon="1.3738">
        <ele>2323.1633300781</ele>
        <time>2011-06-11T09:26:35Z</time>
      </trkpt>
      <trkpt lat="42.70205" lon="1.37381">
        <ele>2325.0856933594</ele>
        <time>2011-06-11T09:26:40Z</time>
      </trkpt>
      <trkpt lat="42.70205" lon="1.37384">
        <ele>2325.56640625</ele>
        <time>2011-06-11T09:26:46Z</time>
      </trkpt>
      <trkpt lat="42.70204" lon="1.3739">
        <ele>2324.6052246094</ele>
        <time>2011-06-11T09:26:52Z</time>
      </trkpt>
      <trkpt lat="42.70203" lon="1.37395">
        <ele>2324.1245117188</ele>
        <time>2011-06-11T09:26:57Z</time>
      </trkpt>
      <trkpt lat="42.70204" lon="1.37402">
        <ele>2324.6052246094</ele>
        <time>2011-06-11T09:27:03Z</time>
      </trkpt>
      <trkpt lat="42.70203" lon="1.37409">
        <ele>2324.6052246094</ele>
        <time>2011-06-11T09:27:11Z</time>
      </trkpt>
      <trkpt lat="42.70206" lon="1.37413">
        <ele>2326.0471191406</ele>
        <time>2011-06-11T09:27:17Z</time>
      </trkpt>
      <trkpt lat="42.70206" lon="1.37415">
        <ele>2326.0471191406</ele>
        <time>2011-06-11T09:27:24Z</time>
      </trkpt>
      <trkpt lat="42.70207" lon="1.37421">
        <ele>2326.0471191406</ele>
        <time>2011-06-11T09:27:30Z</time>
      </trkpt>
      <trkpt lat="42.7021" lon="1.37429">
        <ele>2326.0471191406</ele>
        <time>2011-06-11T09:27:37Z</time>
      </trkpt>
      <trkpt lat="42.70213" lon="1.37435">
        <ele>2326.5278320312</ele>
        <time>2011-06-11T09:27:43Z</time>
      </trkpt>
      <trkpt lat="42.70218" lon="1.37439">
        <ele>2328.4504394531</ele>
        <time>2011-06-11T09:27:50Z</time>
      </trkpt>
      <trkpt lat="42.70216" lon="1.37445">
        <ele>2329.4116210938</ele>
        <time>2011-06-11T09:27:58Z</time>
      </trkpt>
      <trkpt lat="42.70214" lon="1.37451">
        <ele>2329.8923339844</ele>
        <time>2011-06-11T09:28:05Z</time>
      </trkpt>
      <trkpt lat="42.70214" lon="1.37458">
        <ele>2329.8923339844</ele>
        <time>2011-06-11T09:28:12Z</time>
      </trkpt>
      <trkpt lat="42.70213" lon="1.37463">
        <ele>2330.373046875</ele>
        <time>2011-06-11T09:28:17Z</time>
      </trkpt>
      <trkpt lat="42.70213" lon="1.37468">
        <ele>2331.3342285156</ele>
        <time>2011-06-11T09:28:22Z</time>
      </trkpt>
      <trkpt lat="42.70212" lon="1.37475">
        <ele>2331.8149414062</ele>
        <time>2011-06-11T09:28:29Z</time>
      </trkpt>
      <trkpt lat="42.70212" lon="1.37478">
        <ele>2332.7763671875</ele>
        <time>2011-06-11T09:28:34Z</time>
      </trkpt>
      <trkpt lat="42.70214" lon="1.37483">
        <ele>2334.69921875</ele>
        <time>2011-06-11T09:28:41Z</time>
      </trkpt>
      <trkpt lat="42.70214" lon="1.37486">
        <ele>2335.6604003906</ele>
        <time>2011-06-11T09:28:47Z</time>
      </trkpt>
      <trkpt lat="42.70215" lon="1.3749">
        <ele>2337.5830078125</ele>
        <time>2011-06-11T09:28:53Z</time>
      </trkpt>
      <trkpt lat="42.70216" lon="1.37494">
        <ele>2338.5444335938</ele>
        <time>2011-06-11T09:29:00Z</time>
      </trkpt>
      <trkpt lat="42.70217" lon="1.37501">
        <ele>2340.9475097656</ele>
        <time>2011-06-11T09:29:08Z</time>
      </trkpt>
      <trkpt lat="42.70217" lon="1.37505">
        <ele>2341.9089355469</ele>
        <time>2011-06-11T09:29:14Z</time>
      </trkpt>
      <trkpt lat="42.70218" lon="1.3751">
        <ele>2342.8701171875</ele>
        <time>2011-06-11T09:29:20Z</time>
      </trkpt>
      <trkpt lat="42.70218" lon="1.37513">
        <ele>2343.8315429688</ele>
        <time>2011-06-11T09:29:26Z</time>
      </trkpt>
      <trkpt lat="42.70219" lon="1.37517">
        <ele>2343.8315429688</ele>
        <time>2011-06-11T09:29:31Z</time>
      </trkpt>
      <trkpt lat="42.7022" lon="1.3752">
        <ele>2344.7927246094</ele>
        <time>2011-06-11T09:29:37Z</time>
      </trkpt>
      <trkpt lat="42.70221" lon="1.37521">
        <ele>2344.3120117188</ele>
        <time>2011-06-11T09:29:42Z</time>
      </trkpt>
      <trkpt lat="42.70221" lon="1.37524">
        <ele>2343.8315429688</ele>
        <time>2011-06-11T09:29:48Z</time>
      </trkpt>
      <trkpt lat="42.70222" lon="1.37528">
        <ele>2344.3120117188</ele>
        <time>2011-06-11T09:29:54Z</time>
      </trkpt>
      <trkpt lat="42.70224" lon="1.37533">
        <ele>2346.2348632812</ele>
        <time>2011-06-11T09:30:02Z</time>
      </trkpt>
      <trkpt lat="42.70224" lon="1.37536">
        <ele>2346.2348632812</ele>
        <time>2011-06-11T09:30:07Z</time>
      </trkpt>
      <trkpt lat="42.70225" lon="1.37539">
        <ele>2347.6767578125</ele>
        <time>2011-06-11T09:30:14Z</time>
      </trkpt>
      <trkpt lat="42.70226" lon="1.37541">
        <ele>2349.1188964844</ele>
        <time>2011-06-11T09:30:19Z</time>
      </trkpt>
      <trkpt lat="42.70227" lon="1.37544">
        <ele>2350.5607910156</ele>
        <time>2011-06-11T09:30:26Z</time>
      </trkpt>
      <trkpt lat="42.70228" lon="1.37549">
        <ele>2352.9641113281</ele>
        <time>2011-06-11T09:30:33Z</time>
      </trkpt>
      <trkpt lat="42.70227" lon="1.37553">
        <ele>2354.4060058594</ele>
        <time>2011-06-11T09:30:40Z</time>
      </trkpt>
      <trkpt lat="42.70224" lon="1.37554">
        <ele>2355.8479003906</ele>
        <time>2011-06-11T09:30:47Z</time>
      </trkpt>
      <trkpt lat="42.70221" lon="1.37554">
        <ele>2357.7707519531</ele>
        <time>2011-06-11T09:30:55Z</time>
      </trkpt>
      <trkpt lat="42.7022" lon="1.37554">
        <ele>2358.7319335938</ele>
        <time>2011-06-11T09:31:00Z</time>
      </trkpt>
      <trkpt lat="42.70219" lon="1.37555">
        <ele>2358.7319335938</ele>
        <time>2011-06-11T09:31:07Z</time>
      </trkpt>
      <trkpt lat="42.70221" lon="1.37558">
        <ele>2360.173828125</ele>
        <time>2011-06-11T09:31:14Z</time>
      </trkpt>
      <trkpt lat="42.70223" lon="1.37561">
        <ele>2361.6159667969</ele>
        <time>2011-06-11T09:31:20Z</time>
      </trkpt>
      <trkpt lat="42.70221" lon="1.37562">
        <ele>2362.5771484375</ele>
        <time>2011-06-11T09:31:25Z</time>
      </trkpt>
      <trkpt lat="42.7022" lon="1.37564">
        <ele>2364.0192871094</ele>
        <time>2011-06-11T09:31:31Z</time>
      </trkpt>
      <trkpt lat="42.7022" lon="1.37564">
        <ele>2364.5</ele>
        <time>2011-06-11T09:31:40Z</time>
      </trkpt>
      <trkpt lat="42.70221" lon="1.37568">
        <ele>2364.9807128906</ele>
        <time>2011-06-11T09:31:47Z</time>
      </trkpt>
      <trkpt lat="42.70222" lon="1.3757">
        <ele>2366.4226074219</ele>
        <time>2011-06-11T09:31:53Z</time>
      </trkpt>
      <trkpt lat="42.70224" lon="1.37572">
        <ele>2367.3837890625</ele>
        <time>2011-06-11T09:31:59Z</time>
      </trkpt>
      <trkpt lat="42.70226" lon="1.37575">
        <ele>2367.8645019531</ele>
        <time>2011-06-11T09:32:05Z</time>
      </trkpt>
      <trkpt lat="42.70229" lon="1.37578">
        <ele>2368.8259277344</ele>
        <time>2011-06-11T09:32:13Z</time>
      </trkpt>
      <trkpt lat="42.70231" lon="1.3758">
        <ele>2369.787109375</ele>
        <time>2011-06-11T09:32:21Z</time>
      </trkpt>
      <trkpt lat="42.70232" lon="1.37582">
        <ele>2371.2290039062</ele>
        <time>2011-06-11T09:32:26Z</time>
      </trkpt>
      <trkpt lat="42.70233" lon="1.37584">
        <ele>2372.1904296875</ele>
        <time>2011-06-11T09:32:35Z</time>
      </trkpt>
      <trkpt lat="42.70235" lon="1.37586">
        <ele>2372.1904296875</ele>
        <time>2011-06-11T09:32:40Z</time>
      </trkpt>
      <trkpt lat="42.70236" lon="1.37588">
        <ele>2372.6711425781</ele>
        <time>2011-06-11T09:32:46Z</time>
      </trkpt>
      <trkpt lat="42.7024" lon="1.37593">
        <ele>2373.6323242188</ele>
        <time>2011-06-11T09:32:54Z</time>
      </trkpt>
      <trkpt lat="42.70242" lon="1.37596">
        <ele>2375.5549316406</ele>
        <time>2011-06-11T09:33:00Z</time>
      </trkpt>
      <trkpt lat="42.70242" lon="1.37599">
        <ele>2376.9970703125</ele>
        <time>2011-06-11T09:33:05Z</time>
      </trkpt>
      <trkpt lat="42.7024" lon="1.376">
        <ele>2377.4775390625</ele>
        <time>2011-06-11T09:33:13Z</time>
      </trkpt>
      <trkpt lat="42.7024" lon="1.37602">
        <ele>2378.9194335938</ele>
        <time>2011-06-11T09:33:22Z</time>
      </trkpt>
      <trkpt lat="42.70241" lon="1.37606">
        <ele>2379.880859375</ele>
        <time>2011-06-11T09:33:29Z</time>
      </trkpt>
      <trkpt lat="42.7024" lon="1.37608">
        <ele>2380.8425292969</ele>
        <time>2011-06-11T09:33:35Z</time>
      </trkpt>
      <trkpt lat="42.70239" lon="1.37609">
        <ele>2381.3229980469</ele>
        <time>2011-06-11T09:33:41Z</time>
      </trkpt>
      <trkpt lat="42.70238" lon="1.3761">
        <ele>2380.8425292969</ele>
        <time>2011-06-11T09:33:48Z</time>
      </trkpt>
      <trkpt lat="42.70238" lon="1.3761">
        <ele>2380.8425292969</ele>
        <time>2011-06-11T09:33:52Z</time>
      </trkpt>
      <trkpt lat="42.70238" lon="1.37608">
        <ele>2379.4001464844</ele>
        <time>2011-06-11T09:34:10Z</time>
      </trkpt>
      <trkpt lat="42.70236" lon="1.37608">
        <ele>2381.3229980469</ele>
        <time>2011-06-11T09:34:15Z</time>
      </trkpt>
      <trkpt lat="42.70233" lon="1.37611">
        <ele>2382.7648925781</ele>
        <time>2011-06-11T09:34:21Z</time>
      </trkpt>
      <trkpt lat="42.70232" lon="1.37612">
        <ele>2383.2456054688</ele>
        <time>2011-06-11T09:34:26Z</time>
      </trkpt>
      <trkpt lat="42.7023" lon="1.37612">
        <ele>2385.6489257812</ele>
        <time>2011-06-11T09:34:31Z</time>
      </trkpt>
      <trkpt lat="42.70226" lon="1.37616">
        <ele>2388.5329589844</ele>
        <time>2011-06-11T09:34:45Z</time>
      </trkpt>
      <trkpt lat="42.70224" lon="1.3762">
        <ele>2389.0134277344</ele>
        <time>2011-06-11T09:34:58Z</time>
      </trkpt>
      <trkpt lat="42.70222" lon="1.3762">
        <ele>2390.4553222656</ele>
        <time>2011-06-11T09:35:08Z</time>
      </trkpt>
      <trkpt lat="42.70221" lon="1.37623">
        <ele>2392.8586425781</ele>
        <time>2011-06-11T09:35:19Z</time>
      </trkpt>
      <trkpt lat="42.7022" lon="1.37625">
        <ele>2393.3393554688</ele>
        <time>2011-06-11T09:35:24Z</time>
      </trkpt>
      <trkpt lat="42.70219" lon="1.37626">
        <ele>2393.8200683594</ele>
        <time>2011-06-11T09:35:33Z</time>
      </trkpt>
      <trkpt lat="42.70218" lon="1.37628">
        <ele>2395.7426757812</ele>
        <time>2011-06-11T09:35:44Z</time>
      </trkpt>
      <trkpt lat="42.70218" lon="1.37629">
        <ele>2396.2236328125</ele>
        <time>2011-06-11T09:35:48Z</time>
      </trkpt>
      <trkpt lat="42.70217" lon="1.37631">
        <ele>2396.2236328125</ele>
        <time>2011-06-11T09:35:53Z</time>
      </trkpt>
      <trkpt lat="42.70216" lon="1.37633">
        <ele>2397.1848144531</ele>
        <time>2011-06-11T09:36:06Z</time>
      </trkpt>
      <trkpt lat="42.70214" lon="1.37637">
        <ele>2397.6655273438</ele>
        <time>2011-06-11T09:36:14Z</time>
      </trkpt>
      <trkpt lat="42.70214" lon="1.3764">
        <ele>2397.6655273438</ele>
        <time>2011-06-11T09:36:20Z</time>
      </trkpt>
      <trkpt lat="42.70214" lon="1.37643">
        <ele>2399.5881347656</ele>
        <time>2011-06-11T09:36:36Z</time>
      </trkpt>
      <trkpt lat="42.70214" lon="1.37646">
        <ele>2401.9912109375</ele>
        <time>2011-06-11T09:36:42Z</time>
      </trkpt>
      <trkpt lat="42.70214" lon="1.3765">
        <ele>2402.4719238281</ele>
        <time>2011-06-11T09:36:50Z</time>
      </trkpt>
      <trkpt lat="42.70213" lon="1.37653">
        <ele>2402.4719238281</ele>
        <time>2011-06-11T09:37:03Z</time>
      </trkpt>
      <trkpt lat="42.70212" lon="1.37657">
        <ele>2403.4333496094</ele>
        <time>2011-06-11T09:37:08Z</time>
      </trkpt>
      <trkpt lat="42.70212" lon="1.37659">
        <ele>2406.3171386719</ele>
        <time>2011-06-11T09:37:24Z</time>
      </trkpt>
      <trkpt lat="42.70212" lon="1.37661">
        <ele>2406.7978515625</ele>
        <time>2011-06-11T09:37:29Z</time>
      </trkpt>
      <trkpt lat="42.7021" lon="1.37661">
        <ele>2407.2785644531</ele>
        <time>2011-06-11T09:37:35Z</time>
      </trkpt>
      <trkpt lat="42.70211" lon="1.37657">
        <ele>2409.681640625</ele>
        <time>2011-06-11T09:37:45Z</time>
      </trkpt>
      <trkpt lat="42.70211" lon="1.37657">
        <ele>2408.7204589844</ele>
        <time>2011-06-11T09:37:56Z</time>
      </trkpt>
      <trkpt lat="42.7021" lon="1.37658">
        <ele>2409.201171875</ele>
        <time>2011-06-11T09:38:14Z</time>
      </trkpt>
      <trkpt lat="42.70209" lon="1.37659">
        <ele>2409.201171875</ele>
        <time>2011-06-11T09:38:26Z</time>
      </trkpt>
      <trkpt lat="42.70212" lon="1.37659">
        <ele>2409.201171875</ele>
        <time>2011-06-11T09:38:42Z</time>
      </trkpt>
      <trkpt lat="42.70213" lon="1.37664">
        <ele>2407.7592773438</ele>
        <time>2011-06-11T09:38:55Z</time>
      </trkpt>
      <trkpt lat="42.70211" lon="1.37667">
        <ele>2407.7592773438</ele>
        <time>2011-06-11T09:39:02Z</time>
      </trkpt>
      <trkpt lat="42.7021" lon="1.37671">
        <ele>2407.7592773438</ele>
        <time>2011-06-11T09:39:07Z</time>
      </trkpt>
      <trkpt lat="42.70211" lon="1.37674">
        <ele>2407.7592773438</ele>
        <time>2011-06-11T09:39:12Z</time>
      </trkpt>
      <trkpt lat="42.70211" lon="1.37675">
        <ele>2407.2785644531</ele>
        <time>2011-06-11T09:39:19Z</time>
      </trkpt>
      <trkpt lat="42.70211" lon="1.37676">
        <ele>2406.3171386719</ele>
        <time>2011-06-11T09:39:22Z</time>
      </trkpt>
      <trkpt lat="42.70207" lon="1.3768">
        <ele>2403.4333496094</ele>
        <time>2011-06-11T09:39:29Z</time>
      </trkpt>
      <trkpt lat="42.7021" lon="1.37681">
        <ele>2407.2785644531</ele>
        <time>2011-06-11T09:39:33Z</time>
      </trkpt>
      <trkpt lat="42.70208" lon="1.37684">
        <ele>2409.201171875</ele>
        <time>2011-06-11T09:39:45Z</time>
      </trkpt>
      <trkpt lat="42.70208" lon="1.37687">
        <ele>2408.7204589844</ele>
        <time>2011-06-11T09:39:50Z</time>
      </trkpt>
      <trkpt lat="42.70206" lon="1.3769">
        <ele>2409.201171875</ele>
        <time>2011-06-11T09:39:56Z</time>
      </trkpt>
      <trkpt lat="42.70206" lon="1.37693">
        <ele>2408.7204589844</ele>
        <time>2011-06-11T09:40:00Z</time>
      </trkpt>
      <trkpt lat="42.70205" lon="1.37698">
        <ele>2409.681640625</ele>
        <time>2011-06-11T09:40:09Z</time>
      </trkpt>
      <trkpt lat="42.70205" lon="1.377">
        <ele>2410.1623535156</ele>
        <time>2011-06-11T09:40:15Z</time>
      </trkpt>
      <trkpt lat="42.70204" lon="1.37704">
        <ele>2409.681640625</ele>
        <time>2011-06-11T09:40:20Z</time>
      </trkpt>
      <trkpt lat="42.70204" lon="1.37706">
        <ele>2410.1623535156</ele>
        <time>2011-06-11T09:40:24Z</time>
      </trkpt>
      <trkpt lat="42.70202" lon="1.37709">
        <ele>2409.681640625</ele>
        <time>2011-06-11T09:40:30Z</time>
      </trkpt>
      <trkpt lat="42.70205" lon="1.37709">
        <ele>2413.0466308594</ele>
        <time>2011-06-11T09:40:39Z</time>
      </trkpt>
      <trkpt lat="42.70205" lon="1.37709">
        <ele>2413.0466308594</ele>
        <time>2011-06-11T09:40:41Z</time>
      </trkpt>
      <trkpt lat="42.7021" lon="1.37708">
        <ele>2416.8918457031</ele>
        <time>2011-06-11T09:40:48Z</time>
      </trkpt>
      <trkpt lat="42.70209" lon="1.37709">
        <ele>2417.3723144531</ele>
        <time>2011-06-11T09:40:53Z</time>
      </trkpt>
      <trkpt lat="42.70211" lon="1.37712">
        <ele>2419.2951660156</ele>
        <time>2011-06-11T09:41:00Z</time>
      </trkpt>
      <trkpt lat="42.70207" lon="1.37716">
        <ele>2418.814453125</ele>
        <time>2011-06-11T09:41:06Z</time>
      </trkpt>
      <trkpt lat="42.70206" lon="1.37717">
        <ele>2419.2951660156</ele>
        <time>2011-06-11T09:41:09Z</time>
      </trkpt>
      <trkpt lat="42.70205" lon="1.37718">
        <ele>2419.7756347656</ele>
        <time>2011-06-11T09:41:15Z</time>
      </trkpt>
      <trkpt lat="42.70203" lon="1.3772">
        <ele>2419.7756347656</ele>
        <time>2011-06-11T09:41:21Z</time>
      </trkpt>
      <trkpt lat="42.70204" lon="1.37722">
        <ele>2421.6982421875</ele>
        <time>2011-06-11T09:41:27Z</time>
      </trkpt>
      <trkpt lat="42.70203" lon="1.37724">
        <ele>2423.1403808594</ele>
        <time>2011-06-11T09:41:36Z</time>
      </trkpt>
      <trkpt lat="42.70203" lon="1.37725">
        <ele>2423.6208496094</ele>
        <time>2011-06-11T09:41:43Z</time>
      </trkpt>
      <trkpt lat="42.70203" lon="1.37727">
        <ele>2424.5822753906</ele>
        <time>2011-06-11T09:41:51Z</time>
      </trkpt>
      <trkpt lat="42.70203" lon="1.37729">
        <ele>2425.5434570312</ele>
        <time>2011-06-11T09:41:57Z</time>
      </trkpt>
      <trkpt lat="42.70203" lon="1.3773">
        <ele>2426.5048828125</ele>
        <time>2011-06-11T09:42:02Z</time>
      </trkpt>
      <trkpt lat="42.70203" lon="1.37733">
        <ele>2426.5048828125</ele>
        <time>2011-06-11T09:42:09Z</time>
      </trkpt>
      <trkpt lat="42.70203" lon="1.37736">
        <ele>2428.427734375</ele>
        <time>2011-06-11T09:42:18Z</time>
      </trkpt>
      <trkpt lat="42.70203" lon="1.37738">
        <ele>2429.8696289062</ele>
        <time>2011-06-11T09:42:24Z</time>
      </trkpt>
      <trkpt lat="42.70203" lon="1.37742">
        <ele>2430.8310546875</ele>
        <time>2011-06-11T09:42:32Z</time>
      </trkpt>
      <trkpt lat="42.70203" lon="1.37743">
        <ele>2431.3115234375</ele>
        <time>2011-06-11T09:42:36Z</time>
      </trkpt>
      <trkpt lat="42.70201" lon="1.37743">
        <ele>2432.7534179688</ele>
        <time>2011-06-11T09:42:43Z</time>
      </trkpt>
      <trkpt lat="42.702" lon="1.37746">
        <ele>2434.1955566406</ele>
        <time>2011-06-11T09:42:49Z</time>
      </trkpt>
      <trkpt lat="42.70199" lon="1.37751">
        <ele>2435.6374511719</ele>
        <time>2011-06-11T09:42:56Z</time>
      </trkpt>
      <trkpt lat="42.70199" lon="1.37753">
        <ele>2437.0793457031</ele>
        <time>2011-06-11T09:43:01Z</time>
      </trkpt>
      <trkpt lat="42.70197" lon="1.37756">
        <ele>2439.001953125</ele>
        <time>2011-06-11T09:43:08Z</time>
      </trkpt>
      <trkpt lat="42.70196" lon="1.37758">
        <ele>2439.9633789062</ele>
        <time>2011-06-11T09:43:16Z</time>
      </trkpt>
      <trkpt lat="42.70194" lon="1.37761">
        <ele>2440.9245605469</ele>
        <time>2011-06-11T09:43:21Z</time>
      </trkpt>
      <trkpt lat="42.70191" lon="1.37765">
        <ele>2444.2893066406</ele>
        <time>2011-06-11T09:43:29Z</time>
      </trkpt>
      <trkpt lat="42.7019" lon="1.37764">
        <ele>2445.2507324219</ele>
        <time>2011-06-11T09:43:34Z</time>
      </trkpt>
      <trkpt lat="42.70189" lon="1.37764">
        <ele>2446.2121582031</ele>
        <time>2011-06-11T09:43:39Z</time>
      </trkpt>
      <trkpt lat="42.70188" lon="1.37763">
        <ele>2446.6926269531</ele>
        <time>2011-06-11T09:43:46Z</time>
      </trkpt>
      <trkpt lat="42.70187" lon="1.37764">
        <ele>2448.1345214844</ele>
        <time>2011-06-11T09:43:53Z</time>
      </trkpt>
      <trkpt lat="42.70186" lon="1.37765">
        <ele>2450.0573730469</ele>
        <time>2011-06-11T09:44:03Z</time>
      </trkpt>
      <trkpt lat="42.70185" lon="1.37766">
        <ele>2451.4992675781</ele>
        <time>2011-06-11T09:44:11Z</time>
      </trkpt>
      <trkpt lat="42.70184" lon="1.37768">
        <ele>2451.9797363281</ele>
        <time>2011-06-11T09:44:17Z</time>
      </trkpt>
      <trkpt lat="42.70183" lon="1.37771">
        <ele>2451.9797363281</ele>
        <time>2011-06-11T09:44:25Z</time>
      </trkpt>
      <trkpt lat="42.70182" lon="1.37773">
        <ele>2451.9797363281</ele>
        <time>2011-06-11T09:44:33Z</time>
      </trkpt>
      <trkpt lat="42.70182" lon="1.37774">
        <ele>2451.9797363281</ele>
        <time>2011-06-11T09:44:43Z</time>
      </trkpt>
      <trkpt lat="42.70181" lon="1.37776">
        <ele>2451.4992675781</ele>
        <time>2011-06-11T09:44:51Z</time>
      </trkpt>
      <trkpt lat="42.70182" lon="1.37778">
        <ele>2450.5378417969</ele>
        <time>2011-06-11T09:44:56Z</time>
      </trkpt>
      <trkpt lat="42.70181" lon="1.37781">
        <ele>2450.5378417969</ele>
        <time>2011-06-11T09:45:02Z</time>
      </trkpt>
      <trkpt lat="42.70181" lon="1.37783">
        <ele>2451.4992675781</ele>
        <time>2011-06-11T09:45:08Z</time>
      </trkpt>
      <trkpt lat="42.70179" lon="1.37786">
        <ele>2451.9797363281</ele>
        <time>2011-06-11T09:45:15Z</time>
      </trkpt>
      <trkpt lat="42.70179" lon="1.37788">
        <ele>2452.9411621094</ele>
        <time>2011-06-11T09:45:22Z</time>
      </trkpt>
      <trkpt lat="42.70178" lon="1.3779">
        <ele>2452.9411621094</ele>
        <time>2011-06-11T09:45:30Z</time>
      </trkpt>
      <trkpt lat="42.70178" lon="1.37793">
        <ele>2452.4604492188</ele>
        <time>2011-06-11T09:45:44Z</time>
      </trkpt>
      <trkpt lat="42.70179" lon="1.37797">
        <ele>2451.9797363281</ele>
        <time>2011-06-11T09:45:51Z</time>
      </trkpt>
      <trkpt lat="42.70179" lon="1.378">
        <ele>2452.9411621094</ele>
        <time>2011-06-11T09:45:58Z</time>
      </trkpt>
      <trkpt lat="42.70178" lon="1.37802">
        <ele>2454.3830566406</ele>
        <time>2011-06-11T09:46:04Z</time>
      </trkpt>
      <trkpt lat="42.70178" lon="1.37805">
        <ele>2456.3056640625</ele>
        <time>2011-06-11T09:46:10Z</time>
      </trkpt>
      <trkpt lat="42.70178" lon="1.37808">
        <ele>2457.2670898438</ele>
        <time>2011-06-11T09:46:17Z</time>
      </trkpt>
      <trkpt lat="42.70177" lon="1.37809">
        <ele>2457.7478027344</ele>
        <time>2011-06-11T09:46:24Z</time>
      </trkpt>
      <trkpt lat="42.70177" lon="1.37811">
        <ele>2458.708984375</ele>
        <time>2011-06-11T09:46:32Z</time>
      </trkpt>
      <trkpt lat="42.70178" lon="1.37811">
        <ele>2458.2282714844</ele>
        <time>2011-06-11T09:46:43Z</time>
      </trkpt>
      <trkpt lat="42.70177" lon="1.37814">
        <ele>2459.1896972656</ele>
        <time>2011-06-11T09:46:50Z</time>
      </trkpt>
      <trkpt lat="42.70176" lon="1.37816">
        <ele>2460.6318359375</ele>
        <time>2011-06-11T09:46:56Z</time>
      </trkpt>
      <trkpt lat="42.70174" lon="1.37815">
        <ele>2461.5932617188</ele>
        <time>2011-06-11T09:47:02Z</time>
      </trkpt>
      <trkpt lat="42.70172" lon="1.37816">
        <ele>2463.515625</ele>
        <time>2011-06-11T09:47:09Z</time>
      </trkpt>
      <trkpt lat="42.7017" lon="1.37817">
        <ele>2464.9577636719</ele>
        <time>2011-06-11T09:47:16Z</time>
      </trkpt>
      <trkpt lat="42.70169" lon="1.37819">
        <ele>2466.3996582031</ele>
        <time>2011-06-11T09:47:23Z</time>
      </trkpt>
      <trkpt lat="42.70166" lon="1.37819">
        <ele>2467.3608398438</ele>
        <time>2011-06-11T09:47:30Z</time>
      </trkpt>
      <trkpt lat="42.70166" lon="1.3782">
        <ele>2467.3608398438</ele>
        <time>2011-06-11T09:47:50Z</time>
      </trkpt>
      <trkpt lat="42.70165" lon="1.37819">
        <ele>2467.3608398438</ele>
        <time>2011-06-11T09:48:00Z</time>
      </trkpt>
      <trkpt lat="42.70162" lon="1.37818">
        <ele>2467.8415527344</ele>
        <time>2011-06-11T09:48:06Z</time>
      </trkpt>
      <trkpt lat="42.7016" lon="1.37812">
        <ele>2469.2836914062</ele>
        <time>2011-06-11T09:48:12Z</time>
      </trkpt>
      <trkpt lat="42.70158" lon="1.37809">
        <ele>2470.2448730469</ele>
        <time>2011-06-11T09:48:17Z</time>
      </trkpt>
      <trkpt lat="42.70156" lon="1.37807">
        <ele>2471.2060546875</ele>
        <time>2011-06-11T09:48:23Z</time>
      </trkpt>
      <trkpt lat="42.70155" lon="1.37805">
        <ele>2472.1674804688</ele>
        <time>2011-06-11T09:48:30Z</time>
      </trkpt>
      <trkpt lat="42.70154" lon="1.37802">
        <ele>2472.6481933594</ele>
        <time>2011-06-11T09:48:37Z</time>
      </trkpt>
      <trkpt lat="42.70152" lon="1.37801">
        <ele>2474.0900878906</ele>
        <time>2011-06-11T09:48:43Z</time>
      </trkpt>
      <trkpt lat="42.70151" lon="1.37799">
        <ele>2475.5319824219</ele>
        <time>2011-06-11T09:48:49Z</time>
      </trkpt>
      <trkpt lat="42.7015" lon="1.37798">
        <ele>2477.4548339844</ele>
        <time>2011-06-11T09:48:58Z</time>
      </trkpt>
      <trkpt lat="42.70148" lon="1.37797">
        <ele>2478.8967285156</ele>
        <time>2011-06-11T09:49:04Z</time>
      </trkpt>
      <trkpt lat="42.70148" lon="1.37795">
        <ele>2480.3388671875</ele>
        <time>2011-06-11T09:49:10Z</time>
      </trkpt>
      <trkpt lat="42.70147" lon="1.37796">
        <ele>2480.8195800781</ele>
        <time>2011-06-11T09:49:20Z</time>
      </trkpt>
      <trkpt lat="42.70146" lon="1.37796">
        <ele>2481.7807617188</ele>
        <time>2011-06-11T09:49:26Z</time>
      </trkpt>
      <trkpt lat="42.70144" lon="1.37796">
        <ele>2480.8195800781</ele>
        <time>2011-06-11T09:49:36Z</time>
      </trkpt>
      <trkpt lat="42.70144" lon="1.37795">
        <ele>2481.7807617188</ele>
        <time>2011-06-11T09:49:41Z</time>
      </trkpt>
      <trkpt lat="42.70142" lon="1.37795">
        <ele>2480.3388671875</ele>
        <time>2011-06-11T09:49:46Z</time>
      </trkpt>
      <trkpt lat="42.70142" lon="1.37796">
        <ele>2482.7419433594</ele>
        <time>2011-06-11T09:49:56Z</time>
      </trkpt>
      <trkpt lat="42.70141" lon="1.37794">
        <ele>2482.7419433594</ele>
        <time>2011-06-11T09:50:06Z</time>
      </trkpt>
      <trkpt lat="42.70139" lon="1.37792">
        <ele>2482.7419433594</ele>
        <time>2011-06-11T09:50:12Z</time>
      </trkpt>
      <trkpt lat="42.70141" lon="1.37791">
        <ele>2484.1840820312</ele>
        <time>2011-06-11T09:50:20Z</time>
      </trkpt>
      <trkpt lat="42.70143" lon="1.37788">
        <ele>2485.6259765625</ele>
        <time>2011-06-11T09:50:26Z</time>
      </trkpt>
      <trkpt lat="42.70144" lon="1.37788">
        <ele>2486.5871582031</ele>
        <time>2011-06-11T09:50:33Z</time>
      </trkpt>
      <trkpt lat="42.70144" lon="1.37787">
        <ele>2487.5485839844</ele>
        <time>2011-06-11T09:50:45Z</time>
      </trkpt>
      <trkpt lat="42.70141" lon="1.37784">
        <ele>2488.5100097656</ele>
        <time>2011-06-11T09:50:50Z</time>
      </trkpt>
      <trkpt lat="42.70139" lon="1.37783">
        <ele>2490.4323730469</ele>
        <time>2011-06-11T09:50:57Z</time>
      </trkpt>
      <trkpt lat="42.70137" lon="1.3778">
        <ele>2491.8745117188</ele>
        <time>2011-06-11T09:51:03Z</time>
      </trkpt>
      <trkpt lat="42.70136" lon="1.37778">
        <ele>2491.3937988281</ele>
        <time>2011-06-11T09:51:07Z</time>
      </trkpt>
      <trkpt lat="42.70135" lon="1.37776">
        <ele>2490.9130859375</ele>
        <time>2011-06-11T09:51:12Z</time>
      </trkpt>
      <trkpt lat="42.70135" lon="1.37774">
        <ele>2493.3166503906</ele>
        <time>2011-06-11T09:51:23Z</time>
      </trkpt>
      <trkpt lat="42.70133" lon="1.37775">
        <ele>2495.2392578125</ele>
        <time>2011-06-11T09:51:30Z</time>
      </trkpt>
      <trkpt lat="42.70133" lon="1.37777">
        <ele>2495.7199707031</ele>
        <time>2011-06-11T09:51:34Z</time>
      </trkpt>
      <trkpt lat="42.70133" lon="1.37779">
        <ele>2496.2006835938</ele>
        <time>2011-06-11T09:51:41Z</time>
      </trkpt>
      <trkpt lat="42.70132" lon="1.37784">
        <ele>2497.642578125</ele>
        <time>2011-06-11T09:51:47Z</time>
      </trkpt>
      <trkpt lat="42.70131" lon="1.37784">
        <ele>2498.6037597656</ele>
        <time>2011-06-11T09:51:52Z</time>
      </trkpt>
      <trkpt lat="42.70129" lon="1.37786">
        <ele>2500.0458984375</ele>
        <time>2011-06-11T09:51:57Z</time>
      </trkpt>
      <trkpt lat="42.70127" lon="1.37787">
        <ele>2501.0070800781</ele>
        <time>2011-06-11T09:52:01Z</time>
      </trkpt>
      <trkpt lat="42.70127" lon="1.37788">
        <ele>2501.0070800781</ele>
        <time>2011-06-11T09:52:12Z</time>
      </trkpt>
      <trkpt lat="42.70126" lon="1.37787">
        <ele>2501.9682617188</ele>
        <time>2011-06-11T09:52:18Z</time>
      </trkpt>
      <trkpt lat="42.70125" lon="1.37787">
        <ele>2504.3715820312</ele>
        <time>2011-06-11T09:52:27Z</time>
      </trkpt>
      <trkpt lat="42.70123" lon="1.37787">
        <ele>2505.3330078125</ele>
        <time>2011-06-11T09:52:33Z</time>
      </trkpt>
      <trkpt lat="42.70122" lon="1.37787">
        <ele>2507.2556152344</ele>
        <time>2011-06-11T09:52:42Z</time>
      </trkpt>
      <trkpt lat="42.70121" lon="1.37787">
        <ele>2507.2556152344</ele>
        <time>2011-06-11T09:52:47Z</time>
      </trkpt>
      <trkpt lat="42.7012" lon="1.37784">
        <ele>2507.736328125</ele>
        <time>2011-06-11T09:52:52Z</time>
      </trkpt>
      <trkpt lat="42.70118" lon="1.37784">
        <ele>2507.736328125</ele>
        <time>2011-06-11T09:52:57Z</time>
      </trkpt>
      <trkpt lat="42.70118" lon="1.37783">
        <ele>2508.2170410156</ele>
        <time>2011-06-11T09:53:01Z</time>
      </trkpt>
      <trkpt lat="42.70119" lon="1.37781">
        <ele>2508.6977539062</ele>
        <time>2011-06-11T09:53:11Z</time>
      </trkpt>
      <trkpt lat="42.70118" lon="1.37779">
        <ele>2509.1784667969</ele>
        <time>2011-06-11T09:53:20Z</time>
      </trkpt>
      <trkpt lat="42.70116" lon="1.37779">
        <ele>2508.6977539062</ele>
        <time>2011-06-11T09:53:27Z</time>
      </trkpt>
      <trkpt lat="42.70113" lon="1.3778">
        <ele>2510.6203613281</ele>
        <time>2011-06-11T09:53:33Z</time>
      </trkpt>
      <trkpt lat="42.7011" lon="1.37778">
        <ele>2510.6203613281</ele>
        <time>2011-06-11T09:53:40Z</time>
      </trkpt>
      <trkpt lat="42.70109" lon="1.37777">
        <ele>2511.5817871094</ele>
        <time>2011-06-11T09:53:45Z</time>
      </trkpt>
      <trkpt lat="42.70107" lon="1.37774">
        <ele>2512.54296875</ele>
        <time>2011-06-11T09:53:52Z</time>
      </trkpt>
      <trkpt lat="42.70105" lon="1.37771">
        <ele>2513.5041503906</ele>
        <time>2011-06-11T09:53:58Z</time>
      </trkpt>
      <trkpt lat="42.70103" lon="1.37768">
        <ele>2513.0236816406</ele>
        <time>2011-06-11T09:54:05Z</time>
      </trkpt>
      <trkpt lat="42.70102" lon="1.37767">
        <ele>2513.0236816406</ele>
        <time>2011-06-11T09:54:11Z</time>
      </trkpt>
      <trkpt lat="42.70102" lon="1.37763">
        <ele>2512.54296875</ele>
        <time>2011-06-11T09:54:18Z</time>
      </trkpt>
      <trkpt lat="42.701" lon="1.3776">
        <ele>2512.54296875</ele>
        <time>2011-06-11T09:54:24Z</time>
      </trkpt>
      <trkpt lat="42.70098" lon="1.37757">
        <ele>2513.0236816406</ele>
        <time>2011-06-11T09:54:32Z</time>
      </trkpt>
      <trkpt lat="42.70097" lon="1.37755">
        <ele>2513.5041503906</ele>
        <time>2011-06-11T09:54:38Z</time>
      </trkpt>
      <trkpt lat="42.70097" lon="1.37754">
        <ele>2513.0236816406</ele>
        <time>2011-06-11T09:54:44Z</time>
      </trkpt>
      <trkpt lat="42.70095" lon="1.37752">
        <ele>2513.5041503906</ele>
        <time>2011-06-11T09:54:48Z</time>
      </trkpt>
      <trkpt lat="42.70094" lon="1.37748">
        <ele>2514.4655761719</ele>
        <time>2011-06-11T09:54:54Z</time>
      </trkpt>
      <trkpt lat="42.70092" lon="1.37745">
        <ele>2514.9462890625</ele>
        <time>2011-06-11T09:55:00Z</time>
      </trkpt>
      <trkpt lat="42.70091" lon="1.37743">
        <ele>2514.9462890625</ele>
        <time>2011-06-11T09:55:06Z</time>
      </trkpt>
      <trkpt lat="42.7009" lon="1.37741">
        <ele>2514.9462890625</ele>
        <time>2011-06-11T09:55:13Z</time>
      </trkpt>
      <trkpt lat="42.70089" lon="1.37739">
        <ele>2515.4270019531</ele>
        <time>2011-06-11T09:55:19Z</time>
      </trkpt>
      <trkpt lat="42.70087" lon="1.37736">
        <ele>2515.9074707031</ele>
        <time>2011-06-11T09:55:27Z</time>
      </trkpt>
      <trkpt lat="42.70087" lon="1.37736">
        <ele>2515.9074707031</ele>
        <time>2011-06-11T09:55:37Z</time>
      </trkpt>
      <trkpt lat="42.70086" lon="1.37736">
        <ele>2515.9074707031</ele>
        <time>2011-06-11T09:55:44Z</time>
      </trkpt>
      <trkpt lat="42.70084" lon="1.37734">
        <ele>2515.9074707031</ele>
        <time>2011-06-11T09:55:52Z</time>
      </trkpt>
      <trkpt lat="42.70084" lon="1.37734">
        <ele>2516.3881835938</ele>
        <time>2011-06-11T09:55:59Z</time>
      </trkpt>
      <trkpt lat="42.70086" lon="1.37735">
        <ele>2515.4270019531</ele>
        <time>2011-06-11T09:56:05Z</time>
      </trkpt>
      <trkpt lat="42.70089" lon="1.3774">
        <ele>2514.9462890625</ele>
        <time>2011-06-11T09:56:12Z</time>
      </trkpt>
      <trkpt lat="42.7009" lon="1.37743">
        <ele>2514.9462890625</ele>
        <time>2011-06-11T09:56:19Z</time>
      </trkpt>
      <trkpt lat="42.7009" lon="1.37747">
        <ele>2514.4655761719</ele>
        <time>2011-06-11T09:56:26Z</time>
      </trkpt>
      <trkpt lat="42.7009" lon="1.37751">
        <ele>2515.4270019531</ele>
        <time>2011-06-11T09:56:32Z</time>
      </trkpt>
      <trkpt lat="42.70089" lon="1.37754">
        <ele>2515.9074707031</ele>
        <time>2011-06-11T09:56:38Z</time>
      </trkpt>
      <trkpt lat="42.70089" lon="1.37758">
        <ele>2517.3493652344</ele>
        <time>2011-06-11T09:56:45Z</time>
      </trkpt>
      <trkpt lat="42.70088" lon="1.37762">
        <ele>2518.7915039062</ele>
        <time>2011-06-11T09:56:52Z</time>
      </trkpt>
      <trkpt lat="42.70088" lon="1.37763">
        <ele>2519.2722167969</ele>
        <time>2011-06-11T09:56:58Z</time>
      </trkpt>
      <trkpt lat="42.70087" lon="1.37765">
        <ele>2518.7915039062</ele>
        <time>2011-06-11T09:57:03Z</time>
      </trkpt>
      <trkpt lat="42.70088" lon="1.37768">
        <ele>2519.7526855469</ele>
        <time>2011-06-11T09:57:09Z</time>
      </trkpt>
      <trkpt lat="42.70089" lon="1.37771">
        <ele>2520.7141113281</ele>
        <time>2011-06-11T09:57:15Z</time>
      </trkpt>
      <trkpt lat="42.70089" lon="1.37774">
        <ele>2521.1945800781</ele>
        <time>2011-06-11T09:57:21Z</time>
      </trkpt>
      <trkpt lat="42.70088" lon="1.37778">
        <ele>2521.6752929688</ele>
        <time>2011-06-11T09:57:28Z</time>
      </trkpt>
      <trkpt lat="42.70087" lon="1.3778">
        <ele>2522.63671875</ele>
        <time>2011-06-11T09:57:34Z</time>
      </trkpt>
      <trkpt lat="42.70088" lon="1.37782">
        <ele>2523.1174316406</ele>
        <time>2011-06-11T09:57:41Z</time>
      </trkpt>
      <trkpt lat="42.70088" lon="1.37783">
        <ele>2525.0400390625</ele>
        <time>2011-06-11T09:57:48Z</time>
      </trkpt>
      <trkpt lat="42.70087" lon="1.37784">
        <ele>2526.0014648438</ele>
        <time>2011-06-11T09:57:54Z</time>
      </trkpt>
      <trkpt lat="42.70086" lon="1.37783">
        <ele>2526.4821777344</ele>
        <time>2011-06-11T09:58:00Z</time>
      </trkpt>
      <trkpt lat="42.70087" lon="1.37784">
        <ele>2525.5207519531</ele>
        <time>2011-06-11T09:58:06Z</time>
      </trkpt>
      <trkpt lat="42.70086" lon="1.37785">
        <ele>2524.0788574219</ele>
        <time>2011-06-11T09:58:12Z</time>
      </trkpt>
      <trkpt lat="42.70086" lon="1.37786">
        <ele>2524.0788574219</ele>
        <time>2011-06-11T09:58:18Z</time>
      </trkpt>
      <trkpt lat="42.70086" lon="1.37788">
        <ele>2524.5595703125</ele>
        <time>2011-06-11T09:58:24Z</time>
      </trkpt>
      <trkpt lat="42.70084" lon="1.37787">
        <ele>2525.0400390625</ele>
        <time>2011-06-11T09:58:31Z</time>
      </trkpt>
      <trkpt lat="42.70084" lon="1.37786">
        <ele>2525.0400390625</ele>
        <time>2011-06-11T09:58:40Z</time>
      </trkpt>
      <trkpt lat="42.70084" lon="1.37785">
        <ele>2526.4821777344</ele>
        <time>2011-06-11T09:58:44Z</time>
      </trkpt>
      <trkpt lat="42.70083" lon="1.37785">
        <ele>2526.962890625</ele>
        <time>2011-06-11T09:58:51Z</time>
      </trkpt>
      <trkpt lat="42.70082" lon="1.37784">
        <ele>2528.4047851562</ele>
        <time>2011-06-11T09:59:05Z</time>
      </trkpt>
      <trkpt lat="42.70082" lon="1.37783">
        <ele>2528.4047851562</ele>
        <time>2011-06-11T09:59:10Z</time>
      </trkpt>
      <trkpt lat="42.7008" lon="1.3778">
        <ele>2529.3659667969</ele>
        <time>2011-06-11T09:59:16Z</time>
      </trkpt>
      <trkpt lat="42.70078" lon="1.37778">
        <ele>2529.8466796875</ele>
        <time>2011-06-11T09:59:22Z</time>
      </trkpt>
      <trkpt lat="42.70078" lon="1.37776">
        <ele>2529.8466796875</ele>
        <time>2011-06-11T09:59:27Z</time>
      </trkpt>
      <trkpt lat="42.70078" lon="1.37776">
        <ele>2531.2885742188</ele>
        <time>2011-06-11T09:59:36Z</time>
      </trkpt>
      <trkpt lat="42.70078" lon="1.37775">
        <ele>2531.7692871094</ele>
        <time>2011-06-11T09:59:42Z</time>
      </trkpt>
      <trkpt lat="42.70077" lon="1.37773">
        <ele>2533.2111816406</ele>
        <time>2011-06-11T09:59:56Z</time>
      </trkpt>
      <trkpt lat="42.70076" lon="1.37772">
        <ele>2533.2111816406</ele>
        <time>2011-06-11T10:00:01Z</time>
      </trkpt>
      <trkpt lat="42.70074" lon="1.37769">
        <ele>2533.2111816406</ele>
        <time>2011-06-11T10:00:07Z</time>
      </trkpt>
      <trkpt lat="42.70073" lon="1.37768">
        <ele>2533.6918945312</ele>
        <time>2011-06-11T10:00:13Z</time>
      </trkpt>
      <trkpt lat="42.70072" lon="1.37766">
        <ele>2534.6533203125</ele>
        <time>2011-06-11T10:00:20Z</time>
      </trkpt>
      <trkpt lat="42.70071" lon="1.37765">
        <ele>2535.6145019531</ele>
        <time>2011-06-11T10:00:26Z</time>
      </trkpt>
      <trkpt lat="42.7007" lon="1.37764">
        <ele>2536.5756835938</ele>
        <time>2011-06-11T10:00:32Z</time>
      </trkpt>
      <trkpt lat="42.70068" lon="1.37762">
        <ele>2536.5756835938</ele>
        <time>2011-06-11T10:00:37Z</time>
      </trkpt>
      <trkpt lat="42.70067" lon="1.37761">
        <ele>2537.0563964844</ele>
        <time>2011-06-11T10:00:42Z</time>
      </trkpt>
      <trkpt lat="42.70066" lon="1.37759">
        <ele>2536.5756835938</ele>
        <time>2011-06-11T10:00:49Z</time>
      </trkpt>
      <trkpt lat="42.70065" lon="1.37758">
        <ele>2537.0563964844</ele>
        <time>2011-06-11T10:00:55Z</time>
      </trkpt>
      <trkpt lat="42.70065" lon="1.37757">
        <ele>2537.537109375</ele>
        <time>2011-06-11T10:01:00Z</time>
      </trkpt>
      <trkpt lat="42.70064" lon="1.37756">
        <ele>2538.0178222656</ele>
        <time>2011-06-11T10:01:08Z</time>
      </trkpt>
      <trkpt lat="42.70065" lon="1.37757">
        <ele>2538.0178222656</ele>
        <time>2011-06-11T10:01:44Z</time>
      </trkpt>
      <trkpt lat="42.70064" lon="1.37756">
        <ele>2538.9790039062</ele>
        <time>2011-06-11T10:01:54Z</time>
      </trkpt>
      <trkpt lat="42.70063" lon="1.37754">
        <ele>2538.9790039062</ele>
        <time>2011-06-11T10:01:58Z</time>
      </trkpt>
      <trkpt lat="42.70061" lon="1.37753">
        <ele>2538.4985351562</ele>
        <time>2011-06-11T10:02:07Z</time>
      </trkpt>
      <trkpt lat="42.7006" lon="1.3775">
        <ele>2538.9790039062</ele>
        <time>2011-06-11T10:02:12Z</time>
      </trkpt>
      <trkpt lat="42.7006" lon="1.37747">
        <ele>2539.9404296875</ele>
        <time>2011-06-11T10:02:18Z</time>
      </trkpt>
      <trkpt lat="42.70059" lon="1.37747">
        <ele>2539.4597167969</ele>
        <time>2011-06-11T10:02:28Z</time>
      </trkpt>
      <trkpt lat="42.70058" lon="1.37747">
        <ele>2539.9404296875</ele>
        <time>2011-06-11T10:02:41Z</time>
      </trkpt>
      <trkpt lat="42.70057" lon="1.37744">
        <ele>2540.4211425781</ele>
        <time>2011-06-11T10:02:46Z</time>
      </trkpt>
      <trkpt lat="42.70057" lon="1.3774">
        <ele>2541.86328125</ele>
        <time>2011-06-11T10:02:53Z</time>
      </trkpt>
      <trkpt lat="42.70055" lon="1.37738">
        <ele>2542.8244628906</ele>
        <time>2011-06-11T10:02:59Z</time>
      </trkpt>
      <trkpt lat="42.70054" lon="1.37734">
        <ele>2544.2663574219</ele>
        <time>2011-06-11T10:03:06Z</time>
      </trkpt>
      <trkpt lat="42.70051" lon="1.37732">
        <ele>2545.2277832031</ele>
        <time>2011-06-11T10:03:11Z</time>
      </trkpt>
      <trkpt lat="42.7005" lon="1.3773">
        <ele>2546.1892089844</ele>
        <time>2011-06-11T10:03:18Z</time>
      </trkpt>
      <trkpt lat="42.7005" lon="1.3773">
        <ele>2546.1892089844</ele>
        <time>2011-06-11T10:03:20Z</time>
      </trkpt>
      <trkpt lat="42.70047" lon="1.37726">
        <ele>2544.7470703125</ele>
        <time>2011-06-11T10:09:51Z</time>
      </trkpt>
      <trkpt lat="42.70047" lon="1.37726">
        <ele>2544.7470703125</ele>
        <time>2011-06-11T10:09:52Z</time>
      </trkpt>
      <trkpt lat="42.70046" lon="1.37724">
        <ele>2543.7858886719</ele>
        <time>2011-06-11T10:09:57Z</time>
      </trkpt>
      <trkpt lat="42.70045" lon="1.37723">
        <ele>2543.3051757812</ele>
        <time>2011-06-11T10:10:02Z</time>
      </trkpt>
      <trkpt lat="42.70044" lon="1.37722">
        <ele>2543.3051757812</ele>
        <time>2011-06-11T10:10:07Z</time>
      </trkpt>
      <trkpt lat="42.70043" lon="1.37721">
        <ele>2542.3439941406</ele>
        <time>2011-06-11T10:10:11Z</time>
      </trkpt>
      <trkpt lat="42.70042" lon="1.37719">
        <ele>2542.8244628906</ele>
        <time>2011-06-11T10:10:15Z</time>
      </trkpt>
      <trkpt lat="42.70041" lon="1.37719">
        <ele>2542.8244628906</ele>
        <time>2011-06-11T10:10:24Z</time>
      </trkpt>
      <trkpt lat="42.70039" lon="1.37717">
        <ele>2542.8244628906</ele>
        <time>2011-06-11T10:10:31Z</time>
      </trkpt>
      <trkpt lat="42.70039" lon="1.37717">
        <ele>2542.8244628906</ele>
        <time>2011-06-11T10:10:38Z</time>
      </trkpt>
      <trkpt lat="42.70037" lon="1.37716">
        <ele>2543.7858886719</ele>
        <time>2011-06-11T10:10:43Z</time>
      </trkpt>
      <trkpt lat="42.70036" lon="1.37714">
        <ele>2543.7858886719</ele>
        <time>2011-06-11T10:10:50Z</time>
      </trkpt>
      <trkpt lat="42.70036" lon="1.37712">
        <ele>2542.8244628906</ele>
        <time>2011-06-11T10:10:57Z</time>
      </trkpt>
      <trkpt lat="42.70035" lon="1.37711">
        <ele>2542.8244628906</ele>
        <time>2011-06-11T10:11:04Z</time>
      </trkpt>
      <trkpt lat="42.70034" lon="1.3771">
        <ele>2542.8244628906</ele>
        <time>2011-06-11T10:11:09Z</time>
      </trkpt>
      <trkpt lat="42.70034" lon="1.3771">
        <ele>2542.3439941406</ele>
        <time>2011-06-11T10:11:16Z</time>
      </trkpt>
      <trkpt lat="42.70034" lon="1.3771">
        <ele>2541.3825683594</ele>
        <time>2011-06-11T10:11:22Z</time>
      </trkpt>
      <trkpt lat="42.70034" lon="1.37709">
        <ele>2541.3825683594</ele>
        <time>2011-06-11T10:11:27Z</time>
      </trkpt>
      <trkpt lat="42.70033" lon="1.37709">
        <ele>2541.3825683594</ele>
        <time>2011-06-11T10:11:32Z</time>
      </trkpt>
      <trkpt lat="42.70031" lon="1.37708">
        <ele>2540.9018554688</ele>
        <time>2011-06-11T10:11:37Z</time>
      </trkpt>
      <trkpt lat="42.7003" lon="1.37707">
        <ele>2540.9018554688</ele>
        <time>2011-06-11T10:11:42Z</time>
      </trkpt>
      <trkpt lat="42.70029" lon="1.37705">
        <ele>2540.9018554688</ele>
        <time>2011-06-11T10:11:47Z</time>
      </trkpt>
      <trkpt lat="42.70028" lon="1.37706">
        <ele>2542.3439941406</ele>
        <time>2011-06-11T10:11:54Z</time>
      </trkpt>
      <trkpt lat="42.70026" lon="1.37705">
        <ele>2543.3051757812</ele>
        <time>2011-06-11T10:12:00Z</time>
      </trkpt>
      <trkpt lat="42.70025" lon="1.37704">
        <ele>2544.2663574219</ele>
        <time>2011-06-11T10:12:06Z</time>
      </trkpt>
      <trkpt lat="42.70023" lon="1.37703">
        <ele>2544.2663574219</ele>
        <time>2011-06-11T10:12:13Z</time>
      </trkpt>
      <trkpt lat="42.70022" lon="1.37701">
        <ele>2544.7470703125</ele>
        <time>2011-06-11T10:12:18Z</time>
      </trkpt>
      <trkpt lat="42.7002" lon="1.377">
        <ele>2546.1892089844</ele>
        <time>2011-06-11T10:12:23Z</time>
      </trkpt>
      <trkpt lat="42.7002" lon="1.37699">
        <ele>2547.6311035156</ele>
        <time>2011-06-11T10:12:28Z</time>
      </trkpt>
      <trkpt lat="42.7002" lon="1.37698">
        <ele>2547.6311035156</ele>
        <time>2011-06-11T10:12:36Z</time>
      </trkpt>
      <trkpt lat="42.70019" lon="1.37697">
        <ele>2548.1115722656</ele>
        <time>2011-06-11T10:12:45Z</time>
      </trkpt>
      <trkpt lat="42.70018" lon="1.37696">
        <ele>2547.6311035156</ele>
        <time>2011-06-11T10:12:51Z</time>
      </trkpt>
      <trkpt lat="42.70016" lon="1.37696">
        <ele>2547.150390625</ele>
        <time>2011-06-11T10:12:58Z</time>
      </trkpt>
      <trkpt lat="42.70014" lon="1.37695">
        <ele>2548.1115722656</ele>
        <time>2011-06-11T10:13:04Z</time>
      </trkpt>
      <trkpt lat="42.70013" lon="1.37694">
        <ele>2547.6311035156</ele>
        <time>2011-06-11T10:13:09Z</time>
      </trkpt>
      <trkpt lat="42.70012" lon="1.37693">
        <ele>2548.1115722656</ele>
        <time>2011-06-11T10:13:16Z</time>
      </trkpt>
      <trkpt lat="42.7001" lon="1.37691">
        <ele>2548.1115722656</ele>
        <time>2011-06-11T10:13:21Z</time>
      </trkpt>
      <trkpt lat="42.70009" lon="1.37689">
        <ele>2548.1115722656</ele>
        <time>2011-06-11T10:13:27Z</time>
      </trkpt>
      <trkpt lat="42.70007" lon="1.37689">
        <ele>2549.0729980469</ele>
        <time>2011-06-11T10:13:31Z</time>
      </trkpt>
      <trkpt lat="42.70005" lon="1.37689">
        <ele>2550.0344238281</ele>
        <time>2011-06-11T10:13:36Z</time>
      </trkpt>
      <trkpt lat="42.70004" lon="1.37688">
        <ele>2550.9956054688</ele>
        <time>2011-06-11T10:13:41Z</time>
      </trkpt>
      <trkpt lat="42.70002" lon="1.37688">
        <ele>2550.9956054688</ele>
        <time>2011-06-11T10:13:47Z</time>
      </trkpt>
      <trkpt lat="42.7" lon="1.37688">
        <ele>2551.9567871094</ele>
        <time>2011-06-11T10:13:54Z</time>
      </trkpt>
      <trkpt lat="42.69999" lon="1.37688">
        <ele>2552.4375</ele>
        <time>2011-06-11T10:14:00Z</time>
      </trkpt>
      <trkpt lat="42.69997" lon="1.37688">
        <ele>2553.3989257812</ele>
        <time>2011-06-11T10:14:08Z</time>
      </trkpt>
      <trkpt lat="42.69997" lon="1.37687">
        <ele>2553.8796386719</ele>
        <time>2011-06-11T10:14:14Z</time>
      </trkpt>
      <trkpt lat="42.69997" lon="1.37687">
        <ele>2554.3601074219</ele>
        <time>2011-06-11T10:14:34Z</time>
      </trkpt>
      <trkpt lat="42.69998" lon="1.37688">
        <ele>2554.3601074219</ele>
        <time>2011-06-11T10:14:39Z</time>
      </trkpt>
      <trkpt lat="42.69999" lon="1.37689">
        <ele>2553.3989257812</ele>
        <time>2011-06-11T10:14:46Z</time>
      </trkpt>
      <trkpt lat="42.69999" lon="1.37689">
        <ele>2552.4375</ele>
        <time>2011-06-11T10:14:54Z</time>
      </trkpt>
      <trkpt lat="42.7" lon="1.37689">
        <ele>2551.4763183594</ele>
        <time>2011-06-11T10:15:02Z</time>
      </trkpt>
      <trkpt lat="42.70002" lon="1.37689">
        <ele>2551.4763183594</ele>
        <time>2011-06-11T10:15:13Z</time>
      </trkpt>
      <trkpt lat="42.70003" lon="1.37689">
        <ele>2551.4763183594</ele>
        <time>2011-06-11T10:15:19Z</time>
      </trkpt>
      <trkpt lat="42.70003" lon="1.37689">
        <ele>2550.0344238281</ele>
        <time>2011-06-11T10:15:32Z</time>
      </trkpt>
      <trkpt lat="42.70004" lon="1.37689">
        <ele>2549.0729980469</ele>
        <time>2011-06-11T10:15:45Z</time>
      </trkpt>
      <trkpt lat="42.70006" lon="1.37689">
        <ele>2548.5922851562</ele>
        <time>2011-06-11T10:15:51Z</time>
      </trkpt>
      <trkpt lat="42.70007" lon="1.3769">
        <ele>2548.1115722656</ele>
        <time>2011-06-11T10:15:56Z</time>
      </trkpt>
      <trkpt lat="42.70008" lon="1.3769">
        <ele>2548.5922851562</ele>
        <time>2011-06-11T10:16:04Z</time>
      </trkpt>
      <trkpt lat="42.7001" lon="1.37692">
        <ele>2548.1115722656</ele>
        <time>2011-06-11T10:16:10Z</time>
      </trkpt>
      <trkpt lat="42.70013" lon="1.37695">
        <ele>2548.5922851562</ele>
        <time>2011-06-11T10:16:17Z</time>
      </trkpt>
      <trkpt lat="42.70015" lon="1.37696">
        <ele>2549.0729980469</ele>
        <time>2011-06-11T10:16:22Z</time>
      </trkpt>
      <trkpt lat="42.70016" lon="1.37698">
        <ele>2549.0729980469</ele>
        <time>2011-06-11T10:16:27Z</time>
      </trkpt>
      <trkpt lat="42.70018" lon="1.37699">
        <ele>2548.1115722656</ele>
        <time>2011-06-11T10:16:35Z</time>
      </trkpt>
      <trkpt lat="42.70019" lon="1.37701">
        <ele>2548.1115722656</ele>
        <time>2011-06-11T10:16:43Z</time>
      </trkpt>
      <trkpt lat="42.7002" lon="1.37702">
        <ele>2547.6311035156</ele>
        <time>2011-06-11T10:16:50Z</time>
      </trkpt>
      <trkpt lat="42.7002" lon="1.37703">
        <ele>2546.1892089844</ele>
        <time>2011-06-11T10:16:57Z</time>
      </trkpt>
      <trkpt lat="42.70021" lon="1.37702">
        <ele>2545.2277832031</ele>
        <time>2011-06-11T10:17:04Z</time>
      </trkpt>
      <trkpt lat="42.70022" lon="1.37703">
        <ele>2544.7470703125</ele>
        <time>2011-06-11T10:17:10Z</time>
      </trkpt>
      <trkpt lat="42.70024" lon="1.37704">
        <ele>2544.2663574219</ele>
        <time>2011-06-11T10:17:16Z</time>
      </trkpt>
      <trkpt lat="42.70026" lon="1.37708">
        <ele>2544.7470703125</ele>
        <time>2011-06-11T10:17:24Z</time>
      </trkpt>
      <trkpt lat="42.70028" lon="1.37709">
        <ele>2545.2277832031</ele>
        <time>2011-06-11T10:17:30Z</time>
      </trkpt>
      <trkpt lat="42.70029" lon="1.37708">
        <ele>2544.7470703125</ele>
        <time>2011-06-11T10:17:35Z</time>
      </trkpt>
      <trkpt lat="42.7003" lon="1.37708">
        <ele>2544.2663574219</ele>
        <time>2011-06-11T10:17:41Z</time>
      </trkpt>
      <trkpt lat="42.7003" lon="1.37708">
        <ele>2543.3051757812</ele>
        <time>2011-06-11T10:17:47Z</time>
      </trkpt>
      <trkpt lat="42.70031" lon="1.37709">
        <ele>2542.8244628906</ele>
        <time>2011-06-11T10:17:52Z</time>
      </trkpt>
      <trkpt lat="42.70032" lon="1.3771">
        <ele>2542.3439941406</ele>
        <time>2011-06-11T10:17:57Z</time>
      </trkpt>
      <trkpt lat="42.70032" lon="1.37711">
        <ele>2542.3439941406</ele>
        <time>2011-06-11T10:18:01Z</time>
      </trkpt>
      <trkpt lat="42.70033" lon="1.37712">
        <ele>2542.3439941406</ele>
        <time>2011-06-11T10:18:07Z</time>
      </trkpt>
      <trkpt lat="42.70036" lon="1.37715">
        <ele>2541.86328125</ele>
        <time>2011-06-11T10:18:13Z</time>
      </trkpt>
      <trkpt lat="42.70037" lon="1.37717">
        <ele>2542.8244628906</ele>
        <time>2011-06-11T10:18:21Z</time>
      </trkpt>
      <trkpt lat="42.70039" lon="1.37718">
        <ele>2541.3825683594</ele>
        <time>2011-06-11T10:18:28Z</time>
      </trkpt>
      <trkpt lat="42.70042" lon="1.3772">
        <ele>2542.3439941406</ele>
        <time>2011-06-11T10:18:34Z</time>
      </trkpt>
      <trkpt lat="42.70045" lon="1.37724">
        <ele>2542.3439941406</ele>
        <time>2011-06-11T10:18:41Z</time>
      </trkpt>
      <trkpt lat="42.70046" lon="1.37727">
        <ele>2542.8244628906</ele>
        <time>2011-06-11T10:18:45Z</time>
      </trkpt>
      <trkpt lat="42.70048" lon="1.37729">
        <ele>2543.3051757812</ele>
        <time>2011-06-11T10:18:51Z</time>
      </trkpt>
      <trkpt lat="42.70049" lon="1.37731">
        <ele>2543.3051757812</ele>
        <time>2011-06-11T10:18:55Z</time>
      </trkpt>
      <trkpt lat="42.70048" lon="1.3773">
        <ele>2538.9790039062</ele>
        <time>2011-06-11T10:37:48Z</time>
      </trkpt>
      <trkpt lat="42.70048" lon="1.3773">
        <ele>2538.9790039062</ele>
        <time>2011-06-11T10:37:49Z</time>
      </trkpt>
      <trkpt lat="42.70048" lon="1.3773">
        <ele>2538.9790039062</ele>
        <time>2011-06-11T10:37:57Z</time>
      </trkpt>
      <trkpt lat="42.70049" lon="1.3773">
        <ele>2538.9790039062</ele>
        <time>2011-06-11T10:38:02Z</time>
      </trkpt>
      <trkpt lat="42.70051" lon="1.3773">
        <ele>2538.4985351562</ele>
        <time>2011-06-11T10:38:10Z</time>
      </trkpt>
      <trkpt lat="42.70053" lon="1.37733">
        <ele>2538.0178222656</ele>
        <time>2011-06-11T10:38:19Z</time>
      </trkpt>
      <trkpt lat="42.70054" lon="1.37734">
        <ele>2537.537109375</ele>
        <time>2011-06-11T10:38:28Z</time>
      </trkpt>
      <trkpt lat="42.70055" lon="1.37736">
        <ele>2537.537109375</ele>
        <time>2011-06-11T10:38:35Z</time>
      </trkpt>
      <trkpt lat="42.70055" lon="1.37738">
        <ele>2537.537109375</ele>
        <time>2011-06-11T10:38:40Z</time>
      </trkpt>
      <trkpt lat="42.70057" lon="1.3774">
        <ele>2537.537109375</ele>
        <time>2011-06-11T10:38:47Z</time>
      </trkpt>
      <trkpt lat="42.70057" lon="1.37743">
        <ele>2537.0563964844</ele>
        <time>2011-06-11T10:38:55Z</time>
      </trkpt>
      <trkpt lat="42.70058" lon="1.37746">
        <ele>2537.0563964844</ele>
        <time>2011-06-11T10:39:02Z</time>
      </trkpt>
      <trkpt lat="42.70059" lon="1.37748">
        <ele>2536.5756835938</ele>
        <time>2011-06-11T10:39:08Z</time>
      </trkpt>
      <trkpt lat="42.70059" lon="1.3775">
        <ele>2535.6145019531</ele>
        <time>2011-06-11T10:39:15Z</time>
      </trkpt>
      <trkpt lat="42.7006" lon="1.37751">
        <ele>2535.1337890625</ele>
        <time>2011-06-11T10:39:21Z</time>
      </trkpt>
      <trkpt lat="42.70061" lon="1.37752">
        <ele>2534.6533203125</ele>
        <time>2011-06-11T10:39:27Z</time>
      </trkpt>
      <trkpt lat="42.70062" lon="1.37753">
        <ele>2533.6918945312</ele>
        <time>2011-06-11T10:39:37Z</time>
      </trkpt>
      <trkpt lat="42.70063" lon="1.37753">
        <ele>2533.6918945312</ele>
        <time>2011-06-11T10:39:47Z</time>
      </trkpt>
      <trkpt lat="42.70064" lon="1.37753">
        <ele>2533.6918945312</ele>
        <time>2011-06-11T10:39:53Z</time>
      </trkpt>
      <trkpt lat="42.70065" lon="1.37754">
        <ele>2533.2111816406</ele>
        <time>2011-06-11T10:40:02Z</time>
      </trkpt>
      <trkpt lat="42.70065" lon="1.37755">
        <ele>2532.73046875</ele>
        <time>2011-06-11T10:40:07Z</time>
      </trkpt>
      <trkpt lat="42.70065" lon="1.37757">
        <ele>2531.2885742188</ele>
        <time>2011-06-11T10:40:17Z</time>
      </trkpt>
      <trkpt lat="42.70065" lon="1.37758">
        <ele>2531.2885742188</ele>
        <time>2011-06-11T10:40:23Z</time>
      </trkpt>
      <trkpt lat="42.70066" lon="1.3776">
        <ele>2531.2885742188</ele>
        <time>2011-06-11T10:40:29Z</time>
      </trkpt>
      <trkpt lat="42.70067" lon="1.37764">
        <ele>2530.8081054688</ele>
        <time>2011-06-11T10:40:35Z</time>
      </trkpt>
      <trkpt lat="42.70068" lon="1.37765">
        <ele>2529.8466796875</ele>
        <time>2011-06-11T10:40:41Z</time>
      </trkpt>
      <trkpt lat="42.70069" lon="1.37766">
        <ele>2529.3659667969</ele>
        <time>2011-06-11T10:40:46Z</time>
      </trkpt>
      <trkpt lat="42.7007" lon="1.37765">
        <ele>2528.4047851562</ele>
        <time>2011-06-11T10:40:51Z</time>
      </trkpt>
      <trkpt lat="42.70071" lon="1.37766">
        <ele>2527.9240722656</ele>
        <time>2011-06-11T10:40:57Z</time>
      </trkpt>
      <trkpt lat="42.70074" lon="1.37769">
        <ele>2527.9240722656</ele>
        <time>2011-06-11T10:41:04Z</time>
      </trkpt>
      <trkpt lat="42.70075" lon="1.37771">
        <ele>2527.443359375</ele>
        <time>2011-06-11T10:41:10Z</time>
      </trkpt>
      <trkpt lat="42.70076" lon="1.37773">
        <ele>2526.4821777344</ele>
        <time>2011-06-11T10:41:18Z</time>
      </trkpt>
      <trkpt lat="42.70077" lon="1.37774">
        <ele>2526.4821777344</ele>
        <time>2011-06-11T10:41:23Z</time>
      </trkpt>
      <trkpt lat="42.70078" lon="1.37775">
        <ele>2526.0014648438</ele>
        <time>2011-06-11T10:41:30Z</time>
      </trkpt>
      <trkpt lat="42.70078" lon="1.37778">
        <ele>2525.5207519531</ele>
        <time>2011-06-11T10:41:35Z</time>
      </trkpt>
      <trkpt lat="42.70079" lon="1.37781">
        <ele>2525.5207519531</ele>
        <time>2011-06-11T10:41:41Z</time>
      </trkpt>
      <trkpt lat="42.70081" lon="1.37782">
        <ele>2525.5207519531</ele>
        <time>2011-06-11T10:41:46Z</time>
      </trkpt>
      <trkpt lat="42.70081" lon="1.37784">
        <ele>2525.0400390625</ele>
        <time>2011-06-11T10:41:55Z</time>
      </trkpt>
      <trkpt lat="42.70083" lon="1.37785">
        <ele>2524.5595703125</ele>
        <time>2011-06-11T10:42:01Z</time>
      </trkpt>
      <trkpt lat="42.70083" lon="1.37786">
        <ele>2524.0788574219</ele>
        <time>2011-06-11T10:42:11Z</time>
      </trkpt>
      <trkpt lat="42.70083" lon="1.37786">
        <ele>2523.1174316406</ele>
        <time>2011-06-11T10:42:17Z</time>
      </trkpt>
      <trkpt lat="42.70084" lon="1.37786">
        <ele>2522.63671875</ele>
        <time>2011-06-11T10:42:24Z</time>
      </trkpt>
      <trkpt lat="42.70086" lon="1.37787">
        <ele>2521.6752929688</ele>
        <time>2011-06-11T10:42:31Z</time>
      </trkpt>
      <trkpt lat="42.70087" lon="1.37787">
        <ele>2521.6752929688</ele>
        <time>2011-06-11T10:42:36Z</time>
      </trkpt>
      <trkpt lat="42.70086" lon="1.37785">
        <ele>2519.7526855469</ele>
        <time>2011-06-11T10:42:47Z</time>
      </trkpt>
      <trkpt lat="42.70089" lon="1.37785">
        <ele>2521.1945800781</ele>
        <time>2011-06-11T10:42:55Z</time>
      </trkpt>
      <trkpt lat="42.70087" lon="1.37785">
        <ele>2519.7526855469</ele>
        <time>2011-06-11T10:43:00Z</time>
      </trkpt>
      <trkpt lat="42.70087" lon="1.37784">
        <ele>2518.3107910156</ele>
        <time>2011-06-11T10:43:06Z</time>
      </trkpt>
      <trkpt lat="42.70087" lon="1.37782">
        <ele>2515.9074707031</ele>
        <time>2011-06-11T10:43:17Z</time>
      </trkpt>
      <trkpt lat="42.70089" lon="1.37784">
        <ele>2514.4655761719</ele>
        <time>2011-06-11T10:43:22Z</time>
      </trkpt>
      <trkpt lat="42.70091" lon="1.37787">
        <ele>2512.54296875</ele>
        <time>2011-06-11T10:43:29Z</time>
      </trkpt>
      <trkpt lat="42.70093" lon="1.3779">
        <ele>2511.1010742188</ele>
        <time>2011-06-11T10:43:36Z</time>
      </trkpt>
      <trkpt lat="42.70094" lon="1.37791">
        <ele>2509.6589355469</ele>
        <time>2011-06-11T10:43:43Z</time>
      </trkpt>
      <trkpt lat="42.70095" lon="1.37793">
        <ele>2509.1784667969</ele>
        <time>2011-06-11T10:43:47Z</time>
      </trkpt>
      <trkpt lat="42.70095" lon="1.37795">
        <ele>2508.2170410156</ele>
        <time>2011-06-11T10:43:52Z</time>
      </trkpt>
      <trkpt lat="42.70095" lon="1.37799">
        <ele>2506.2941894531</ele>
        <time>2011-06-11T10:44:00Z</time>
      </trkpt>
      <trkpt lat="42.70095" lon="1.378">
        <ele>2505.3330078125</ele>
        <time>2011-06-11T10:44:07Z</time>
      </trkpt>
      <trkpt lat="42.70097" lon="1.378">
        <ele>2504.3715820312</ele>
        <time>2011-06-11T10:44:12Z</time>
      </trkpt>
      <trkpt lat="42.70098" lon="1.37801">
        <ele>2502.9296875</ele>
        <time>2011-06-11T10:44:17Z</time>
      </trkpt>
      <trkpt lat="42.70099" lon="1.37804">
        <ele>2501.4877929688</ele>
        <time>2011-06-11T10:44:22Z</time>
      </trkpt>
      <trkpt lat="42.701" lon="1.37808">
        <ele>2499.5651855469</ele>
        <time>2011-06-11T10:44:29Z</time>
      </trkpt>
      <trkpt lat="42.701" lon="1.3781">
        <ele>2498.6037597656</ele>
        <time>2011-06-11T10:44:35Z</time>
      </trkpt>
      <trkpt lat="42.70101" lon="1.37809">
        <ele>2496.6811523438</ele>
        <time>2011-06-11T10:44:46Z</time>
      </trkpt>
      <trkpt lat="42.70102" lon="1.3781">
        <ele>2495.2392578125</ele>
        <time>2011-06-11T10:44:51Z</time>
      </trkpt>
      <trkpt lat="42.70103" lon="1.37811">
        <ele>2493.3166503906</ele>
        <time>2011-06-11T10:45:01Z</time>
      </trkpt>
      <trkpt lat="42.70104" lon="1.37813">
        <ele>2491.8745117188</ele>
        <time>2011-06-11T10:45:08Z</time>
      </trkpt>
      <trkpt lat="42.70104" lon="1.37815">
        <ele>2491.3937988281</ele>
        <time>2011-06-11T10:45:14Z</time>
      </trkpt>
      <trkpt lat="42.70105" lon="1.37816">
        <ele>2490.4323730469</ele>
        <time>2011-06-11T10:45:23Z</time>
      </trkpt>
      <trkpt lat="42.70105" lon="1.37816">
        <ele>2489.4711914062</ele>
        <time>2011-06-11T10:45:27Z</time>
      </trkpt>
      <trkpt lat="42.70106" lon="1.37818">
        <ele>2488.9904785156</ele>
        <time>2011-06-11T10:45:34Z</time>
      </trkpt>
      <trkpt lat="42.70106" lon="1.37819">
        <ele>2487.5485839844</ele>
        <time>2011-06-11T10:45:42Z</time>
      </trkpt>
      <trkpt lat="42.70108" lon="1.37817">
        <ele>2487.0678710938</ele>
        <time>2011-06-11T10:45:50Z</time>
      </trkpt>
      <trkpt lat="42.70109" lon="1.37815">
        <ele>2487.5485839844</ele>
        <time>2011-06-11T10:45:57Z</time>
      </trkpt>
      <trkpt lat="42.7011" lon="1.37816">
        <ele>2484.6647949219</ele>
        <time>2011-06-11T10:46:10Z</time>
      </trkpt>
      <trkpt lat="42.70111" lon="1.37818">
        <ele>2484.1840820312</ele>
        <time>2011-06-11T10:46:26Z</time>
      </trkpt>
      <trkpt lat="42.70113" lon="1.3782">
        <ele>2482.7419433594</ele>
        <time>2011-06-11T10:46:37Z</time>
      </trkpt>
      <trkpt lat="42.70115" lon="1.37823">
        <ele>2476.4936523438</ele>
        <time>2011-06-11T10:47:04Z</time>
      </trkpt>
      <trkpt lat="42.70114" lon="1.37823">
        <ele>2475.5319824219</ele>
        <time>2011-06-11T10:47:16Z</time>
      </trkpt>
      <trkpt lat="42.70115" lon="1.37825">
        <ele>2476.4936523438</ele>
        <time>2011-06-11T10:47:26Z</time>
      </trkpt>
      <trkpt lat="42.70115" lon="1.37828">
        <ele>2475.0512695312</ele>
        <time>2011-06-11T10:47:47Z</time>
      </trkpt>
      <trkpt lat="42.70121" lon="1.37838">
        <ele>2477.4548339844</ele>
        <time>2011-06-11T10:48:10Z</time>
      </trkpt>
      <trkpt lat="42.70122" lon="1.37837">
        <ele>2475.5319824219</ele>
        <time>2011-06-11T10:48:15Z</time>
      </trkpt>
      <trkpt lat="42.70121" lon="1.37839">
        <ele>2468.8029785156</ele>
        <time>2011-06-11T10:48:28Z</time>
      </trkpt>
      <trkpt lat="42.70124" lon="1.3784">
        <ele>2463.515625</ele>
        <time>2011-06-11T10:48:49Z</time>
      </trkpt>
      <trkpt lat="42.70125" lon="1.37842">
        <ele>2463.515625</ele>
        <time>2011-06-11T10:49:03Z</time>
      </trkpt>
      <trkpt lat="42.70124" lon="1.37844">
        <ele>2461.5932617188</ele>
        <time>2011-06-11T10:49:11Z</time>
      </trkpt>
      <trkpt lat="42.70124" lon="1.37845">
        <ele>2459.1896972656</ele>
        <time>2011-06-11T10:49:30Z</time>
      </trkpt>
      <trkpt lat="42.70123" lon="1.37846">
        <ele>2458.708984375</ele>
        <time>2011-06-11T10:49:40Z</time>
      </trkpt>
      <trkpt lat="42.7013" lon="1.3785">
        <ele>2459.6701660156</ele>
        <time>2011-06-11T10:50:40Z</time>
      </trkpt>
      <trkpt lat="42.70132" lon="1.3785">
        <ele>2457.7478027344</ele>
        <time>2011-06-11T10:50:49Z</time>
      </trkpt>
      <trkpt lat="42.70129" lon="1.37852">
        <ele>2454.8637695312</ele>
        <time>2011-06-11T10:51:28Z</time>
      </trkpt>
      <trkpt lat="42.70127" lon="1.37852">
        <ele>2454.3830566406</ele>
        <time>2011-06-11T10:51:35Z</time>
      </trkpt>
      <trkpt lat="42.70126" lon="1.37849">
        <ele>2455.8249511719</ele>
        <time>2011-06-11T10:52:10Z</time>
      </trkpt>
      <trkpt lat="42.70125" lon="1.3785">
        <ele>2456.3056640625</ele>
        <time>2011-06-11T10:52:15Z</time>
      </trkpt>
      <trkpt lat="42.70126" lon="1.37853">
        <ele>2455.3444824219</ele>
        <time>2011-06-11T10:52:22Z</time>
      </trkpt>
      <trkpt lat="42.70127" lon="1.37857">
        <ele>2454.3830566406</ele>
        <time>2011-06-11T10:52:35Z</time>
      </trkpt>
      <trkpt lat="42.70127" lon="1.37859">
        <ele>2454.3830566406</ele>
        <time>2011-06-11T10:52:46Z</time>
      </trkpt>
      <trkpt lat="42.70126" lon="1.37865">
        <ele>2453.421875</ele>
        <time>2011-06-11T10:53:09Z</time>
      </trkpt>
      <trkpt lat="42.70126" lon="1.37866">
        <ele>2451.9797363281</ele>
        <time>2011-06-11T10:53:38Z</time>
      </trkpt>
      <trkpt lat="42.70124" lon="1.37865">
        <ele>2449.0959472656</ele>
        <time>2011-06-11T10:53:49Z</time>
      </trkpt>
      <trkpt lat="42.70125" lon="1.37869">
        <ele>2449.5766601562</ele>
        <time>2011-06-11T10:54:12Z</time>
      </trkpt>
      <trkpt lat="42.70124" lon="1.37865">
        <ele>2439.9633789062</ele>
        <time>2011-06-11T10:55:27Z</time>
      </trkpt>
      <trkpt lat="42.70129" lon="1.37868">
        <ele>2445.7314453125</ele>
        <time>2011-06-11T10:55:40Z</time>
      </trkpt>
      <trkpt lat="42.70129" lon="1.37872">
        <ele>2447.1733398438</ele>
        <time>2011-06-11T10:55:46Z</time>
      </trkpt>
      <trkpt lat="42.70129" lon="1.37872">
        <ele>2444.7700195312</ele>
        <time>2011-06-11T10:56:18Z</time>
      </trkpt>
      <trkpt lat="42.70137" lon="1.3789">
        <ele>2454.3830566406</ele>
        <time>2011-06-11T10:57:46Z</time>
      </trkpt>
      <trkpt lat="42.70137" lon="1.3789">
        <ele>2454.8637695312</ele>
        <time>2011-06-11T10:57:48Z</time>
      </trkpt>
      <trkpt lat="42.7014" lon="1.37891">
        <ele>2455.8249511719</ele>
        <time>2011-06-11T10:57:54Z</time>
      </trkpt>
      <trkpt lat="42.70142" lon="1.37892">
        <ele>2454.8637695312</ele>
        <time>2011-06-11T10:58:02Z</time>
      </trkpt>
      <trkpt lat="42.70144" lon="1.37895">
        <ele>2457.7478027344</ele>
        <time>2011-06-11T10:58:05Z</time>
      </trkpt>
      <trkpt lat="42.70145" lon="1.37896">
        <ele>2458.2282714844</ele>
        <time>2011-06-11T10:58:11Z</time>
      </trkpt>
      <trkpt lat="42.7014" lon="1.37889">
        <ele>2446.6926269531</ele>
        <time>2011-06-11T10:58:39Z</time>
      </trkpt>
      <trkpt lat="42.70145" lon="1.37894">
        <ele>2445.7314453125</ele>
        <time>2011-06-11T10:59:23Z</time>
      </trkpt>
      <trkpt lat="42.70142" lon="1.37887">
        <ele>2434.6762695312</ele>
        <time>2011-06-11T10:59:41Z</time>
      </trkpt>
      <trkpt lat="42.70142" lon="1.37887">
        <ele>2430.8310546875</ele>
        <time>2011-06-11T10:59:46Z</time>
      </trkpt>
      <trkpt lat="42.70143" lon="1.37893">
        <ele>2429.8696289062</ele>
        <time>2011-06-11T11:00:05Z</time>
      </trkpt>
      <trkpt lat="42.70143" lon="1.37894">
        <ele>2429.3889160156</ele>
        <time>2011-06-11T11:00:11Z</time>
      </trkpt>
      <trkpt lat="42.70145" lon="1.3788">
        <ele>2420.2563476562</ele>
        <time>2011-06-11T11:00:55Z</time>
      </trkpt>
      <trkpt lat="42.70146" lon="1.37881">
        <ele>2421.6982421875</ele>
        <time>2011-06-11T11:01:01Z</time>
      </trkpt>
      <trkpt lat="42.7015" lon="1.37879">
        <ele>2421.2175292969</ele>
        <time>2011-06-11T11:01:20Z</time>
      </trkpt>
      <trkpt lat="42.70149" lon="1.37877">
        <ele>2421.6982421875</ele>
        <time>2011-06-11T11:01:29Z</time>
      </trkpt>
      <trkpt lat="42.70149" lon="1.37874">
        <ele>2423.1403808594</ele>
        <time>2011-06-11T11:01:43Z</time>
      </trkpt>
      <trkpt lat="42.7015" lon="1.37874">
        <ele>2422.6596679688</ele>
        <time>2011-06-11T11:01:56Z</time>
      </trkpt>
      <trkpt lat="42.7015" lon="1.37873">
        <ele>2423.6208496094</ele>
        <time>2011-06-11T11:02:08Z</time>
      </trkpt>
      <trkpt lat="42.7015" lon="1.37872">
        <ele>2423.6208496094</ele>
        <time>2011-06-11T11:02:18Z</time>
      </trkpt>
      <trkpt lat="42.7015" lon="1.37872">
        <ele>2423.1403808594</ele>
        <time>2011-06-11T11:02:31Z</time>
      </trkpt>
      <trkpt lat="42.70152" lon="1.37872">
        <ele>2423.1403808594</ele>
        <time>2011-06-11T11:02:38Z</time>
      </trkpt>
      <trkpt lat="42.70154" lon="1.37871">
        <ele>2422.1789550781</ele>
        <time>2011-06-11T11:02:45Z</time>
      </trkpt>
      <trkpt lat="42.70157" lon="1.37869">
        <ele>2422.6596679688</ele>
        <time>2011-06-11T11:02:54Z</time>
      </trkpt>
      <trkpt lat="42.70155" lon="1.37874">
        <ele>2423.6208496094</ele>
        <time>2011-06-11T11:03:03Z</time>
      </trkpt>
      <trkpt lat="42.70156" lon="1.37871">
        <ele>2418.814453125</ele>
        <time>2011-06-11T11:03:19Z</time>
      </trkpt>
      <trkpt lat="42.70154" lon="1.37879">
        <ele>2426.5048828125</ele>
        <time>2011-06-11T11:03:34Z</time>
      </trkpt>
      <trkpt lat="42.70155" lon="1.37878">
        <ele>2426.5048828125</ele>
        <time>2011-06-11T11:03:48Z</time>
      </trkpt>
      <trkpt lat="42.70156" lon="1.37875">
        <ele>2428.908203125</ele>
        <time>2011-06-11T11:03:56Z</time>
      </trkpt>
      <trkpt lat="42.70156" lon="1.37873">
        <ele>2429.3889160156</ele>
        <time>2011-06-11T11:04:02Z</time>
      </trkpt>
      <trkpt lat="42.70155" lon="1.3787">
        <ele>2431.7922363281</ele>
        <time>2011-06-11T11:04:09Z</time>
      </trkpt>
      <trkpt lat="42.70153" lon="1.3787">
        <ele>2432.7534179688</ele>
        <time>2011-06-11T11:04:13Z</time>
      </trkpt>
      <trkpt lat="42.70151" lon="1.37868">
        <ele>2436.1181640625</ele>
        <time>2011-06-11T11:04:18Z</time>
      </trkpt>
      <trkpt lat="42.7015" lon="1.37864">
        <ele>2437.5600585938</ele>
        <time>2011-06-11T11:04:29Z</time>
      </trkpt>
      <trkpt lat="42.70149" lon="1.37864">
        <ele>2442.3666992188</ele>
        <time>2011-06-11T11:04:38Z</time>
      </trkpt>
      <trkpt lat="42.70148" lon="1.37863">
        <ele>2443.3278808594</ele>
        <time>2011-06-11T11:04:40Z</time>
      </trkpt>
      <trkpt lat="42.70149" lon="1.37859">
        <ele>2442.3666992188</ele>
        <time>2011-06-11T11:04:46Z</time>
      </trkpt>
      <trkpt lat="42.70148" lon="1.37859">
        <ele>2442.8471679688</ele>
        <time>2011-06-11T11:04:57Z</time>
      </trkpt>
      <trkpt lat="42.7015" lon="1.37854">
        <ele>2440.9245605469</ele>
        <time>2011-06-11T11:05:06Z</time>
      </trkpt>
      <trkpt lat="42.70152" lon="1.3785">
        <ele>2441.8859863281</ele>
        <time>2011-06-11T11:05:11Z</time>
      </trkpt>
      <trkpt lat="42.70152" lon="1.37847">
        <ele>2442.3666992188</ele>
        <time>2011-06-11T11:05:16Z</time>
      </trkpt>
      <trkpt lat="42.70153" lon="1.37845">
        <ele>2443.3278808594</ele>
        <time>2011-06-11T11:05:20Z</time>
      </trkpt>
      <trkpt lat="42.70152" lon="1.37844">
        <ele>2443.80859375</ele>
        <time>2011-06-11T11:05:27Z</time>
      </trkpt>
      <trkpt lat="42.70152" lon="1.37842">
        <ele>2445.2507324219</ele>
        <time>2011-06-11T11:05:35Z</time>
      </trkpt>
      <trkpt lat="42.7015" lon="1.37844">
        <ele>2447.6540527344</ele>
        <time>2011-06-11T11:05:42Z</time>
      </trkpt>
      <trkpt lat="42.70149" lon="1.37843">
        <ele>2447.6540527344</ele>
        <time>2011-06-11T11:05:47Z</time>
      </trkpt>
      <trkpt lat="42.7015" lon="1.37839">
        <ele>2447.6540527344</ele>
        <time>2011-06-11T11:05:58Z</time>
      </trkpt>
      <trkpt lat="42.70151" lon="1.37836">
        <ele>2448.615234375</ele>
        <time>2011-06-11T11:06:07Z</time>
      </trkpt>
      <trkpt lat="42.7015" lon="1.37833">
        <ele>2451.0185546875</ele>
        <time>2011-06-11T11:06:24Z</time>
      </trkpt>
      <trkpt lat="42.7015" lon="1.3783">
        <ele>2451.0185546875</ele>
        <time>2011-06-11T11:06:41Z</time>
      </trkpt>
      <trkpt lat="42.70155" lon="1.37826">
        <ele>2454.8637695312</ele>
        <time>2011-06-11T11:07:04Z</time>
      </trkpt>
      <trkpt lat="42.70154" lon="1.37823">
        <ele>2455.8249511719</ele>
        <time>2011-06-11T11:07:11Z</time>
      </trkpt>
      <trkpt lat="42.70155" lon="1.37821">
        <ele>2456.7863769531</ele>
        <time>2011-06-11T11:07:17Z</time>
      </trkpt>
      <trkpt lat="42.70157" lon="1.3782">
        <ele>2458.2282714844</ele>
        <time>2011-06-11T11:07:24Z</time>
      </trkpt>
      <trkpt lat="42.70158" lon="1.3782">
        <ele>2459.1896972656</ele>
        <time>2011-06-11T11:07:32Z</time>
      </trkpt>
      <trkpt lat="42.70161" lon="1.3782">
        <ele>2459.6701660156</ele>
        <time>2011-06-11T11:07:38Z</time>
      </trkpt>
      <trkpt lat="42.70165" lon="1.3782">
        <ele>2459.6701660156</ele>
        <time>2011-06-11T11:07:46Z</time>
      </trkpt>
      <trkpt lat="42.70166" lon="1.3782">
        <ele>2458.708984375</ele>
        <time>2011-06-11T11:07:52Z</time>
      </trkpt>
      <trkpt lat="42.70165" lon="1.3782">
        <ele>2458.708984375</ele>
        <time>2011-06-11T11:08:03Z</time>
      </trkpt>
      <trkpt lat="42.70165" lon="1.3782">
        <ele>2458.2282714844</ele>
        <time>2011-06-11T11:08:12Z</time>
      </trkpt>
      <trkpt lat="42.70165" lon="1.3782">
        <ele>2456.3056640625</ele>
        <time>2011-06-11T11:08:31Z</time>
      </trkpt>
      <trkpt lat="42.70165" lon="1.3782">
        <ele>2457.2670898438</ele>
        <time>2011-06-11T11:08:39Z</time>
      </trkpt>
      <trkpt lat="42.70167" lon="1.3782">
        <ele>2458.708984375</ele>
        <time>2011-06-11T11:08:51Z</time>
      </trkpt>
      <trkpt lat="42.70166" lon="1.37821">
        <ele>2461.5932617188</ele>
        <time>2011-06-11T11:09:04Z</time>
      </trkpt>
      <trkpt lat="42.70164" lon="1.37821">
        <ele>2460.6318359375</ele>
        <time>2011-06-11T11:09:10Z</time>
      </trkpt>
      <trkpt lat="42.70164" lon="1.37821">
        <ele>2461.5932617188</ele>
        <time>2011-06-11T11:09:16Z</time>
      </trkpt>
      <trkpt lat="42.70164" lon="1.37821">
        <ele>2460.6318359375</ele>
        <time>2011-06-11T11:09:21Z</time>
      </trkpt>
      <trkpt lat="42.70163" lon="1.37822">
        <ele>2459.1896972656</ele>
        <time>2011-06-11T11:09:32Z</time>
      </trkpt>
      <trkpt lat="42.70162" lon="1.37821">
        <ele>2458.708984375</ele>
        <time>2011-06-11T11:09:45Z</time>
      </trkpt>
      <trkpt lat="42.70161" lon="1.37823">
        <ele>2456.3056640625</ele>
        <time>2011-06-11T11:09:57Z</time>
      </trkpt>
      <trkpt lat="42.70161" lon="1.37824">
        <ele>2453.421875</ele>
        <time>2011-06-11T11:10:08Z</time>
      </trkpt>
      <trkpt lat="42.70161" lon="1.37824">
        <ele>2453.9025878906</ele>
        <time>2011-06-11T11:10:13Z</time>
      </trkpt>
      <trkpt lat="42.70163" lon="1.37822">
        <ele>2455.3444824219</ele>
        <time>2011-06-11T11:10:33Z</time>
      </trkpt>
      <trkpt lat="42.70164" lon="1.37819">
        <ele>2455.8249511719</ele>
        <time>2011-06-11T11:10:40Z</time>
      </trkpt>
      <trkpt lat="42.70166" lon="1.37818">
        <ele>2455.8249511719</ele>
        <time>2011-06-11T11:10:49Z</time>
      </trkpt>
      <trkpt lat="42.70167" lon="1.37819">
        <ele>2454.8637695312</ele>
        <time>2011-06-11T11:10:56Z</time>
      </trkpt>
      <trkpt lat="42.70169" lon="1.37822">
        <ele>2451.9797363281</ele>
        <time>2011-06-11T11:11:08Z</time>
      </trkpt>
      <trkpt lat="42.70173" lon="1.37826">
        <ele>2450.5378417969</ele>
        <time>2011-06-11T11:11:14Z</time>
      </trkpt>
      <trkpt lat="42.70177" lon="1.3783">
        <ele>2450.0573730469</ele>
        <time>2011-06-11T11:11:21Z</time>
      </trkpt>
      <trkpt lat="42.70179" lon="1.37828">
        <ele>2447.6540527344</ele>
        <time>2011-06-11T11:11:27Z</time>
      </trkpt>
      <trkpt lat="42.70179" lon="1.37823">
        <ele>2445.7314453125</ele>
        <time>2011-06-11T11:11:33Z</time>
      </trkpt>
      <trkpt lat="42.70179" lon="1.3782">
        <ele>2444.7700195312</ele>
        <time>2011-06-11T11:11:37Z</time>
      </trkpt>
      <trkpt lat="42.7018" lon="1.37814">
        <ele>2442.8471679688</ele>
        <time>2011-06-11T11:11:45Z</time>
      </trkpt>
      <trkpt lat="42.70181" lon="1.37812">
        <ele>2441.8859863281</ele>
        <time>2011-06-11T11:11:50Z</time>
      </trkpt>
      <trkpt lat="42.70181" lon="1.37808">
        <ele>2440.9245605469</ele>
        <time>2011-06-11T11:11:54Z</time>
      </trkpt>
      <trkpt lat="42.70181" lon="1.37805">
        <ele>2440.4438476562</ele>
        <time>2011-06-11T11:11:59Z</time>
      </trkpt>
      <trkpt lat="42.70181" lon="1.37802">
        <ele>2441.4052734375</ele>
        <time>2011-06-11T11:12:05Z</time>
      </trkpt>
      <trkpt lat="42.70181" lon="1.37799">
        <ele>2440.9245605469</ele>
        <time>2011-06-11T11:12:10Z</time>
      </trkpt>
      <trkpt lat="42.70181" lon="1.37796">
        <ele>2440.4438476562</ele>
        <time>2011-06-11T11:12:16Z</time>
      </trkpt>
      <trkpt lat="42.70181" lon="1.37792">
        <ele>2439.9633789062</ele>
        <time>2011-06-11T11:12:23Z</time>
      </trkpt>
      <trkpt lat="42.70181" lon="1.37788">
        <ele>2439.4826660156</ele>
        <time>2011-06-11T11:12:29Z</time>
      </trkpt>
      <trkpt lat="42.7018" lon="1.37784">
        <ele>2439.4826660156</ele>
        <time>2011-06-11T11:12:35Z</time>
      </trkpt>
      <trkpt lat="42.70181" lon="1.3778">
        <ele>2441.4052734375</ele>
        <time>2011-06-11T11:12:41Z</time>
      </trkpt>
      <trkpt lat="42.70181" lon="1.37777">
        <ele>2441.4052734375</ele>
        <time>2011-06-11T11:12:47Z</time>
      </trkpt>
      <trkpt lat="42.70182" lon="1.37774">
        <ele>2441.4052734375</ele>
        <time>2011-06-11T11:12:53Z</time>
      </trkpt>
      <trkpt lat="42.70183" lon="1.37772">
        <ele>2439.9633789062</ele>
        <time>2011-06-11T11:12:59Z</time>
      </trkpt>
      <trkpt lat="42.70184" lon="1.37769">
        <ele>2440.4438476562</ele>
        <time>2011-06-11T11:13:03Z</time>
      </trkpt>
      <trkpt lat="42.70185" lon="1.37767">
        <ele>2439.9633789062</ele>
        <time>2011-06-11T11:13:08Z</time>
      </trkpt>
      <trkpt lat="42.70188" lon="1.37762">
        <ele>2439.001953125</ele>
        <time>2011-06-11T11:13:15Z</time>
      </trkpt>
      <trkpt lat="42.7019" lon="1.37763">
        <ele>2436.5986328125</ele>
        <time>2011-06-11T11:13:22Z</time>
      </trkpt>
      <trkpt lat="42.70195" lon="1.37759">
        <ele>2435.1567382812</ele>
        <time>2011-06-11T11:13:27Z</time>
      </trkpt>
      <trkpt lat="42.70197" lon="1.37756">
        <ele>2433.2341308594</ele>
        <time>2011-06-11T11:13:31Z</time>
      </trkpt>
      <trkpt lat="42.70198" lon="1.37755">
        <ele>2430.8310546875</ele>
        <time>2011-06-11T11:13:36Z</time>
      </trkpt>
      <trkpt lat="42.70198" lon="1.37751">
        <ele>2428.427734375</ele>
        <time>2011-06-11T11:13:41Z</time>
      </trkpt>
      <trkpt lat="42.70199" lon="1.37746">
        <ele>2426.5048828125</ele>
        <time>2011-06-11T11:13:46Z</time>
      </trkpt>
      <trkpt lat="42.70198" lon="1.37741">
        <ele>2425.0627441406</ele>
        <time>2011-06-11T11:13:49Z</time>
      </trkpt>
      <trkpt lat="42.70198" lon="1.37737">
        <ele>2422.6596679688</ele>
        <time>2011-06-11T11:13:54Z</time>
      </trkpt>
      <trkpt lat="42.70198" lon="1.37735">
        <ele>2423.1403808594</ele>
        <time>2011-06-11T11:14:03Z</time>
      </trkpt>
      <trkpt lat="42.702" lon="1.37734">
        <ele>2421.2175292969</ele>
        <time>2011-06-11T11:14:11Z</time>
      </trkpt>
      <trkpt lat="42.702" lon="1.37732">
        <ele>2420.2563476562</ele>
        <time>2011-06-11T11:14:16Z</time>
      </trkpt>
      <trkpt lat="42.70201" lon="1.37729">
        <ele>2419.7756347656</ele>
        <time>2011-06-11T11:14:22Z</time>
      </trkpt>
      <trkpt lat="42.70201" lon="1.37725">
        <ele>2419.2951660156</ele>
        <time>2011-06-11T11:14:28Z</time>
      </trkpt>
      <trkpt lat="42.70201" lon="1.37721">
        <ele>2417.3723144531</ele>
        <time>2011-06-11T11:14:33Z</time>
      </trkpt>
      <trkpt lat="42.70203" lon="1.37717">
        <ele>2414.0078125</ele>
        <time>2011-06-11T11:14:38Z</time>
      </trkpt>
      <trkpt lat="42.70205" lon="1.37713">
        <ele>2411.6044921875</ele>
        <time>2011-06-11T11:14:44Z</time>
      </trkpt>
      <trkpt lat="42.70206" lon="1.3771">
        <ele>2409.201171875</ele>
        <time>2011-06-11T11:14:49Z</time>
      </trkpt>
      <trkpt lat="42.70206" lon="1.37706">
        <ele>2407.7592773438</ele>
        <time>2011-06-11T11:14:53Z</time>
      </trkpt>
      <trkpt lat="42.70207" lon="1.37705">
        <ele>2406.7978515625</ele>
        <time>2011-06-11T11:14:58Z</time>
      </trkpt>
      <trkpt lat="42.70207" lon="1.377">
        <ele>2404.8752441406</ele>
        <time>2011-06-11T11:15:04Z</time>
      </trkpt>
      <trkpt lat="42.70208" lon="1.37695">
        <ele>2403.9140625</ele>
        <time>2011-06-11T11:15:09Z</time>
      </trkpt>
      <trkpt lat="42.70208" lon="1.37692">
        <ele>2402.9526367188</ele>
        <time>2011-06-11T11:15:13Z</time>
      </trkpt>
      <trkpt lat="42.70209" lon="1.37687">
        <ele>2401.0300292969</ele>
        <time>2011-06-11T11:15:19Z</time>
      </trkpt>
      <trkpt lat="42.70209" lon="1.37683">
        <ele>2401.0300292969</ele>
        <time>2011-06-11T11:15:25Z</time>
      </trkpt>
      <trkpt lat="42.7021" lon="1.37681">
        <ele>2400.0688476562</ele>
        <time>2011-06-11T11:15:29Z</time>
      </trkpt>
      <trkpt lat="42.70211" lon="1.3768">
        <ele>2398.6267089844</ele>
        <time>2011-06-11T11:15:35Z</time>
      </trkpt>
      <trkpt lat="42.70213" lon="1.37679">
        <ele>2398.1459960938</ele>
        <time>2011-06-11T11:15:40Z</time>
      </trkpt>
      <trkpt lat="42.70215" lon="1.37678">
        <ele>2396.7041015625</ele>
        <time>2011-06-11T11:15:46Z</time>
      </trkpt>
      <trkpt lat="42.70217" lon="1.37675">
        <ele>2395.2619628906</ele>
        <time>2011-06-11T11:15:52Z</time>
      </trkpt>
      <trkpt lat="42.70216" lon="1.37672">
        <ele>2393.8200683594</ele>
        <time>2011-06-11T11:15:58Z</time>
      </trkpt>
      <trkpt lat="42.70216" lon="1.37668">
        <ele>2393.3393554688</ele>
        <time>2011-06-11T11:16:05Z</time>
      </trkpt>
      <trkpt lat="42.70218" lon="1.37666">
        <ele>2391.8974609375</ele>
        <time>2011-06-11T11:16:12Z</time>
      </trkpt>
      <trkpt lat="42.70219" lon="1.37665">
        <ele>2390.9360351562</ele>
        <time>2011-06-11T11:16:19Z</time>
      </trkpt>
      <trkpt lat="42.7022" lon="1.37663">
        <ele>2389.494140625</ele>
        <time>2011-06-11T11:16:25Z</time>
      </trkpt>
      <trkpt lat="42.70222" lon="1.37662">
        <ele>2388.0522460938</ele>
        <time>2011-06-11T11:16:31Z</time>
      </trkpt>
      <trkpt lat="42.70222" lon="1.37661">
        <ele>2386.6101074219</ele>
        <time>2011-06-11T11:16:41Z</time>
      </trkpt>
      <trkpt lat="42.70224" lon="1.37658">
        <ele>2385.1682128906</ele>
        <time>2011-06-11T11:16:49Z</time>
      </trkpt>
      <trkpt lat="42.70223" lon="1.37658">
        <ele>2385.1682128906</ele>
        <time>2011-06-11T11:16:57Z</time>
      </trkpt>
      <trkpt lat="42.70224" lon="1.37657">
        <ele>2385.1682128906</ele>
        <time>2011-06-11T11:17:05Z</time>
      </trkpt>
      <trkpt lat="42.70222" lon="1.37655">
        <ele>2386.6101074219</ele>
        <time>2011-06-11T11:17:11Z</time>
      </trkpt>
      <trkpt lat="42.70221" lon="1.37652">
        <ele>2386.1296386719</ele>
        <time>2011-06-11T11:17:17Z</time>
      </trkpt>
      <trkpt lat="42.70221" lon="1.3765">
        <ele>2386.1296386719</ele>
        <time>2011-06-11T11:17:22Z</time>
      </trkpt>
      <trkpt lat="42.70221" lon="1.37647">
        <ele>2386.1296386719</ele>
        <time>2011-06-11T11:17:27Z</time>
      </trkpt>
      <trkpt lat="42.70221" lon="1.37644">
        <ele>2386.6101074219</ele>
        <time>2011-06-11T11:17:33Z</time>
      </trkpt>
      <trkpt lat="42.70219" lon="1.37641">
        <ele>2387.0908203125</ele>
        <time>2011-06-11T11:17:38Z</time>
      </trkpt>
      <trkpt lat="42.70218" lon="1.37638">
        <ele>2387.5715332031</ele>
        <time>2011-06-11T11:17:45Z</time>
      </trkpt>
      <trkpt lat="42.70217" lon="1.37636">
        <ele>2388.5329589844</ele>
        <time>2011-06-11T11:17:51Z</time>
      </trkpt>
      <trkpt lat="42.70216" lon="1.37634">
        <ele>2389.494140625</ele>
        <time>2011-06-11T11:17:56Z</time>
      </trkpt>
      <trkpt lat="42.70216" lon="1.37632">
        <ele>2389.9748535156</ele>
        <time>2011-06-11T11:18:02Z</time>
      </trkpt>
      <trkpt lat="42.70216" lon="1.37628">
        <ele>2389.494140625</ele>
        <time>2011-06-11T11:18:09Z</time>
      </trkpt>
      <trkpt lat="42.70218" lon="1.37627">
        <ele>2388.5329589844</ele>
        <time>2011-06-11T11:18:16Z</time>
      </trkpt>
      <trkpt lat="42.70219" lon="1.37625">
        <ele>2387.5715332031</ele>
        <time>2011-06-11T11:18:24Z</time>
      </trkpt>
      <trkpt lat="42.7022" lon="1.37625">
        <ele>2386.1296386719</ele>
        <time>2011-06-11T11:18:30Z</time>
      </trkpt>
      <trkpt lat="42.70218" lon="1.37625">
        <ele>2383.2456054688</ele>
        <time>2011-06-11T11:18:40Z</time>
      </trkpt>
      <trkpt lat="42.70219" lon="1.37624">
        <ele>2383.2456054688</ele>
        <time>2011-06-11T11:18:46Z</time>
      </trkpt>
      <trkpt lat="42.7022" lon="1.37621">
        <ele>2383.7263183594</ele>
        <time>2011-06-11T11:18:53Z</time>
      </trkpt>
      <trkpt lat="42.70221" lon="1.3762">
        <ele>2383.2456054688</ele>
        <time>2011-06-11T11:19:00Z</time>
      </trkpt>
      <trkpt lat="42.70222" lon="1.37619">
        <ele>2382.7648925781</ele>
        <time>2011-06-11T11:19:04Z</time>
      </trkpt>
      <trkpt lat="42.70223" lon="1.3762">
        <ele>2382.2844238281</ele>
        <time>2011-06-11T11:19:10Z</time>
      </trkpt>
      <trkpt lat="42.70225" lon="1.37617">
        <ele>2381.8037109375</ele>
        <time>2011-06-11T11:19:17Z</time>
      </trkpt>
      <trkpt lat="42.70226" lon="1.37615">
        <ele>2380.8425292969</ele>
        <time>2011-06-11T11:19:23Z</time>
      </trkpt>
      <trkpt lat="42.70227" lon="1.37614">
        <ele>2380.3618164062</ele>
        <time>2011-06-11T11:19:27Z</time>
      </trkpt>
      <trkpt lat="42.70229" lon="1.37614">
        <ele>2379.4001464844</ele>
        <time>2011-06-11T11:19:31Z</time>
      </trkpt>
      <trkpt lat="42.70231" lon="1.37614">
        <ele>2378.9194335938</ele>
        <time>2011-06-11T11:19:36Z</time>
      </trkpt>
      <trkpt lat="42.70233" lon="1.37612">
        <ele>2377.9582519531</ele>
        <time>2011-06-11T11:19:41Z</time>
      </trkpt>
      <trkpt lat="42.70235" lon="1.3761">
        <ele>2376.5163574219</ele>
        <time>2011-06-11T11:19:47Z</time>
      </trkpt>
      <trkpt lat="42.70237" lon="1.3761">
        <ele>2375.07421875</ele>
        <time>2011-06-11T11:19:52Z</time>
      </trkpt>
      <trkpt lat="42.70238" lon="1.37608">
        <ele>2373.6323242188</ele>
        <time>2011-06-11T11:19:59Z</time>
      </trkpt>
      <trkpt lat="42.70238" lon="1.37605">
        <ele>2372.1904296875</ele>
        <time>2011-06-11T11:20:05Z</time>
      </trkpt>
      <trkpt lat="42.70238" lon="1.37601">
        <ele>2370.2678222656</ele>
        <time>2011-06-11T11:20:10Z</time>
      </trkpt>
      <trkpt lat="42.7024" lon="1.376">
        <ele>2368.8259277344</ele>
        <time>2011-06-11T11:20:15Z</time>
      </trkpt>
      <trkpt lat="42.7024" lon="1.37596">
        <ele>2367.3837890625</ele>
        <time>2011-06-11T11:20:20Z</time>
      </trkpt>
      <trkpt lat="42.70239" lon="1.37593">
        <ele>2366.4226074219</ele>
        <time>2011-06-11T11:20:25Z</time>
      </trkpt>
      <trkpt lat="42.70238" lon="1.37591">
        <ele>2365.9418945312</ele>
        <time>2011-06-11T11:20:30Z</time>
      </trkpt>
      <trkpt lat="42.70238" lon="1.37589">
        <ele>2364.5</ele>
        <time>2011-06-11T11:20:35Z</time>
      </trkpt>
      <trkpt lat="42.70237" lon="1.37585">
        <ele>2363.5383300781</ele>
        <time>2011-06-11T11:20:40Z</time>
      </trkpt>
      <trkpt lat="42.70235" lon="1.37582">
        <ele>2362.5771484375</ele>
        <time>2011-06-11T11:20:46Z</time>
      </trkpt>
      <trkpt lat="42.70235" lon="1.37579">
        <ele>2360.6545410156</ele>
        <time>2011-06-11T11:20:54Z</time>
      </trkpt>
      <trkpt lat="42.70235" lon="1.37579">
        <ele>2359.2126464844</ele>
        <time>2011-06-11T11:20:59Z</time>
      </trkpt>
      <trkpt lat="42.70237" lon="1.37578">
        <ele>2358.2512207031</ele>
        <time>2011-06-11T11:21:05Z</time>
      </trkpt>
      <trkpt lat="42.70237" lon="1.37577">
        <ele>2357.2900390625</ele>
        <time>2011-06-11T11:21:11Z</time>
      </trkpt>
      <trkpt lat="42.70239" lon="1.37576">
        <ele>2355.3674316406</ele>
        <time>2011-06-11T11:21:17Z</time>
      </trkpt>
      <trkpt lat="42.70237" lon="1.37573">
        <ele>2354.88671875</ele>
        <time>2011-06-11T11:21:23Z</time>
      </trkpt>
      <trkpt lat="42.70234" lon="1.37569">
        <ele>2353.9255371094</ele>
        <time>2011-06-11T11:21:30Z</time>
      </trkpt>
      <trkpt lat="42.70232" lon="1.37565">
        <ele>2352.9641113281</ele>
        <time>2011-06-11T11:21:36Z</time>
      </trkpt>
      <trkpt lat="42.70232" lon="1.37565">
        <ele>2352.0026855469</ele>
        <time>2011-06-11T11:21:44Z</time>
      </trkpt>
      <trkpt lat="42.70231" lon="1.37562">
        <ele>2352.0026855469</ele>
        <time>2011-06-11T11:21:49Z</time>
      </trkpt>
      <trkpt lat="42.70229" lon="1.37559">
        <ele>2351.5222167969</ele>
        <time>2011-06-11T11:21:54Z</time>
      </trkpt>
      <trkpt lat="42.70227" lon="1.37555">
        <ele>2350.5607910156</ele>
        <time>2011-06-11T11:21:59Z</time>
      </trkpt>
      <trkpt lat="42.70226" lon="1.37551">
        <ele>2348.6381835938</ele>
        <time>2011-06-11T11:22:04Z</time>
      </trkpt>
      <trkpt lat="42.70224" lon="1.37546">
        <ele>2347.6767578125</ele>
        <time>2011-06-11T11:22:10Z</time>
      </trkpt>
      <trkpt lat="42.70224" lon="1.37543">
        <ele>2346.7153320312</ele>
        <time>2011-06-11T11:22:15Z</time>
      </trkpt>
      <trkpt lat="42.70223" lon="1.37539">
        <ele>2345.2734375</ele>
        <time>2011-06-11T11:22:22Z</time>
      </trkpt>
      <trkpt lat="42.70223" lon="1.37537">
        <ele>2343.8315429688</ele>
        <time>2011-06-11T11:22:28Z</time>
      </trkpt>
      <trkpt lat="42.70223" lon="1.37535">
        <ele>2342.3896484375</ele>
        <time>2011-06-11T11:22:34Z</time>
      </trkpt>
      <trkpt lat="42.70222" lon="1.37531">
        <ele>2340.9475097656</ele>
        <time>2011-06-11T11:22:39Z</time>
      </trkpt>
      <trkpt lat="42.70222" lon="1.37527">
        <ele>2339.986328125</ele>
        <time>2011-06-11T11:22:44Z</time>
      </trkpt>
      <trkpt lat="42.70221" lon="1.37526">
        <ele>2339.5056152344</ele>
        <time>2011-06-11T11:22:48Z</time>
      </trkpt>
      <trkpt lat="42.70219" lon="1.37523">
        <ele>2339.0249023438</ele>
        <time>2011-06-11T11:22:53Z</time>
      </trkpt>
      <trkpt lat="42.70218" lon="1.37521">
        <ele>2338.5444335938</ele>
        <time>2011-06-11T11:22:58Z</time>
      </trkpt>
      <trkpt lat="42.70218" lon="1.37516">
        <ele>2336.6215820312</ele>
        <time>2011-06-11T11:23:06Z</time>
      </trkpt>
      <trkpt lat="42.70217" lon="1.37513">
        <ele>2336.1411132812</ele>
        <time>2011-06-11T11:23:11Z</time>
      </trkpt>
      <trkpt lat="42.70216" lon="1.37509">
        <ele>2335.6604003906</ele>
        <time>2011-06-11T11:23:16Z</time>
      </trkpt>
      <trkpt lat="42.70217" lon="1.37504">
        <ele>2333.7377929688</ele>
        <time>2011-06-11T11:23:22Z</time>
      </trkpt>
      <trkpt lat="42.70218" lon="1.37501">
        <ele>2333.2570800781</ele>
        <time>2011-06-11T11:23:27Z</time>
      </trkpt>
      <trkpt lat="42.70217" lon="1.37499">
        <ele>2332.7763671875</ele>
        <time>2011-06-11T11:23:32Z</time>
      </trkpt>
      <trkpt lat="42.70216" lon="1.37494">
        <ele>2331.3342285156</ele>
        <time>2011-06-11T11:23:38Z</time>
      </trkpt>
      <trkpt lat="42.70215" lon="1.37489">
        <ele>2330.8537597656</ele>
        <time>2011-06-11T11:23:44Z</time>
      </trkpt>
      <trkpt lat="42.70214" lon="1.37486">
        <ele>2329.4116210938</ele>
        <time>2011-06-11T11:23:51Z</time>
      </trkpt>
      <trkpt lat="42.70214" lon="1.3748">
        <ele>2327.4890136719</ele>
        <time>2011-06-11T11:23:59Z</time>
      </trkpt>
      <trkpt lat="42.70213" lon="1.37475">
        <ele>2327.4890136719</ele>
        <time>2011-06-11T11:24:06Z</time>
      </trkpt>
      <trkpt lat="42.70212" lon="1.3747">
        <ele>2327.9697265625</ele>
        <time>2011-06-11T11:24:12Z</time>
      </trkpt>
      <trkpt lat="42.70212" lon="1.37466">
        <ele>2327.9697265625</ele>
        <time>2011-06-11T11:24:18Z</time>
      </trkpt>
      <trkpt lat="42.70212" lon="1.37463">
        <ele>2327.4890136719</ele>
        <time>2011-06-11T11:24:25Z</time>
      </trkpt>
      <trkpt lat="42.70213" lon="1.37456">
        <ele>2327.0085449219</ele>
        <time>2011-06-11T11:24:31Z</time>
      </trkpt>
      <trkpt lat="42.70214" lon="1.3745">
        <ele>2326.0471191406</ele>
        <time>2011-06-11T11:24:37Z</time>
      </trkpt>
      <trkpt lat="42.70216" lon="1.37441">
        <ele>2326.5278320312</ele>
        <time>2011-06-11T11:24:44Z</time>
      </trkpt>
      <trkpt lat="42.70213" lon="1.37436">
        <ele>2327.0085449219</ele>
        <time>2011-06-11T11:24:52Z</time>
      </trkpt>
      <trkpt lat="42.70208" lon="1.37429">
        <ele>2324.6052246094</ele>
        <time>2011-06-11T11:25:00Z</time>
      </trkpt>
      <trkpt lat="42.70207" lon="1.37424">
        <ele>2324.1245117188</ele>
        <time>2011-06-11T11:25:05Z</time>
      </trkpt>
      <trkpt lat="42.70204" lon="1.37417">
        <ele>2323.1633300781</ele>
        <time>2011-06-11T11:25:11Z</time>
      </trkpt>
      <trkpt lat="42.70203" lon="1.37414">
        <ele>2322.2019042969</ele>
        <time>2011-06-11T11:25:13Z</time>
      </trkpt>
      <trkpt lat="42.70203" lon="1.37404">
        <ele>2322.2019042969</ele>
        <time>2011-06-11T11:25:20Z</time>
      </trkpt>
      <trkpt lat="42.70202" lon="1.374">
        <ele>2320.7600097656</ele>
        <time>2011-06-11T11:25:26Z</time>
      </trkpt>
      <trkpt lat="42.70201" lon="1.37393">
        <ele>2321.7211914062</ele>
        <time>2011-06-11T11:25:30Z</time>
      </trkpt>
      <trkpt lat="42.70201" lon="1.37387">
        <ele>2321.7211914062</ele>
        <time>2011-06-11T11:25:36Z</time>
      </trkpt>
      <trkpt lat="42.70201" lon="1.37381">
        <ele>2320.7600097656</ele>
        <time>2011-06-11T11:25:42Z</time>
      </trkpt>
      <trkpt lat="42.70201" lon="1.37375">
        <ele>2318.8374023438</ele>
        <time>2011-06-11T11:25:49Z</time>
      </trkpt>
      <trkpt lat="42.70201" lon="1.3737">
        <ele>2317.3952636719</ele>
        <time>2011-06-11T11:25:55Z</time>
      </trkpt>
      <trkpt lat="42.702" lon="1.37364">
        <ele>2316.4340820312</ele>
        <time>2011-06-11T11:26:01Z</time>
      </trkpt>
      <trkpt lat="42.70201" lon="1.37359">
        <ele>2315.47265625</ele>
        <time>2011-06-11T11:26:07Z</time>
      </trkpt>
      <trkpt lat="42.70201" lon="1.37352">
        <ele>2313.5498046875</ele>
        <time>2011-06-11T11:26:14Z</time>
      </trkpt>
      <trkpt lat="42.70201" lon="1.37345">
        <ele>2312.5886230469</ele>
        <time>2011-06-11T11:26:20Z</time>
      </trkpt>
      <trkpt lat="42.70201" lon="1.37342">
        <ele>2312.1079101562</ele>
        <time>2011-06-11T11:26:24Z</time>
      </trkpt>
      <trkpt lat="42.702" lon="1.37337">
        <ele>2310.666015625</ele>
        <time>2011-06-11T11:26:31Z</time>
      </trkpt>
      <trkpt lat="42.702" lon="1.3733">
        <ele>2308.2626953125</ele>
        <time>2011-06-11T11:26:38Z</time>
      </trkpt>
      <trkpt lat="42.70201" lon="1.37326">
        <ele>2306.3400878906</ele>
        <time>2011-06-11T11:26:42Z</time>
      </trkpt>
      <trkpt lat="42.70201" lon="1.37324">
        <ele>2305.37890625</ele>
        <time>2011-06-11T11:26:47Z</time>
      </trkpt>
      <trkpt lat="42.70202" lon="1.37321">
        <ele>2304.8981933594</ele>
        <time>2011-06-11T11:26:49Z</time>
      </trkpt>
      <trkpt lat="42.70206" lon="1.37312">
        <ele>2304.8981933594</ele>
        <time>2011-06-11T11:26:56Z</time>
      </trkpt>
      <trkpt lat="42.70208" lon="1.37312">
        <ele>2303.9370117188</ele>
        <time>2011-06-11T11:27:02Z</time>
      </trkpt>
      <trkpt lat="42.70209" lon="1.37312">
        <ele>2304.4174804688</ele>
        <time>2011-06-11T11:27:10Z</time>
      </trkpt>
      <trkpt lat="42.70209" lon="1.37311">
        <ele>2304.4174804688</ele>
        <time>2011-06-11T11:27:18Z</time>
      </trkpt>
      <trkpt lat="42.70209" lon="1.37312">
        <ele>2304.8981933594</ele>
        <time>2011-06-11T11:27:32Z</time>
      </trkpt>
      <trkpt lat="42.70207" lon="1.37312">
        <ele>2303.9370117188</ele>
        <time>2011-06-11T11:27:46Z</time>
      </trkpt>
      <trkpt lat="42.70206" lon="1.37314">
        <ele>2305.859375</ele>
        <time>2011-06-11T11:28:13Z</time>
      </trkpt>
      <trkpt lat="42.70208" lon="1.37311">
        <ele>2305.37890625</ele>
        <time>2011-06-11T11:28:19Z</time>
      </trkpt>
      <trkpt lat="42.7021" lon="1.37309">
        <ele>2304.8981933594</ele>
        <time>2011-06-11T11:28:21Z</time>
      </trkpt>
      <trkpt lat="42.70218" lon="1.37305">
        <ele>2304.4174804688</ele>
        <time>2011-06-11T11:28:28Z</time>
      </trkpt>
      <trkpt lat="42.70221" lon="1.37303">
        <ele>2305.859375</ele>
        <time>2011-06-11T11:28:32Z</time>
      </trkpt>
      <trkpt lat="42.70222" lon="1.37297">
        <ele>2308.2626953125</ele>
        <time>2011-06-11T11:28:41Z</time>
      </trkpt>
      <trkpt lat="42.7022" lon="1.37291">
        <ele>2309.7045898438</ele>
        <time>2011-06-11T11:28:47Z</time>
      </trkpt>
      <trkpt lat="42.70217" lon="1.37285">
        <ele>2310.1853027344</ele>
        <time>2011-06-11T11:28:53Z</time>
      </trkpt>
      <trkpt lat="42.70213" lon="1.37278">
        <ele>2311.1467285156</ele>
        <time>2011-06-11T11:28:59Z</time>
      </trkpt>
      <trkpt lat="42.70213" lon="1.37274">
        <ele>2312.1079101562</ele>
        <time>2011-06-11T11:29:02Z</time>
      </trkpt>
      <trkpt lat="42.7021" lon="1.3727">
        <ele>2313.0693359375</ele>
        <time>2011-06-11T11:29:06Z</time>
      </trkpt>
      <trkpt lat="42.7021" lon="1.37269">
        <ele>2312.5886230469</ele>
        <time>2011-06-11T11:29:07Z</time>
      </trkpt>
      <trkpt lat="42.70208" lon="1.37264">
        <ele>2313.5498046875</ele>
        <time>2011-06-11T11:29:13Z</time>
      </trkpt>
      <trkpt lat="42.7021" lon="1.37258">
        <ele>2314.0305175781</ele>
        <time>2011-06-11T11:29:21Z</time>
      </trkpt>
      <trkpt lat="42.70213" lon="1.37251">
        <ele>2313.5498046875</ele>
        <time>2011-06-11T11:29:28Z</time>
      </trkpt>
      <trkpt lat="42.70213" lon="1.37245">
        <ele>2312.1079101562</ele>
        <time>2011-06-11T11:29:35Z</time>
      </trkpt>
      <trkpt lat="42.70211" lon="1.37238">
        <ele>2310.1853027344</ele>
        <time>2011-06-11T11:29:40Z</time>
      </trkpt>
      <trkpt lat="42.70208" lon="1.37231">
        <ele>2308.7434082031</ele>
        <time>2011-06-11T11:29:45Z</time>
      </trkpt>
      <trkpt lat="42.70211" lon="1.37223">
        <ele>2306.3400878906</ele>
        <time>2011-06-11T11:29:51Z</time>
      </trkpt>
      <trkpt lat="42.70212" lon="1.37222">
        <ele>2306.3400878906</ele>
        <time>2011-06-11T11:29:52Z</time>
      </trkpt>
      <trkpt lat="42.70219" lon="1.37216">
        <ele>2304.4174804688</ele>
        <time>2011-06-11T11:29:59Z</time>
      </trkpt>
      <trkpt lat="42.70226" lon="1.37212">
        <ele>2302.4948730469</ele>
        <time>2011-06-11T11:30:05Z</time>
      </trkpt>
      <trkpt lat="42.70227" lon="1.37211">
        <ele>2302.4948730469</ele>
        <time>2011-06-11T11:30:06Z</time>
      </trkpt>
      <trkpt lat="42.7023" lon="1.37211">
        <ele>2301.5336914062</ele>
        <time>2011-06-11T11:30:09Z</time>
      </trkpt>
      <trkpt lat="42.70237" lon="1.37212">
        <ele>2299.6108398438</ele>
        <time>2011-06-11T11:30:15Z</time>
      </trkpt>
      <trkpt lat="42.70238" lon="1.37212">
        <ele>2299.1301269531</ele>
        <time>2011-06-11T11:30:16Z</time>
      </trkpt>
      <trkpt lat="42.70244" lon="1.37211">
        <ele>2296.2463378906</ele>
        <time>2011-06-11T11:30:22Z</time>
      </trkpt>
      <trkpt lat="42.70248" lon="1.37206">
        <ele>2292.8815917969</ele>
        <time>2011-06-11T11:30:28Z</time>
      </trkpt>
      <trkpt lat="42.70248" lon="1.37204">
        <ele>2292.4011230469</ele>
        <time>2011-06-11T11:30:29Z</time>
      </trkpt>
      <trkpt lat="42.70251" lon="1.37199">
        <ele>2289.9978027344</ele>
        <time>2011-06-11T11:30:34Z</time>
      </trkpt>
      <trkpt lat="42.70253" lon="1.37191">
        <ele>2286.6330566406</ele>
        <time>2011-06-11T11:30:41Z</time>
      </trkpt>
      <trkpt lat="42.70255" lon="1.37188">
        <ele>2284.7106933594</ele>
        <time>2011-06-11T11:30:46Z</time>
      </trkpt>
      <trkpt lat="42.70259" lon="1.37186">
        <ele>2282.3071289062</ele>
        <time>2011-06-11T11:30:54Z</time>
      </trkpt>
      <trkpt lat="42.70259" lon="1.37183">
        <ele>2280.3845214844</ele>
        <time>2011-06-11T11:31:00Z</time>
      </trkpt>
      <trkpt lat="42.7026" lon="1.3718">
        <ele>2278.9423828125</ele>
        <time>2011-06-11T11:31:04Z</time>
      </trkpt>
      <trkpt lat="42.70264" lon="1.37178">
        <ele>2277.5004882812</ele>
        <time>2011-06-11T11:31:09Z</time>
      </trkpt>
      <trkpt lat="42.70267" lon="1.3718">
        <ele>2276.5393066406</ele>
        <time>2011-06-11T11:31:13Z</time>
      </trkpt>
      <trkpt lat="42.70269" lon="1.3718">
        <ele>2275.5778808594</ele>
        <time>2011-06-11T11:31:18Z</time>
      </trkpt>
      <trkpt lat="42.70271" lon="1.3718">
        <ele>2274.6166992188</ele>
        <time>2011-06-11T11:31:22Z</time>
      </trkpt>
      <trkpt lat="42.70272" lon="1.37179">
        <ele>2272.6940917969</ele>
        <time>2011-06-11T11:31:28Z</time>
      </trkpt>
      <trkpt lat="42.70275" lon="1.3718">
        <ele>2271.7326660156</ele>
        <time>2011-06-11T11:31:33Z</time>
      </trkpt>
      <trkpt lat="42.70275" lon="1.3718">
        <ele>2271.251953125</ele>
        <time>2011-06-11T11:31:39Z</time>
      </trkpt>
      <trkpt lat="42.70274" lon="1.37179">
        <ele>2271.7326660156</ele>
        <time>2011-06-11T11:32:01Z</time>
      </trkpt>
      <trkpt lat="42.70275" lon="1.37181">
        <ele>2273.1748046875</ele>
        <time>2011-06-11T11:32:12Z</time>
      </trkpt>
      <trkpt lat="42.70281" lon="1.37185">
        <ele>2270.771484375</ele>
        <time>2011-06-11T11:32:18Z</time>
      </trkpt>
      <trkpt lat="42.70283" lon="1.37187">
        <ele>2269.8100585938</ele>
        <time>2011-06-11T11:32:23Z</time>
      </trkpt>
      <trkpt lat="42.70286" lon="1.37187">
        <ele>2267.8872070312</ele>
        <time>2011-06-11T11:32:29Z</time>
      </trkpt>
      <trkpt lat="42.70287" lon="1.37186">
        <ele>2266.4453125</ele>
        <time>2011-06-11T11:32:36Z</time>
      </trkpt>
      <trkpt lat="42.70289" lon="1.37182">
        <ele>2264.5227050781</ele>
        <time>2011-06-11T11:32:44Z</time>
      </trkpt>
      <trkpt lat="42.70289" lon="1.37178">
        <ele>2262.6000976562</ele>
        <time>2011-06-11T11:32:50Z</time>
      </trkpt>
      <trkpt lat="42.70289" lon="1.37171">
        <ele>2261.158203125</ele>
        <time>2011-06-11T11:32:57Z</time>
      </trkpt>
      <trkpt lat="42.70289" lon="1.37168">
        <ele>2258.7548828125</ele>
        <time>2011-06-11T11:33:03Z</time>
      </trkpt>
      <trkpt lat="42.70291" lon="1.37166">
        <ele>2257.7937011719</ele>
        <time>2011-06-11T11:33:08Z</time>
      </trkpt>
      <trkpt lat="42.70296" lon="1.37168">
        <ele>2255.3903808594</ele>
        <time>2011-06-11T11:33:14Z</time>
      </trkpt>
      <trkpt lat="42.70296" lon="1.37163">
        <ele>2253.9484863281</ele>
        <time>2011-06-11T11:33:18Z</time>
      </trkpt>
      <trkpt lat="42.70299" lon="1.37162">
        <ele>2252.0256347656</ele>
        <time>2011-06-11T11:33:22Z</time>
      </trkpt>
      <trkpt lat="42.70303" lon="1.37165">
        <ele>2249.6223144531</ele>
        <time>2011-06-11T11:33:27Z</time>
      </trkpt>
      <trkpt lat="42.70305" lon="1.37163">
        <ele>2247.6997070312</ele>
        <time>2011-06-11T11:33:33Z</time>
      </trkpt>
      <trkpt lat="42.70309" lon="1.37165">
        <ele>2246.2578125</ele>
        <time>2011-06-11T11:33:38Z</time>
      </trkpt>
      <trkpt lat="42.70311" lon="1.37163">
        <ele>2244.3349609375</ele>
        <time>2011-06-11T11:33:43Z</time>
      </trkpt>
      <trkpt lat="42.7031" lon="1.37159">
        <ele>2243.3737792969</ele>
        <time>2011-06-11T11:33:49Z</time>
      </trkpt>
      <trkpt lat="42.70311" lon="1.37155">
        <ele>2243.3737792969</ele>
        <time>2011-06-11T11:33:54Z</time>
      </trkpt>
      <trkpt lat="42.7031" lon="1.37152">
        <ele>2243.8544921875</ele>
        <time>2011-06-11T11:34:01Z</time>
      </trkpt>
      <trkpt lat="42.70311" lon="1.37148">
        <ele>2243.8544921875</ele>
        <time>2011-06-11T11:34:07Z</time>
      </trkpt>
      <trkpt lat="42.70312" lon="1.37144">
        <ele>2242.4125976562</ele>
        <time>2011-06-11T11:34:13Z</time>
      </trkpt>
      <trkpt lat="42.70313" lon="1.37141">
        <ele>2240.4897460938</ele>
        <time>2011-06-11T11:34:20Z</time>
      </trkpt>
      <trkpt lat="42.70315" lon="1.37138">
        <ele>2239.5285644531</ele>
        <time>2011-06-11T11:34:24Z</time>
      </trkpt>
      <trkpt lat="42.70319" lon="1.37134">
        <ele>2237.6059570312</ele>
        <time>2011-06-11T11:34:30Z</time>
      </trkpt>
      <trkpt lat="42.70321" lon="1.3713">
        <ele>2236.64453125</ele>
        <time>2011-06-11T11:34:35Z</time>
      </trkpt>
      <trkpt lat="42.70325" lon="1.37127">
        <ele>2233.7604980469</ele>
        <time>2011-06-11T11:34:41Z</time>
      </trkpt>
      <trkpt lat="42.70327" lon="1.37125">
        <ele>2232.3186035156</ele>
        <time>2011-06-11T11:34:45Z</time>
      </trkpt>
      <trkpt lat="42.70327" lon="1.37117">
        <ele>2228.4733886719</ele>
        <time>2011-06-11T11:34:49Z</time>
      </trkpt>
      <trkpt lat="42.70327" lon="1.37115">
        <ele>2227.0314941406</ele>
        <time>2011-06-11T11:34:50Z</time>
      </trkpt>
      <trkpt lat="42.70329" lon="1.37108">
        <ele>2222.7055664062</ele>
        <time>2011-06-11T11:34:55Z</time>
      </trkpt>
      <trkpt lat="42.70331" lon="1.37106">
        <ele>2222.7055664062</ele>
        <time>2011-06-11T11:34:57Z</time>
      </trkpt>
      <trkpt lat="42.70333" lon="1.37098">
        <ele>2220.7829589844</ele>
        <time>2011-06-11T11:35:02Z</time>
      </trkpt>
      <trkpt lat="42.70335" lon="1.37088">
        <ele>2219.3408203125</ele>
        <time>2011-06-11T11:35:08Z</time>
      </trkpt>
      <trkpt lat="42.70336" lon="1.37082">
        <ele>2217.41796875</ele>
        <time>2011-06-11T11:35:11Z</time>
      </trkpt>
      <trkpt lat="42.70339" lon="1.37078">
        <ele>2216.4567871094</ele>
        <time>2011-06-11T11:35:14Z</time>
      </trkpt>
      <trkpt lat="42.70343" lon="1.37069">
        <ele>2213.5727539062</ele>
        <time>2011-06-11T11:35:20Z</time>
      </trkpt>
      <trkpt lat="42.70347" lon="1.37067">
        <ele>2210.6889648438</ele>
        <time>2011-06-11T11:35:27Z</time>
      </trkpt>
      <trkpt lat="42.70349" lon="1.37065">
        <ele>2209.7275390625</ele>
        <time>2011-06-11T11:35:32Z</time>
      </trkpt>
      <trkpt lat="42.70351" lon="1.37062">
        <ele>2209.2470703125</ele>
        <time>2011-06-11T11:35:38Z</time>
      </trkpt>
      <trkpt lat="42.70353" lon="1.3706">
        <ele>2208.7663574219</ele>
        <time>2011-06-11T11:35:44Z</time>
      </trkpt>
      <trkpt lat="42.70357" lon="1.37058">
        <ele>2205.8823242188</ele>
        <time>2011-06-11T11:35:49Z</time>
      </trkpt>
      <trkpt lat="42.70359" lon="1.3705">
        <ele>2203.4790039062</ele>
        <time>2011-06-11T11:35:53Z</time>
      </trkpt>
      <trkpt lat="42.70359" lon="1.37048">
        <ele>2202.517578125</ele>
        <time>2011-06-11T11:35:55Z</time>
      </trkpt>
      <trkpt lat="42.70362" lon="1.37049">
        <ele>2199.1530761719</ele>
        <time>2011-06-11T11:36:01Z</time>
      </trkpt>
      <trkpt lat="42.70364" lon="1.37037">
        <ele>2196.7497558594</ele>
        <time>2011-06-11T11:36:08Z</time>
      </trkpt>
      <trkpt lat="42.70365" lon="1.3703">
        <ele>2195.7885742188</ele>
        <time>2011-06-11T11:36:12Z</time>
      </trkpt>
      <trkpt lat="42.70365" lon="1.37028">
        <ele>2195.7885742188</ele>
        <time>2011-06-11T11:36:14Z</time>
      </trkpt>
      <trkpt lat="42.70364" lon="1.37025">
        <ele>2194.3464355469</ele>
        <time>2011-06-11T11:36:21Z</time>
      </trkpt>
      <trkpt lat="42.70366" lon="1.37023">
        <ele>2192.9045410156</ele>
        <time>2011-06-11T11:36:27Z</time>
      </trkpt>
      <trkpt lat="42.70369" lon="1.37023">
        <ele>2191.4626464844</ele>
        <time>2011-06-11T11:36:33Z</time>
      </trkpt>
      <trkpt lat="42.70371" lon="1.37025">
        <ele>2190.5012207031</ele>
        <time>2011-06-11T11:36:39Z</time>
      </trkpt>
      <trkpt lat="42.70372" lon="1.37021">
        <ele>2189.0593261719</ele>
        <time>2011-06-11T11:36:45Z</time>
      </trkpt>
      <trkpt lat="42.70373" lon="1.37019">
        <ele>2187.6171875</ele>
        <time>2011-06-11T11:36:49Z</time>
      </trkpt>
      <trkpt lat="42.70375" lon="1.37018">
        <ele>2184.7333984375</ele>
        <time>2011-06-11T11:36:55Z</time>
      </trkpt>
      <trkpt lat="42.70377" lon="1.37014">
        <ele>2183.7719726562</ele>
        <time>2011-06-11T11:37:00Z</time>
      </trkpt>
      <trkpt lat="42.70375" lon="1.37012">
        <ele>2182.810546875</ele>
        <time>2011-06-11T11:37:06Z</time>
      </trkpt>
      <trkpt lat="42.70377" lon="1.3701">
        <ele>2181.8493652344</ele>
        <time>2011-06-11T11:37:12Z</time>
      </trkpt>
      <trkpt lat="42.70377" lon="1.37007">
        <ele>2180.4074707031</ele>
        <time>2011-06-11T11:37:17Z</time>
      </trkpt>
      <trkpt lat="42.7038" lon="1.37004">
        <ele>2178.0041503906</ele>
        <time>2011-06-11T11:37:22Z</time>
      </trkpt>
      <trkpt lat="42.70383" lon="1.37001">
        <ele>2176.5622558594</ele>
        <time>2011-06-11T11:37:27Z</time>
      </trkpt>
      <trkpt lat="42.70385" lon="1.36999">
        <ele>2174.1589355469</ele>
        <time>2011-06-11T11:37:33Z</time>
      </trkpt>
      <trkpt lat="42.70385" lon="1.36994">
        <ele>2172.236328125</ele>
        <time>2011-06-11T11:37:39Z</time>
      </trkpt>
      <trkpt lat="42.70385" lon="1.36989">
        <ele>2171.2746582031</ele>
        <time>2011-06-11T11:37:44Z</time>
      </trkpt>
      <trkpt lat="42.70382" lon="1.36982">
        <ele>2170.3134765625</ele>
        <time>2011-06-11T11:37:51Z</time>
      </trkpt>
      <trkpt lat="42.7038" lon="1.3698">
        <ele>2170.3134765625</ele>
        <time>2011-06-11T11:37:56Z</time>
      </trkpt>
      <trkpt lat="42.70379" lon="1.36977">
        <ele>2168.3908691406</ele>
        <time>2011-06-11T11:38:02Z</time>
      </trkpt>
      <trkpt lat="42.70381" lon="1.36973">
        <ele>2166.9489746094</ele>
        <time>2011-06-11T11:38:08Z</time>
      </trkpt>
      <trkpt lat="42.70382" lon="1.36968">
        <ele>2165.5070800781</ele>
        <time>2011-06-11T11:38:14Z</time>
      </trkpt>
      <trkpt lat="42.70382" lon="1.36965">
        <ele>2164.5456542969</ele>
        <time>2011-06-11T11:38:20Z</time>
      </trkpt>
      <trkpt lat="42.70379" lon="1.36962">
        <ele>2161.6618652344</ele>
        <time>2011-06-11T11:38:27Z</time>
      </trkpt>
      <trkpt lat="42.7038" lon="1.36958">
        <ele>2160.2197265625</ele>
        <time>2011-06-11T11:38:32Z</time>
      </trkpt>
      <trkpt lat="42.70385" lon="1.36957">
        <ele>2157.8166503906</ele>
        <time>2011-06-11T11:38:37Z</time>
      </trkpt>
      <trkpt lat="42.70387" lon="1.3695">
        <ele>2156.8552246094</ele>
        <time>2011-06-11T11:38:45Z</time>
      </trkpt>
      <trkpt lat="42.70388" lon="1.36947">
        <ele>2155.8935546875</ele>
        <time>2011-06-11T11:38:49Z</time>
      </trkpt>
      <trkpt lat="42.70391" lon="1.36948">
        <ele>2154.4516601562</ele>
        <time>2011-06-11T11:38:55Z</time>
      </trkpt>
      <trkpt lat="42.70393" lon="1.36948">
        <ele>2153.009765625</ele>
        <time>2011-06-11T11:38:59Z</time>
      </trkpt>
      <trkpt lat="42.70394" lon="1.36941">
        <ele>2150.1259765625</ele>
        <time>2011-06-11T11:39:07Z</time>
      </trkpt>
      <trkpt lat="42.70393" lon="1.36936">
        <ele>2149.6452636719</ele>
        <time>2011-06-11T11:39:11Z</time>
      </trkpt>
      <trkpt lat="42.7039" lon="1.36933">
        <ele>2148.203125</ele>
        <time>2011-06-11T11:39:17Z</time>
      </trkpt>
      <trkpt lat="42.70387" lon="1.36926">
        <ele>2147.72265625</ele>
        <time>2011-06-11T11:39:24Z</time>
      </trkpt>
      <trkpt lat="42.70387" lon="1.36923">
        <ele>2148.203125</ele>
        <time>2011-06-11T11:39:26Z</time>
      </trkpt>
      <trkpt lat="42.70389" lon="1.36915">
        <ele>2145.3193359375</ele>
        <time>2011-06-11T11:39:31Z</time>
      </trkpt>
      <trkpt lat="42.7039" lon="1.36912">
        <ele>2141.4741210938</ele>
        <time>2011-06-11T11:39:36Z</time>
      </trkpt>
      <trkpt lat="42.70394" lon="1.36905">
        <ele>2138.109375</ele>
        <time>2011-06-11T11:39:40Z</time>
      </trkpt>
      <trkpt lat="42.70398" lon="1.369">
        <ele>2136.1867675781</ele>
        <time>2011-06-11T11:39:45Z</time>
      </trkpt>
      <trkpt lat="42.70404" lon="1.3689">
        <ele>2132.8220214844</ele>
        <time>2011-06-11T11:39:52Z</time>
      </trkpt>
      <trkpt lat="42.70407" lon="1.36887">
        <ele>2131.3801269531</ele>
        <time>2011-06-11T11:39:55Z</time>
      </trkpt>
      <trkpt lat="42.70414" lon="1.36879">
        <ele>2127.5349121094</ele>
        <time>2011-06-11T11:40:00Z</time>
      </trkpt>
      <trkpt lat="42.70424" lon="1.36877">
        <ele>2124.6511230469</ele>
        <time>2011-06-11T11:40:06Z</time>
      </trkpt>
      <trkpt lat="42.70428" lon="1.36875">
        <ele>2123.208984375</ele>
        <time>2011-06-11T11:40:11Z</time>
      </trkpt>
      <trkpt lat="42.7043" lon="1.36873">
        <ele>2122.2475585938</ele>
        <time>2011-06-11T11:40:13Z</time>
      </trkpt>
      <trkpt lat="42.70436" lon="1.3687">
        <ele>2119.8442382812</ele>
        <time>2011-06-11T11:40:19Z</time>
      </trkpt>
      <trkpt lat="42.70439" lon="1.36874">
        <ele>2117.4409179688</ele>
        <time>2011-06-11T11:40:26Z</time>
      </trkpt>
      <trkpt lat="42.70443" lon="1.36872">
        <ele>2115.5185546875</ele>
        <time>2011-06-11T11:40:30Z</time>
      </trkpt>
      <trkpt lat="42.70447" lon="1.36871">
        <ele>2115.0378417969</ele>
        <time>2011-06-11T11:40:32Z</time>
      </trkpt>
      <trkpt lat="42.70455" lon="1.36872">
        <ele>2111.6733398438</ele>
        <time>2011-06-11T11:40:39Z</time>
      </trkpt>
      <trkpt lat="42.70457" lon="1.3687">
        <ele>2110.7119140625</ele>
        <time>2011-06-11T11:40:41Z</time>
      </trkpt>
      <trkpt lat="42.7046" lon="1.36869">
        <ele>2109.7504882812</ele>
        <time>2011-06-11T11:40:44Z</time>
      </trkpt>
      <trkpt lat="42.70465" lon="1.36864">
        <ele>2106.8664550781</ele>
        <time>2011-06-11T11:40:49Z</time>
      </trkpt>
      <trkpt lat="42.70476" lon="1.36862">
        <ele>2103.9826660156</ele>
        <time>2011-06-11T11:40:55Z</time>
      </trkpt>
      <trkpt lat="42.70483" lon="1.36865">
        <ele>2101.5793457031</ele>
        <time>2011-06-11T11:41:01Z</time>
      </trkpt>
      <trkpt lat="42.70485" lon="1.36866">
        <ele>2101.5793457031</ele>
        <time>2011-06-11T11:41:02Z</time>
      </trkpt>
      <trkpt lat="42.70491" lon="1.36871">
        <ele>2101.0986328125</ele>
        <time>2011-06-11T11:41:08Z</time>
      </trkpt>
      <trkpt lat="42.70495" lon="1.36873">
        <ele>2100.6179199219</ele>
        <time>2011-06-11T11:41:12Z</time>
      </trkpt>
      <trkpt lat="42.70502" lon="1.36875">
        <ele>2099.1760253906</ele>
        <time>2011-06-11T11:41:17Z</time>
      </trkpt>
      <trkpt lat="42.70503" lon="1.36875">
        <ele>2099.1760253906</ele>
        <time>2011-06-11T11:41:18Z</time>
      </trkpt>
      <trkpt lat="42.70505" lon="1.36874">
        <ele>2098.6953125</ele>
        <time>2011-06-11T11:41:20Z</time>
      </trkpt>
      <trkpt lat="42.7051" lon="1.36876">
        <ele>2098.2145996094</ele>
        <time>2011-06-11T11:41:27Z</time>
      </trkpt>
      <trkpt lat="42.70512" lon="1.36876">
        <ele>2097.2534179688</ele>
        <time>2011-06-11T11:41:34Z</time>
      </trkpt>
      <trkpt lat="42.70515" lon="1.36875">
        <ele>2096.7727050781</ele>
        <time>2011-06-11T11:41:39Z</time>
      </trkpt>
      <trkpt lat="42.70517" lon="1.36874">
        <ele>2096.2922363281</ele>
        <time>2011-06-11T11:41:43Z</time>
      </trkpt>
      <trkpt lat="42.7052" lon="1.36873">
        <ele>2094.3693847656</ele>
        <time>2011-06-11T11:41:47Z</time>
      </trkpt>
      <trkpt lat="42.70528" lon="1.36871">
        <ele>2091.4853515625</ele>
        <time>2011-06-11T11:41:54Z</time>
      </trkpt>
      <trkpt lat="42.70529" lon="1.36871">
        <ele>2091.0046386719</ele>
        <time>2011-06-11T11:41:55Z</time>
      </trkpt>
      <trkpt lat="42.70533" lon="1.36871">
        <ele>2090.0434570312</ele>
        <time>2011-06-11T11:41:59Z</time>
      </trkpt>
      <trkpt lat="42.70537" lon="1.36874">
        <ele>2088.1208496094</ele>
        <time>2011-06-11T11:42:05Z</time>
      </trkpt>
      <trkpt lat="42.70539" lon="1.36874">
        <ele>2087.1594238281</ele>
        <time>2011-06-11T11:42:11Z</time>
      </trkpt>
      <trkpt lat="42.70541" lon="1.36876">
        <ele>2085.2368164062</ele>
        <time>2011-06-11T11:42:16Z</time>
      </trkpt>
      <trkpt lat="42.70544" lon="1.36876">
        <ele>2083.794921875</ele>
        <time>2011-06-11T11:42:22Z</time>
      </trkpt>
      <trkpt lat="42.70546" lon="1.36873">
        <ele>2082.8334960938</ele>
        <time>2011-06-11T11:42:26Z</time>
      </trkpt>
      <trkpt lat="42.70548" lon="1.36872">
        <ele>2082.3530273438</ele>
        <time>2011-06-11T11:42:31Z</time>
      </trkpt>
      <trkpt lat="42.70547" lon="1.36869">
        <ele>2082.8334960938</ele>
        <time>2011-06-11T11:42:36Z</time>
      </trkpt>
      <trkpt lat="42.7055" lon="1.36865">
        <ele>2081.3916015625</ele>
        <time>2011-06-11T11:42:42Z</time>
      </trkpt>
      <trkpt lat="42.70554" lon="1.36868">
        <ele>2079.4689941406</ele>
        <time>2011-06-11T11:42:47Z</time>
      </trkpt>
      <trkpt lat="42.70554" lon="1.3687">
        <ele>2077.5463867188</ele>
        <time>2011-06-11T11:42:52Z</time>
      </trkpt>
      <trkpt lat="42.70559" lon="1.36871">
        <ele>2075.1428222656</ele>
        <time>2011-06-11T11:42:58Z</time>
      </trkpt>
      <trkpt lat="42.70564" lon="1.36871">
        <ele>2074.181640625</ele>
        <time>2011-06-11T11:43:03Z</time>
      </trkpt>
      <trkpt lat="42.70565" lon="1.36872">
        <ele>2074.181640625</ele>
        <time>2011-06-11T11:43:09Z</time>
      </trkpt>
      <trkpt lat="42.70565" lon="1.36872">
        <ele>2073.2204589844</ele>
        <time>2011-06-11T11:43:19Z</time>
      </trkpt>
      <trkpt lat="42.70565" lon="1.36873">
        <ele>2072.2590332031</ele>
        <time>2011-06-11T11:43:34Z</time>
      </trkpt>
      <trkpt lat="42.70565" lon="1.36873">
        <ele>2072.7397460938</ele>
        <time>2011-06-11T11:43:42Z</time>
      </trkpt>
      <trkpt lat="42.70566" lon="1.36871">
        <ele>2072.2590332031</ele>
        <time>2011-06-11T11:43:55Z</time>
      </trkpt>
      <trkpt lat="42.70567" lon="1.36871">
        <ele>2071.7783203125</ele>
        <time>2011-06-11T11:44:03Z</time>
      </trkpt>
      <trkpt lat="42.70565" lon="1.36872">
        <ele>2071.7783203125</ele>
        <time>2011-06-11T11:44:13Z</time>
      </trkpt>
      <trkpt lat="42.70565" lon="1.36872">
        <ele>2071.2976074219</ele>
        <time>2011-06-11T11:44:22Z</time>
      </trkpt>
      <trkpt lat="42.70567" lon="1.3687">
        <ele>2073.2204589844</ele>
        <time>2011-06-11T11:44:42Z</time>
      </trkpt>
      <trkpt lat="42.70567" lon="1.3687">
        <ele>2071.7783203125</ele>
        <time>2011-06-11T11:44:51Z</time>
      </trkpt>
      <trkpt lat="42.70567" lon="1.36873">
        <ele>2070.3364257812</ele>
        <time>2011-06-11T11:45:12Z</time>
      </trkpt>
      <trkpt lat="42.7057" lon="1.36876">
        <ele>2069.3752441406</ele>
        <time>2011-06-11T11:45:17Z</time>
      </trkpt>
      <trkpt lat="42.70573" lon="1.3688">
        <ele>2067.4523925781</ele>
        <time>2011-06-11T11:45:23Z</time>
      </trkpt>
      <trkpt lat="42.70576" lon="1.36884">
        <ele>2066.9719238281</ele>
        <time>2011-06-11T11:45:27Z</time>
      </trkpt>
      <trkpt lat="42.7058" lon="1.36886">
        <ele>2065.0493164062</ele>
        <time>2011-06-11T11:45:32Z</time>
      </trkpt>
      <trkpt lat="42.70581" lon="1.36887">
        <ele>2065.0493164062</ele>
        <time>2011-06-11T11:45:33Z</time>
      </trkpt>
      <trkpt lat="42.70587" lon="1.36896">
        <ele>2063.6071777344</ele>
        <time>2011-06-11T11:45:39Z</time>
      </trkpt>
      <trkpt lat="42.70587" lon="1.36897">
        <ele>2063.1267089844</ele>
        <time>2011-06-11T11:45:40Z</time>
      </trkpt>
      <trkpt lat="42.70587" lon="1.36901">
        <ele>2061.2041015625</ele>
        <time>2011-06-11T11:45:48Z</time>
      </trkpt>
      <trkpt lat="42.70589" lon="1.36905">
        <ele>2060.2426757812</ele>
        <time>2011-06-11T11:45:54Z</time>
      </trkpt>
      <trkpt lat="42.70594" lon="1.36912">
        <ele>2058.8005371094</ele>
        <time>2011-06-11T11:46:00Z</time>
      </trkpt>
      <trkpt lat="42.70593" lon="1.36913">
        <ele>2058.8005371094</ele>
        <time>2011-06-11T11:46:01Z</time>
      </trkpt>
      <trkpt lat="42.7059" lon="1.36916">
        <ele>2056.3972167969</ele>
        <time>2011-06-11T11:46:07Z</time>
      </trkpt>
      <trkpt lat="42.70589" lon="1.36917">
        <ele>2055.9165039062</ele>
        <time>2011-06-11T11:46:08Z</time>
      </trkpt>
      <trkpt lat="42.70589" lon="1.36927">
        <ele>2055.4360351562</ele>
        <time>2011-06-11T11:46:14Z</time>
      </trkpt>
      <trkpt lat="42.7059" lon="1.36932">
        <ele>2054.474609375</ele>
        <time>2011-06-11T11:46:18Z</time>
      </trkpt>
      <trkpt lat="42.70591" lon="1.36933">
        <ele>2053.994140625</ele>
        <time>2011-06-11T11:46:20Z</time>
      </trkpt>
      <trkpt lat="42.70589" lon="1.3694">
        <ele>2052.0712890625</ele>
        <time>2011-06-11T11:46:27Z</time>
      </trkpt>
      <trkpt lat="42.70588" lon="1.36942">
        <ele>2050.6293945312</ele>
        <time>2011-06-11T11:46:31Z</time>
      </trkpt>
      <trkpt lat="42.70588" lon="1.36944">
        <ele>2050.1489257812</ele>
        <time>2011-06-11T11:46:36Z</time>
      </trkpt>
      <trkpt lat="42.70589" lon="1.36949">
        <ele>2048.2260742188</ele>
        <time>2011-06-11T11:46:42Z</time>
      </trkpt>
      <trkpt lat="42.70589" lon="1.36952">
        <ele>2047.2648925781</ele>
        <time>2011-06-11T11:46:47Z</time>
      </trkpt>
      <trkpt lat="42.70592" lon="1.36954">
        <ele>2046.7841796875</ele>
        <time>2011-06-11T11:46:54Z</time>
      </trkpt>
      <trkpt lat="42.70594" lon="1.36956">
        <ele>2045.3422851562</ele>
        <time>2011-06-11T11:47:01Z</time>
      </trkpt>
      <trkpt lat="42.70595" lon="1.36958">
        <ele>2044.8615722656</ele>
        <time>2011-06-11T11:47:06Z</time>
      </trkpt>
      <trkpt lat="42.70595" lon="1.3696">
        <ele>2043.4194335938</ele>
        <time>2011-06-11T11:47:11Z</time>
      </trkpt>
      <trkpt lat="42.70595" lon="1.36963">
        <ele>2041.4968261719</ele>
        <time>2011-06-11T11:47:17Z</time>
      </trkpt>
      <trkpt lat="42.70595" lon="1.36966">
        <ele>2039.57421875</ele>
        <time>2011-06-11T11:47:22Z</time>
      </trkpt>
      <trkpt lat="42.70594" lon="1.36971">
        <ele>2036.2097167969</ele>
        <time>2011-06-11T11:47:28Z</time>
      </trkpt>
      <trkpt lat="42.70596" lon="1.36975">
        <ele>2036.6901855469</ele>
        <time>2011-06-11T11:47:31Z</time>
      </trkpt>
      <trkpt lat="42.70594" lon="1.36979">
        <ele>2035.2482910156</ele>
        <time>2011-06-11T11:47:36Z</time>
      </trkpt>
      <trkpt lat="42.70593" lon="1.36983">
        <ele>2034.287109375</ele>
        <time>2011-06-11T11:47:40Z</time>
      </trkpt>
      <trkpt lat="42.70594" lon="1.36987">
        <ele>2033.3256835938</ele>
        <time>2011-06-11T11:47:44Z</time>
      </trkpt>
      <trkpt lat="42.70595" lon="1.36993">
        <ele>2032.3645019531</ele>
        <time>2011-06-11T11:47:48Z</time>
      </trkpt>
      <trkpt lat="42.70596" lon="1.36998">
        <ele>2031.8837890625</ele>
        <time>2011-06-11T11:47:53Z</time>
      </trkpt>
      <trkpt lat="42.70596" lon="1.37002">
        <ele>2030.9226074219</ele>
        <time>2011-06-11T11:47:57Z</time>
      </trkpt>
      <trkpt lat="42.70596" lon="1.37006">
        <ele>2029.9611816406</ele>
        <time>2011-06-11T11:48:00Z</time>
      </trkpt>
      <trkpt lat="42.70597" lon="1.37014">
        <ele>2029.48046875</ele>
        <time>2011-06-11T11:48:05Z</time>
      </trkpt>
      <trkpt lat="42.70597" lon="1.37018">
        <ele>2028.9997558594</ele>
        <time>2011-06-11T11:48:08Z</time>
      </trkpt>
      <trkpt lat="42.70602" lon="1.37022">
        <ele>2027.5576171875</ele>
        <time>2011-06-11T11:48:13Z</time>
      </trkpt>
      <trkpt lat="42.70602" lon="1.37023">
        <ele>2027.0771484375</ele>
        <time>2011-06-11T11:48:14Z</time>
      </trkpt>
      <trkpt lat="42.70605" lon="1.37028">
        <ele>2024.673828125</ele>
        <time>2011-06-11T11:48:19Z</time>
      </trkpt>
      <trkpt lat="42.70604" lon="1.37028">
        <ele>2023.7124023438</ele>
        <time>2011-06-11T11:48:20Z</time>
      </trkpt>
      <trkpt lat="42.70602" lon="1.37037">
        <ele>2020.8286132812</ele>
        <time>2011-06-11T11:48:26Z</time>
      </trkpt>
      <trkpt lat="42.70599" lon="1.37041">
        <ele>2018.9060058594</ele>
        <time>2011-06-11T11:48:32Z</time>
      </trkpt>
      <trkpt lat="42.70599" lon="1.37045">
        <ele>2017.4638671875</ele>
        <time>2011-06-11T11:48:36Z</time>
      </trkpt>
      <trkpt lat="42.70601" lon="1.3705">
        <ele>2015.5415039062</ele>
        <time>2011-06-11T11:48:40Z</time>
      </trkpt>
      <trkpt lat="42.70602" lon="1.37051">
        <ele>2015.5415039062</ele>
        <time>2011-06-11T11:48:41Z</time>
      </trkpt>
      <trkpt lat="42.70601" lon="1.37057">
        <ele>2012.6574707031</ele>
        <time>2011-06-11T11:48:47Z</time>
      </trkpt>
      <trkpt lat="42.70599" lon="1.37061">
        <ele>2012.1767578125</ele>
        <time>2011-06-11T11:48:50Z</time>
      </trkpt>
      <trkpt lat="42.70599" lon="1.37064">
        <ele>2012.6574707031</ele>
        <time>2011-06-11T11:48:54Z</time>
      </trkpt>
      <trkpt lat="42.70602" lon="1.37065">
        <ele>2011.6960449219</ele>
        <time>2011-06-11T11:49:00Z</time>
      </trkpt>
      <trkpt lat="42.70606" lon="1.37069">
        <ele>2009.7731933594</ele>
        <time>2011-06-11T11:49:05Z</time>
      </trkpt>
      <trkpt lat="42.70609" lon="1.37073">
        <ele>2008.3312988281</ele>
        <time>2011-06-11T11:49:08Z</time>
      </trkpt>
      <trkpt lat="42.70611" lon="1.37077">
        <ele>2007.3701171875</ele>
        <time>2011-06-11T11:49:11Z</time>
      </trkpt>
      <trkpt lat="42.70615" lon="1.37079">
        <ele>2005.4475097656</ele>
        <time>2011-06-11T11:49:15Z</time>
      </trkpt>
      <trkpt lat="42.70617" lon="1.37081">
        <ele>2004.0056152344</ele>
        <time>2011-06-11T11:49:18Z</time>
      </trkpt>
      <trkpt lat="42.7062" lon="1.37087">
        <ele>2001.6022949219</ele>
        <time>2011-06-11T11:49:24Z</time>
      </trkpt>
      <trkpt lat="42.70623" lon="1.3709">
        <ele>2000.6408691406</ele>
        <time>2011-06-11T11:49:28Z</time>
      </trkpt>
      <trkpt lat="42.70626" lon="1.37095">
        <ele>1998.7182617188</ele>
        <time>2011-06-11T11:49:33Z</time>
      </trkpt>
      <trkpt lat="42.70629" lon="1.37099">
        <ele>1997.2763671875</ele>
        <time>2011-06-11T11:49:37Z</time>
      </trkpt>
      <trkpt lat="42.70633" lon="1.37103">
        <ele>1994.8728027344</ele>
        <time>2011-06-11T11:49:42Z</time>
      </trkpt>
      <trkpt lat="42.70635" lon="1.37108">
        <ele>1992.9501953125</ele>
        <time>2011-06-11T11:49:46Z</time>
      </trkpt>
      <trkpt lat="42.70638" lon="1.37115">
        <ele>1991.9890136719</ele>
        <time>2011-06-11T11:49:51Z</time>
      </trkpt>
      <trkpt lat="42.70638" lon="1.37119">
        <ele>1991.5083007812</ele>
        <time>2011-06-11T11:49:54Z</time>
      </trkpt>
      <trkpt lat="42.70641" lon="1.37125">
        <ele>1991.5083007812</ele>
        <time>2011-06-11T11:49:59Z</time>
      </trkpt>
      <trkpt lat="42.70645" lon="1.37126">
        <ele>1991.5083007812</ele>
        <time>2011-06-11T11:50:04Z</time>
      </trkpt>
      <trkpt lat="42.70649" lon="1.37131">
        <ele>1990.546875</ele>
        <time>2011-06-11T11:50:08Z</time>
      </trkpt>
      <trkpt lat="42.70649" lon="1.37133">
        <ele>1990.06640625</ele>
        <time>2011-06-11T11:50:09Z</time>
      </trkpt>
      <trkpt lat="42.70657" lon="1.3714">
        <ele>1987.6630859375</ele>
        <time>2011-06-11T11:50:15Z</time>
      </trkpt>
      <trkpt lat="42.7066" lon="1.37143">
        <ele>1987.6630859375</ele>
        <time>2011-06-11T11:50:18Z</time>
      </trkpt>
      <trkpt lat="42.70664" lon="1.37147">
        <ele>1987.6630859375</ele>
        <time>2011-06-11T11:50:21Z</time>
      </trkpt>
      <trkpt lat="42.7067" lon="1.3715">
        <ele>1987.6630859375</ele>
        <time>2011-06-11T11:50:24Z</time>
      </trkpt>
      <trkpt lat="42.70675" lon="1.37153">
        <ele>1989.5856933594</ele>
        <time>2011-06-11T11:50:27Z</time>
      </trkpt>
      <trkpt lat="42.70679" lon="1.37161">
        <ele>1987.6630859375</ele>
        <time>2011-06-11T11:50:33Z</time>
      </trkpt>
      <trkpt lat="42.70683" lon="1.37163">
        <ele>1985.7404785156</ele>
        <time>2011-06-11T11:50:38Z</time>
      </trkpt>
      <trkpt lat="42.70687" lon="1.37167">
        <ele>1985.259765625</ele>
        <time>2011-06-11T11:50:43Z</time>
      </trkpt>
      <trkpt lat="42.70691" lon="1.37171">
        <ele>1984.2985839844</ele>
        <time>2011-06-11T11:50:48Z</time>
      </trkpt>
      <trkpt lat="42.70696" lon="1.37175">
        <ele>1981.8952636719</ele>
        <time>2011-06-11T11:50:54Z</time>
      </trkpt>
      <trkpt lat="42.70698" lon="1.37177">
        <ele>1980.9340820312</ele>
        <time>2011-06-11T11:50:57Z</time>
      </trkpt>
      <trkpt lat="42.70704" lon="1.37179">
        <ele>1979.4916992188</ele>
        <time>2011-06-11T11:51:03Z</time>
      </trkpt>
      <trkpt lat="42.70707" lon="1.37183">
        <ele>1978.0498046875</ele>
        <time>2011-06-11T11:51:08Z</time>
      </trkpt>
      <trkpt lat="42.70712" lon="1.37183">
        <ele>1977.0886230469</ele>
        <time>2011-06-11T11:51:12Z</time>
      </trkpt>
      <trkpt lat="42.70713" lon="1.37185">
        <ele>1975.646484375</ele>
        <time>2011-06-11T11:51:16Z</time>
      </trkpt>
      <trkpt lat="42.70716" lon="1.37188">
        <ele>1974.6853027344</ele>
        <time>2011-06-11T11:51:20Z</time>
      </trkpt>
      <trkpt lat="42.70723" lon="1.37192">
        <ele>1972.7626953125</ele>
        <time>2011-06-11T11:51:27Z</time>
      </trkpt>
      <trkpt lat="42.70725" lon="1.37193">
        <ele>1972.2819824219</ele>
        <time>2011-06-11T11:51:29Z</time>
      </trkpt>
      <trkpt lat="42.70731" lon="1.37198">
        <ele>1971.3205566406</ele>
        <time>2011-06-11T11:51:35Z</time>
      </trkpt>
      <trkpt lat="42.70732" lon="1.37198">
        <ele>1971.3205566406</ele>
        <time>2011-06-11T11:51:36Z</time>
      </trkpt>
      <trkpt lat="42.70735" lon="1.37197">
        <ele>1971.3205566406</ele>
        <time>2011-06-11T11:51:38Z</time>
      </trkpt>
      <trkpt lat="42.70745" lon="1.37204">
        <ele>1967.4753417969</ele>
        <time>2011-06-11T11:51:46Z</time>
      </trkpt>
      <trkpt lat="42.70749" lon="1.37207">
        <ele>1966.9948730469</ele>
        <time>2011-06-11T11:51:50Z</time>
      </trkpt>
      <trkpt lat="42.70755" lon="1.37213">
        <ele>1965.072265625</ele>
        <time>2011-06-11T11:51:56Z</time>
      </trkpt>
      <trkpt lat="42.70757" lon="1.37216">
        <ele>1964.1108398438</ele>
        <time>2011-06-11T11:52:00Z</time>
      </trkpt>
      <trkpt lat="42.70759" lon="1.37218">
        <ele>1963.1494140625</ele>
        <time>2011-06-11T11:52:02Z</time>
      </trkpt>
      <trkpt lat="42.70762" lon="1.37223">
        <ele>1961.2268066406</ele>
        <time>2011-06-11T11:52:07Z</time>
      </trkpt>
      <trkpt lat="42.70765" lon="1.37228">
        <ele>1959.3041992188</ele>
        <time>2011-06-11T11:52:12Z</time>
      </trkpt>
      <trkpt lat="42.70768" lon="1.37236">
        <ele>1955.939453125</ele>
        <time>2011-06-11T11:52:18Z</time>
      </trkpt>
      <trkpt lat="42.7077" lon="1.37239">
        <ele>1954.9782714844</ele>
        <time>2011-06-11T11:52:22Z</time>
      </trkpt>
      <trkpt lat="42.70774" lon="1.37241">
        <ele>1953.0556640625</ele>
        <time>2011-06-11T11:52:27Z</time>
      </trkpt>
      <trkpt lat="42.70777" lon="1.37245">
        <ele>1950.65234375</ele>
        <time>2011-06-11T11:52:32Z</time>
      </trkpt>
      <trkpt lat="42.70779" lon="1.37248">
        <ele>1949.2104492188</ele>
        <time>2011-06-11T11:52:36Z</time>
      </trkpt>
      <trkpt lat="42.70782" lon="1.37252">
        <ele>1948.2490234375</ele>
        <time>2011-06-11T11:52:39Z</time>
      </trkpt>
      <trkpt lat="42.70784" lon="1.37253">
        <ele>1947.2875976562</ele>
        <time>2011-06-11T11:52:41Z</time>
      </trkpt>
      <trkpt lat="42.70787" lon="1.37252">
        <ele>1946.8068847656</ele>
        <time>2011-06-11T11:52:44Z</time>
      </trkpt>
      <trkpt lat="42.7079" lon="1.37257">
        <ele>1945.3649902344</ele>
        <time>2011-06-11T11:52:49Z</time>
      </trkpt>
      <trkpt lat="42.70792" lon="1.37261">
        <ele>1944.4035644531</ele>
        <time>2011-06-11T11:52:52Z</time>
      </trkpt>
      <trkpt lat="42.70796" lon="1.37266">
        <ele>1942.4812011719</ele>
        <time>2011-06-11T11:52:57Z</time>
      </trkpt>
      <trkpt lat="42.70799" lon="1.37272">
        <ele>1940.5583496094</ele>
        <time>2011-06-11T11:53:02Z</time>
      </trkpt>
      <trkpt lat="42.70802" lon="1.37274">
        <ele>1940.0778808594</ele>
        <time>2011-06-11T11:53:06Z</time>
      </trkpt>
      <trkpt lat="42.70803" lon="1.37278">
        <ele>1939.5971679688</ele>
        <time>2011-06-11T11:53:10Z</time>
      </trkpt>
      <trkpt lat="42.70807" lon="1.37283">
        <ele>1938.1552734375</ele>
        <time>2011-06-11T11:53:15Z</time>
      </trkpt>
      <trkpt lat="42.70811" lon="1.37289">
        <ele>1937.6745605469</ele>
        <time>2011-06-11T11:53:21Z</time>
      </trkpt>
      <trkpt lat="42.70815" lon="1.37295">
        <ele>1936.2326660156</ele>
        <time>2011-06-11T11:53:27Z</time>
      </trkpt>
      <trkpt lat="42.70817" lon="1.37299">
        <ele>1934.7907714844</ele>
        <time>2011-06-11T11:53:31Z</time>
      </trkpt>
      <trkpt lat="42.70819" lon="1.37303">
        <ele>1934.3100585938</ele>
        <time>2011-06-11T11:53:35Z</time>
      </trkpt>
      <trkpt lat="42.70823" lon="1.37308">
        <ele>1932.8679199219</ele>
        <time>2011-06-11T11:53:40Z</time>
      </trkpt>
      <trkpt lat="42.70825" lon="1.3731">
        <ele>1932.3874511719</ele>
        <time>2011-06-11T11:53:44Z</time>
      </trkpt>
      <trkpt lat="42.70828" lon="1.37314">
        <ele>1931.42578125</ele>
        <time>2011-06-11T11:53:50Z</time>
      </trkpt>
      <trkpt lat="42.7083" lon="1.37318">
        <ele>1930.4645996094</ele>
        <time>2011-06-11T11:53:54Z</time>
      </trkpt>
      <trkpt lat="42.70833" lon="1.37323">
        <ele>1929.5031738281</ele>
        <time>2011-06-11T11:53:58Z</time>
      </trkpt>
      <trkpt lat="42.70834" lon="1.37324">
        <ele>1929.0224609375</ele>
        <time>2011-06-11T11:53:59Z</time>
      </trkpt>
      <trkpt lat="42.70837" lon="1.37328">
        <ele>1928.0612792969</ele>
        <time>2011-06-11T11:54:05Z</time>
      </trkpt>
      <trkpt lat="42.70839" lon="1.37333">
        <ele>1926.6193847656</ele>
        <time>2011-06-11T11:54:09Z</time>
      </trkpt>
      <trkpt lat="42.7084" lon="1.37337">
        <ele>1925.6579589844</ele>
        <time>2011-06-11T11:54:13Z</time>
      </trkpt>
      <trkpt lat="42.70841" lon="1.3734">
        <ele>1925.6579589844</ele>
        <time>2011-06-11T11:54:18Z</time>
      </trkpt>
      <trkpt lat="42.70845" lon="1.37342">
        <ele>1924.6967773438</ele>
        <time>2011-06-11T11:54:23Z</time>
      </trkpt>
      <trkpt lat="42.70845" lon="1.37348">
        <ele>1923.7353515625</ele>
        <time>2011-06-11T11:54:27Z</time>
      </trkpt>
      <trkpt lat="42.70847" lon="1.37352">
        <ele>1923.2548828125</ele>
        <time>2011-06-11T11:54:32Z</time>
      </trkpt>
      <trkpt lat="42.70849" lon="1.37357">
        <ele>1922.2934570312</ele>
        <time>2011-06-11T11:54:37Z</time>
      </trkpt>
      <trkpt lat="42.70852" lon="1.37359">
        <ele>1921.8127441406</ele>
        <time>2011-06-11T11:54:41Z</time>
      </trkpt>
      <trkpt lat="42.70853" lon="1.37367">
        <ele>1920.8515625</ele>
        <time>2011-06-11T11:54:47Z</time>
      </trkpt>
      <trkpt lat="42.70855" lon="1.3737">
        <ele>1920.3708496094</ele>
        <time>2011-06-11T11:54:49Z</time>
      </trkpt>
      <trkpt lat="42.70855" lon="1.37373">
        <ele>1920.3708496094</ele>
        <time>2011-06-11T11:54:51Z</time>
      </trkpt>
      <trkpt lat="42.70855" lon="1.37379">
        <ele>1918.4482421875</ele>
        <time>2011-06-11T11:54:56Z</time>
      </trkpt>
      <trkpt lat="42.70856" lon="1.37385">
        <ele>1917.4868164062</ele>
        <time>2011-06-11T11:55:01Z</time>
      </trkpt>
      <trkpt lat="42.70858" lon="1.37389">
        <ele>1916.5256347656</ele>
        <time>2011-06-11T11:55:05Z</time>
      </trkpt>
      <trkpt lat="42.70857" lon="1.37393">
        <ele>1916.5256347656</ele>
        <time>2011-06-11T11:55:07Z</time>
      </trkpt>
      <trkpt lat="42.70857" lon="1.37402">
        <ele>1916.5256347656</ele>
        <time>2011-06-11T11:55:12Z</time>
      </trkpt>
      <trkpt lat="42.70858" lon="1.37407">
        <ele>1916.5256347656</ele>
        <time>2011-06-11T11:55:16Z</time>
      </trkpt>
      <trkpt lat="42.70861" lon="1.37412">
        <ele>1916.044921875</ele>
        <time>2011-06-11T11:55:20Z</time>
      </trkpt>
      <trkpt lat="42.70861" lon="1.37413">
        <ele>1915.5642089844</ele>
        <time>2011-06-11T11:55:21Z</time>
      </trkpt>
      <trkpt lat="42.70866" lon="1.37418">
        <ele>1914.6027832031</ele>
        <time>2011-06-11T11:55:26Z</time>
      </trkpt>
      <trkpt lat="42.70867" lon="1.37419">
        <ele>1914.6027832031</ele>
        <time>2011-06-11T11:55:27Z</time>
      </trkpt>
      <trkpt lat="42.70868" lon="1.37422">
        <ele>1914.1220703125</ele>
        <time>2011-06-11T11:55:29Z</time>
      </trkpt>
      <trkpt lat="42.70868" lon="1.3743">
        <ele>1914.1220703125</ele>
        <time>2011-06-11T11:55:34Z</time>
      </trkpt>
      <trkpt lat="42.7087" lon="1.37439">
        <ele>1912.6801757812</ele>
        <time>2011-06-11T11:55:39Z</time>
      </trkpt>
      <trkpt lat="42.70876" lon="1.37447">
        <ele>1911.23828125</ele>
        <time>2011-06-11T11:55:43Z</time>
      </trkpt>
      <trkpt lat="42.70878" lon="1.37452">
        <ele>1910.2768554688</ele>
        <time>2011-06-11T11:55:46Z</time>
      </trkpt>
      <trkpt lat="42.70882" lon="1.37466">
        <ele>1909.3156738281</ele>
        <time>2011-06-11T11:55:54Z</time>
      </trkpt>
      <trkpt lat="42.70884" lon="1.37472">
        <ele>1909.7961425781</ele>
        <time>2011-06-11T11:55:58Z</time>
      </trkpt>
      <trkpt lat="42.70884" lon="1.37481">
        <ele>1908.3542480469</ele>
        <time>2011-06-11T11:56:03Z</time>
      </trkpt>
      <trkpt lat="42.7089" lon="1.37492">
        <ele>1907.3930664062</ele>
        <time>2011-06-11T11:56:08Z</time>
      </trkpt>
      <trkpt lat="42.70896" lon="1.37503">
        <ele>1906.431640625</ele>
        <time>2011-06-11T11:56:12Z</time>
      </trkpt>
      <trkpt lat="42.70902" lon="1.37512">
        <ele>1904.9897460938</ele>
        <time>2011-06-11T11:56:17Z</time>
      </trkpt>
      <trkpt lat="42.70903" lon="1.37513">
        <ele>1904.9897460938</ele>
        <time>2011-06-11T11:56:18Z</time>
      </trkpt>
      <trkpt lat="42.70903" lon="1.37521">
        <ele>1904.5090332031</ele>
        <time>2011-06-11T11:56:23Z</time>
      </trkpt>
      <trkpt lat="42.70903" lon="1.37524">
        <ele>1904.5090332031</ele>
        <time>2011-06-11T11:56:25Z</time>
      </trkpt>
      <trkpt lat="42.70907" lon="1.37532">
        <ele>1904.9897460938</ele>
        <time>2011-06-11T11:56:32Z</time>
      </trkpt>
      <trkpt lat="42.70908" lon="1.37539">
        <ele>1906.431640625</ele>
        <time>2011-06-11T11:56:37Z</time>
      </trkpt>
      <trkpt lat="42.7091" lon="1.37545">
        <ele>1906.431640625</ele>
        <time>2011-06-11T11:56:43Z</time>
      </trkpt>
      <trkpt lat="42.70911" lon="1.3755">
        <ele>1905.9509277344</ele>
        <time>2011-06-11T11:56:49Z</time>
      </trkpt>
      <trkpt lat="42.70913" lon="1.37556">
        <ele>1905.9509277344</ele>
        <time>2011-06-11T11:56:55Z</time>
      </trkpt>
      <trkpt lat="42.70913" lon="1.37561">
        <ele>1906.9123535156</ele>
        <time>2011-06-11T11:56:59Z</time>
      </trkpt>
      <trkpt lat="42.70918" lon="1.37566">
        <ele>1907.3930664062</ele>
        <time>2011-06-11T11:57:05Z</time>
      </trkpt>
      <trkpt lat="42.70927" lon="1.37573">
        <ele>1906.9123535156</ele>
        <time>2011-06-11T11:57:10Z</time>
      </trkpt>
      <trkpt lat="42.70929" lon="1.37574">
        <ele>1906.431640625</ele>
        <time>2011-06-11T11:57:12Z</time>
      </trkpt>
      <trkpt lat="42.70937" lon="1.37589">
        <ele>1904.5090332031</ele>
        <time>2011-06-11T11:57:18Z</time>
      </trkpt>
      <trkpt lat="42.70945" lon="1.376">
        <ele>1903.0671386719</ele>
        <time>2011-06-11T11:57:23Z</time>
      </trkpt>
      <trkpt lat="42.70947" lon="1.37605">
        <ele>1901.6252441406</ele>
        <time>2011-06-11T11:57:27Z</time>
      </trkpt>
      <trkpt lat="42.70947" lon="1.37607">
        <ele>1901.6252441406</ele>
        <time>2011-06-11T11:57:29Z</time>
      </trkpt>
      <trkpt lat="42.70948" lon="1.37616">
        <ele>1901.6252441406</ele>
        <time>2011-06-11T11:57:36Z</time>
      </trkpt>
      <trkpt lat="42.70955" lon="1.37625">
        <ele>1900.6638183594</ele>
        <time>2011-06-11T11:57:41Z</time>
      </trkpt>
      <trkpt lat="42.70956" lon="1.37626">
        <ele>1900.1833496094</ele>
        <time>2011-06-11T11:57:42Z</time>
      </trkpt>
      <trkpt lat="42.70957" lon="1.37629">
        <ele>1900.6638183594</ele>
        <time>2011-06-11T11:57:44Z</time>
      </trkpt>
      <trkpt lat="42.70958" lon="1.37636">
        <ele>1902.1057128906</ele>
        <time>2011-06-11T11:57:49Z</time>
      </trkpt>
      <trkpt lat="42.70959" lon="1.37643">
        <ele>1903.0671386719</ele>
        <time>2011-06-11T11:57:53Z</time>
      </trkpt>
      <trkpt lat="42.70958" lon="1.37647">
        <ele>1904.0285644531</ele>
        <time>2011-06-11T11:57:56Z</time>
      </trkpt>
      <trkpt lat="42.70959" lon="1.37653">
        <ele>1904.9897460938</ele>
        <time>2011-06-11T11:58:02Z</time>
      </trkpt>
      <trkpt lat="42.7096" lon="1.37661">
        <ele>1904.9897460938</ele>
        <time>2011-06-11T11:58:09Z</time>
      </trkpt>
      <trkpt lat="42.70959" lon="1.37665">
        <ele>1904.9897460938</ele>
        <time>2011-06-11T11:58:13Z</time>
      </trkpt>
      <trkpt lat="42.70959" lon="1.37668">
        <ele>1905.9509277344</ele>
        <time>2011-06-11T11:58:17Z</time>
      </trkpt>
      <trkpt lat="42.70961" lon="1.37674">
        <ele>1906.431640625</ele>
        <time>2011-06-11T11:58:22Z</time>
      </trkpt>
      <trkpt lat="42.70962" lon="1.37679">
        <ele>1907.8737792969</ele>
        <time>2011-06-11T11:58:26Z</time>
      </trkpt>
      <trkpt lat="42.70963" lon="1.37684">
        <ele>1908.3542480469</ele>
        <time>2011-06-11T11:58:31Z</time>
      </trkpt>
      <trkpt lat="42.70964" lon="1.37689">
        <ele>1908.3542480469</ele>
        <time>2011-06-11T11:58:35Z</time>
      </trkpt>
      <trkpt lat="42.70964" lon="1.37694">
        <ele>1908.3542480469</ele>
        <time>2011-06-11T11:58:40Z</time>
      </trkpt>
      <trkpt lat="42.70966" lon="1.37698">
        <ele>1907.3930664062</ele>
        <time>2011-06-11T11:58:45Z</time>
      </trkpt>
      <trkpt lat="42.7097" lon="1.37701">
        <ele>1907.3930664062</ele>
        <time>2011-06-11T11:58:49Z</time>
      </trkpt>
      <trkpt lat="42.70972" lon="1.37705">
        <ele>1907.8737792969</ele>
        <time>2011-06-11T11:58:53Z</time>
      </trkpt>
      <trkpt lat="42.70974" lon="1.37709">
        <ele>1906.9123535156</ele>
        <time>2011-06-11T11:58:58Z</time>
      </trkpt>
      <trkpt lat="42.70975" lon="1.37713">
        <ele>1905.9509277344</ele>
        <time>2011-06-11T11:59:02Z</time>
      </trkpt>
      <trkpt lat="42.70977" lon="1.37716">
        <ele>1904.9897460938</ele>
        <time>2011-06-11T11:59:09Z</time>
      </trkpt>
      <trkpt lat="42.70979" lon="1.3772">
        <ele>1904.0285644531</ele>
        <time>2011-06-11T11:59:15Z</time>
      </trkpt>
      <trkpt lat="42.70982" lon="1.37723">
        <ele>1902.5864257812</ele>
        <time>2011-06-11T11:59:21Z</time>
      </trkpt>
      <trkpt lat="42.70984" lon="1.37727">
        <ele>1902.1057128906</ele>
        <time>2011-06-11T11:59:26Z</time>
      </trkpt>
      <trkpt lat="42.70985" lon="1.37729">
        <ele>1902.1057128906</ele>
        <time>2011-06-11T11:59:31Z</time>
      </trkpt>
      <trkpt lat="42.70988" lon="1.37728">
        <ele>1901.14453125</ele>
        <time>2011-06-11T11:59:38Z</time>
      </trkpt>
      <trkpt lat="42.70993" lon="1.37732">
        <ele>1900.1833496094</ele>
        <time>2011-06-11T11:59:42Z</time>
      </trkpt>
      <trkpt lat="42.70995" lon="1.37736">
        <ele>1898.2602539062</ele>
        <time>2011-06-11T11:59:47Z</time>
      </trkpt>
      <trkpt lat="42.70996" lon="1.3774">
        <ele>1896.818359375</ele>
        <time>2011-06-11T11:59:52Z</time>
      </trkpt>
      <trkpt lat="42.70998" lon="1.37745">
        <ele>1895.3764648438</ele>
        <time>2011-06-11T11:59:56Z</time>
      </trkpt>
      <trkpt lat="42.70999" lon="1.37752">
        <ele>1894.8957519531</ele>
        <time>2011-06-11T11:59:59Z</time>
      </trkpt>
      <trkpt lat="42.71001" lon="1.37756">
        <ele>1894.4150390625</ele>
        <time>2011-06-11T12:00:02Z</time>
      </trkpt>
      <trkpt lat="42.71002" lon="1.37761">
        <ele>1895.3764648438</ele>
        <time>2011-06-11T12:00:08Z</time>
      </trkpt>
      <trkpt lat="42.71004" lon="1.37769">
        <ele>1895.8571777344</ele>
        <time>2011-06-11T12:00:14Z</time>
      </trkpt>
      <trkpt lat="42.71005" lon="1.37773">
        <ele>1896.337890625</ele>
        <time>2011-06-11T12:00:20Z</time>
      </trkpt>
      <trkpt lat="42.71006" lon="1.37779">
        <ele>1896.818359375</ele>
        <time>2011-06-11T12:00:26Z</time>
      </trkpt>
      <trkpt lat="42.71006" lon="1.37783">
        <ele>1896.818359375</ele>
        <time>2011-06-11T12:00:30Z</time>
      </trkpt>
      <trkpt lat="42.71006" lon="1.37789">
        <ele>1897.2990722656</ele>
        <time>2011-06-11T12:00:36Z</time>
      </trkpt>
      <trkpt lat="42.71007" lon="1.37793">
        <ele>1897.2990722656</ele>
        <time>2011-06-11T12:00:43Z</time>
      </trkpt>
      <trkpt lat="42.71007" lon="1.37796">
        <ele>1895.8571777344</ele>
        <time>2011-06-11T12:00:49Z</time>
      </trkpt>
      <trkpt lat="42.71008" lon="1.378">
        <ele>1894.8957519531</ele>
        <time>2011-06-11T12:00:54Z</time>
      </trkpt>
      <trkpt lat="42.71009" lon="1.37807">
        <ele>1895.8571777344</ele>
        <time>2011-06-11T12:01:00Z</time>
      </trkpt>
      <trkpt lat="42.71011" lon="1.3781">
        <ele>1896.337890625</ele>
        <time>2011-06-11T12:01:04Z</time>
      </trkpt>
      <trkpt lat="42.71013" lon="1.37814">
        <ele>1896.818359375</ele>
        <time>2011-06-11T12:01:10Z</time>
      </trkpt>
      <trkpt lat="42.71015" lon="1.3782">
        <ele>1896.818359375</ele>
        <time>2011-06-11T12:01:15Z</time>
      </trkpt>
      <trkpt lat="42.71019" lon="1.37826">
        <ele>1895.3764648438</ele>
        <time>2011-06-11T12:01:21Z</time>
      </trkpt>
      <trkpt lat="42.71021" lon="1.37832">
        <ele>1894.8957519531</ele>
        <time>2011-06-11T12:01:28Z</time>
      </trkpt>
      <trkpt lat="42.71021" lon="1.37838">
        <ele>1894.4150390625</ele>
        <time>2011-06-11T12:01:34Z</time>
      </trkpt>
      <trkpt lat="42.71022" lon="1.37842">
        <ele>1894.4150390625</ele>
        <time>2011-06-11T12:01:38Z</time>
      </trkpt>
      <trkpt lat="42.71023" lon="1.37845">
        <ele>1893.9345703125</ele>
        <time>2011-06-11T12:01:43Z</time>
      </trkpt>
      <trkpt lat="42.71025" lon="1.37853">
        <ele>1892.9731445312</ele>
        <time>2011-06-11T12:01:50Z</time>
      </trkpt>
      <trkpt lat="42.71028" lon="1.37859">
        <ele>1892.0119628906</ele>
        <time>2011-06-11T12:01:56Z</time>
      </trkpt>
      <trkpt lat="42.71028" lon="1.37861">
        <ele>1892.4926757812</ele>
        <time>2011-06-11T12:02:02Z</time>
      </trkpt>
      <trkpt lat="42.71029" lon="1.37864">
        <ele>1892.0119628906</ele>
        <time>2011-06-11T12:02:07Z</time>
      </trkpt>
      <trkpt lat="42.7103" lon="1.37866">
        <ele>1891.0505371094</ele>
        <time>2011-06-11T12:02:17Z</time>
      </trkpt>
      <trkpt lat="42.71031" lon="1.37868">
        <ele>1891.53125</ele>
        <time>2011-06-11T12:02:23Z</time>
      </trkpt>
      <trkpt lat="42.71032" lon="1.37871">
        <ele>1893.4538574219</ele>
        <time>2011-06-11T12:02:28Z</time>
      </trkpt>
      <trkpt lat="42.71032" lon="1.37872">
        <ele>1893.9345703125</ele>
        <time>2011-06-11T12:02:32Z</time>
      </trkpt>
      <trkpt lat="42.71033" lon="1.37872">
        <ele>1893.9345703125</ele>
        <time>2011-06-11T12:02:38Z</time>
      </trkpt>
      <trkpt lat="42.71033" lon="1.37874">
        <ele>1893.9345703125</ele>
        <time>2011-06-11T12:02:44Z</time>
      </trkpt>
      <trkpt lat="42.71034" lon="1.37875">
        <ele>1892.4926757812</ele>
        <time>2011-06-11T12:02:50Z</time>
      </trkpt>
      <trkpt lat="42.71035" lon="1.37877">
        <ele>1891.0505371094</ele>
        <time>2011-06-11T12:02:56Z</time>
      </trkpt>
      <trkpt lat="42.71036" lon="1.37879">
        <ele>1891.0505371094</ele>
        <time>2011-06-11T12:03:00Z</time>
      </trkpt>
      <trkpt lat="42.71038" lon="1.37884">
        <ele>1891.0505371094</ele>
        <time>2011-06-11T12:03:14Z</time>
      </trkpt>
      <trkpt lat="42.71039" lon="1.37886">
        <ele>1892.0119628906</ele>
        <time>2011-06-11T12:03:18Z</time>
      </trkpt>
      <trkpt lat="42.71039" lon="1.37889">
        <ele>1892.9731445312</ele>
        <time>2011-06-11T12:03:23Z</time>
      </trkpt>
      <trkpt lat="42.71037" lon="1.37892">
        <ele>1892.9731445312</ele>
        <time>2011-06-11T12:03:34Z</time>
      </trkpt>
      <trkpt lat="42.71038" lon="1.37892">
        <ele>1892.0119628906</ele>
        <time>2011-06-11T12:03:39Z</time>
      </trkpt>
      <trkpt lat="42.7104" lon="1.37894">
        <ele>1889.6086425781</ele>
        <time>2011-06-11T12:03:46Z</time>
      </trkpt>
      <trkpt lat="42.71041" lon="1.37895">
        <ele>1887.6860351562</ele>
        <time>2011-06-11T12:03:51Z</time>
      </trkpt>
      <trkpt lat="42.71041" lon="1.37897">
        <ele>1887.6860351562</ele>
        <time>2011-06-11T12:03:58Z</time>
      </trkpt>
      <trkpt lat="42.71043" lon="1.37899">
        <ele>1887.2053222656</ele>
        <time>2011-06-11T12:04:02Z</time>
      </trkpt>
      <trkpt lat="42.71044" lon="1.37901">
        <ele>1886.244140625</ele>
        <time>2011-06-11T12:04:07Z</time>
      </trkpt>
      <trkpt lat="42.71044" lon="1.37905">
        <ele>1886.244140625</ele>
        <time>2011-06-11T12:04:12Z</time>
      </trkpt>
      <trkpt lat="42.71044" lon="1.37911">
        <ele>1885.2827148438</ele>
        <time>2011-06-11T12:04:17Z</time>
      </trkpt>
      <trkpt lat="42.71046" lon="1.37914">
        <ele>1884.3215332031</ele>
        <time>2011-06-11T12:04:21Z</time>
      </trkpt>
      <trkpt lat="42.71046" lon="1.37917">
        <ele>1883.3598632812</ele>
        <time>2011-06-11T12:04:26Z</time>
      </trkpt>
      <trkpt lat="42.71049" lon="1.37919">
        <ele>1881.91796875</ele>
        <time>2011-06-11T12:04:33Z</time>
      </trkpt>
      <trkpt lat="42.71051" lon="1.37923">
        <ele>1879.9953613281</ele>
        <time>2011-06-11T12:04:38Z</time>
      </trkpt>
      <trkpt lat="42.71053" lon="1.37928">
        <ele>1879.5146484375</ele>
        <time>2011-06-11T12:04:42Z</time>
      </trkpt>
      <trkpt lat="42.71053" lon="1.37932">
        <ele>1880.4760742188</ele>
        <time>2011-06-11T12:04:47Z</time>
      </trkpt>
      <trkpt lat="42.71054" lon="1.37935">
        <ele>1879.9953613281</ele>
        <time>2011-06-11T12:04:52Z</time>
      </trkpt>
      <trkpt lat="42.71057" lon="1.37938">
        <ele>1881.4372558594</ele>
        <time>2011-06-11T12:04:57Z</time>
      </trkpt>
      <trkpt lat="42.71059" lon="1.37939">
        <ele>1881.91796875</ele>
        <time>2011-06-11T12:05:02Z</time>
      </trkpt>
      <trkpt lat="42.71062" lon="1.37941">
        <ele>1879.9953613281</ele>
        <time>2011-06-11T12:05:06Z</time>
      </trkpt>
      <trkpt lat="42.71064" lon="1.37946">
        <ele>1876.630859375</ele>
        <time>2011-06-11T12:05:10Z</time>
      </trkpt>
      <trkpt lat="42.71064" lon="1.3795">
        <ele>1874.7082519531</ele>
        <time>2011-06-11T12:05:15Z</time>
      </trkpt>
      <trkpt lat="42.71066" lon="1.37955">
        <ele>1872.3049316406</ele>
        <time>2011-06-11T12:05:19Z</time>
      </trkpt>
      <trkpt lat="42.71071" lon="1.37966">
        <ele>1868.9404296875</ele>
        <time>2011-06-11T12:05:25Z</time>
      </trkpt>
      <trkpt lat="42.71072" lon="1.37968">
        <ele>1868.4597167969</ele>
        <time>2011-06-11T12:05:26Z</time>
      </trkpt>
      <trkpt lat="42.71073" lon="1.37973">
        <ele>1866.0561523438</ele>
        <time>2011-06-11T12:05:31Z</time>
      </trkpt>
      <trkpt lat="42.71074" lon="1.37976">
        <ele>1866.5368652344</ele>
        <time>2011-06-11T12:05:33Z</time>
      </trkpt>
      <trkpt lat="42.71079" lon="1.37982">
        <ele>1867.017578125</ele>
        <time>2011-06-11T12:05:39Z</time>
      </trkpt>
      <trkpt lat="42.71082" lon="1.37985">
        <ele>1867.498046875</ele>
        <time>2011-06-11T12:05:41Z</time>
      </trkpt>
      <trkpt lat="42.71085" lon="1.37993">
        <ele>1867.017578125</ele>
        <time>2011-06-11T12:05:47Z</time>
      </trkpt>
      <trkpt lat="42.71085" lon="1.37995">
        <ele>1867.017578125</ele>
        <time>2011-06-11T12:05:49Z</time>
      </trkpt>
      <trkpt lat="42.71087" lon="1.38">
        <ele>1866.5368652344</ele>
        <time>2011-06-11T12:05:55Z</time>
      </trkpt>
      <trkpt lat="42.71089" lon="1.38003">
        <ele>1865.5756835938</ele>
        <time>2011-06-11T12:06:00Z</time>
      </trkpt>
      <trkpt lat="42.71093" lon="1.38008">
        <ele>1864.1335449219</ele>
        <time>2011-06-11T12:06:05Z</time>
      </trkpt>
      <trkpt lat="42.71096" lon="1.3801">
        <ele>1864.1335449219</ele>
        <time>2011-06-11T12:06:09Z</time>
      </trkpt>
      <trkpt lat="42.71098" lon="1.38011">
        <ele>1864.1335449219</ele>
        <time>2011-06-11T12:06:11Z</time>
      </trkpt>
      <trkpt lat="42.71098" lon="1.38016">
        <ele>1863.6528320312</ele>
        <time>2011-06-11T12:06:15Z</time>
      </trkpt>
      <trkpt lat="42.71101" lon="1.38019">
        <ele>1862.6916503906</ele>
        <time>2011-06-11T12:06:19Z</time>
      </trkpt>
      <trkpt lat="42.71103" lon="1.38022">
        <ele>1862.6916503906</ele>
        <time>2011-06-11T12:06:22Z</time>
      </trkpt>
      <trkpt lat="42.71106" lon="1.38028">
        <ele>1861.73046875</ele>
        <time>2011-06-11T12:06:28Z</time>
      </trkpt>
      <trkpt lat="42.71109" lon="1.3803">
        <ele>1860.2883300781</ele>
        <time>2011-06-11T12:06:32Z</time>
      </trkpt>
      <trkpt lat="42.71109" lon="1.38035">
        <ele>1860.2883300781</ele>
        <time>2011-06-11T12:06:36Z</time>
      </trkpt>
      <trkpt lat="42.7111" lon="1.38039">
        <ele>1859.8076171875</ele>
        <time>2011-06-11T12:06:43Z</time>
      </trkpt>
      <trkpt lat="42.71112" lon="1.38043">
        <ele>1858.8464355469</ele>
        <time>2011-06-11T12:06:48Z</time>
      </trkpt>
      <trkpt lat="42.71113" lon="1.38046">
        <ele>1857.4045410156</ele>
        <time>2011-06-11T12:06:52Z</time>
      </trkpt>
      <trkpt lat="42.71114" lon="1.38049">
        <ele>1856.4431152344</ele>
        <time>2011-06-11T12:06:57Z</time>
      </trkpt>
      <trkpt lat="42.71117" lon="1.38051">
        <ele>1855.0012207031</ele>
        <time>2011-06-11T12:07:03Z</time>
      </trkpt>
      <trkpt lat="42.71121" lon="1.38059">
        <ele>1853.5593261719</ele>
        <time>2011-06-11T12:07:09Z</time>
      </trkpt>
      <trkpt lat="42.71121" lon="1.38062">
        <ele>1853.5593261719</ele>
        <time>2011-06-11T12:07:11Z</time>
      </trkpt>
      <trkpt lat="42.7112" lon="1.38064">
        <ele>1854.0400390625</ele>
        <time>2011-06-11T12:07:13Z</time>
      </trkpt>
      <trkpt lat="42.71119" lon="1.3807">
        <ele>1853.0786132812</ele>
        <time>2011-06-11T12:07:18Z</time>
      </trkpt>
      <trkpt lat="42.7112" lon="1.38077">
        <ele>1853.0786132812</ele>
        <time>2011-06-11T12:07:24Z</time>
      </trkpt>
      <trkpt lat="42.71118" lon="1.38081">
        <ele>1852.5979003906</ele>
        <time>2011-06-11T12:07:29Z</time>
      </trkpt>
      <trkpt lat="42.71119" lon="1.38083">
        <ele>1851.6364746094</ele>
        <time>2011-06-11T12:07:34Z</time>
      </trkpt>
      <trkpt lat="42.7112" lon="1.38086">
        <ele>1851.1557617188</ele>
        <time>2011-06-11T12:07:38Z</time>
      </trkpt>
      <trkpt lat="42.71123" lon="1.38087">
        <ele>1849.7138671875</ele>
        <time>2011-06-11T12:07:43Z</time>
      </trkpt>
      <trkpt lat="42.71124" lon="1.38094">
        <ele>1848.7524414062</ele>
        <time>2011-06-11T12:07:48Z</time>
      </trkpt>
      <trkpt lat="42.71124" lon="1.38098">
        <ele>1847.7912597656</ele>
        <time>2011-06-11T12:07:54Z</time>
      </trkpt>
      <trkpt lat="42.71126" lon="1.38103">
        <ele>1846.3493652344</ele>
        <time>2011-06-11T12:08:00Z</time>
      </trkpt>
      <trkpt lat="42.71127" lon="1.38105">
        <ele>1845.8686523438</ele>
        <time>2011-06-11T12:08:03Z</time>
      </trkpt>
      <trkpt lat="42.7113" lon="1.38106">
        <ele>1844.4265136719</ele>
        <time>2011-06-11T12:08:09Z</time>
      </trkpt>
      <trkpt lat="42.71133" lon="1.38108">
        <ele>1842.9846191406</ele>
        <time>2011-06-11T12:08:16Z</time>
      </trkpt>
      <trkpt lat="42.71135" lon="1.3811">
        <ele>1841.0620117188</ele>
        <time>2011-06-11T12:08:20Z</time>
      </trkpt>
      <trkpt lat="42.71138" lon="1.38115">
        <ele>1838.6589355469</ele>
        <time>2011-06-11T12:08:24Z</time>
      </trkpt>
      <trkpt lat="42.71139" lon="1.38125">
        <ele>1836.7360839844</ele>
        <time>2011-06-11T12:08:28Z</time>
      </trkpt>
      <trkpt lat="42.7114" lon="1.38128">
        <ele>1836.2556152344</ele>
        <time>2011-06-11T12:08:29Z</time>
      </trkpt>
      <trkpt lat="42.71145" lon="1.38137">
        <ele>1835.2939453125</ele>
        <time>2011-06-11T12:08:33Z</time>
      </trkpt>
      <trkpt lat="42.71148" lon="1.38147">
        <ele>1834.8134765625</ele>
        <time>2011-06-11T12:08:39Z</time>
      </trkpt>
      <trkpt lat="42.71152" lon="1.38157">
        <ele>1833.8520507812</ele>
        <time>2011-06-11T12:08:47Z</time>
      </trkpt>
      <trkpt lat="42.71158" lon="1.38165">
        <ele>1830.9682617188</ele>
        <time>2011-06-11T12:08:53Z</time>
      </trkpt>
      <trkpt lat="42.71162" lon="1.3817">
        <ele>1829.0454101562</ele>
        <time>2011-06-11T12:08:57Z</time>
      </trkpt>
      <trkpt lat="42.71163" lon="1.38171">
        <ele>1829.0454101562</ele>
        <time>2011-06-11T12:08:58Z</time>
      </trkpt>
      <trkpt lat="42.71165" lon="1.38172">
        <ele>1828.0842285156</ele>
        <time>2011-06-11T12:09:00Z</time>
      </trkpt>
      <trkpt lat="42.71167" lon="1.38178">
        <ele>1826.1616210938</ele>
        <time>2011-06-11T12:09:04Z</time>
      </trkpt>
      <trkpt lat="42.71168" lon="1.3818">
        <ele>1825.6809082031</ele>
        <time>2011-06-11T12:09:06Z</time>
      </trkpt>
      <trkpt lat="42.71166" lon="1.38183">
        <ele>1824.2390136719</ele>
        <time>2011-06-11T12:09:12Z</time>
      </trkpt>
      <trkpt lat="42.71167" lon="1.38187">
        <ele>1823.2778320312</ele>
        <time>2011-06-11T12:09:18Z</time>
      </trkpt>
      <trkpt lat="42.71172" lon="1.38191">
        <ele>1821.8356933594</ele>
        <time>2011-06-11T12:09:23Z</time>
      </trkpt>
      <trkpt lat="42.71174" lon="1.38194">
        <ele>1820.3937988281</ele>
        <time>2011-06-11T12:09:27Z</time>
      </trkpt>
      <trkpt lat="42.71177" lon="1.38202">
        <ele>1817.0290527344</ele>
        <time>2011-06-11T12:09:33Z</time>
      </trkpt>
      <trkpt lat="42.71178" lon="1.38206">
        <ele>1815.5871582031</ele>
        <time>2011-06-11T12:09:37Z</time>
      </trkpt>
      <trkpt lat="42.71179" lon="1.38212">
        <ele>1813.6643066406</ele>
        <time>2011-06-11T12:09:41Z</time>
      </trkpt>
      <trkpt lat="42.7118" lon="1.38215">
        <ele>1812.703125</ele>
        <time>2011-06-11T12:09:45Z</time>
      </trkpt>
      <trkpt lat="42.71181" lon="1.38219">
        <ele>1812.2224121094</ele>
        <time>2011-06-11T12:09:50Z</time>
      </trkpt>
      <trkpt lat="42.7118" lon="1.38229">
        <ele>1809.3386230469</ele>
        <time>2011-06-11T12:09:56Z</time>
      </trkpt>
      <trkpt lat="42.7118" lon="1.38233">
        <ele>1807.8967285156</ele>
        <time>2011-06-11T12:10:00Z</time>
      </trkpt>
      <trkpt lat="42.71179" lon="1.38238">
        <ele>1806.9353027344</ele>
        <time>2011-06-11T12:10:05Z</time>
      </trkpt>
      <trkpt lat="42.71181" lon="1.38244">
        <ele>1805.4934082031</ele>
        <time>2011-06-11T12:10:10Z</time>
      </trkpt>
      <trkpt lat="42.71181" lon="1.38247">
        <ele>1804.0515136719</ele>
        <time>2011-06-11T12:10:14Z</time>
      </trkpt>
      <trkpt lat="42.71183" lon="1.38255">
        <ele>1804.0515136719</ele>
        <time>2011-06-11T12:10:19Z</time>
      </trkpt>
      <trkpt lat="42.71184" lon="1.38262">
        <ele>1803.08984375</ele>
        <time>2011-06-11T12:10:24Z</time>
      </trkpt>
      <trkpt lat="42.71185" lon="1.38272">
        <ele>1803.5705566406</ele>
        <time>2011-06-11T12:10:31Z</time>
      </trkpt>
      <trkpt lat="42.71186" lon="1.38278">
        <ele>1803.08984375</ele>
        <time>2011-06-11T12:10:37Z</time>
      </trkpt>
      <trkpt lat="42.7119" lon="1.38284">
        <ele>1802.1284179688</ele>
        <time>2011-06-11T12:10:43Z</time>
      </trkpt>
      <trkpt lat="42.71191" lon="1.3829">
        <ele>1801.6479492188</ele>
        <time>2011-06-11T12:10:47Z</time>
      </trkpt>
      <trkpt lat="42.71189" lon="1.38298">
        <ele>1801.6479492188</ele>
        <time>2011-06-11T12:10:54Z</time>
      </trkpt>
      <trkpt lat="42.71189" lon="1.38301">
        <ele>1800.6865234375</ele>
        <time>2011-06-11T12:10:56Z</time>
      </trkpt>
      <trkpt lat="42.71189" lon="1.3831">
        <ele>1801.6479492188</ele>
        <time>2011-06-11T12:11:02Z</time>
      </trkpt>
      <trkpt lat="42.7119" lon="1.38315">
        <ele>1802.1284179688</ele>
        <time>2011-06-11T12:11:07Z</time>
      </trkpt>
      <trkpt lat="42.71191" lon="1.38317">
        <ele>1802.6091308594</ele>
        <time>2011-06-11T12:11:08Z</time>
      </trkpt>
      <trkpt lat="42.71194" lon="1.3833">
        <ele>1803.08984375</ele>
        <time>2011-06-11T12:11:17Z</time>
      </trkpt>
      <trkpt lat="42.71196" lon="1.38336">
        <ele>1802.1284179688</ele>
        <time>2011-06-11T12:11:23Z</time>
      </trkpt>
      <trkpt lat="42.712" lon="1.3834">
        <ele>1800.6865234375</ele>
        <time>2011-06-11T12:11:29Z</time>
      </trkpt>
      <trkpt lat="42.71202" lon="1.38345">
        <ele>1800.2060546875</ele>
        <time>2011-06-11T12:11:34Z</time>
      </trkpt>
      <trkpt lat="42.71201" lon="1.38354">
        <ele>1800.6865234375</ele>
        <time>2011-06-11T12:11:40Z</time>
      </trkpt>
      <trkpt lat="42.71201" lon="1.38356">
        <ele>1800.6865234375</ele>
        <time>2011-06-11T12:11:41Z</time>
      </trkpt>
      <trkpt lat="42.71201" lon="1.38362">
        <ele>1800.6865234375</ele>
        <time>2011-06-11T12:11:47Z</time>
      </trkpt>
      <trkpt lat="42.712" lon="1.38369">
        <ele>1800.2060546875</ele>
        <time>2011-06-11T12:11:53Z</time>
      </trkpt>
      <trkpt lat="42.71203" lon="1.38374">
        <ele>1799.7253417969</ele>
        <time>2011-06-11T12:11:58Z</time>
      </trkpt>
      <trkpt lat="42.712" lon="1.38377">
        <ele>1799.2446289062</ele>
        <time>2011-06-11T12:12:03Z</time>
      </trkpt>
      <trkpt lat="42.71198" lon="1.38379">
        <ele>1798.283203125</ele>
        <time>2011-06-11T12:12:07Z</time>
      </trkpt>
      <trkpt lat="42.71198" lon="1.38383">
        <ele>1798.283203125</ele>
        <time>2011-06-11T12:12:11Z</time>
      </trkpt>
      <trkpt lat="42.71199" lon="1.38388">
        <ele>1797.3220214844</ele>
        <time>2011-06-11T12:12:16Z</time>
      </trkpt>
      <trkpt lat="42.71199" lon="1.38393">
        <ele>1797.3220214844</ele>
        <time>2011-06-11T12:12:21Z</time>
      </trkpt>
      <trkpt lat="42.71202" lon="1.38399">
        <ele>1797.3220214844</ele>
        <time>2011-06-11T12:12:26Z</time>
      </trkpt>
      <trkpt lat="42.71203" lon="1.38404">
        <ele>1796.8413085938</ele>
        <time>2011-06-11T12:12:32Z</time>
      </trkpt>
      <trkpt lat="42.71206" lon="1.38412">
        <ele>1795.8801269531</ele>
        <time>2011-06-11T12:12:38Z</time>
      </trkpt>
      <trkpt lat="42.71206" lon="1.38415">
        <ele>1794.9187011719</ele>
        <time>2011-06-11T12:12:40Z</time>
      </trkpt>
      <trkpt lat="42.71207" lon="1.3842">
        <ele>1794.4379882812</ele>
        <time>2011-06-11T12:12:44Z</time>
      </trkpt>
      <trkpt lat="42.71209" lon="1.38429">
        <ele>1793.4768066406</ele>
        <time>2011-06-11T12:12:51Z</time>
      </trkpt>
      <trkpt lat="42.71212" lon="1.38437">
        <ele>1793.4768066406</ele>
        <time>2011-06-11T12:12:56Z</time>
      </trkpt>
      <trkpt lat="42.71213" lon="1.38441">
        <ele>1793.4768066406</ele>
        <time>2011-06-11T12:12:59Z</time>
      </trkpt>
      <trkpt lat="42.71215" lon="1.38449">
        <ele>1792.515625</ele>
        <time>2011-06-11T12:13:05Z</time>
      </trkpt>
      <trkpt lat="42.71215" lon="1.38451">
        <ele>1792.0349121094</ele>
        <time>2011-06-11T12:13:06Z</time>
      </trkpt>
      <trkpt lat="42.71218" lon="1.38455">
        <ele>1791.0734863281</ele>
        <time>2011-06-11T12:13:10Z</time>
      </trkpt>
      <trkpt lat="42.71218" lon="1.38457">
        <ele>1790.5927734375</ele>
        <time>2011-06-11T12:13:12Z</time>
      </trkpt>
      <trkpt lat="42.71218" lon="1.38467">
        <ele>1787.7087402344</ele>
        <time>2011-06-11T12:13:19Z</time>
      </trkpt>
      <trkpt lat="42.7122" lon="1.38477">
        <ele>1786.2668457031</ele>
        <time>2011-06-11T12:13:25Z</time>
      </trkpt>
      <trkpt lat="42.7122" lon="1.38479">
        <ele>1785.7861328125</ele>
        <time>2011-06-11T12:13:26Z</time>
      </trkpt>
      <trkpt lat="42.71223" lon="1.38487">
        <ele>1784.8249511719</ele>
        <time>2011-06-11T12:13:31Z</time>
      </trkpt>
      <trkpt lat="42.71227" lon="1.38495">
        <ele>1784.3442382812</ele>
        <time>2011-06-11T12:13:37Z</time>
      </trkpt>
      <trkpt lat="42.71231" lon="1.385">
        <ele>1784.3442382812</ele>
        <time>2011-06-11T12:13:41Z</time>
      </trkpt>
      <trkpt lat="42.71233" lon="1.38506">
        <ele>1783.8635253906</ele>
        <time>2011-06-11T12:13:45Z</time>
      </trkpt>
      <trkpt lat="42.71237" lon="1.38513">
        <ele>1782.4216308594</ele>
        <time>2011-06-11T12:13:51Z</time>
      </trkpt>
      <trkpt lat="42.71241" lon="1.38524">
        <ele>1781.4602050781</ele>
        <time>2011-06-11T12:13:58Z</time>
      </trkpt>
      <trkpt lat="42.71248" lon="1.3853">
        <ele>1781.4602050781</ele>
        <time>2011-06-11T12:14:04Z</time>
      </trkpt>
      <trkpt lat="42.7125" lon="1.38533">
        <ele>1780.4990234375</ele>
        <time>2011-06-11T12:14:06Z</time>
      </trkpt>
      <trkpt lat="42.71251" lon="1.38541">
        <ele>1779.5375976562</ele>
        <time>2011-06-11T12:14:11Z</time>
      </trkpt>
      <trkpt lat="42.71256" lon="1.38546">
        <ele>1778.095703125</ele>
        <time>2011-06-11T12:14:17Z</time>
      </trkpt>
      <trkpt lat="42.71259" lon="1.38554">
        <ele>1776.6538085938</ele>
        <time>2011-06-11T12:14:22Z</time>
      </trkpt>
      <trkpt lat="42.71262" lon="1.38554">
        <ele>1775.6923828125</ele>
        <time>2011-06-11T12:14:24Z</time>
      </trkpt>
      <trkpt lat="42.71266" lon="1.38562">
        <ele>1773.2893066406</ele>
        <time>2011-06-11T12:14:30Z</time>
      </trkpt>
      <trkpt lat="42.71268" lon="1.38567">
        <ele>1772.80859375</ele>
        <time>2011-06-11T12:14:33Z</time>
      </trkpt>
      <trkpt lat="42.71268" lon="1.38571">
        <ele>1772.3278808594</ele>
        <time>2011-06-11T12:14:35Z</time>
      </trkpt>
      <trkpt lat="42.71269" lon="1.38575">
        <ele>1772.3278808594</ele>
        <time>2011-06-11T12:14:38Z</time>
      </trkpt>
      <trkpt lat="42.71272" lon="1.38579">
        <ele>1772.80859375</ele>
        <time>2011-06-11T12:14:41Z</time>
      </trkpt>
      <trkpt lat="42.71275" lon="1.38587">
        <ele>1771.3662109375</ele>
        <time>2011-06-11T12:14:46Z</time>
      </trkpt>
      <trkpt lat="42.71277" lon="1.38591">
        <ele>1770.4050292969</ele>
        <time>2011-06-11T12:14:49Z</time>
      </trkpt>
      <trkpt lat="42.71278" lon="1.38596">
        <ele>1768.9631347656</ele>
        <time>2011-06-11T12:14:53Z</time>
      </trkpt>
      <trkpt lat="42.71278" lon="1.38602">
        <ele>1768.9631347656</ele>
        <time>2011-06-11T12:15:01Z</time>
      </trkpt>
      <trkpt lat="42.71279" lon="1.38607">
        <ele>1768.482421875</ele>
        <time>2011-06-11T12:15:07Z</time>
      </trkpt>
      <trkpt lat="42.71281" lon="1.3861">
        <ele>1767.0405273438</ele>
        <time>2011-06-11T12:15:13Z</time>
      </trkpt>
      <trkpt lat="42.71284" lon="1.38618">
        <ele>1765.5986328125</ele>
        <time>2011-06-11T12:15:17Z</time>
      </trkpt>
      <trkpt lat="42.71285" lon="1.38632">
        <ele>1763.1953125</ele>
        <time>2011-06-11T12:15:22Z</time>
      </trkpt>
      <trkpt lat="42.71287" lon="1.38642">
        <ele>1762.2338867188</ele>
        <time>2011-06-11T12:15:26Z</time>
      </trkpt>
      <trkpt lat="42.71295" lon="1.38649">
        <ele>1760.3112792969</ele>
        <time>2011-06-11T12:15:32Z</time>
      </trkpt>
      <trkpt lat="42.71299" lon="1.38655">
        <ele>1758.8693847656</ele>
        <time>2011-06-11T12:15:36Z</time>
      </trkpt>
      <trkpt lat="42.71301" lon="1.38658">
        <ele>1757.908203125</ele>
        <time>2011-06-11T12:15:38Z</time>
      </trkpt>
      <trkpt lat="42.71303" lon="1.3866">
        <ele>1756.4660644531</ele>
        <time>2011-06-11T12:15:40Z</time>
      </trkpt>
      <trkpt lat="42.71311" lon="1.38664">
        <ele>1753.1013183594</ele>
        <time>2011-06-11T12:15:46Z</time>
      </trkpt>
      <trkpt lat="42.71318" lon="1.38667">
        <ele>1750.6979980469</ele>
        <time>2011-06-11T12:15:52Z</time>
      </trkpt>
      <trkpt lat="42.71321" lon="1.3867">
        <ele>1749.7368164062</ele>
        <time>2011-06-11T12:15:55Z</time>
      </trkpt>
      <trkpt lat="42.71324" lon="1.38672">
        <ele>1747.3334960938</ele>
        <time>2011-06-11T12:16:02Z</time>
      </trkpt>
      <trkpt lat="42.71326" lon="1.38677">
        <ele>1743.9689941406</ele>
        <time>2011-06-11T12:16:07Z</time>
      </trkpt>
      <trkpt lat="42.71328" lon="1.38682">
        <ele>1742.5270996094</ele>
        <time>2011-06-11T12:16:12Z</time>
      </trkpt>
      <trkpt lat="42.71329" lon="1.38684">
        <ele>1741.5656738281</ele>
        <time>2011-06-11T12:16:14Z</time>
      </trkpt>
      <trkpt lat="42.71333" lon="1.38696">
        <ele>1737.7202148438</ele>
        <time>2011-06-11T12:16:19Z</time>
      </trkpt>
      <trkpt lat="42.71335" lon="1.38703">
        <ele>1735.7976074219</ele>
        <time>2011-06-11T12:16:22Z</time>
      </trkpt>
      <trkpt lat="42.71336" lon="1.38709">
        <ele>1734.3557128906</ele>
        <time>2011-06-11T12:16:26Z</time>
      </trkpt>
      <trkpt lat="42.71339" lon="1.38714">
        <ele>1733.3942871094</ele>
        <time>2011-06-11T12:16:31Z</time>
      </trkpt>
      <trkpt lat="42.71341" lon="1.3872">
        <ele>1730.9912109375</ele>
        <time>2011-06-11T12:16:36Z</time>
      </trkpt>
      <trkpt lat="42.71343" lon="1.3873">
        <ele>1728.587890625</ele>
        <time>2011-06-11T12:16:42Z</time>
      </trkpt>
      <trkpt lat="42.71344" lon="1.38732">
        <ele>1728.587890625</ele>
        <time>2011-06-11T12:16:44Z</time>
      </trkpt>
      <trkpt lat="42.71345" lon="1.38738">
        <ele>1728.587890625</ele>
        <time>2011-06-11T12:16:49Z</time>
      </trkpt>
      <trkpt lat="42.71347" lon="1.38743">
        <ele>1727.1459960938</ele>
        <time>2011-06-11T12:16:53Z</time>
      </trkpt>
      <trkpt lat="42.71349" lon="1.38747">
        <ele>1726.6652832031</ele>
        <time>2011-06-11T12:16:56Z</time>
      </trkpt>
      <trkpt lat="42.71349" lon="1.38753">
        <ele>1724.2619628906</ele>
        <time>2011-06-11T12:17:00Z</time>
      </trkpt>
      <trkpt lat="42.71352" lon="1.38764">
        <ele>1720.8972167969</ele>
        <time>2011-06-11T12:17:06Z</time>
      </trkpt>
      <trkpt lat="42.71353" lon="1.38776">
        <ele>1717.5324707031</ele>
        <time>2011-06-11T12:17:10Z</time>
      </trkpt>
      <trkpt lat="42.71356" lon="1.38793">
        <ele>1716.5712890625</ele>
        <time>2011-06-11T12:17:17Z</time>
      </trkpt>
      <trkpt lat="42.71358" lon="1.38804">
        <ele>1715.6101074219</ele>
        <time>2011-06-11T12:17:23Z</time>
      </trkpt>
      <trkpt lat="42.7136" lon="1.38817">
        <ele>1713.6872558594</ele>
        <time>2011-06-11T12:17:29Z</time>
      </trkpt>
      <trkpt lat="42.71363" lon="1.38831">
        <ele>1711.2841796875</ele>
        <time>2011-06-11T12:17:34Z</time>
      </trkpt>
      <trkpt lat="42.71363" lon="1.38837">
        <ele>1710.8034667969</ele>
        <time>2011-06-11T12:17:38Z</time>
      </trkpt>
      <trkpt lat="42.71365" lon="1.38844">
        <ele>1710.8034667969</ele>
        <time>2011-06-11T12:17:43Z</time>
      </trkpt>
      <trkpt lat="42.71367" lon="1.38849">
        <ele>1711.2841796875</ele>
        <time>2011-06-11T12:17:48Z</time>
      </trkpt>
      <trkpt lat="42.71369" lon="1.38852">
        <ele>1710.3227539062</ele>
        <time>2011-06-11T12:17:51Z</time>
      </trkpt>
      <trkpt lat="42.7137" lon="1.38862">
        <ele>1710.3227539062</ele>
        <time>2011-06-11T12:17:56Z</time>
      </trkpt>
      <trkpt lat="42.71372" lon="1.38866">
        <ele>1710.8034667969</ele>
        <time>2011-06-11T12:17:59Z</time>
      </trkpt>
      <trkpt lat="42.71373" lon="1.38879">
        <ele>1711.7648925781</ele>
        <time>2011-06-11T12:18:06Z</time>
      </trkpt>
      <trkpt lat="42.71373" lon="1.38884">
        <ele>1711.7648925781</ele>
        <time>2011-06-11T12:18:10Z</time>
      </trkpt>
      <trkpt lat="42.71375" lon="1.38895">
        <ele>1712.7260742188</ele>
        <time>2011-06-11T12:18:17Z</time>
      </trkpt>
      <trkpt lat="42.71375" lon="1.38896">
        <ele>1712.7260742188</ele>
        <time>2011-06-11T12:18:18Z</time>
      </trkpt>
      <trkpt lat="42.71375" lon="1.38902">
        <ele>1714.16796875</ele>
        <time>2011-06-11T12:18:25Z</time>
      </trkpt>
      <trkpt lat="42.71375" lon="1.38908">
        <ele>1713.6872558594</ele>
        <time>2011-06-11T12:18:37Z</time>
      </trkpt>
      <trkpt lat="42.71375" lon="1.38918">
        <ele>1712.2453613281</ele>
        <time>2011-06-11T12:18:43Z</time>
      </trkpt>
      <trkpt lat="42.71375" lon="1.38925">
        <ele>1711.2841796875</ele>
        <time>2011-06-11T12:18:48Z</time>
      </trkpt>
      <trkpt lat="42.71376" lon="1.38933">
        <ele>1708.880859375</ele>
        <time>2011-06-11T12:18:53Z</time>
      </trkpt>
      <trkpt lat="42.71378" lon="1.38942">
        <ele>1707.4387207031</ele>
        <time>2011-06-11T12:18:59Z</time>
      </trkpt>
      <trkpt lat="42.71379" lon="1.3895">
        <ele>1707.4387207031</ele>
        <time>2011-06-11T12:19:03Z</time>
      </trkpt>
      <trkpt lat="42.71381" lon="1.3896">
        <ele>1706.4772949219</ele>
        <time>2011-06-11T12:19:10Z</time>
      </trkpt>
      <trkpt lat="42.71381" lon="1.38962">
        <ele>1706.4772949219</ele>
        <time>2011-06-11T12:19:11Z</time>
      </trkpt>
      <trkpt lat="42.71382" lon="1.38973">
        <ele>1704.07421875</ele>
        <time>2011-06-11T12:19:17Z</time>
      </trkpt>
      <trkpt lat="42.71383" lon="1.38987">
        <ele>1702.6320800781</ele>
        <time>2011-06-11T12:19:22Z</time>
      </trkpt>
      <trkpt lat="42.71384" lon="1.39004">
        <ele>1701.6708984375</ele>
        <time>2011-06-11T12:19:28Z</time>
      </trkpt>
      <trkpt lat="42.71387" lon="1.39016">
        <ele>1699.267578125</ele>
        <time>2011-06-11T12:19:33Z</time>
      </trkpt>
      <trkpt lat="42.71387" lon="1.39018">
        <ele>1698.3061523438</ele>
        <time>2011-06-11T12:19:40Z</time>
      </trkpt>
      <trkpt lat="42.71387" lon="1.39019">
        <ele>1699.267578125</ele>
        <time>2011-06-11T12:19:54Z</time>
      </trkpt>
      <trkpt lat="42.71388" lon="1.39023">
        <ele>1697.8256835938</ele>
        <time>2011-06-11T12:19:59Z</time>
      </trkpt>
      <trkpt lat="42.71389" lon="1.39028">
        <ele>1695.9030761719</ele>
        <time>2011-06-11T12:20:03Z</time>
      </trkpt>
      <trkpt lat="42.71387" lon="1.39036">
        <ele>1693.98046875</ele>
        <time>2011-06-11T12:20:07Z</time>
      </trkpt>
      <trkpt lat="42.71384" lon="1.39043">
        <ele>1691.0961914062</ele>
        <time>2011-06-11T12:20:12Z</time>
      </trkpt>
      <trkpt lat="42.71384" lon="1.39051">
        <ele>1688.6931152344</ele>
        <time>2011-06-11T12:20:17Z</time>
      </trkpt>
      <trkpt lat="42.71384" lon="1.39053">
        <ele>1687.7316894531</ele>
        <time>2011-06-11T12:20:18Z</time>
      </trkpt>
      <trkpt lat="42.71381" lon="1.39064">
        <ele>1684.8479003906</ele>
        <time>2011-06-11T12:20:25Z</time>
      </trkpt>
      <trkpt lat="42.7138" lon="1.39073">
        <ele>1687.2509765625</ele>
        <time>2011-06-11T12:20:29Z</time>
      </trkpt>
      <trkpt lat="42.71378" lon="1.39084">
        <ele>1687.7316894531</ele>
        <time>2011-06-11T12:20:35Z</time>
      </trkpt>
      <trkpt lat="42.71377" lon="1.39086">
        <ele>1687.7316894531</ele>
        <time>2011-06-11T12:20:37Z</time>
      </trkpt>
      <trkpt lat="42.71378" lon="1.39092">
        <ele>1688.2124023438</ele>
        <time>2011-06-11T12:20:42Z</time>
      </trkpt>
      <trkpt lat="42.71377" lon="1.39099">
        <ele>1687.2509765625</ele>
        <time>2011-06-11T12:20:47Z</time>
      </trkpt>
      <trkpt lat="42.71378" lon="1.39105">
        <ele>1686.7702636719</ele>
        <time>2011-06-11T12:20:51Z</time>
      </trkpt>
      <trkpt lat="42.71378" lon="1.3911">
        <ele>1686.7702636719</ele>
        <time>2011-06-11T12:20:54Z</time>
      </trkpt>
      <trkpt lat="42.71379" lon="1.39116">
        <ele>1686.7702636719</ele>
        <time>2011-06-11T12:20:59Z</time>
      </trkpt>
      <trkpt lat="42.71381" lon="1.3913">
        <ele>1687.2509765625</ele>
        <time>2011-06-11T12:21:07Z</time>
      </trkpt>
      <trkpt lat="42.71383" lon="1.39137">
        <ele>1687.7316894531</ele>
        <time>2011-06-11T12:21:13Z</time>
      </trkpt>
      <trkpt lat="42.71384" lon="1.39141">
        <ele>1687.7316894531</ele>
        <time>2011-06-11T12:21:16Z</time>
      </trkpt>
      <trkpt lat="42.71388" lon="1.3915">
        <ele>1687.2509765625</ele>
        <time>2011-06-11T12:21:23Z</time>
      </trkpt>
      <trkpt lat="42.71392" lon="1.39157">
        <ele>1687.2509765625</ele>
        <time>2011-06-11T12:21:30Z</time>
      </trkpt>
      <trkpt lat="42.71397" lon="1.39162">
        <ele>1687.2509765625</ele>
        <time>2011-06-11T12:21:35Z</time>
      </trkpt>
      <trkpt lat="42.71397" lon="1.39164">
        <ele>1687.2509765625</ele>
        <time>2011-06-11T12:21:36Z</time>
      </trkpt>
      <trkpt lat="42.714" lon="1.39169">
        <ele>1687.7316894531</ele>
        <time>2011-06-11T12:21:41Z</time>
      </trkpt>
      <trkpt lat="42.71405" lon="1.3918">
        <ele>1689.654296875</ele>
        <time>2011-06-11T12:21:49Z</time>
      </trkpt>
      <trkpt lat="42.71409" lon="1.39189">
        <ele>1691.0961914062</ele>
        <time>2011-06-11T12:21:56Z</time>
      </trkpt>
      <trkpt lat="42.71411" lon="1.39199">
        <ele>1692.0578613281</ele>
        <time>2011-06-11T12:22:03Z</time>
      </trkpt>
      <trkpt lat="42.71412" lon="1.39209">
        <ele>1693.0190429688</ele>
        <time>2011-06-11T12:22:10Z</time>
      </trkpt>
      <trkpt lat="42.71415" lon="1.39218">
        <ele>1693.0190429688</ele>
        <time>2011-06-11T12:22:16Z</time>
      </trkpt>
      <trkpt lat="42.71416" lon="1.3923">
        <ele>1692.5385742188</ele>
        <time>2011-06-11T12:22:24Z</time>
      </trkpt>
      <trkpt lat="42.71418" lon="1.3924">
        <ele>1692.0578613281</ele>
        <time>2011-06-11T12:22:30Z</time>
      </trkpt>
      <trkpt lat="42.71418" lon="1.39251">
        <ele>1692.0578613281</ele>
        <time>2011-06-11T12:22:37Z</time>
      </trkpt>
      <trkpt lat="42.71418" lon="1.39265">
        <ele>1691.5769042969</ele>
        <time>2011-06-11T12:22:45Z</time>
      </trkpt>
      <trkpt lat="42.71419" lon="1.39277">
        <ele>1690.6154785156</ele>
        <time>2011-06-11T12:22:52Z</time>
      </trkpt>
      <trkpt lat="42.71417" lon="1.39287">
        <ele>1689.1735839844</ele>
        <time>2011-06-11T12:22:59Z</time>
      </trkpt>
      <trkpt lat="42.71418" lon="1.39289">
        <ele>1688.6931152344</ele>
        <time>2011-06-11T12:23:00Z</time>
      </trkpt>
      <trkpt lat="42.71421" lon="1.39303">
        <ele>1687.2509765625</ele>
        <time>2011-06-11T12:23:08Z</time>
      </trkpt>
      <trkpt lat="42.71427" lon="1.39311">
        <ele>1687.2509765625</ele>
        <time>2011-06-11T12:23:14Z</time>
      </trkpt>
      <trkpt lat="42.71429" lon="1.39314">
        <ele>1686.7702636719</ele>
        <time>2011-06-11T12:23:16Z</time>
      </trkpt>
      <trkpt lat="42.71434" lon="1.39326">
        <ele>1686.2897949219</ele>
        <time>2011-06-11T12:23:23Z</time>
      </trkpt>
      <trkpt lat="42.71436" lon="1.39331">
        <ele>1686.2897949219</ele>
        <time>2011-06-11T12:23:26Z</time>
      </trkpt>
      <trkpt lat="42.71435" lon="1.39336">
        <ele>1685.3283691406</ele>
        <time>2011-06-11T12:23:29Z</time>
      </trkpt>
      <trkpt lat="42.7144" lon="1.39344">
        <ele>1684.3671875</ele>
        <time>2011-06-11T12:23:35Z</time>
      </trkpt>
      <trkpt lat="42.71442" lon="1.39351">
        <ele>1683.8864746094</ele>
        <time>2011-06-11T12:23:39Z</time>
      </trkpt>
      <trkpt lat="42.71445" lon="1.39357">
        <ele>1683.4057617188</ele>
        <time>2011-06-11T12:23:43Z</time>
      </trkpt>
      <trkpt lat="42.71452" lon="1.39365">
        <ele>1683.4057617188</ele>
        <time>2011-06-11T12:23:49Z</time>
      </trkpt>
      <trkpt lat="42.71455" lon="1.39369">
        <ele>1683.8864746094</ele>
        <time>2011-06-11T12:23:52Z</time>
      </trkpt>
      <trkpt lat="42.71457" lon="1.39376">
        <ele>1683.8864746094</ele>
        <time>2011-06-11T12:23:57Z</time>
      </trkpt>
      <trkpt lat="42.71458" lon="1.39378">
        <ele>1683.8864746094</ele>
        <time>2011-06-11T12:23:58Z</time>
      </trkpt>
      <trkpt lat="42.71463" lon="1.39383">
        <ele>1683.8864746094</ele>
        <time>2011-06-11T12:24:03Z</time>
      </trkpt>
      <trkpt lat="42.71467" lon="1.39387">
        <ele>1684.8479003906</ele>
        <time>2011-06-11T12:24:06Z</time>
      </trkpt>
      <trkpt lat="42.71472" lon="1.39394">
        <ele>1683.8864746094</ele>
        <time>2011-06-11T12:24:11Z</time>
      </trkpt>
      <trkpt lat="42.71477" lon="1.39399">
        <ele>1682.9250488281</ele>
        <time>2011-06-11T12:24:15Z</time>
      </trkpt>
      <trkpt lat="42.7148" lon="1.39405">
        <ele>1681.9638671875</ele>
        <time>2011-06-11T12:24:20Z</time>
      </trkpt>
      <trkpt lat="42.71482" lon="1.39413">
        <ele>1681.0026855469</ele>
        <time>2011-06-11T12:24:25Z</time>
      </trkpt>
      <trkpt lat="42.71482" lon="1.3942">
        <ele>1680.0412597656</ele>
        <time>2011-06-11T12:24:30Z</time>
      </trkpt>
      <trkpt lat="42.71484" lon="1.39422">
        <ele>1678.5993652344</ele>
        <time>2011-06-11T12:24:35Z</time>
      </trkpt>
      <trkpt lat="42.71485" lon="1.39425">
        <ele>1677.1574707031</ele>
        <time>2011-06-11T12:24:39Z</time>
      </trkpt>
      <trkpt lat="42.71488" lon="1.39428">
        <ele>1675.234375</ele>
        <time>2011-06-11T12:24:44Z</time>
      </trkpt>
      <trkpt lat="42.7149" lon="1.39431">
        <ele>1673.3120117188</ele>
        <time>2011-06-11T12:24:49Z</time>
      </trkpt>
      <trkpt lat="42.7149" lon="1.39438">
        <ele>1669.947265625</ele>
        <time>2011-06-11T12:24:53Z</time>
      </trkpt>
      <trkpt lat="42.71491" lon="1.3944">
        <ele>1668.5053710938</ele>
        <time>2011-06-11T12:24:56Z</time>
      </trkpt>
      <trkpt lat="42.71495" lon="1.39449">
        <ele>1667.5439453125</ele>
        <time>2011-06-11T12:25:01Z</time>
      </trkpt>
      <trkpt lat="42.71495" lon="1.39451">
        <ele>1666.5827636719</ele>
        <time>2011-06-11T12:25:02Z</time>
      </trkpt>
      <trkpt lat="42.71498" lon="1.39464">
        <ele>1663.6987304688</ele>
        <time>2011-06-11T12:25:07Z</time>
      </trkpt>
      <trkpt lat="42.71498" lon="1.39473">
        <ele>1661.7763671875</ele>
        <time>2011-06-11T12:25:12Z</time>
      </trkpt>
      <trkpt lat="42.71501" lon="1.39483">
        <ele>1659.8532714844</ele>
        <time>2011-06-11T12:25:18Z</time>
      </trkpt>
      <trkpt lat="42.71502" lon="1.39487">
        <ele>1658.4113769531</ele>
        <time>2011-06-11T12:25:21Z</time>
      </trkpt>
      <trkpt lat="42.71503" lon="1.395">
        <ele>1655.5275878906</ele>
        <time>2011-06-11T12:25:28Z</time>
      </trkpt>
      <trkpt lat="42.71502" lon="1.39501">
        <ele>1655.046875</ele>
        <time>2011-06-11T12:25:29Z</time>
      </trkpt>
      <trkpt lat="42.71506" lon="1.3951">
        <ele>1654.5661621094</ele>
        <time>2011-06-11T12:25:34Z</time>
      </trkpt>
      <trkpt lat="42.71507" lon="1.39515">
        <ele>1653.1242675781</ele>
        <time>2011-06-11T12:25:37Z</time>
      </trkpt>
      <trkpt lat="42.71508" lon="1.39517">
        <ele>1653.1242675781</ele>
        <time>2011-06-11T12:25:39Z</time>
      </trkpt>
      <trkpt lat="42.7151" lon="1.39527">
        <ele>1651.6823730469</ele>
        <time>2011-06-11T12:25:46Z</time>
      </trkpt>
      <trkpt lat="42.7151" lon="1.39534">
        <ele>1651.6823730469</ele>
        <time>2011-06-11T12:25:52Z</time>
      </trkpt>
      <trkpt lat="42.71511" lon="1.39538">
        <ele>1651.6823730469</ele>
        <time>2011-06-11T12:25:56Z</time>
      </trkpt>
      <trkpt lat="42.71511" lon="1.39545">
        <ele>1650.7209472656</ele>
        <time>2011-06-11T12:26:00Z</time>
      </trkpt>
      <trkpt lat="42.71513" lon="1.39554">
        <ele>1650.2404785156</ele>
        <time>2011-06-11T12:26:06Z</time>
      </trkpt>
      <trkpt lat="42.71515" lon="1.3956">
        <ele>1649.2790527344</ele>
        <time>2011-06-11T12:26:11Z</time>
      </trkpt>
      <trkpt lat="42.71516" lon="1.39561">
        <ele>1649.2790527344</ele>
        <time>2011-06-11T12:26:12Z</time>
      </trkpt>
      <trkpt lat="42.71517" lon="1.39568">
        <ele>1648.7983398438</ele>
        <time>2011-06-11T12:26:17Z</time>
      </trkpt>
      <trkpt lat="42.71518" lon="1.39573">
        <ele>1646.8757324219</ele>
        <time>2011-06-11T12:26:21Z</time>
      </trkpt>
      <trkpt lat="42.71519" lon="1.39579">
        <ele>1645.9145507812</ele>
        <time>2011-06-11T12:26:27Z</time>
      </trkpt>
      <trkpt lat="42.7152" lon="1.39586">
        <ele>1644.953125</ele>
        <time>2011-06-11T12:26:31Z</time>
      </trkpt>
      <trkpt lat="42.71522" lon="1.396">
        <ele>1643.0302734375</ele>
        <time>2011-06-11T12:26:38Z</time>
      </trkpt>
      <trkpt lat="42.71522" lon="1.39607">
        <ele>1642.0690917969</ele>
        <time>2011-06-11T12:26:42Z</time>
      </trkpt>
      <trkpt lat="42.71525" lon="1.39613">
        <ele>1637.2624511719</ele>
        <time>2011-06-11T12:26:48Z</time>
      </trkpt>
      <trkpt lat="42.71524" lon="1.39617">
        <ele>1634.859375</ele>
        <time>2011-06-11T12:26:52Z</time>
      </trkpt>
      <trkpt lat="42.71526" lon="1.39623">
        <ele>1634.3786621094</ele>
        <time>2011-06-11T12:26:58Z</time>
      </trkpt>
      <trkpt lat="42.71527" lon="1.3963">
        <ele>1633.8979492188</ele>
        <time>2011-06-11T12:27:04Z</time>
      </trkpt>
      <trkpt lat="42.71529" lon="1.39637">
        <ele>1632.9365234375</ele>
        <time>2011-06-11T12:27:10Z</time>
      </trkpt>
      <trkpt lat="42.71528" lon="1.39639">
        <ele>1632.9365234375</ele>
        <time>2011-06-11T12:27:11Z</time>
      </trkpt>
      <trkpt lat="42.71527" lon="1.39644">
        <ele>1631.4946289062</ele>
        <time>2011-06-11T12:27:15Z</time>
      </trkpt>
      <trkpt lat="42.71526" lon="1.39647">
        <ele>1631.0141601562</ele>
        <time>2011-06-11T12:27:22Z</time>
      </trkpt>
      <trkpt lat="42.71528" lon="1.39651">
        <ele>1630.052734375</ele>
        <time>2011-06-11T12:27:28Z</time>
      </trkpt>
      <trkpt lat="42.71529" lon="1.39657">
        <ele>1627.6491699219</ele>
        <time>2011-06-11T12:27:34Z</time>
      </trkpt>
      <trkpt lat="42.71527" lon="1.39661">
        <ele>1625.2458496094</ele>
        <time>2011-06-11T12:27:38Z</time>
      </trkpt>
      <trkpt lat="42.71529" lon="1.39663">
        <ele>1623.8039550781</ele>
        <time>2011-06-11T12:27:43Z</time>
      </trkpt>
      <trkpt lat="42.71531" lon="1.39665">
        <ele>1621.8813476562</ele>
        <time>2011-06-11T12:27:49Z</time>
      </trkpt>
      <trkpt lat="42.71533" lon="1.39671">
        <ele>1620.439453125</ele>
        <time>2011-06-11T12:27:55Z</time>
      </trkpt>
      <trkpt lat="42.71534" lon="1.39676">
        <ele>1619.4782714844</ele>
        <time>2011-06-11T12:28:00Z</time>
      </trkpt>
      <trkpt lat="42.71537" lon="1.39677">
        <ele>1618.5168457031</ele>
        <time>2011-06-11T12:28:05Z</time>
      </trkpt>
      <trkpt lat="42.71539" lon="1.39677">
        <ele>1617.5554199219</ele>
        <time>2011-06-11T12:28:09Z</time>
      </trkpt>
      <trkpt lat="42.7154" lon="1.39677">
        <ele>1616.1135253906</ele>
        <time>2011-06-11T12:28:15Z</time>
      </trkpt>
      <trkpt lat="42.71538" lon="1.39679">
        <ele>1620.439453125</ele>
        <time>2011-06-11T12:28:32Z</time>
      </trkpt>
      <trkpt lat="42.71543" lon="1.39677">
        <ele>1620.439453125</ele>
        <time>2011-06-11T12:29:03Z</time>
      </trkpt>
      <trkpt lat="42.71547" lon="1.3968">
        <ele>1619.4782714844</ele>
        <time>2011-06-11T12:29:08Z</time>
      </trkpt>
      <trkpt lat="42.71552" lon="1.39682">
        <ele>1618.0361328125</ele>
        <time>2011-06-11T12:29:13Z</time>
      </trkpt>
      <trkpt lat="42.71554" lon="1.39683">
        <ele>1617.0749511719</ele>
        <time>2011-06-11T12:29:16Z</time>
      </trkpt>
      <trkpt lat="42.71557" lon="1.39684">
        <ele>1615.15234375</ele>
        <time>2011-06-11T12:29:20Z</time>
      </trkpt>
      <trkpt lat="42.7156" lon="1.39685">
        <ele>1614.6716308594</ele>
        <time>2011-06-11T12:29:23Z</time>
      </trkpt>
      <trkpt lat="42.71565" lon="1.39688">
        <ele>1614.6716308594</ele>
        <time>2011-06-11T12:29:28Z</time>
      </trkpt>
      <trkpt lat="42.71572" lon="1.39694">
        <ele>1615.15234375</ele>
        <time>2011-06-11T12:29:33Z</time>
      </trkpt>
      <trkpt lat="42.71579" lon="1.397">
        <ele>1615.15234375</ele>
        <time>2011-06-11T12:29:39Z</time>
      </trkpt>
      <trkpt lat="42.71582" lon="1.39702">
        <ele>1614.6716308594</ele>
        <time>2011-06-11T12:29:42Z</time>
      </trkpt>
      <trkpt lat="42.71583" lon="1.39704">
        <ele>1613.2297363281</ele>
        <time>2011-06-11T12:29:44Z</time>
      </trkpt>
      <trkpt lat="42.71581" lon="1.39706">
        <ele>1610.826171875</ele>
        <time>2011-06-11T12:29:49Z</time>
      </trkpt>
      <trkpt lat="42.71577" lon="1.39706">
        <ele>1610.3454589844</ele>
        <time>2011-06-11T12:29:54Z</time>
      </trkpt>
      <trkpt lat="42.71573" lon="1.39708">
        <ele>1610.826171875</ele>
        <time>2011-06-11T12:29:58Z</time>
      </trkpt>
      <trkpt lat="42.71568" lon="1.39715">
        <ele>1617.0749511719</ele>
        <time>2011-06-11T12:30:04Z</time>
      </trkpt>
      <trkpt lat="42.71564" lon="1.39718">
        <ele>1620.439453125</ele>
        <time>2011-06-11T12:30:09Z</time>
      </trkpt>
      <trkpt lat="42.7156" lon="1.3972">
        <ele>1618.0361328125</ele>
        <time>2011-06-11T12:30:14Z</time>
      </trkpt>
      <trkpt lat="42.71558" lon="1.3972">
        <ele>1609.3842773438</ele>
        <time>2011-06-11T12:30:19Z</time>
      </trkpt>
      <trkpt lat="42.7156" lon="1.39718">
        <ele>1601.6938476562</ele>
        <time>2011-06-11T12:30:26Z</time>
      </trkpt>
      <trkpt lat="42.71563" lon="1.39718">
        <ele>1599.7712402344</ele>
        <time>2011-06-11T12:30:30Z</time>
      </trkpt>
      <trkpt lat="42.71566" lon="1.39718">
        <ele>1598.3291015625</ele>
        <time>2011-06-11T12:30:35Z</time>
      </trkpt>
      <trkpt lat="42.71569" lon="1.39722">
        <ele>1596.8872070312</ele>
        <time>2011-06-11T12:30:41Z</time>
      </trkpt>
      <trkpt lat="42.71569" lon="1.39725">
        <ele>1594.9643554688</ele>
        <time>2011-06-11T12:30:46Z</time>
      </trkpt>
      <trkpt lat="42.71571" lon="1.39732">
        <ele>1592.0805664062</ele>
        <time>2011-06-11T12:30:53Z</time>
      </trkpt>
      <trkpt lat="42.71574" lon="1.39737">
        <ele>1589.1965332031</ele>
        <time>2011-06-11T12:30:57Z</time>
      </trkpt>
      <trkpt lat="42.71576" lon="1.39741">
        <ele>1587.2739257812</ele>
        <time>2011-06-11T12:31:01Z</time>
      </trkpt>
      <trkpt lat="42.71574" lon="1.39743">
        <ele>1585.3513183594</ele>
        <time>2011-06-11T12:31:06Z</time>
      </trkpt>
      <trkpt lat="42.71568" lon="1.3974">
        <ele>1583.4287109375</ele>
        <time>2011-06-11T12:31:12Z</time>
      </trkpt>
      <trkpt lat="42.71566" lon="1.3974">
        <ele>1583.4287109375</ele>
        <time>2011-06-11T12:31:13Z</time>
      </trkpt>
      <trkpt lat="42.71561" lon="1.39739">
        <ele>1582.4675292969</ele>
        <time>2011-06-11T12:31:17Z</time>
      </trkpt>
      <trkpt lat="42.71558" lon="1.39742">
        <ele>1582.9479980469</ele>
        <time>2011-06-11T12:31:24Z</time>
      </trkpt>
      <trkpt lat="42.71554" lon="1.39742">
        <ele>1581.5061035156</ele>
        <time>2011-06-11T12:31:30Z</time>
      </trkpt>
      <trkpt lat="42.7155" lon="1.39747">
        <ele>1578.1413574219</ele>
        <time>2011-06-11T12:31:36Z</time>
      </trkpt>
      <trkpt lat="42.71547" lon="1.39751">
        <ele>1577.6606445312</ele>
        <time>2011-06-11T12:31:40Z</time>
      </trkpt>
      <trkpt lat="42.71545" lon="1.39753">
        <ele>1578.6220703125</ele>
        <time>2011-06-11T12:31:45Z</time>
      </trkpt>
      <trkpt lat="42.71544" lon="1.39761">
        <ele>1580.0642089844</ele>
        <time>2011-06-11T12:31:52Z</time>
      </trkpt>
      <trkpt lat="42.71544" lon="1.39761">
        <ele>1575.2573242188</ele>
        <time>2011-06-11T12:31:58Z</time>
      </trkpt>
      <trkpt lat="42.71545" lon="1.39763">
        <ele>1573.3349609375</ele>
        <time>2011-06-11T12:32:03Z</time>
      </trkpt>
      <trkpt lat="42.71545" lon="1.39766">
        <ele>1572.3735351562</ele>
        <time>2011-06-11T12:32:07Z</time>
      </trkpt>
      <trkpt lat="42.71544" lon="1.39769">
        <ele>1569.4897460938</ele>
        <time>2011-06-11T12:32:11Z</time>
      </trkpt>
      <trkpt lat="42.71545" lon="1.39772">
        <ele>1567.5668945312</ele>
        <time>2011-06-11T12:32:15Z</time>
      </trkpt>
      <trkpt lat="42.71547" lon="1.39772">
        <ele>1567.0864257812</ele>
        <time>2011-06-11T12:32:17Z</time>
      </trkpt>
      <trkpt lat="42.71551" lon="1.39771">
        <ele>1564.6831054688</ele>
        <time>2011-06-11T12:32:23Z</time>
      </trkpt>
      <trkpt lat="42.71555" lon="1.39774">
        <ele>1563.2409667969</ele>
        <time>2011-06-11T12:32:27Z</time>
      </trkpt>
      <trkpt lat="42.71558" lon="1.39775">
        <ele>1561.318359375</ele>
        <time>2011-06-11T12:32:31Z</time>
      </trkpt>
      <trkpt lat="42.71567" lon="1.3978">
        <ele>1559.8762207031</ele>
        <time>2011-06-11T12:32:38Z</time>
      </trkpt>
      <trkpt lat="42.71573" lon="1.39787">
        <ele>1563.2409667969</ele>
        <time>2011-06-11T12:32:44Z</time>
      </trkpt>
      <trkpt lat="42.71576" lon="1.39794">
        <ele>1561.318359375</ele>
        <time>2011-06-11T12:32:51Z</time>
      </trkpt>
      <trkpt lat="42.71579" lon="1.39798">
        <ele>1562.7602539062</ele>
        <time>2011-06-11T12:32:54Z</time>
      </trkpt>
      <trkpt lat="42.71577" lon="1.39802">
        <ele>1566.6057128906</ele>
        <time>2011-06-11T12:32:59Z</time>
      </trkpt>
      <trkpt lat="42.71576" lon="1.39805">
        <ele>1569.4897460938</ele>
        <time>2011-06-11T12:33:03Z</time>
      </trkpt>
      <trkpt lat="42.71573" lon="1.39806">
        <ele>1570.4509277344</ele>
        <time>2011-06-11T12:33:05Z</time>
      </trkpt>
      <trkpt lat="42.71567" lon="1.39806">
        <ele>1564.6831054688</ele>
        <time>2011-06-11T12:33:09Z</time>
      </trkpt>
      <trkpt lat="42.71563" lon="1.39806">
        <ele>1559.8762207031</ele>
        <time>2011-06-11T12:33:13Z</time>
      </trkpt>
      <trkpt lat="42.71557" lon="1.39809">
        <ele>1555.5505371094</ele>
        <time>2011-06-11T12:33:19Z</time>
      </trkpt>
      <trkpt lat="42.71562" lon="1.39809">
        <ele>1549.3020019531</ele>
        <time>2011-06-11T12:33:27Z</time>
      </trkpt>
      <trkpt lat="42.71566" lon="1.3981">
        <ele>1546.41796875</ele>
        <time>2011-06-11T12:33:32Z</time>
      </trkpt>
      <trkpt lat="42.71571" lon="1.39813">
        <ele>1544.9758300781</ele>
        <time>2011-06-11T12:33:37Z</time>
      </trkpt>
      <trkpt lat="42.71574" lon="1.39817">
        <ele>1543.5339355469</ele>
        <time>2011-06-11T12:33:41Z</time>
      </trkpt>
      <trkpt lat="42.7158" lon="1.39822">
        <ele>1543.0532226562</ele>
        <time>2011-06-11T12:33:48Z</time>
      </trkpt>
      <trkpt lat="42.71578" lon="1.39826">
        <ele>1543.0532226562</ele>
        <time>2011-06-11T12:33:53Z</time>
      </trkpt>
      <trkpt lat="42.71573" lon="1.39826">
        <ele>1540.1694335938</ele>
        <time>2011-06-11T12:33:58Z</time>
      </trkpt>
      <trkpt lat="42.71569" lon="1.39825">
        <ele>1538.2468261719</ele>
        <time>2011-06-11T12:34:01Z</time>
      </trkpt>
      <trkpt lat="42.71567" lon="1.39825">
        <ele>1536.8046875</ele>
        <time>2011-06-11T12:34:03Z</time>
      </trkpt>
      <trkpt lat="42.71566" lon="1.39827">
        <ele>1536.8046875</ele>
        <time>2011-06-11T12:34:05Z</time>
      </trkpt>
      <trkpt lat="42.71561" lon="1.39831">
        <ele>1533.9208984375</ele>
        <time>2011-06-11T12:34:10Z</time>
      </trkpt>
      <trkpt lat="42.71554" lon="1.39834">
        <ele>1531.998046875</ele>
        <time>2011-06-11T12:34:16Z</time>
      </trkpt>
      <trkpt lat="42.71548" lon="1.39836">
        <ele>1529.5947265625</ele>
        <time>2011-06-11T12:34:22Z</time>
      </trkpt>
      <trkpt lat="42.71543" lon="1.39841">
        <ele>1528.1528320312</ele>
        <time>2011-06-11T12:34:28Z</time>
      </trkpt>
      <trkpt lat="42.71544" lon="1.39843">
        <ele>1528.6335449219</ele>
        <time>2011-06-11T12:34:30Z</time>
      </trkpt>
      <trkpt lat="42.71552" lon="1.39846">
        <ele>1528.1528320312</ele>
        <time>2011-06-11T12:34:34Z</time>
      </trkpt>
      <trkpt lat="42.71558" lon="1.39851">
        <ele>1525.7495117188</ele>
        <time>2011-06-11T12:34:41Z</time>
      </trkpt>
      <trkpt lat="42.71561" lon="1.39853">
        <ele>1524.7883300781</ele>
        <time>2011-06-11T12:34:44Z</time>
      </trkpt>
      <trkpt lat="42.71566" lon="1.39859">
        <ele>1523.8269042969</ele>
        <time>2011-06-11T12:34:50Z</time>
      </trkpt>
      <trkpt lat="42.71568" lon="1.3986">
        <ele>1523.3464355469</ele>
        <time>2011-06-11T12:34:51Z</time>
      </trkpt>
      <trkpt lat="42.71569" lon="1.39863">
        <ele>1522.8657226562</ele>
        <time>2011-06-11T12:34:54Z</time>
      </trkpt>
      <trkpt lat="42.71567" lon="1.39866">
        <ele>1520.9431152344</ele>
        <time>2011-06-11T12:34:59Z</time>
      </trkpt>
      <trkpt lat="42.71566" lon="1.39869">
        <ele>1519.5012207031</ele>
        <time>2011-06-11T12:35:03Z</time>
      </trkpt>
      <trkpt lat="42.71566" lon="1.39873">
        <ele>1518.5397949219</ele>
        <time>2011-06-11T12:35:07Z</time>
      </trkpt>
      <trkpt lat="42.71563" lon="1.39878">
        <ele>1516.1364746094</ele>
        <time>2011-06-11T12:35:11Z</time>
      </trkpt>
      <trkpt lat="42.71561" lon="1.3988">
        <ele>1513.7329101562</ele>
        <time>2011-06-11T12:35:15Z</time>
      </trkpt>
      <trkpt lat="42.71562" lon="1.39886">
        <ele>1511.810546875</ele>
        <time>2011-06-11T12:35:20Z</time>
      </trkpt>
      <trkpt lat="42.71558" lon="1.39888">
        <ele>1509.8876953125</ele>
        <time>2011-06-11T12:35:23Z</time>
      </trkpt>
      <trkpt lat="42.71555" lon="1.39891">
        <ele>1507.00390625</ele>
        <time>2011-06-11T12:35:28Z</time>
      </trkpt>
      <trkpt lat="42.71554" lon="1.39896">
        <ele>1504.6005859375</ele>
        <time>2011-06-11T12:35:33Z</time>
      </trkpt>
      <trkpt lat="42.71553" lon="1.39904">
        <ele>1501.2360839844</ele>
        <time>2011-06-11T12:35:40Z</time>
      </trkpt>
      <trkpt lat="42.71555" lon="1.39909">
        <ele>1500.7553710938</ele>
        <time>2011-06-11T12:35:44Z</time>
      </trkpt>
      <trkpt lat="42.71556" lon="1.39914">
        <ele>1500.2749023438</ele>
        <time>2011-06-11T12:35:47Z</time>
      </trkpt>
      <trkpt lat="42.71556" lon="1.39923">
        <ele>1498.8325195312</ele>
        <time>2011-06-11T12:35:53Z</time>
      </trkpt>
      <trkpt lat="42.71554" lon="1.39928">
        <ele>1497.8713378906</ele>
        <time>2011-06-11T12:35:58Z</time>
      </trkpt>
      <trkpt lat="42.71552" lon="1.3993">
        <ele>1497.8713378906</ele>
        <time>2011-06-11T12:36:01Z</time>
      </trkpt>
      <trkpt lat="42.71548" lon="1.39932">
        <ele>1496.4294433594</ele>
        <time>2011-06-11T12:36:06Z</time>
      </trkpt>
      <trkpt lat="42.71545" lon="1.39934">
        <ele>1495.9487304688</ele>
        <time>2011-06-11T12:36:08Z</time>
      </trkpt>
      <trkpt lat="42.7154" lon="1.39941">
        <ele>1495.9487304688</ele>
        <time>2011-06-11T12:36:14Z</time>
      </trkpt>
      <trkpt lat="42.71536" lon="1.39954">
        <ele>1494.0261230469</ele>
        <time>2011-06-11T12:36:21Z</time>
      </trkpt>
      <trkpt lat="42.71534" lon="1.39961">
        <ele>1494.5065917969</ele>
        <time>2011-06-11T12:36:25Z</time>
      </trkpt>
      <trkpt lat="42.7153" lon="1.39968">
        <ele>1493.5454101562</ele>
        <time>2011-06-11T12:36:30Z</time>
      </trkpt>
      <trkpt lat="42.71526" lon="1.39975">
        <ele>1494.5065917969</ele>
        <time>2011-06-11T12:36:35Z</time>
      </trkpt>
      <trkpt lat="42.71526" lon="1.39982">
        <ele>1493.5454101562</ele>
        <time>2011-06-11T12:36:39Z</time>
      </trkpt>
      <trkpt lat="42.7152" lon="1.39993">
        <ele>1491.1420898438</ele>
        <time>2011-06-11T12:36:45Z</time>
      </trkpt>
      <trkpt lat="42.71516" lon="1.40003">
        <ele>1489.2194824219</ele>
        <time>2011-06-11T12:36:51Z</time>
      </trkpt>
      <trkpt lat="42.71515" lon="1.40004">
        <ele>1489.2194824219</ele>
        <time>2011-06-11T12:36:52Z</time>
      </trkpt>
      <trkpt lat="42.71513" lon="1.40011">
        <ele>1487.7775878906</ele>
        <time>2011-06-11T12:36:56Z</time>
      </trkpt>
      <trkpt lat="42.71507" lon="1.40014">
        <ele>1485.3742675781</ele>
        <time>2011-06-11T12:37:01Z</time>
      </trkpt>
      <trkpt lat="42.71503" lon="1.40018">
        <ele>1482.970703125</ele>
        <time>2011-06-11T12:37:06Z</time>
      </trkpt>
      <trkpt lat="42.71498" lon="1.40018">
        <ele>1481.0483398438</ele>
        <time>2011-06-11T12:37:11Z</time>
      </trkpt>
      <trkpt lat="42.7149" lon="1.40019">
        <ele>1480.5676269531</ele>
        <time>2011-06-11T12:37:16Z</time>
      </trkpt>
      <trkpt lat="42.71484" lon="1.40019">
        <ele>1478.6450195312</ele>
        <time>2011-06-11T12:37:20Z</time>
      </trkpt>
      <trkpt lat="42.71482" lon="1.40022">
        <ele>1477.68359375</ele>
        <time>2011-06-11T12:37:23Z</time>
      </trkpt>
      <trkpt lat="42.71479" lon="1.40024">
        <ele>1477.203125</ele>
        <time>2011-06-11T12:37:25Z</time>
      </trkpt>
      <trkpt lat="42.71478" lon="1.40027">
        <ele>1476.7224121094</ele>
        <time>2011-06-11T12:37:28Z</time>
      </trkpt>
      <trkpt lat="42.71473" lon="1.40035">
        <ele>1474.7998046875</ele>
        <time>2011-06-11T12:37:32Z</time>
      </trkpt>
      <trkpt lat="42.71471" lon="1.40042">
        <ele>1471.9157714844</ele>
        <time>2011-06-11T12:37:37Z</time>
      </trkpt>
      <trkpt lat="42.71468" lon="1.40047">
        <ele>1471.9157714844</ele>
        <time>2011-06-11T12:37:41Z</time>
      </trkpt>
      <trkpt lat="42.71462" lon="1.40054">
        <ele>1468.5512695312</ele>
        <time>2011-06-11T12:37:46Z</time>
      </trkpt>
      <trkpt lat="42.71461" lon="1.40055">
        <ele>1467.5895996094</ele>
        <time>2011-06-11T12:37:47Z</time>
      </trkpt>
      <trkpt lat="42.71455" lon="1.40059">
        <ele>1467.1091308594</ele>
        <time>2011-06-11T12:37:52Z</time>
      </trkpt>
      <trkpt lat="42.71454" lon="1.40063">
        <ele>1466.1477050781</ele>
        <time>2011-06-11T12:37:55Z</time>
      </trkpt>
      <trkpt lat="42.71452" lon="1.40065">
        <ele>1466.1477050781</ele>
        <time>2011-06-11T12:37:57Z</time>
      </trkpt>
      <trkpt lat="42.71444" lon="1.40067">
        <ele>1464.2250976562</ele>
        <time>2011-06-11T12:38:03Z</time>
      </trkpt>
      <trkpt lat="42.71439" lon="1.40072">
        <ele>1463.7443847656</ele>
        <time>2011-06-11T12:38:09Z</time>
      </trkpt>
      <trkpt lat="42.71439" lon="1.40075">
        <ele>1464.7058105469</ele>
        <time>2011-06-11T12:38:11Z</time>
      </trkpt>
      <trkpt lat="42.71436" lon="1.40081">
        <ele>1463.2639160156</ele>
        <time>2011-06-11T12:38:16Z</time>
      </trkpt>
      <trkpt lat="42.71433" lon="1.40087">
        <ele>1462.783203125</ele>
        <time>2011-06-11T12:38:21Z</time>
      </trkpt>
      <trkpt lat="42.71429" lon="1.40093">
        <ele>1461.3413085938</ele>
        <time>2011-06-11T12:38:25Z</time>
      </trkpt>
      <trkpt lat="42.71423" lon="1.40096">
        <ele>1457.9768066406</ele>
        <time>2011-06-11T12:38:29Z</time>
      </trkpt>
      <trkpt lat="42.71415" lon="1.40103">
        <ele>1456.5346679688</ele>
        <time>2011-06-11T12:38:35Z</time>
      </trkpt>
      <trkpt lat="42.71412" lon="1.40109">
        <ele>1454.6120605469</ele>
        <time>2011-06-11T12:38:39Z</time>
      </trkpt>
      <trkpt lat="42.71407" lon="1.40113">
        <ele>1451.7280273438</ele>
        <time>2011-06-11T12:38:43Z</time>
      </trkpt>
      <trkpt lat="42.71401" lon="1.40123">
        <ele>1449.8054199219</ele>
        <time>2011-06-11T12:38:49Z</time>
      </trkpt>
      <trkpt lat="42.71402" lon="1.40131">
        <ele>1449.3247070312</ele>
        <time>2011-06-11T12:38:52Z</time>
      </trkpt>
      <trkpt lat="42.71401" lon="1.40133">
        <ele>1449.3247070312</ele>
        <time>2011-06-11T12:38:53Z</time>
      </trkpt>
      <trkpt lat="42.714" lon="1.40139">
        <ele>1446.9213867188</ele>
        <time>2011-06-11T12:38:56Z</time>
      </trkpt>
      <trkpt lat="42.71399" lon="1.40147">
        <ele>1444.9987792969</ele>
        <time>2011-06-11T12:39:00Z</time>
      </trkpt>
      <trkpt lat="42.71394" lon="1.40146">
        <ele>1444.5180664062</ele>
        <time>2011-06-11T12:39:02Z</time>
      </trkpt>
      <trkpt lat="42.71382" lon="1.40149">
        <ele>1442.595703125</ele>
        <time>2011-06-11T12:39:07Z</time>
      </trkpt>
      <trkpt lat="42.71379" lon="1.40157">
        <ele>1442.1149902344</ele>
        <time>2011-06-11T12:39:13Z</time>
      </trkpt>
      <trkpt lat="42.71378" lon="1.40157">
        <ele>1441.6342773438</ele>
        <time>2011-06-11T12:39:14Z</time>
      </trkpt>
      <trkpt lat="42.71375" lon="1.40158">
        <ele>1440.6728515625</ele>
        <time>2011-06-11T12:39:16Z</time>
      </trkpt>
      <trkpt lat="42.71375" lon="1.40161">
        <ele>1439.7116699219</ele>
        <time>2011-06-11T12:39:18Z</time>
      </trkpt>
      <trkpt lat="42.71371" lon="1.40169">
        <ele>1439.2309570312</ele>
        <time>2011-06-11T12:39:24Z</time>
      </trkpt>
      <trkpt lat="42.71368" lon="1.40174">
        <ele>1436.3471679688</ele>
        <time>2011-06-11T12:39:29Z</time>
      </trkpt>
      <trkpt lat="42.71364" lon="1.40176">
        <ele>1435.8662109375</ele>
        <time>2011-06-11T12:39:32Z</time>
      </trkpt>
      <trkpt lat="42.71355" lon="1.4018">
        <ele>1433.462890625</ele>
        <time>2011-06-11T12:39:37Z</time>
      </trkpt>
      <trkpt lat="42.71345" lon="1.40178">
        <ele>1432.9821777344</ele>
        <time>2011-06-11T12:39:42Z</time>
      </trkpt>
      <trkpt lat="42.7134" lon="1.40178">
        <ele>1432.9821777344</ele>
        <time>2011-06-11T12:39:45Z</time>
      </trkpt>
      <trkpt lat="42.71334" lon="1.40181">
        <ele>1432.0209960938</ele>
        <time>2011-06-11T12:39:50Z</time>
      </trkpt>
      <trkpt lat="42.71329" lon="1.40189">
        <ele>1429.1369628906</ele>
        <time>2011-06-11T12:39:55Z</time>
      </trkpt>
      <trkpt lat="42.71321" lon="1.40194">
        <ele>1427.6950683594</ele>
        <time>2011-06-11T12:40:01Z</time>
      </trkpt>
      <trkpt lat="42.71311" lon="1.40198">
        <ele>1424.3305664062</ele>
        <time>2011-06-11T12:40:07Z</time>
      </trkpt>
      <trkpt lat="42.71306" lon="1.40201">
        <ele>1422.888671875</ele>
        <time>2011-06-11T12:40:12Z</time>
      </trkpt>
      <trkpt lat="42.71301" lon="1.40202">
        <ele>1421.4465332031</ele>
        <time>2011-06-11T12:40:16Z</time>
      </trkpt>
      <trkpt lat="42.71299" lon="1.40206">
        <ele>1421.4465332031</ele>
        <time>2011-06-11T12:40:19Z</time>
      </trkpt>
      <trkpt lat="42.71296" lon="1.40208">
        <ele>1420.4853515625</ele>
        <time>2011-06-11T12:40:24Z</time>
      </trkpt>
      <trkpt lat="42.71296" lon="1.40212">
        <ele>1420.4853515625</ele>
        <time>2011-06-11T12:40:28Z</time>
      </trkpt>
      <trkpt lat="42.71295" lon="1.40218">
        <ele>1420.0046386719</ele>
        <time>2011-06-11T12:40:32Z</time>
      </trkpt>
      <trkpt lat="42.71292" lon="1.4022">
        <ele>1418.0817871094</ele>
        <time>2011-06-11T12:40:35Z</time>
      </trkpt>
      <trkpt lat="42.71292" lon="1.40225">
        <ele>1415.6787109375</ele>
        <time>2011-06-11T12:40:40Z</time>
      </trkpt>
      <trkpt lat="42.7129" lon="1.40227">
        <ele>1415.1979980469</ele>
        <time>2011-06-11T12:40:42Z</time>
      </trkpt>
      <trkpt lat="42.71284" lon="1.40228">
        <ele>1414.2365722656</ele>
        <time>2011-06-11T12:40:48Z</time>
      </trkpt>
      <trkpt lat="42.71284" lon="1.40231">
        <ele>1412.7946777344</ele>
        <time>2011-06-11T12:40:52Z</time>
      </trkpt>
      <trkpt lat="42.71284" lon="1.40238">
        <ele>1411.8334960938</ele>
        <time>2011-06-11T12:40:57Z</time>
      </trkpt>
      <trkpt lat="42.7128" lon="1.4024">
        <ele>1409.4301757812</ele>
        <time>2011-06-11T12:41:01Z</time>
      </trkpt>
      <trkpt lat="42.71278" lon="1.4024">
        <ele>1409.4301757812</ele>
        <time>2011-06-11T12:41:02Z</time>
      </trkpt>
      <trkpt lat="42.71271" lon="1.4024">
        <ele>1407.5075683594</ele>
        <time>2011-06-11T12:41:07Z</time>
      </trkpt>
      <trkpt lat="42.7127" lon="1.4024">
        <ele>1407.5075683594</ele>
        <time>2011-06-11T12:41:08Z</time>
      </trkpt>
      <trkpt lat="42.71268" lon="1.4025">
        <ele>1408.9494628906</ele>
        <time>2011-06-11T12:41:14Z</time>
      </trkpt>
      <trkpt lat="42.71261" lon="1.40256">
        <ele>1412.7946777344</ele>
        <time>2011-06-11T12:41:20Z</time>
      </trkpt>
      <trkpt lat="42.71261" lon="1.4026">
        <ele>1418.0817871094</ele>
        <time>2011-06-11T12:41:22Z</time>
      </trkpt>
      <trkpt lat="42.71255" lon="1.40264">
        <ele>1419.5239257812</ele>
        <time>2011-06-11T12:41:28Z</time>
      </trkpt>
      <trkpt lat="42.71248" lon="1.40268">
        <ele>1413.275390625</ele>
        <time>2011-06-11T12:41:34Z</time>
      </trkpt>
      <trkpt lat="42.71248" lon="1.4027">
        <ele>1411.3527832031</ele>
        <time>2011-06-11T12:41:36Z</time>
      </trkpt>
      <trkpt lat="42.71249" lon="1.40279">
        <ele>1406.0654296875</ele>
        <time>2011-06-11T12:41:43Z</time>
      </trkpt>
      <trkpt lat="42.71248" lon="1.40282">
        <ele>1405.1042480469</ele>
        <time>2011-06-11T12:41:48Z</time>
      </trkpt>
      <trkpt lat="42.71244" lon="1.40289">
        <ele>1404.6235351562</ele>
        <time>2011-06-11T12:41:54Z</time>
      </trkpt>
      <trkpt lat="42.71242" lon="1.40291">
        <ele>1404.1430664062</ele>
        <time>2011-06-11T12:41:57Z</time>
      </trkpt>
      <trkpt lat="42.71242" lon="1.40292">
        <ele>1404.1430664062</ele>
        <time>2011-06-11T12:41:58Z</time>
      </trkpt>
      <trkpt lat="42.71239" lon="1.40296">
        <ele>1399.8168945312</ele>
        <time>2011-06-11T12:42:02Z</time>
      </trkpt>
      <trkpt lat="42.71232" lon="1.40303">
        <ele>1397.8942871094</ele>
        <time>2011-06-11T12:42:09Z</time>
      </trkpt>
      <trkpt lat="42.71232" lon="1.40309">
        <ele>1397.8942871094</ele>
        <time>2011-06-11T12:42:13Z</time>
      </trkpt>
      <trkpt lat="42.71231" lon="1.40314">
        <ele>1397.8942871094</ele>
        <time>2011-06-11T12:42:16Z</time>
      </trkpt>
      <trkpt lat="42.7122" lon="1.40317">
        <ele>1397.8942871094</ele>
        <time>2011-06-11T12:42:22Z</time>
      </trkpt>
      <trkpt lat="42.71216" lon="1.40317">
        <ele>1398.3747558594</ele>
        <time>2011-06-11T12:42:24Z</time>
      </trkpt>
      <trkpt lat="42.71206" lon="1.40322">
        <ele>1397.8942871094</ele>
        <time>2011-06-11T12:42:31Z</time>
      </trkpt>
      <trkpt lat="42.71197" lon="1.40325">
        <ele>1400.2976074219</ele>
        <time>2011-06-11T12:42:36Z</time>
      </trkpt>
      <trkpt lat="42.71196" lon="1.40329">
        <ele>1399.8168945312</ele>
        <time>2011-06-11T12:42:39Z</time>
      </trkpt>
      <trkpt lat="42.71186" lon="1.40334">
        <ele>1400.2976074219</ele>
        <time>2011-06-11T12:42:45Z</time>
      </trkpt>
      <trkpt lat="42.71182" lon="1.40338">
        <ele>1400.2976074219</ele>
        <time>2011-06-11T12:42:49Z</time>
      </trkpt>
      <trkpt lat="42.71181" lon="1.40342">
        <ele>1399.8168945312</ele>
        <time>2011-06-11T12:42:52Z</time>
      </trkpt>
      <trkpt lat="42.71179" lon="1.40348">
        <ele>1400.7780761719</ele>
        <time>2011-06-11T12:42:56Z</time>
      </trkpt>
      <trkpt lat="42.71178" lon="1.40351">
        <ele>1400.7780761719</ele>
        <time>2011-06-11T12:42:57Z</time>
      </trkpt>
      <trkpt lat="42.7117" lon="1.40359">
        <ele>1399.3361816406</ele>
        <time>2011-06-11T12:43:03Z</time>
      </trkpt>
      <trkpt lat="42.71169" lon="1.4036">
        <ele>1399.3361816406</ele>
        <time>2011-06-11T12:43:05Z</time>
      </trkpt>
      <trkpt lat="42.71167" lon="1.40365">
        <ele>1399.8168945312</ele>
        <time>2011-06-11T12:43:08Z</time>
      </trkpt>
      <trkpt lat="42.71159" lon="1.40372">
        <ele>1399.8168945312</ele>
        <time>2011-06-11T12:43:16Z</time>
      </trkpt>
      <trkpt lat="42.71155" lon="1.40378">
        <ele>1401.7395019531</ele>
        <time>2011-06-11T12:43:22Z</time>
      </trkpt>
      <trkpt lat="42.7115" lon="1.40386">
        <ele>1402.7006835938</ele>
        <time>2011-06-11T12:43:30Z</time>
      </trkpt>
      <trkpt lat="42.71152" lon="1.40389">
        <ele>1403.662109375</ele>
        <time>2011-06-11T12:43:37Z</time>
      </trkpt>
      <trkpt lat="42.71154" lon="1.40389">
        <ele>1404.1430664062</ele>
        <time>2011-06-11T12:43:39Z</time>
      </trkpt>
      <trkpt lat="42.71156" lon="1.40393">
        <ele>1405.5849609375</ele>
        <time>2011-06-11T12:43:47Z</time>
      </trkpt>
      <trkpt lat="42.71154" lon="1.40398">
        <ele>1407.0268554688</ele>
        <time>2011-06-11T12:43:53Z</time>
      </trkpt>
      <trkpt lat="42.71153" lon="1.40399">
        <ele>1407.0268554688</ele>
        <time>2011-06-11T12:43:54Z</time>
      </trkpt>
      <trkpt lat="42.71145" lon="1.40402">
        <ele>1405.1042480469</ele>
        <time>2011-06-11T12:44:02Z</time>
      </trkpt>
      <trkpt lat="42.71144" lon="1.40411">
        <ele>1408.9494628906</ele>
        <time>2011-06-11T12:44:08Z</time>
      </trkpt>
      <trkpt lat="42.71142" lon="1.40421">
        <ele>1410.3913574219</ele>
        <time>2011-06-11T12:44:14Z</time>
      </trkpt>
      <trkpt lat="42.71141" lon="1.40427">
        <ele>1410.8720703125</ele>
        <time>2011-06-11T12:44:18Z</time>
      </trkpt>
      <trkpt lat="42.7114" lon="1.40432">
        <ele>1412.7946777344</ele>
        <time>2011-06-11T12:44:24Z</time>
      </trkpt>
      <trkpt lat="42.71139" lon="1.40439">
        <ele>1413.755859375</ele>
        <time>2011-06-11T12:44:28Z</time>
      </trkpt>
      <trkpt lat="42.71138" lon="1.40444">
        <ele>1414.2365722656</ele>
        <time>2011-06-11T12:44:32Z</time>
      </trkpt>
      <trkpt lat="42.71138" lon="1.40449">
        <ele>1415.6787109375</ele>
        <time>2011-06-11T12:44:35Z</time>
      </trkpt>
      <trkpt lat="42.71138" lon="1.40452">
        <ele>1416.1591796875</ele>
        <time>2011-06-11T12:44:37Z</time>
      </trkpt>
      <trkpt lat="42.71136" lon="1.40458">
        <ele>1417.6010742188</ele>
        <time>2011-06-11T12:44:43Z</time>
      </trkpt>
      <trkpt lat="42.71133" lon="1.40464">
        <ele>1419.0432128906</ele>
        <time>2011-06-11T12:44:48Z</time>
      </trkpt>
      <trkpt lat="42.71132" lon="1.40466">
        <ele>1420.0046386719</ele>
        <time>2011-06-11T12:44:50Z</time>
      </trkpt>
      <trkpt lat="42.71128" lon="1.40474">
        <ele>1421.4465332031</ele>
        <time>2011-06-11T12:44:55Z</time>
      </trkpt>
      <trkpt lat="42.71127" lon="1.4048">
        <ele>1422.888671875</ele>
        <time>2011-06-11T12:45:00Z</time>
      </trkpt>
      <trkpt lat="42.71127" lon="1.40485">
        <ele>1423.3693847656</ele>
        <time>2011-06-11T12:45:03Z</time>
      </trkpt>
      <trkpt lat="42.71125" lon="1.40492">
        <ele>1423.3693847656</ele>
        <time>2011-06-11T12:45:10Z</time>
      </trkpt>
      <trkpt lat="42.71124" lon="1.40496">
        <ele>1423.8498535156</ele>
        <time>2011-06-11T12:45:14Z</time>
      </trkpt>
      <trkpt lat="42.71122" lon="1.40502">
        <ele>1424.3305664062</ele>
        <time>2011-06-11T12:45:18Z</time>
      </trkpt>
      <trkpt lat="42.7112" lon="1.4051">
        <ele>1425.2917480469</ele>
        <time>2011-06-11T12:45:24Z</time>
      </trkpt>
      <trkpt lat="42.7112" lon="1.40516">
        <ele>1426.2531738281</ele>
        <time>2011-06-11T12:45:28Z</time>
      </trkpt>
      <trkpt lat="42.7112" lon="1.40518">
        <ele>1426.2531738281</ele>
        <time>2011-06-11T12:45:30Z</time>
      </trkpt>
      <trkpt lat="42.71117" lon="1.40524">
        <ele>1427.2145996094</ele>
        <time>2011-06-11T12:45:34Z</time>
      </trkpt>
      <trkpt lat="42.71116" lon="1.40527">
        <ele>1427.2145996094</ele>
        <time>2011-06-11T12:45:36Z</time>
      </trkpt>
      <trkpt lat="42.71118" lon="1.40538">
        <ele>1428.6564941406</ele>
        <time>2011-06-11T12:45:43Z</time>
      </trkpt>
      <trkpt lat="42.71119" lon="1.40542">
        <ele>1429.1369628906</ele>
        <time>2011-06-11T12:45:46Z</time>
      </trkpt>
      <trkpt lat="42.71118" lon="1.40549">
        <ele>1428.17578125</ele>
        <time>2011-06-11T12:45:52Z</time>
      </trkpt>
      <trkpt lat="42.71118" lon="1.40554">
        <ele>1428.17578125</ele>
        <time>2011-06-11T12:45:58Z</time>
      </trkpt>
      <trkpt lat="42.71119" lon="1.40559">
        <ele>1427.6950683594</ele>
        <time>2011-06-11T12:46:02Z</time>
      </trkpt>
      <trkpt lat="42.7112" lon="1.40568">
        <ele>1426.7338867188</ele>
        <time>2011-06-11T12:46:08Z</time>
      </trkpt>
      <trkpt lat="42.71119" lon="1.4057">
        <ele>1426.2531738281</ele>
        <time>2011-06-11T12:46:10Z</time>
      </trkpt>
      <trkpt lat="42.71119" lon="1.40578">
        <ele>1428.6564941406</ele>
        <time>2011-06-11T12:46:14Z</time>
      </trkpt>
      <trkpt lat="42.7112" lon="1.40588">
        <ele>1429.1369628906</ele>
        <time>2011-06-11T12:46:21Z</time>
      </trkpt>
      <trkpt lat="42.71124" lon="1.40595">
        <ele>1429.6176757812</ele>
        <time>2011-06-11T12:46:26Z</time>
      </trkpt>
      <trkpt lat="42.71124" lon="1.40608">
        <ele>1430.0983886719</ele>
        <time>2011-06-11T12:46:35Z</time>
      </trkpt>
      <trkpt lat="42.71123" lon="1.40619">
        <ele>1429.1369628906</ele>
        <time>2011-06-11T12:46:42Z</time>
      </trkpt>
      <trkpt lat="42.71124" lon="1.4063">
        <ele>1427.6950683594</ele>
        <time>2011-06-11T12:46:49Z</time>
      </trkpt>
      <trkpt lat="42.71123" lon="1.40638">
        <ele>1427.2145996094</ele>
        <time>2011-06-11T12:46:54Z</time>
      </trkpt>
      <trkpt lat="42.71122" lon="1.40641">
        <ele>1426.7338867188</ele>
        <time>2011-06-11T12:46:57Z</time>
      </trkpt>
      <trkpt lat="42.71126" lon="1.40653">
        <ele>1424.8112792969</ele>
        <time>2011-06-11T12:47:03Z</time>
      </trkpt>
      <trkpt lat="42.71126" lon="1.40655">
        <ele>1423.8498535156</ele>
        <time>2011-06-11T12:47:04Z</time>
      </trkpt>
      <trkpt lat="42.71128" lon="1.40662">
        <ele>1422.888671875</ele>
        <time>2011-06-11T12:47:09Z</time>
      </trkpt>
      <trkpt lat="42.71129" lon="1.40665">
        <ele>1422.4079589844</ele>
        <time>2011-06-11T12:47:11Z</time>
      </trkpt>
      <trkpt lat="42.71131" lon="1.40672">
        <ele>1422.4079589844</ele>
        <time>2011-06-11T12:47:17Z</time>
      </trkpt>
      <trkpt lat="42.71133" lon="1.40678">
        <ele>1422.888671875</ele>
        <time>2011-06-11T12:47:21Z</time>
      </trkpt>
      <trkpt lat="42.71132" lon="1.40683">
        <ele>1422.888671875</ele>
        <time>2011-06-11T12:47:24Z</time>
      </trkpt>
      <trkpt lat="42.71134" lon="1.40687">
        <ele>1423.8498535156</ele>
        <time>2011-06-11T12:47:27Z</time>
      </trkpt>
      <trkpt lat="42.71136" lon="1.40693">
        <ele>1424.8112792969</ele>
        <time>2011-06-11T12:47:32Z</time>
      </trkpt>
      <trkpt lat="42.71136" lon="1.40702">
        <ele>1425.7724609375</ele>
        <time>2011-06-11T12:47:39Z</time>
      </trkpt>
      <trkpt lat="42.71137" lon="1.40707">
        <ele>1426.2531738281</ele>
        <time>2011-06-11T12:47:42Z</time>
      </trkpt>
      <trkpt lat="42.7114" lon="1.40715">
        <ele>1424.8112792969</ele>
        <time>2011-06-11T12:47:48Z</time>
      </trkpt>
      <trkpt lat="42.71138" lon="1.40721">
        <ele>1425.2917480469</ele>
        <time>2011-06-11T12:47:55Z</time>
      </trkpt>
      <trkpt lat="42.71138" lon="1.40723">
        <ele>1424.3305664062</ele>
        <time>2011-06-11T12:47:57Z</time>
      </trkpt>
      <trkpt lat="42.71144" lon="1.40732">
        <ele>1424.8112792969</ele>
        <time>2011-06-11T12:48:02Z</time>
      </trkpt>
      <trkpt lat="42.71149" lon="1.40737">
        <ele>1425.2917480469</ele>
        <time>2011-06-11T12:48:05Z</time>
      </trkpt>
      <trkpt lat="42.71154" lon="1.4074">
        <ele>1424.8112792969</ele>
        <time>2011-06-11T12:48:10Z</time>
      </trkpt>
      <trkpt lat="42.71154" lon="1.40742">
        <ele>1424.8112792969</ele>
        <time>2011-06-11T12:48:11Z</time>
      </trkpt>
      <trkpt lat="42.71157" lon="1.40747">
        <ele>1424.8112792969</ele>
        <time>2011-06-11T12:48:17Z</time>
      </trkpt>
      <trkpt lat="42.71161" lon="1.40756">
        <ele>1424.8112792969</ele>
        <time>2011-06-11T12:48:23Z</time>
      </trkpt>
      <trkpt lat="42.71164" lon="1.4076">
        <ele>1424.8112792969</ele>
        <time>2011-06-11T12:48:27Z</time>
      </trkpt>
      <trkpt lat="42.71164" lon="1.40763">
        <ele>1425.2917480469</ele>
        <time>2011-06-11T12:48:30Z</time>
      </trkpt>
      <trkpt lat="42.71169" lon="1.40772">
        <ele>1426.2531738281</ele>
        <time>2011-06-11T12:48:38Z</time>
      </trkpt>
      <trkpt lat="42.7117" lon="1.40775">
        <ele>1426.7338867188</ele>
        <time>2011-06-11T12:48:42Z</time>
      </trkpt>
      <trkpt lat="42.71174" lon="1.40782">
        <ele>1428.17578125</ele>
        <time>2011-06-11T12:48:48Z</time>
      </trkpt>
      <trkpt lat="42.71176" lon="1.40785">
        <ele>1429.6176757812</ele>
        <time>2011-06-11T12:48:51Z</time>
      </trkpt>
      <trkpt lat="42.71178" lon="1.40794">
        <ele>1431.0598144531</ele>
        <time>2011-06-11T12:48:56Z</time>
      </trkpt>
      <trkpt lat="42.71183" lon="1.40801">
        <ele>1432.5017089844</ele>
        <time>2011-06-11T12:49:01Z</time>
      </trkpt>
      <trkpt lat="42.71184" lon="1.40803">
        <ele>1432.5017089844</ele>
        <time>2011-06-11T12:49:02Z</time>
      </trkpt>
      <trkpt lat="42.71186" lon="1.40811">
        <ele>1430.5791015625</ele>
        <time>2011-06-11T12:49:07Z</time>
      </trkpt>
      <trkpt lat="42.71187" lon="1.40817">
        <ele>1428.6564941406</ele>
        <time>2011-06-11T12:49:11Z</time>
      </trkpt>
      <trkpt lat="42.71189" lon="1.40821">
        <ele>1427.6950683594</ele>
        <time>2011-06-11T12:49:14Z</time>
      </trkpt>
      <trkpt lat="42.71193" lon="1.40825">
        <ele>1426.7338867188</ele>
        <time>2011-06-11T12:49:17Z</time>
      </trkpt>
      <trkpt lat="42.71195" lon="1.40829">
        <ele>1426.7338867188</ele>
        <time>2011-06-11T12:49:20Z</time>
      </trkpt>
      <trkpt lat="42.71201" lon="1.40843">
        <ele>1426.2531738281</ele>
        <time>2011-06-11T12:49:26Z</time>
      </trkpt>
      <trkpt lat="42.71209" lon="1.40861">
        <ele>1425.7724609375</ele>
        <time>2011-06-11T12:49:32Z</time>
      </trkpt>
      <trkpt lat="42.71215" lon="1.40875">
        <ele>1424.3305664062</ele>
        <time>2011-06-11T12:49:38Z</time>
      </trkpt>
      <trkpt lat="42.71222" lon="1.40891">
        <ele>1423.3693847656</ele>
        <time>2011-06-11T12:49:43Z</time>
      </trkpt>
      <trkpt lat="42.71225" lon="1.40903">
        <ele>1422.4079589844</ele>
        <time>2011-06-11T12:49:46Z</time>
      </trkpt>
      <trkpt lat="42.71232" lon="1.40915">
        <ele>1422.888671875</ele>
        <time>2011-06-11T12:49:50Z</time>
      </trkpt>
      <trkpt lat="42.71233" lon="1.40922">
        <ele>1422.4079589844</ele>
        <time>2011-06-11T12:49:53Z</time>
      </trkpt>
      <trkpt lat="42.71239" lon="1.40938">
        <ele>1421.9272460938</ele>
        <time>2011-06-11T12:49:58Z</time>
      </trkpt>
      <trkpt lat="42.71243" lon="1.40947">
        <ele>1421.9272460938</ele>
        <time>2011-06-11T12:50:01Z</time>
      </trkpt>
      <trkpt lat="42.71249" lon="1.4096">
        <ele>1423.3693847656</ele>
        <time>2011-06-11T12:50:05Z</time>
      </trkpt>
      <trkpt lat="42.71251" lon="1.40963">
        <ele>1423.8498535156</ele>
        <time>2011-06-11T12:50:06Z</time>
      </trkpt>
      <trkpt lat="42.7125" lon="1.40981">
        <ele>1425.2917480469</ele>
        <time>2011-06-11T12:50:12Z</time>
      </trkpt>
      <trkpt lat="42.71254" lon="1.40993">
        <ele>1425.7724609375</ele>
        <time>2011-06-11T12:50:16Z</time>
      </trkpt>
      <trkpt lat="42.71259" lon="1.41003">
        <ele>1424.8112792969</ele>
        <time>2011-06-11T12:50:20Z</time>
      </trkpt>
      <trkpt lat="42.71265" lon="1.41018">
        <ele>1425.7724609375</ele>
        <time>2011-06-11T12:50:24Z</time>
      </trkpt>
      <trkpt lat="42.71266" lon="1.41023">
        <ele>1427.2145996094</ele>
        <time>2011-06-11T12:50:25Z</time>
      </trkpt>
      <trkpt lat="42.71262" lon="1.41028">
        <ele>1423.3693847656</ele>
        <time>2011-06-11T12:50:30Z</time>
      </trkpt>
      <trkpt lat="42.71259" lon="1.41031">
        <ele>1426.2531738281</ele>
        <time>2011-06-11T12:50:33Z</time>
      </trkpt>
      <trkpt lat="42.71253" lon="1.41036">
        <ele>1433.9436035156</ele>
        <time>2011-06-11T12:50:37Z</time>
      </trkpt>
      <trkpt lat="42.71246" lon="1.41039">
        <ele>1424.8112792969</ele>
        <time>2011-06-11T12:50:44Z</time>
      </trkpt>
      <trkpt lat="42.71243" lon="1.41042">
        <ele>1419.5239257812</ele>
        <time>2011-06-11T12:50:48Z</time>
      </trkpt>
      <trkpt lat="42.71239" lon="1.41051">
        <ele>1416.6398925781</ele>
        <time>2011-06-11T12:50:52Z</time>
      </trkpt>
      <trkpt lat="42.71236" lon="1.41065">
        <ele>1411.8334960938</ele>
        <time>2011-06-11T12:50:57Z</time>
      </trkpt>
      <trkpt lat="42.71236" lon="1.41071">
        <ele>1411.3527832031</ele>
        <time>2011-06-11T12:50:59Z</time>
      </trkpt>
      <trkpt lat="42.71239" lon="1.41087">
        <ele>1410.8720703125</ele>
        <time>2011-06-11T12:51:05Z</time>
      </trkpt>
      <trkpt lat="42.7124" lon="1.41091">
        <ele>1411.8334960938</ele>
        <time>2011-06-11T12:51:07Z</time>
      </trkpt>
      <trkpt lat="42.71243" lon="1.41107">
        <ele>1413.755859375</ele>
        <time>2011-06-11T12:51:12Z</time>
      </trkpt>
      <trkpt lat="42.71243" lon="1.41114">
        <ele>1412.7946777344</ele>
        <time>2011-06-11T12:51:14Z</time>
      </trkpt>
      <trkpt lat="42.71244" lon="1.41129">
        <ele>1413.275390625</ele>
        <time>2011-06-11T12:51:18Z</time>
      </trkpt>
      <trkpt lat="42.71246" lon="1.41146">
        <ele>1409.9106445312</ele>
        <time>2011-06-11T12:51:24Z</time>
      </trkpt>
      <trkpt lat="42.71249" lon="1.41156">
        <ele>1410.8720703125</ele>
        <time>2011-06-11T12:51:27Z</time>
      </trkpt>
      <trkpt lat="42.71256" lon="1.41164">
        <ele>1409.4301757812</ele>
        <time>2011-06-11T12:51:32Z</time>
      </trkpt>
      <trkpt lat="42.71263" lon="1.41171">
        <ele>1411.8334960938</ele>
        <time>2011-06-11T12:51:35Z</time>
      </trkpt>
      <trkpt lat="42.71265" lon="1.41173">
        <ele>1412.7946777344</ele>
        <time>2011-06-11T12:51:36Z</time>
      </trkpt>
      <trkpt lat="42.71265" lon="1.41181">
        <ele>1423.3693847656</ele>
        <time>2011-06-11T12:51:42Z</time>
      </trkpt>
      <trkpt lat="42.71264" lon="1.41182">
        <ele>1424.3305664062</ele>
        <time>2011-06-11T12:51:44Z</time>
      </trkpt>
      <trkpt lat="42.71256" lon="1.41189">
        <ele>1421.9272460938</ele>
        <time>2011-06-11T12:51:49Z</time>
      </trkpt>
      <trkpt lat="42.7125" lon="1.41193">
        <ele>1420.4853515625</ele>
        <time>2011-06-11T12:51:52Z</time>
      </trkpt>
      <trkpt lat="42.71239" lon="1.41193">
        <ele>1419.0432128906</ele>
        <time>2011-06-11T12:51:56Z</time>
      </trkpt>
      <trkpt lat="42.71225" lon="1.41199">
        <ele>1425.7724609375</ele>
        <time>2011-06-11T12:52:01Z</time>
      </trkpt>
      <trkpt lat="42.71218" lon="1.41206">
        <ele>1420.0046386719</ele>
        <time>2011-06-11T12:52:05Z</time>
      </trkpt>
      <trkpt lat="42.71211" lon="1.41215">
        <ele>1416.6398925781</ele>
        <time>2011-06-11T12:52:10Z</time>
      </trkpt>
      <trkpt lat="42.71215" lon="1.41234">
        <ele>1409.9106445312</ele>
        <time>2011-06-11T12:52:15Z</time>
      </trkpt>
      <trkpt lat="42.71214" lon="1.41239">
        <ele>1408.46875</ele>
        <time>2011-06-11T12:52:18Z</time>
      </trkpt>
      <trkpt lat="42.71206" lon="1.41244">
        <ele>1406.0654296875</ele>
        <time>2011-06-11T12:52:25Z</time>
      </trkpt>
      <trkpt lat="42.71199" lon="1.41257">
        <ele>1405.1042480469</ele>
        <time>2011-06-11T12:52:30Z</time>
      </trkpt>
      <trkpt lat="42.71194" lon="1.41272">
        <ele>1402.7006835938</ele>
        <time>2011-06-11T12:52:35Z</time>
      </trkpt>
      <trkpt lat="42.71188" lon="1.41291">
        <ele>1398.85546875</ele>
        <time>2011-06-11T12:52:41Z</time>
      </trkpt>
      <trkpt lat="42.71185" lon="1.41309">
        <ele>1404.1430664062</ele>
        <time>2011-06-11T12:52:46Z</time>
      </trkpt>
      <trkpt lat="42.7118" lon="1.41323">
        <ele>1404.1430664062</ele>
        <time>2011-06-11T12:52:51Z</time>
      </trkpt>
      <trkpt lat="42.71178" lon="1.41335">
        <ele>1407.5075683594</ele>
        <time>2011-06-11T12:52:55Z</time>
      </trkpt>
      <trkpt lat="42.71177" lon="1.41344">
        <ele>1408.46875</ele>
        <time>2011-06-11T12:52:59Z</time>
      </trkpt>
      <trkpt lat="42.71179" lon="1.41353">
        <ele>1409.4301757812</ele>
        <time>2011-06-11T12:53:04Z</time>
      </trkpt>
      <trkpt lat="42.7118" lon="1.41362">
        <ele>1404.6235351562</ele>
        <time>2011-06-11T12:53:09Z</time>
      </trkpt>
      <trkpt lat="42.71178" lon="1.41372">
        <ele>1407.0268554688</ele>
        <time>2011-06-11T12:53:14Z</time>
      </trkpt>
      <trkpt lat="42.71177" lon="1.41386">
        <ele>1409.4301757812</ele>
        <time>2011-06-11T12:53:20Z</time>
      </trkpt>
      <trkpt lat="42.71174" lon="1.41397">
        <ele>1402.2199707031</ele>
        <time>2011-06-11T12:53:25Z</time>
      </trkpt>
      <trkpt lat="42.71171" lon="1.41411">
        <ele>1398.85546875</ele>
        <time>2011-06-11T12:53:31Z</time>
      </trkpt>
      <trkpt lat="42.71165" lon="1.41428">
        <ele>1397.8942871094</ele>
        <time>2011-06-11T12:53:37Z</time>
      </trkpt>
      <trkpt lat="42.71157" lon="1.41442">
        <ele>1396.4523925781</ele>
        <time>2011-06-11T12:53:42Z</time>
      </trkpt>
      <trkpt lat="42.71152" lon="1.41456">
        <ele>1397.4135742188</ele>
        <time>2011-06-11T12:53:46Z</time>
      </trkpt>
      <trkpt lat="42.71149" lon="1.41473">
        <ele>1391.1650390625</ele>
        <time>2011-06-11T12:53:51Z</time>
      </trkpt>
      <trkpt lat="42.71146" lon="1.41495">
        <ele>1387.3195800781</ele>
        <time>2011-06-11T12:53:57Z</time>
      </trkpt>
      <trkpt lat="42.71146" lon="1.41501">
        <ele>1385.8776855469</ele>
        <time>2011-06-11T12:53:59Z</time>
      </trkpt>
      <trkpt lat="42.71153" lon="1.41525">
        <ele>1384.9165039062</ele>
        <time>2011-06-11T12:54:05Z</time>
      </trkpt>
      <trkpt lat="42.71153" lon="1.41541">
        <ele>1385.8776855469</ele>
        <time>2011-06-11T12:54:09Z</time>
      </trkpt>
      <trkpt lat="42.71154" lon="1.41545">
        <ele>1386.8388671875</ele>
        <time>2011-06-11T12:54:10Z</time>
      </trkpt>
      <trkpt lat="42.71153" lon="1.41565">
        <ele>1388.7619628906</ele>
        <time>2011-06-11T12:54:15Z</time>
      </trkpt>
      <trkpt lat="42.71152" lon="1.41567">
        <ele>1387.8002929688</ele>
        <time>2011-06-11T12:54:16Z</time>
      </trkpt>
      <trkpt lat="42.71161" lon="1.41579">
        <ele>1382.9936523438</ele>
        <time>2011-06-11T12:54:21Z</time>
      </trkpt>
      <trkpt lat="42.71163" lon="1.41585">
        <ele>1381.5517578125</ele>
        <time>2011-06-11T12:54:24Z</time>
      </trkpt>
      <trkpt lat="42.71157" lon="1.41598">
        <ele>1381.5517578125</ele>
        <time>2011-06-11T12:54:29Z</time>
      </trkpt>
      <trkpt lat="42.71156" lon="1.416">
        <ele>1381.5517578125</ele>
        <time>2011-06-11T12:54:30Z</time>
      </trkpt>
      <trkpt lat="42.71151" lon="1.41606">
        <ele>1382.0324707031</ele>
        <time>2011-06-11T12:54:34Z</time>
      </trkpt>
      <trkpt lat="42.71148" lon="1.41612">
        <ele>1379.1484375</ele>
        <time>2011-06-11T12:54:38Z</time>
      </trkpt>
      <trkpt lat="42.71145" lon="1.41624">
        <ele>1374.3420410156</ele>
        <time>2011-06-11T12:54:44Z</time>
      </trkpt>
      <trkpt lat="42.71147" lon="1.4164">
        <ele>1370.0158691406</ele>
        <time>2011-06-11T12:54:49Z</time>
      </trkpt>
      <trkpt lat="42.71148" lon="1.41659">
        <ele>1366.1706542969</ele>
        <time>2011-06-11T12:54:54Z</time>
      </trkpt>
      <trkpt lat="42.71149" lon="1.41662">
        <ele>1365.2094726562</ele>
        <time>2011-06-11T12:54:55Z</time>
      </trkpt>
      <trkpt lat="42.71148" lon="1.41686">
        <ele>1364.248046875</ele>
        <time>2011-06-11T12:55:01Z</time>
      </trkpt>
      <trkpt lat="42.71148" lon="1.41689">
        <ele>1364.7287597656</ele>
        <time>2011-06-11T12:55:02Z</time>
      </trkpt>
      <trkpt lat="42.71143" lon="1.41706">
        <ele>1362.3254394531</ele>
        <time>2011-06-11T12:55:08Z</time>
      </trkpt>
      <trkpt lat="42.7114" lon="1.41722">
        <ele>1362.3254394531</ele>
        <time>2011-06-11T12:55:14Z</time>
      </trkpt>
      <trkpt lat="42.71136" lon="1.41732">
        <ele>1360.8835449219</ele>
        <time>2011-06-11T12:55:20Z</time>
      </trkpt>
      <trkpt lat="42.71132" lon="1.41739">
        <ele>1359.9221191406</ele>
        <time>2011-06-11T12:55:24Z</time>
      </trkpt>
      <trkpt lat="42.7113" lon="1.41744">
        <ele>1358.4802246094</ele>
        <time>2011-06-11T12:55:27Z</time>
      </trkpt>
      <trkpt lat="42.71128" lon="1.41751">
        <ele>1357.5190429688</ele>
        <time>2011-06-11T12:55:31Z</time>
      </trkpt>
      <trkpt lat="42.71124" lon="1.41757">
        <ele>1356.5576171875</ele>
        <time>2011-06-11T12:55:35Z</time>
      </trkpt>
      <trkpt lat="42.71123" lon="1.4176">
        <ele>1357.0383300781</ele>
        <time>2011-06-11T12:55:37Z</time>
      </trkpt>
      <trkpt lat="42.71121" lon="1.41768">
        <ele>1357.0383300781</ele>
        <time>2011-06-11T12:55:41Z</time>
      </trkpt>
      <trkpt lat="42.7112" lon="1.4177">
        <ele>1357.0383300781</ele>
        <time>2011-06-11T12:55:42Z</time>
      </trkpt>
      <trkpt lat="42.7112" lon="1.41776">
        <ele>1356.0769042969</ele>
        <time>2011-06-11T12:55:45Z</time>
      </trkpt>
      <trkpt lat="42.71118" lon="1.41789">
        <ele>1355.5961914062</ele>
        <time>2011-06-11T12:55:51Z</time>
      </trkpt>
      <trkpt lat="42.71117" lon="1.4179">
        <ele>1353.1928710938</ele>
        <time>2011-06-11T12:55:55Z</time>
      </trkpt>
      <trkpt lat="42.71114" lon="1.41797">
        <ele>1351.7509765625</ele>
        <time>2011-06-11T12:56:00Z</time>
      </trkpt>
      <trkpt lat="42.71111" lon="1.41801">
        <ele>1349.34765625</ele>
        <time>2011-06-11T12:56:04Z</time>
      </trkpt>
      <trkpt lat="42.71109" lon="1.41807">
        <ele>1347.4250488281</ele>
        <time>2011-06-11T12:56:11Z</time>
      </trkpt>
      <trkpt lat="42.71108" lon="1.41814">
        <ele>1346.9443359375</ele>
        <time>2011-06-11T12:56:16Z</time>
      </trkpt>
      <trkpt lat="42.71107" lon="1.41816">
        <ele>1343.0991210938</ele>
        <time>2011-06-11T12:56:23Z</time>
      </trkpt>
      <trkpt lat="42.71105" lon="1.41822">
        <ele>1343.0991210938</ele>
        <time>2011-06-11T12:56:28Z</time>
      </trkpt>
      <trkpt lat="42.71104" lon="1.41825">
        <ele>1341.6572265625</ele>
        <time>2011-06-11T12:56:30Z</time>
      </trkpt>
      <trkpt lat="42.71103" lon="1.4183">
        <ele>1341.6572265625</ele>
        <time>2011-06-11T12:56:33Z</time>
      </trkpt>
      <trkpt lat="42.71096" lon="1.41839">
        <ele>1340.2153320312</ele>
        <time>2011-06-11T12:56:38Z</time>
      </trkpt>
      <trkpt lat="42.71094" lon="1.41843">
        <ele>1339.2536621094</ele>
        <time>2011-06-11T12:56:40Z</time>
      </trkpt>
      <trkpt lat="42.71091" lon="1.41853">
        <ele>1338.7731933594</ele>
        <time>2011-06-11T12:56:46Z</time>
      </trkpt>
      <trkpt lat="42.71091" lon="1.4186">
        <ele>1339.2536621094</ele>
        <time>2011-06-11T12:56:51Z</time>
      </trkpt>
      <trkpt lat="42.7109" lon="1.41866">
        <ele>1342.6186523438</ele>
        <time>2011-06-11T12:56:55Z</time>
      </trkpt>
      <trkpt lat="42.71089" lon="1.41881">
        <ele>1349.34765625</ele>
        <time>2011-06-11T12:57:01Z</time>
      </trkpt>
      <trkpt lat="42.71089" lon="1.41883">
        <ele>1349.34765625</ele>
        <time>2011-06-11T12:57:02Z</time>
      </trkpt>
      <trkpt lat="42.71086" lon="1.4189">
        <ele>1342.6186523438</ele>
        <time>2011-06-11T12:57:08Z</time>
      </trkpt>
      <trkpt lat="42.71082" lon="1.4189">
        <ele>1335.4084472656</ele>
        <time>2011-06-11T12:57:12Z</time>
      </trkpt>
      <trkpt lat="42.71077" lon="1.41894">
        <ele>1328.6794433594</ele>
        <time>2011-06-11T12:57:17Z</time>
      </trkpt>
      <trkpt lat="42.71076" lon="1.41895">
        <ele>1327.7180175781</ele>
        <time>2011-06-11T12:57:18Z</time>
      </trkpt>
      <trkpt lat="42.71071" lon="1.41906">
        <ele>1324.353515625</ele>
        <time>2011-06-11T12:57:23Z</time>
      </trkpt>
      <trkpt lat="42.71073" lon="1.41912">
        <ele>1323.8725585938</ele>
        <time>2011-06-11T12:57:25Z</time>
      </trkpt>
      <trkpt lat="42.71073" lon="1.41931">
        <ele>1329.1599121094</ele>
        <time>2011-06-11T12:57:31Z</time>
      </trkpt>
      <trkpt lat="42.71072" lon="1.41941">
        <ele>1323.8725585938</ele>
        <time>2011-06-11T12:57:35Z</time>
      </trkpt>
      <trkpt lat="42.71071" lon="1.41952">
        <ele>1320.9887695312</ele>
        <time>2011-06-11T12:57:40Z</time>
      </trkpt>
      <trkpt lat="42.71069" lon="1.41969">
        <ele>1319.546875</ele>
        <time>2011-06-11T12:57:45Z</time>
      </trkpt>
      <trkpt lat="42.71064" lon="1.41983">
        <ele>1314.2595214844</ele>
        <time>2011-06-11T12:57:50Z</time>
      </trkpt>
      <trkpt lat="42.7106" lon="1.41998">
        <ele>1310.4143066406</ele>
        <time>2011-06-11T12:57:56Z</time>
      </trkpt>
      <trkpt lat="42.71058" lon="1.4201">
        <ele>1308.0112304688</ele>
        <time>2011-06-11T12:58:00Z</time>
      </trkpt>
      <trkpt lat="42.71057" lon="1.42012">
        <ele>1305.6076660156</ele>
        <time>2011-06-11T12:58:02Z</time>
      </trkpt>
      <trkpt lat="42.71056" lon="1.42021">
        <ele>1301.7624511719</ele>
        <time>2011-06-11T12:58:07Z</time>
      </trkpt>
      <trkpt lat="42.71054" lon="1.4203">
        <ele>1303.6850585938</ele>
        <time>2011-06-11T12:58:13Z</time>
      </trkpt>
      <trkpt lat="42.71051" lon="1.42043">
        <ele>1301.7624511719</ele>
        <time>2011-06-11T12:58:18Z</time>
      </trkpt>
      <trkpt lat="42.71046" lon="1.42058">
        <ele>1295.5139160156</ele>
        <time>2011-06-11T12:58:24Z</time>
      </trkpt>
      <trkpt lat="42.71042" lon="1.42075">
        <ele>1289.2651367188</ele>
        <time>2011-06-11T12:58:30Z</time>
      </trkpt>
      <trkpt lat="42.7104" lon="1.42084">
        <ele>1286.3813476562</ele>
        <time>2011-06-11T12:58:34Z</time>
      </trkpt>
      <trkpt lat="42.7104" lon="1.4209">
        <ele>1286.8618164062</ele>
        <time>2011-06-11T12:58:37Z</time>
      </trkpt>
      <trkpt lat="42.71041" lon="1.42092">
        <ele>1286.3813476562</ele>
        <time>2011-06-11T12:58:38Z</time>
      </trkpt>
      <trkpt lat="42.71039" lon="1.42098">
        <ele>1282.0554199219</ele>
        <time>2011-06-11T12:58:44Z</time>
      </trkpt>
      <trkpt lat="42.71041" lon="1.4211">
        <ele>1279.1713867188</ele>
        <time>2011-06-11T12:58:48Z</time>
      </trkpt>
      <trkpt lat="42.71041" lon="1.42113">
        <ele>1279.6520996094</ele>
        <time>2011-06-11T12:58:49Z</time>
      </trkpt>
      <trkpt lat="42.71041" lon="1.42122">
        <ele>1277.2490234375</ele>
        <time>2011-06-11T12:58:53Z</time>
      </trkpt>
      <trkpt lat="42.71042" lon="1.42134">
        <ele>1273.8840332031</ele>
        <time>2011-06-11T12:58:57Z</time>
      </trkpt>
      <trkpt lat="42.7104" lon="1.42153">
        <ele>1271.4807128906</ele>
        <time>2011-06-11T12:59:03Z</time>
      </trkpt>
      <trkpt lat="42.71032" lon="1.42164">
        <ele>1268.5969238281</ele>
        <time>2011-06-11T12:59:08Z</time>
      </trkpt>
      <trkpt lat="42.71029" lon="1.42171">
        <ele>1263.7902832031</ele>
        <time>2011-06-11T12:59:15Z</time>
      </trkpt>
      <trkpt lat="42.71025" lon="1.42176">
        <ele>1255.619140625</ele>
        <time>2011-06-11T12:59:22Z</time>
      </trkpt>
      <trkpt lat="42.71024" lon="1.42179">
        <ele>1253.6965332031</ele>
        <time>2011-06-11T12:59:24Z</time>
      </trkpt>
      <trkpt lat="42.71023" lon="1.42188">
        <ele>1252.7351074219</ele>
        <time>2011-06-11T12:59:29Z</time>
      </trkpt>
      <trkpt lat="42.71022" lon="1.42201">
        <ele>1247.9287109375</ele>
        <time>2011-06-11T12:59:35Z</time>
      </trkpt>
      <trkpt lat="42.71017" lon="1.42214">
        <ele>1244.5639648438</ele>
        <time>2011-06-11T12:59:41Z</time>
      </trkpt>
      <trkpt lat="42.71014" lon="1.42228">
        <ele>1241.19921875</ele>
        <time>2011-06-11T12:59:47Z</time>
      </trkpt>
      <trkpt lat="42.71012" lon="1.42236">
        <ele>1240.7185058594</ele>
        <time>2011-06-11T12:59:50Z</time>
      </trkpt>
      <trkpt lat="42.71011" lon="1.42247">
        <ele>1238.3154296875</ele>
        <time>2011-06-11T12:59:55Z</time>
      </trkpt>
      <trkpt lat="42.7101" lon="1.42254">
        <ele>1238.7961425781</ele>
        <time>2011-06-11T12:59:59Z</time>
      </trkpt>
      <trkpt lat="42.7101" lon="1.42265">
        <ele>1234.9509277344</ele>
        <time>2011-06-11T13:00:04Z</time>
      </trkpt>
      <trkpt lat="42.71008" lon="1.42274">
        <ele>1230.625</ele>
        <time>2011-06-11T13:00:09Z</time>
      </trkpt>
      <trkpt lat="42.71009" lon="1.42284">
        <ele>1225.3374023438</ele>
        <time>2011-06-11T13:00:14Z</time>
      </trkpt>
      <trkpt lat="42.71009" lon="1.42286">
        <ele>1224.3762207031</ele>
        <time>2011-06-11T13:00:15Z</time>
      </trkpt>
      <trkpt lat="42.71013" lon="1.42294">
        <ele>1221.9729003906</ele>
        <time>2011-06-11T13:00:20Z</time>
      </trkpt>
      <trkpt lat="42.71014" lon="1.42297">
        <ele>1221.01171875</ele>
        <time>2011-06-11T13:00:22Z</time>
      </trkpt>
      <trkpt lat="42.71017" lon="1.42301">
        <ele>1219.0891113281</ele>
        <time>2011-06-11T13:00:25Z</time>
      </trkpt>
      <trkpt lat="42.71021" lon="1.42305">
        <ele>1218.6083984375</ele>
        <time>2011-06-11T13:00:28Z</time>
      </trkpt>
      <trkpt lat="42.71024" lon="1.42307">
        <ele>1218.1276855469</ele>
        <time>2011-06-11T13:00:31Z</time>
      </trkpt>
      <trkpt lat="42.71022" lon="1.42311">
        <ele>1216.6857910156</ele>
        <time>2011-06-11T13:00:36Z</time>
      </trkpt>
      <trkpt lat="42.71016" lon="1.42308">
        <ele>1216.6857910156</ele>
        <time>2011-06-11T13:00:42Z</time>
      </trkpt>
      <trkpt lat="42.71014" lon="1.42308">
        <ele>1218.1276855469</ele>
        <time>2011-06-11T13:00:44Z</time>
      </trkpt>
      <trkpt lat="42.71011" lon="1.42308">
        <ele>1219.0891113281</ele>
        <time>2011-06-11T13:00:47Z</time>
      </trkpt>
      <trkpt lat="42.71004" lon="1.42303">
        <ele>1218.1276855469</ele>
        <time>2011-06-11T13:00:53Z</time>
      </trkpt>
      <trkpt lat="42.71" lon="1.42297">
        <ele>1218.1276855469</ele>
        <time>2011-06-11T13:00:57Z</time>
      </trkpt>
      <trkpt lat="42.70994" lon="1.42282">
        <ele>1218.1276855469</ele>
        <time>2011-06-11T13:01:02Z</time>
      </trkpt>
      <trkpt lat="42.70988" lon="1.4227">
        <ele>1219.5698242188</ele>
        <time>2011-06-11T13:01:06Z</time>
      </trkpt>
      <trkpt lat="42.70988" lon="1.42268">
        <ele>1227.2602539062</ele>
        <time>2011-06-11T13:01:11Z</time>
      </trkpt>
      <trkpt lat="42.70987" lon="1.4226">
        <ele>1229.1828613281</ele>
        <time>2011-06-11T13:01:16Z</time>
      </trkpt>
      <trkpt lat="42.70988" lon="1.42254">
        <ele>1234.9509277344</ele>
        <time>2011-06-11T13:01:21Z</time>
      </trkpt>
      <trkpt lat="42.70988" lon="1.42246">
        <ele>1232.0668945312</ele>
        <time>2011-06-11T13:01:26Z</time>
      </trkpt>
      <trkpt lat="42.7099" lon="1.42239">
        <ele>1232.0668945312</ele>
        <time>2011-06-11T13:01:30Z</time>
      </trkpt>
      <trkpt lat="42.70987" lon="1.4223">
        <ele>1234.9509277344</ele>
        <time>2011-06-11T13:01:35Z</time>
      </trkpt>
      <trkpt lat="42.70988" lon="1.42222">
        <ele>1234.4702148438</ele>
        <time>2011-06-11T13:01:39Z</time>
      </trkpt>
      <trkpt lat="42.70985" lon="1.42211">
        <ele>1234.9509277344</ele>
        <time>2011-06-11T13:01:43Z</time>
      </trkpt>
      <trkpt lat="42.7098" lon="1.42191">
        <ele>1236.8732910156</ele>
        <time>2011-06-11T13:01:49Z</time>
      </trkpt>
      <trkpt lat="42.70976" lon="1.42174">
        <ele>1234.9509277344</ele>
        <time>2011-06-11T13:01:55Z</time>
      </trkpt>
      <trkpt lat="42.70975" lon="1.42172">
        <ele>1234.4702148438</ele>
        <time>2011-06-11T13:01:56Z</time>
      </trkpt>
      <trkpt lat="42.70977" lon="1.4217">
        <ele>1234.4702148438</ele>
        <time>2011-06-11T13:01:58Z</time>
      </trkpt>
      <trkpt lat="42.70974" lon="1.42159">
        <ele>1229.1828613281</ele>
        <time>2011-06-11T13:02:03Z</time>
      </trkpt>
      <trkpt lat="42.70972" lon="1.42157">
        <ele>1228.7023925781</ele>
        <time>2011-06-11T13:02:04Z</time>
      </trkpt>
      <trkpt lat="42.70964" lon="1.42143">
        <ele>1225.3374023438</ele>
        <time>2011-06-11T13:02:08Z</time>
      </trkpt>
      <trkpt lat="42.70953" lon="1.42128">
        <ele>1222.4536132812</ele>
        <time>2011-06-11T13:02:13Z</time>
      </trkpt>
      <trkpt lat="42.70939" lon="1.42111">
        <ele>1216.205078125</ele>
        <time>2011-06-11T13:02:18Z</time>
      </trkpt>
      <trkpt lat="42.70934" lon="1.42102">
        <ele>1213.3212890625</ele>
        <time>2011-06-11T13:02:23Z</time>
      </trkpt>
      <trkpt lat="42.7093" lon="1.42098">
        <ele>1212.3598632812</ele>
        <time>2011-06-11T13:02:28Z</time>
      </trkpt>
      <trkpt lat="42.70932" lon="1.42102">
        <ele>1205.6306152344</ele>
        <time>2011-06-11T13:02:34Z</time>
      </trkpt>
      <trkpt lat="42.70933" lon="1.42104">
        <ele>1205.6306152344</ele>
        <time>2011-06-11T13:02:35Z</time>
      </trkpt>
      <trkpt lat="42.70934" lon="1.42113">
        <ele>1208.0339355469</ele>
        <time>2011-06-11T13:02:40Z</time>
      </trkpt>
      <trkpt lat="42.70937" lon="1.42125">
        <ele>1213.3212890625</ele>
        <time>2011-06-11T13:02:45Z</time>
      </trkpt>
      <trkpt lat="42.70938" lon="1.42131">
        <ele>1216.205078125</ele>
        <time>2011-06-11T13:02:47Z</time>
      </trkpt>
      <trkpt lat="42.70942" lon="1.4215">
        <ele>1223.4150390625</ele>
        <time>2011-06-11T13:02:52Z</time>
      </trkpt>
      <trkpt lat="42.70942" lon="1.42153">
        <ele>1222.4536132812</ele>
        <time>2011-06-11T13:02:53Z</time>
      </trkpt>
      <trkpt lat="42.70943" lon="1.42159">
        <ele>1220.5310058594</ele>
        <time>2011-06-11T13:02:55Z</time>
      </trkpt>
      <trkpt lat="42.70946" lon="1.42171">
        <ele>1213.3212890625</ele>
        <time>2011-06-11T13:03:00Z</time>
      </trkpt>
      <trkpt lat="42.70949" lon="1.42178">
        <ele>1205.6306152344</ele>
        <time>2011-06-11T13:03:03Z</time>
      </trkpt>
      <trkpt lat="42.70953" lon="1.42192">
        <ele>1196.4982910156</ele>
        <time>2011-06-11T13:03:08Z</time>
      </trkpt>
      <trkpt lat="42.70954" lon="1.42195">
        <ele>1195.0559082031</ele>
        <time>2011-06-11T13:03:09Z</time>
      </trkpt>
      <trkpt lat="42.70956" lon="1.4221">
        <ele>1193.6140136719</ele>
        <time>2011-06-11T13:03:14Z</time>
      </trkpt>
      <trkpt lat="42.70956" lon="1.42212">
        <ele>1192.6528320312</ele>
        <time>2011-06-11T13:03:15Z</time>
      </trkpt>
      <trkpt lat="42.70957" lon="1.4222">
        <ele>1190.7299804688</ele>
        <time>2011-06-11T13:03:19Z</time>
      </trkpt>
      <trkpt lat="42.7096" lon="1.42229">
        <ele>1192.1721191406</ele>
        <time>2011-06-11T13:03:23Z</time>
      </trkpt>
      <trkpt lat="42.70963" lon="1.42241">
        <ele>1197.4594726562</ele>
        <time>2011-06-11T13:03:28Z</time>
      </trkpt>
      <trkpt lat="42.70967" lon="1.42252">
        <ele>1203.2272949219</ele>
        <time>2011-06-11T13:03:33Z</time>
      </trkpt>
      <trkpt lat="42.70971" lon="1.42267">
        <ele>1211.8791503906</ele>
        <time>2011-06-11T13:03:40Z</time>
      </trkpt>
      <trkpt lat="42.70972" lon="1.42285">
        <ele>1224.8569335938</ele>
        <time>2011-06-11T13:03:47Z</time>
      </trkpt>
      <trkpt lat="42.70972" lon="1.42288">
        <ele>1222.4536132812</ele>
        <time>2011-06-11T13:03:49Z</time>
      </trkpt>
      <trkpt lat="42.70972" lon="1.4229">
        <ele>1220.0502929688</ele>
        <time>2011-06-11T13:03:51Z</time>
      </trkpt>
      <trkpt lat="42.70974" lon="1.42298">
        <ele>1221.01171875</ele>
        <time>2011-06-11T13:03:55Z</time>
      </trkpt>
      <trkpt lat="42.70973" lon="1.42301">
        <ele>1218.1276855469</ele>
        <time>2011-06-11T13:03:57Z</time>
      </trkpt>
      <trkpt lat="42.70973" lon="1.42306">
        <ele>1213.3212890625</ele>
        <time>2011-06-11T13:04:01Z</time>
      </trkpt>
      <trkpt lat="42.70974" lon="1.42314">
        <ele>1202.2658691406</ele>
        <time>2011-06-11T13:04:07Z</time>
      </trkpt>
      <trkpt lat="42.70977" lon="1.42327">
        <ele>1201.7854003906</ele>
        <time>2011-06-11T13:04:13Z</time>
      </trkpt>
      <trkpt lat="42.70979" lon="1.42335">
        <ele>1198.4206542969</ele>
        <time>2011-06-11T13:04:19Z</time>
      </trkpt>
      <trkpt lat="42.7098" lon="1.42345">
        <ele>1199.3820800781</ele>
        <time>2011-06-11T13:04:24Z</time>
      </trkpt>
      <trkpt lat="42.7098" lon="1.42347">
        <ele>1196.017578125</ele>
        <time>2011-06-11T13:04:27Z</time>
      </trkpt>
      <trkpt lat="42.70982" lon="1.42357">
        <ele>1196.4982910156</ele>
        <time>2011-06-11T13:04:34Z</time>
      </trkpt>
      <trkpt lat="42.70984" lon="1.4236">
        <ele>1198.9013671875</ele>
        <time>2011-06-11T13:04:35Z</time>
      </trkpt>
      <trkpt lat="42.70985" lon="1.42373">
        <ele>1200.3435058594</ele>
        <time>2011-06-11T13:04:42Z</time>
      </trkpt>
      <trkpt lat="42.70987" lon="1.42381">
        <ele>1200.3435058594</ele>
        <time>2011-06-11T13:04:46Z</time>
      </trkpt>
      <trkpt lat="42.7099" lon="1.4239">
        <ele>1191.69140625</ele>
        <time>2011-06-11T13:04:54Z</time>
      </trkpt>
      <trkpt lat="42.70995" lon="1.42404">
        <ele>1192.1721191406</ele>
        <time>2011-06-11T13:05:02Z</time>
      </trkpt>
      <trkpt lat="42.71001" lon="1.42418">
        <ele>1197.9401855469</ele>
        <time>2011-06-11T13:05:10Z</time>
      </trkpt>
      <trkpt lat="42.71003" lon="1.42429">
        <ele>1196.9787597656</ele>
        <time>2011-06-11T13:05:16Z</time>
      </trkpt>
      <trkpt lat="42.71006" lon="1.42439">
        <ele>1195.0559082031</ele>
        <time>2011-06-11T13:05:23Z</time>
      </trkpt>
      <trkpt lat="42.71006" lon="1.4244">
        <ele>1194.5751953125</ele>
        <time>2011-06-11T13:05:24Z</time>
      </trkpt>
      <trkpt lat="42.71007" lon="1.42444">
        <ele>1190.7299804688</ele>
        <time>2011-06-11T13:05:28Z</time>
      </trkpt>
      <trkpt lat="42.7101" lon="1.42456">
        <ele>1191.69140625</ele>
        <time>2011-06-11T13:05:34Z</time>
      </trkpt>
      <trkpt lat="42.71014" lon="1.42466">
        <ele>1188.3269042969</ele>
        <time>2011-06-11T13:05:41Z</time>
      </trkpt>
      <trkpt lat="42.71018" lon="1.42474">
        <ele>1186.404296875</ele>
        <time>2011-06-11T13:05:47Z</time>
      </trkpt>
      <trkpt lat="42.7102" lon="1.42479">
        <ele>1182.5590820312</ele>
        <time>2011-06-11T13:05:54Z</time>
      </trkpt>
      <trkpt lat="42.71016" lon="1.42481">
        <ele>1173.9069824219</ele>
        <time>2011-06-11T13:06:04Z</time>
      </trkpt>
      <trkpt lat="42.71012" lon="1.42494">
        <ele>1173.9069824219</ele>
        <time>2011-06-11T13:08:25Z</time>
      </trkpt>
      <trkpt lat="42.71013" lon="1.42494">
        <ele>1173.4265136719</ele>
        <time>2011-06-11T13:08:26Z</time>
      </trkpt>
      <trkpt lat="42.71019" lon="1.42499">
        <ele>1178.7136230469</ele>
        <time>2011-06-11T13:08:31Z</time>
      </trkpt>
      <trkpt lat="42.71027" lon="1.42509">
        <ele>1180.6364746094</ele>
        <time>2011-06-11T13:08:39Z</time>
      </trkpt>
      <trkpt lat="42.71032" lon="1.42517">
        <ele>1183.0395507812</ele>
        <time>2011-06-11T13:08:44Z</time>
      </trkpt>
      <trkpt lat="42.71039" lon="1.42526">
        <ele>1184.9624023438</ele>
        <time>2011-06-11T13:08:51Z</time>
      </trkpt>
      <trkpt lat="42.7104" lon="1.42527">
        <ele>1184.9624023438</ele>
        <time>2011-06-11T13:08:52Z</time>
      </trkpt>
      <trkpt lat="42.71044" lon="1.4254">
        <ele>1185.9235839844</ele>
        <time>2011-06-11T13:08:57Z</time>
      </trkpt>
      <trkpt lat="42.71044" lon="1.42546">
        <ele>1184.9624023438</ele>
        <time>2011-06-11T13:08:59Z</time>
      </trkpt>
      <trkpt lat="42.71048" lon="1.42565">
        <ele>1180.6364746094</ele>
        <time>2011-06-11T13:09:04Z</time>
      </trkpt>
      <trkpt lat="42.71053" lon="1.42581">
        <ele>1175.8295898438</ele>
        <time>2011-06-11T13:09:09Z</time>
      </trkpt>
      <trkpt lat="42.71054" lon="1.42596">
        <ele>1174.3876953125</ele>
        <time>2011-06-11T13:09:13Z</time>
      </trkpt>
      <trkpt lat="42.71049" lon="1.42593">
        <ele>1172.9458007812</ele>
        <time>2011-06-11T13:09:17Z</time>
      </trkpt>
      <trkpt lat="42.7104" lon="1.42574">
        <ele>1169.5812988281</ele>
        <time>2011-06-11T13:09:23Z</time>
      </trkpt>
      <trkpt lat="42.71032" lon="1.42564">
        <ele>1167.6584472656</ele>
        <time>2011-06-11T13:09:27Z</time>
      </trkpt>
      <trkpt lat="42.71028" lon="1.42561">
        <ele>1166.697265625</ele>
        <time>2011-06-11T13:09:29Z</time>
      </trkpt>
      <trkpt lat="42.71017" lon="1.42561">
        <ele>1165.7360839844</ele>
        <time>2011-06-11T13:09:34Z</time>
      </trkpt>
      <trkpt lat="42.71014" lon="1.42573">
        <ele>1164.2939453125</ele>
        <time>2011-06-11T13:09:42Z</time>
      </trkpt>
    </trkseg>
  </trk>
</gpx>